
Distance (Route):
Temperature : 6.6°C
Humidity : 79.8%
Pressure : 0hPa| Receiver | Frames | First received | Last received |
|---|---|---|---|
| OM5KV | 711 | 2026-09-05 23:23:07 | 2026-09-06 01:15:05 |
| PETON7-10 | 363 | 2026-09-05 23:21:00 | 2026-09-06 01:10:42 |
| POL2MAQ | 201 | 2026-09-05 23:24:44 | 2026-09-06 01:06:29 |
| OE5MMP-10 | 185 | 2026-09-06 00:12:43 | 2026-09-06 00:54:01 |
| OE5DRO-10 | 178 | 2026-09-05 23:37:15 | 2026-09-06 01:03:06 |
| OE3MUC-15 | 165 | 2026-09-05 23:24:10 | 2026-09-06 00:47:21 |
| PG1ADW-2 | 158 | 2026-09-05 23:41:52 | 2026-09-06 01:01:50 |
| DO3MHA-11 | 156 | 2026-09-06 00:06:56 | 2026-09-06 00:54:33 |
| OE3OSB-13 | 155 | 2026-09-05 23:25:02 | 2026-09-06 01:11:11 |
| HA6NAB-11 | 148 | 2026-09-05 23:40:58 | 2026-09-06 01:12:06 |
| OE5DXL-15 | 109 | 2026-09-05 23:40:54 | 2026-09-06 01:01:15 |
| OE3JTB-15 | 97 | 2026-09-05 23:19:49 | 2026-09-06 01:14:11 |
| GYPAP8-17 | 36 | 2026-09-05 23:51:19 | 2026-09-06 01:04:54 |
| S52SK | 21 | 2026-09-05 23:39:45 | 2026-09-06 01:07:44 |
| SP3BTT-10 | 11 | 2026-09-06 00:38:12 | 2026-09-06 00:46:28 |
| SQ9EZE-14 | 4 | 2026-09-06 00:06:57 | 2026-09-06 00:58:53 |
| POL1PZ | 2 | 2026-09-05 23:29:34 | 2026-09-05 23:29:59 |
| DB0DAN | 1 | 2026-09-06 00:37:40 | 2026-09-06 00:37:40 |
| Receiver | Date | Latitude | Longitude | Direction | Speed | Altitude | Climb | Temperature | Humidity | Pressure | Voltage | Killtimer | Uptime | BKT | XDATA |
|---|---|---|---|---|---|---|---|---|---|---|---|---|---|---|---|
| OM5KV | 2026-09-06 01:15:05 | 48.68514 | 18.99444 | 145° | 53km/h | 1619m | -13.2m/s | 6.6°C | 79.8% | 0hPa | 2.5V | 08:02:00 | 00:00:00 | 00:00:00 | |
| OM5KV | 2026-09-06 01:14:53 | 48.68656 | 18.99297 | 148° | 57km/h | 1770m | -12.3m/s | 5.3°C | 85.5% | 0hPa | 2.5V | 00:00:00 | 00:00:00 | 00:00:00 | |
| OM5KV | 2026-09-06 01:14:36 | 48.68862 | 18.99068 | 141° | 60km/h | 1974m | -12.4m/s | 4.1°C | 82.7% | 0hPa | 2.5V | 00:00:00 | 00:00:00 | 00:00:00 | |
| OM5KV | 2026-09-06 01:14:28 | 48.68965 | 18.98934 | 141° | 69km/h | 2073m | -12.4m/s | 3.9°C | 74.2% | 0hPa | 2.5V | 00:00:00 | 00:00:00 | 00:00:00 | |
| OM5KV | 2026-09-06 01:14:21 | 48.69057 | 18.98808 | 135° | 69km/h | 2156m | -12.3m/s | 3.6°C | 64.7% | 0hPa | 2.5V | 00:00:00 | 00:00:00 | 00:00:00 | |
| OE3JTB-15 | 2026-09-06 01:14:11 | 48.69190 | 18.98595 | 130° | 71km/h | 2287m | -13.0m/s | 2.4°C | 75.3% | 0hPa | 2.5V | 00:00:00 | 02:39:44 | 00:00:00 | |
| OE3JTB-15 | 2026-09-06 01:14:09 | 48.69212 | 18.98555 | 129° | 68km/h | 2311m | -12.7m/s | 2.2°C | 76.5% | 0hPa | 2.5V | 08:03:00 | 00:00:00 | 00:00:00 | |
| OE3JTB-15 | 2026-09-06 01:14:07 | 48.69235 | 18.98516 | 129° | 66km/h | 2335m | -11.8m/s | 2.0°C | 77.0% | 0hPa | 2.5V | 00:00:00 | 00:00:00 | 00:00:00 | |
| OM5KV | 2026-09-06 01:14:06 | 48.69235 | 18.98516 | 130° | 64km/h | 2335m | -11.9m/s | 2.0°C | 75.3% | 0hPa | 2.5V | 00:00:00 | 00:00:00 | 00:00:00 | |
| OE3JTB-15 | 2026-09-06 01:14:05 | 48.69256 | 18.98477 | 130° | 66km/h | 2358m | -11.5m/s | 1.8°C | 77.6% | 0hPa | 2.5V | 00:00:00 | 02:39:38 | 00:00:00 | |
| OE3JTB-15 | 2026-09-06 01:14:03 | 48.69277 | 18.98438 | 130° | 64km/h | 2381m | -13.8m/s | 1.6°C | 78.0% | 0hPa | 2.5V | 00:00:00 | 00:00:00 | 00:00:00 | |
| OE3JTB-15 | 2026-09-06 01:14:01 | 48.69298 | 18.98398 | 126° | 66km/h | 2408m | -13.5m/s | 1.5°C | 78.0% | 0hPa | 2.5V | 00:00:00 | 00:00:00 | 00:00:00 | |
| OE3JTB-15 | 2026-09-06 01:13:59 | 48.69318 | 18.98359 | 127° | 62km/h | 2434m | -13.8m/s | 1.4°C | 71.4% | 0hPa | 2.5V | 00:00:00 | 02:39:32 | 00:00:00 | |
| OE3JTB-15 | 2026-09-06 01:13:56 | 48.69346 | 18.98301 | 126° | 60km/h | 2472m | -12.7m/s | 1.2°C | 71.0% | 0hPa | 2.5V | 00:00:00 | 00:00:00 | 00:00:00 | |
| OM5KV | 2026-09-06 01:13:48 | 48.69409 | 18.98168 | 127° | 66km/h | 2562m | -13.0m/s | 0.6°C | 71.4% | 0hPa | 2.5V | 00:00:00 | 00:00:00 | 00:00:00 | |
| OE3JTB-15 | 2026-09-06 01:13:47 | 48.69428 | 18.98129 | 126° | 64km/h | 2587m | -11.9m/s | 0.3°C | 74.8% | 0hPa | 2.5V | 00:00:00 | 00:00:00 | 00:00:00 | |
| OM5KV | 2026-09-06 01:13:41 | 48.69484 | 18.98009 | 124° | 64km/h | 2658m | -10.8m/s | 0.1°C | 66.4% | 0hPa | 2.5V | 00:00:00 | 00:00:00 | 00:00:00 | |
| OM5KV | 2026-09-06 01:13:40 | 48.69493 | 18.97989 | 125° | 64km/h | 2669m | -12.6m/s | 0.1°C | 64.7% | 0hPa | 2.5V | 00:00:00 | 00:00:00 | 00:00:00 | |
| OE3JTB-15 | 2026-09-06 01:13:38 | 48.69512 | 18.97945 | 125° | 80km/h | 2691m | -11.8m/s | -0.0°C | 66.4% | 0hPa | 2.5V | 00:00:00 | 02:39:11 | 00:00:00 | |
| OM5KV | 2026-09-06 01:13:29 | 48.69595 | 18.97772 | 126° | 73km/h | 2779m | -11.7m/s | -0.7°C | 64.0% | 0hPa | 2.5V | 00:00:00 | 00:00:00 | 00:00:00 | |
| OM5KV | 2026-09-06 01:13:27 | 48.69617 | 18.97725 | 125° | 75km/h | 2801m | -11.5m/s | 0.1°C | 50.5% | 0hPa | 2.5V | 00:00:00 | 00:00:00 | 00:00:00 | |
| OE3JTB-15 | 2026-09-06 01:13:19 | 48.69729 | 18.97496 | 127° | 91km/h | 2902m | -12.0m/s | 0.4°C | 40.1% | 0hPa | 2.5V | 08:04:00 | 00:00:00 | 00:00:00 | |
| OM5KV | 2026-09-06 01:13:17 | 48.69742 | 18.97469 | 126° | 84km/h | 2913m | -10.5m/s | 0.4°C | 39.2% | 0hPa | 2.5V | 08:04:00 | 00:00:00 | 00:00:00 | |
| OE3JTB-15 | 2026-09-06 01:13:00 | 48.69968 | 18.96933 | 123° | 95km/h | 3125m | -12.3m/s | 0.4°C | 26.0% | 0hPa | 2.5V | 00:00:00 | 00:00:00 | 00:00:00 | |
| OM5KV | 2026-09-06 01:12:56 | 48.70018 | 18.96810 | 122° | 97km/h | 3172m | -11.9m/s | 0.2°C | 26.5% | 0hPa | 2.5V | 08:04:00 | 00:00:00 | 00:00:00 | |
| OM5KV | 2026-09-06 01:12:49 | 48.70092 | 18.96623 | 123° | 97km/h | 3243m | -11.9m/s | -0.5°C | 29.1% | 0hPa | 2.5V | 08:04:00 | 00:00:00 | 00:00:00 | |
| OE3JTB-15 | 2026-09-06 01:12:41 | 48.70205 | 18.96349 | 121° | 91km/h | 3353m | -13.1m/s | -1.5°C | 33.2% | 0hPa | 2.5V | 00:00:00 | 02:38:14 | 00:00:00 | |
| OM5KV | 2026-09-06 01:12:40 | 48.70218 | 18.96317 | 123° | 97km/h | 3366m | -14.0m/s | -1.6°C | 32.5% | 0hPa | 2.5V | 08:04:00 | 00:00:00 | 00:00:00 | |
| OM5KV | 2026-09-06 01:12:28 | 48.70364 | 18.95957 | 122° | 93km/h | 3510m | -12.3m/s | -2.8°C | 33.3% | 0hPa | 2.5V | 08:05:00 | 00:00:00 | 00:00:00 | |
| OM5KV | 2026-09-06 01:12:22 | 48.70436 | 18.95772 | 121° | 99km/h | 3580m | -11.0m/s | -3.1°C | 27.4% | 0hPa | 2.5V | 08:05:00 | 00:00:00 | 00:00:00 | |
| OM5KV | 2026-09-06 01:12:17 | 48.70485 | 18.95644 | 122° | 97km/h | 3626m | -12.6m/s | -3.4°C | 24.8% | 0hPa | 2.5V | 08:05:00 | 00:00:00 | 00:00:00 | |
| OM5KV | 2026-09-06 01:12:16 | 48.70497 | 18.95612 | 120° | 97km/h | 3638m | -13.2m/s | -3.4°C | 0% | 0hPa | 2.5V | 08:05:00 | 00:00:00 | 00:00:00 | |
| OM5KV | 2026-09-06 01:12:12 | 48.70557 | 18.95449 | 120° | 100km/h | 3700m | -12.8m/s | -3.9°C | 0% | 0hPa | 2.5V | 08:05:00 | 00:00:00 | 00:00:00 | |
| OM5KV | 2026-09-06 01:12:10 | 48.70569 | 18.95415 | 119° | 100km/h | 3712m | -13.5m/s | -3.9°C | 25.0% | 0hPa | 2.5V | 08:05:00 | 00:00:00 | 00:00:00 | |
| HA6NAB-11 | 2026-09-06 01:12:06 | 48.70630 | 18.95249 | 119° | 97km/h | 3772m | -13.6m/s | -4.4°C | 26.1% | 0hPa | 2.5V | 08:05:00 | 00:00:00 | 00:00:00 | |
| OM5KV | 2026-09-06 01:12:05 | 48.70630 | 18.95249 | 119° | 97km/h | 3772m | -13.6m/s | -4.4°C | 26.1% | 0hPa | 2.5V | 08:05:00 | 00:00:00 | 00:00:00 | |
| OM5KV | 2026-09-06 01:12:04 | 48.70642 | 18.95215 | 119° | 104km/h | 3784m | -13.1m/s | -4.5°C | 0% | 0hPa | 2.5V | 08:05:00 | 00:00:00 | 00:00:00 | |
| OE3JTB-15 | 2026-09-06 01:12:03 | 48.70667 | 18.95147 | 118° | 104km/h | 3808m | -11.7m/s | -4.6°C | 26.8% | 0hPa | 2.5V | 00:00:00 | 00:00:00 | 00:00:00 | |
| HA6NAB-11 | 2026-09-06 01:12:00 | 48.70703 | 18.95044 | 118° | 100km/h | 3842m | -12.9m/s | -4.6°C | 22.8% | 0hPa | 2.5V | 08:05:00 | 00:00:00 | 00:00:00 | |
| OM5KV | 2026-09-06 01:11:57 | 48.70728 | 18.94973 | 118° | 104km/h | 3865m | -11.5m/s | -4.7°C | 0% | 0hPa | 2.5V | 08:05:00 | 00:00:00 | 00:00:00 | |
| HA6NAB-11 | 2026-09-06 01:11:54 | 48.70764 | 18.94867 | 117° | 102km/h | 3901m | -13.9m/s | -3.9°C | 9.2% | 0hPa | 2.5V | 08:05:00 | 00:00:00 | 00:00:00 | |
| OM5KV | 2026-09-06 01:11:51 | 48.70799 | 18.94756 | 116° | 104km/h | 3937m | -13.1m/s | -3.2°C | 3.8% | 0hPa | 2.5V | 08:05:00 | 00:00:00 | 00:00:00 | |
| OM5KV | 2026-09-06 01:11:50 | 48.70811 | 18.94720 | 115° | 104km/h | 3949m | -12.9m/s | -3.1°C | 0% | 0hPa | 2.5V | 08:05:00 | 00:00:00 | 00:00:00 | |
| HA6NAB-11 | 2026-09-06 01:11:49 | 48.70833 | 18.94645 | 116° | 110km/h | 3973m | -12.3m/s | -3.1°C | 3.4% | 0hPa | 2.5V | 08:05:00 | 00:00:00 | 00:00:00 | |
| OM5KV | 2026-09-06 01:11:46 | 48.70856 | 18.94573 | 116° | 102km/h | 3997m | -13.9m/s | 0°C | 0% | 0hPa | 2.5V | 08:05:00 | 00:00:00 | 00:00:00 | |
| HA6NAB-11 | 2026-09-06 01:11:43 | 48.70890 | 18.94464 | 117° | 108km/h | 4036m | -13.1m/s | -3.4°C | 3.1% | 0hPa | 2.5V | 08:05:00 | 00:00:00 | 00:00:00 | |
| OM5KV | 2026-09-06 01:11:42 | 48.70902 | 18.94427 | 118° | 106km/h | 4048m | -13.1m/s | 0°C | 0% | 0hPa | 2.5V | 08:05:00 | 00:00:00 | 00:00:00 | |
| OE3JTB-15 | 2026-09-06 01:11:41 | 48.70926 | 18.94355 | 115° | 119km/h | 4073m | -12.1m/s | -3.3°C | 3.4% | 0hPa | 2.5V | 00:00:00 | 02:37:14 | 00:00:00 | |
| OM5KV | 2026-09-06 01:11:40 | 48.70926 | 18.94355 | 116° | 108km/h | 4073m | -12.2m/s | 0°C | 0% | 0hPa | 2.5V | 08:06:00 | 00:00:00 | 00:00:00 | |
| HA6NAB-11 | 2026-09-06 01:11:38 | 48.70962 | 18.94245 | 118° | 104km/h | 4109m | -13.7m/s | -3.4°C | 3.2% | 0hPa | 2.5V | 00:00:00 | 00:00:00 | 00:00:00 | |
| OM5KV | 2026-09-06 01:11:37 | 48.70973 | 18.94210 | 117° | 106km/h | 4122m | -13.2m/s | 0°C | 0% | 0hPa | 2.5V | 08:06:00 | 00:00:00 | 00:00:00 | |
| OM5KV | 2026-09-06 01:11:33 | 48.71025 | 18.94062 | 119° | 106km/h | 4172m | -12.5m/s | 0°C | 0% | 0hPa | 2.5V | 08:06:00 | 00:00:00 | 00:00:00 | |
| OM5KV | 2026-09-06 01:11:31 | 48.71039 | 18.94025 | 119° | 111km/h | 4184m | -11.9m/s | 0°C | 0% | 0hPa | 2.5V | 08:06:00 | 00:00:00 | 00:00:00 | |
| OM5KV | 2026-09-06 01:11:18 | 48.71216 | 18.93544 | 120° | 117km/h | 4347m | -14.5m/s | 0°C | 0% | 0hPa | 2.5V | 08:06:00 | 00:00:00 | 00:00:00 | |
| OM5KV | 2026-09-06 01:11:13 | 48.71304 | 18.93316 | 121° | 113km/h | 4423m | -13.3m/s | 0°C | 0% | 0hPa | 2.5V | 08:06:00 | 00:00:00 | 00:00:00 | |
| OE3OSB-13 | 2026-09-06 01:11:11 | 48.71349 | 18.93199 | 119° | 115km/h | 4460m | -14.3m/s | -5.2°C | 4.9% | -1.0hPa | 2.5V | 00:00:00 | 00:00:00 | 00:00:00 | |
| OM5KV | 2026-09-06 01:11:08 | 48.71363 | 18.93161 | 120° | 115km/h | 4474m | -13.4m/s | 0°C | 0% | 0hPa | 2.5V | 08:06:00 | 00:00:00 | 00:00:00 | |
| OM5KV | 2026-09-06 01:11:06 | 48.71392 | 18.93082 | 120° | 120km/h | 4498m | -12.3m/s | 0°C | 0% | 0hPa | 2.5V | 08:06:00 | 00:00:00 | 00:00:00 | |
| OM5KV | 2026-09-06 01:11:02 | 48.71451 | 18.92923 | 121° | 122km/h | 4545m | -12.4m/s | 0°C | 0% | 0hPa | 2.5V | 08:06:00 | 00:00:00 | 00:00:00 | |
| OM5KV | 2026-09-06 01:11:00 | 48.71481 | 18.92844 | 120° | 117km/h | 4570m | -13.9m/s | 0°C | 0% | 0hPa | 2.5V | 08:06:00 | 00:00:00 | 00:00:00 | |
| OM5KV | 2026-09-06 01:10:57 | 48.71540 | 18.92682 | 119° | 120km/h | 4622m | -15.3m/s | 0°C | 0% | 0hPa | 2.5V | 08:06:00 | 00:00:00 | 00:00:00 | |
| OM5KV | 2026-09-06 01:10:52 | 48.71599 | 18.92515 | 119° | 126km/h | 4675m | -13.6m/s | 0°C | 0% | 0hPa | 2.5V | 08:06:00 | 00:00:00 | 00:00:00 | |
| OM5KV | 2026-09-06 01:10:51 | 48.71614 | 18.92473 | 119° | 124km/h | 4689m | -14.8m/s | 0°C | 0% | 0hPa | 2.5V | 08:06:00 | 00:00:00 | 00:00:00 | |
| OM5KV | 2026-09-06 01:10:45 | 48.71699 | 18.92216 | 117° | 126km/h | 4770m | -14.5m/s | 0°C | 0% | 0hPa | 2.5V | 00:00:00 | 00:00:00 | 00:00:00 | |
| PETON7-10 | 2026-09-06 01:10:42 | 48.71753 | 18.92039 | 114° | 126km/h | 4825m | -14.1m/s | -5.9°C | 3.7% | 0hPa | 2.5V | 00:00:00 | 00:00:00 | 00:00:00 | |
| OM5KV | 2026-09-06 01:10:39 | 48.71780 | 18.91950 | 115° | 126km/h | 4851m | -14.0m/s | 0°C | 0% | 0hPa | 2.6V | 00:00:00 | 00:00:00 | 00:00:00 | |
| OM5KV | 2026-09-06 01:10:32 | 48.71868 | 18.91635 | 114° | 122km/h | 4943m | -14.0m/s | 0°C | 0% | 0hPa | 2.6V | 00:00:00 | 00:00:00 | 00:00:00 | |
| PETON7-10 | 2026-09-06 01:10:27 | 48.71941 | 18.91369 | 112° | 126km/h | 5024m | -13.0m/s | -7.0°C | 5.7% | 0hPa | 2.6V | 00:00:00 | 00:00:00 | 00:00:00 | |
| HA6NAB-11 | 2026-09-06 01:10:24 | 48.71966 | 18.91278 | 115° | 126km/h | 5049m | -14.0m/s | -7.1°C | 3.9% | 0hPa | 2.6V | 08:07:00 | 00:00:00 | 00:00:00 | |
| HA6NAB-11 | 2026-09-06 01:10:18 | 48.72044 | 18.91015 | 115° | 122km/h | 5127m | -14.5m/s | -7.5°C | 4.8% | 0hPa | 2.6V | 08:07:00 | 00:00:00 | 00:00:00 | |
| OE3JTB-15 | 2026-09-06 01:10:13 | 48.72124 | 18.90753 | 115° | 128km/h | 5205m | -14.6m/s | -8.0°C | 7.4% | 0hPa | 2.6V | 00:00:00 | 00:00:00 | 00:00:00 | |
| PETON7-10 | 2026-09-06 01:10:12 | 48.72138 | 18.90708 | 115° | 126km/h | 5219m | -13.6m/s | -8.1°C | 7.0% | 0hPa | 2.6V | 00:00:00 | 02:35:45 | 00:00:00 | |
| OE3OSB-13 | 2026-09-06 01:10:09 | 48.72193 | 18.90534 | 115° | 122km/h | 5273m | -15.4m/s | -8.4°C | 6.3% | -1.0hPa | 2.6V | 00:00:00 | 00:00:00 | 00:00:00 | |
| HA6NAB-11 | 2026-09-06 01:10:07 | 48.72193 | 18.90534 | 116° | 122km/h | 5273m | -15.4m/s | -8.4°C | 6.3% | 0hPa | 2.6V | 08:07:00 | 00:00:00 | 00:00:00 | |
| HA6NAB-11 | 2026-09-06 01:10:02 | 48.72262 | 18.90316 | 118° | 126km/h | 5341m | -14.3m/s | -8.8°C | 6.9% | 0hPa | 2.6V | 08:07:00 | 00:00:00 | 00:00:00 | |
| PETON7-10 | 2026-09-06 01:09:57 | 48.72349 | 18.90057 | 118° | 128km/h | 5422m | -15.0m/s | -9.5°C | 15.5% | 0hPa | 2.6V | 00:00:00 | 00:00:00 | 00:00:00 | |
| HA6NAB-11 | 2026-09-06 01:09:56 | 48.72349 | 18.90057 | 118° | 124km/h | 5422m | -15.0m/s | -9.6°C | 14.7% | 0hPa | 2.5V | 00:00:00 | 00:00:00 | 00:00:00 | |
| HA6NAB-11 | 2026-09-06 01:09:51 | 48.72423 | 18.89842 | 119° | 124km/h | 5490m | -15.1m/s | -10.2°C | 14.6% | 0hPa | 2.5V | 00:00:00 | 00:00:00 | 00:00:00 | |
| HA6NAB-11 | 2026-09-06 01:09:45 | 48.72515 | 18.89584 | 118° | 126km/h | 5572m | -15.9m/s | -10.7°C | 14.0% | 0hPa | 2.5V | 00:00:00 | 00:00:00 | 00:00:00 | |
| OE3JTB-15 | 2026-09-06 01:09:43 | 48.72561 | 18.89453 | 118° | 137km/h | 5613m | -14.0m/s | -10.8°C | 14.0% | 0hPa | 2.5V | 00:00:00 | 02:35:16 | 00:00:00 | |
| PETON7-10 | 2026-09-06 01:09:42 | 48.72577 | 18.89408 | 119° | 130km/h | 5626m | -14.0m/s | -10.9°C | 15.3% | 0hPa | 2.5V | 00:00:00 | 00:00:00 | 00:00:00 | |
| HA6NAB-11 | 2026-09-06 01:09:39 | 48.72608 | 18.89322 | 118° | 126km/h | 5653m | -15.3m/s | -11.3°C | 15.2% | 0hPa | 2.5V | 00:00:00 | 00:00:00 | 00:00:00 | |
| OE3OSB-13 | 2026-09-06 01:09:38 | 48.72653 | 18.89192 | 117° | 126km/h | 5694m | -15.8m/s | -11.6°C | 16.0% | -1.0hPa | 2.5V | 00:00:00 | 00:00:00 | 00:00:00 | |
| HA6NAB-11 | 2026-09-06 01:09:35 | 48.72684 | 18.89104 | 119° | 131km/h | 5722m | -13.3m/s | -11.8°C | 15.6% | 0hPa | 2.5V | 00:00:00 | 00:00:00 | 00:00:00 | |
| HA6NAB-11 | 2026-09-06 01:09:29 | 48.72775 | 18.88841 | 117° | 131km/h | 5802m | -15.4m/s | -12.4°C | 12.1% | 0hPa | 2.5V | 00:00:00 | 00:00:00 | 00:00:00 | |
| PETON7-10 | 2026-09-06 01:09:27 | 48.72806 | 18.88750 | 118° | 133km/h | 5828m | -14.2m/s | -12.6°C | 10.6% | 0hPa | 2.5V | 00:00:00 | 02:35:00 | 00:00:00 | |
| PETON7-10 | 2026-09-06 01:09:12 | 48.73052 | 18.88075 | 120° | 141km/h | 6030m | -15.5m/s | -13.2°C | 6.7% | 0hPa | 2.5V | 08:08:00 | 00:00:00 | 00:00:00 | |
| OE3OSB-13 | 2026-09-06 01:09:06 | 48.73154 | 18.87794 | 118° | 137km/h | 6113m | -15.5m/s | -13.8°C | 8.3% | -1.0hPa | 2.5V | 00:00:00 | 00:00:00 | 00:00:00 | |
| PETON7-10 | 2026-09-06 01:08:57 | 48.73305 | 18.87369 | 118° | 142km/h | 6236m | -15.3m/s | -14.6°C | 10.1% | 0hPa | 2.5V | 00:00:00 | 00:00:00 | 00:00:00 | |
| OM5KV | 2026-09-06 01:08:53 | 48.73356 | 18.87223 | 118° | 146km/h | 6276m | -13.8m/s | -14.9°C | 9.7% | 0hPa | 2.5V | 00:00:00 | 00:00:00 | 00:00:00 | |
| OM5KV | 2026-09-06 01:08:49 | 48.73425 | 18.87029 | 119° | 141km/h | 6327m | -14.5m/s | -15.3°C | 9.9% | 0hPa | 2.5V | 00:00:00 | 00:00:00 | 00:00:00 | |
| OM5KV | 2026-09-06 01:08:48 | 48.73442 | 18.86982 | 118° | 139km/h | 6341m | -15.0m/s | -15.4°C | 9.8% | 0hPa | 2.5V | 00:00:00 | 00:00:00 | 00:00:00 | |
| OE3JTB-15 | 2026-09-06 01:08:45 | 48.73508 | 18.86786 | 117° | 142km/h | 6396m | -14.1m/s | -15.8°C | 12.0% | 0hPa | 2.5V | 08:08:00 | 00:00:00 | 00:00:00 | |
| PETON7-10 | 2026-09-06 01:08:42 | 48.73559 | 18.86639 | 117° | 144km/h | 6436m | -13.6m/s | -16.1°C | 12.5% | 0hPa | 2.5V | 00:00:00 | 02:34:15 | 00:00:00 | |
| OM5KV | 2026-09-06 01:08:37 | 48.73627 | 18.86445 | 118° | 146km/h | 6487m | -14.2m/s | -16.6°C | 12.0% | 0hPa | 2.5V | 00:00:00 | 00:00:00 | 00:00:00 | |
| OM5KV | 2026-09-06 01:08:36 | 48.73644 | 18.86395 | 118° | 148km/h | 6500m | -14.4m/s | -16.7°C | 12.3% | 0hPa | 2.5V | 00:00:00 | 00:00:00 | 00:00:00 | |
| OE3OSB-13 | 2026-09-06 01:08:35 | 48.73678 | 18.86296 | 117° | 142km/h | 6527m | -15.3m/s | -16.9°C | 15.3% | -1.0hPa | 2.5V | 00:00:00 | 00:00:00 | 00:00:00 | |
| OM5KV | 2026-09-06 01:08:32 | 48.73712 | 18.86199 | 117° | 144km/h | 6555m | -14.8m/s | -17.2°C | 19.3% | 0hPa | 2.5V | 00:00:00 | 00:00:00 | 00:00:00 | |
| OM5KV | 2026-09-06 01:08:31 | 48.73729 | 18.86151 | 118° | 142km/h | 6569m | -14.8m/s | -17.3°C | 19.6% | 0hPa | 2.5V | 00:00:00 | 00:00:00 | 00:00:00 | |
| PETON7-10 | 2026-09-06 01:08:27 | 48.73813 | 18.85906 | 117° | 144km/h | 6635m | -13.7m/s | -17.9°C | 22.4% | 0hPa | 2.5V | 00:00:00 | 00:00:00 | 00:00:00 | |
| OM5KV | 2026-09-06 01:08:25 | 48.73830 | 18.85857 | 118° | 146km/h | 6649m | -14.1m/s | -18.1°C | 21.1% | 0hPa | 2.5V | 00:00:00 | 00:00:00 | 00:00:00 | |
| OM5KV | 2026-09-06 01:08:24 | 48.73846 | 18.85807 | 118° | 148km/h | 6662m | -13.6m/s | -18.2°C | 21.0% | 0hPa | 2.5V | 00:00:00 | 00:00:00 | 00:00:00 | |
| HA6NAB-11 | 2026-09-06 01:08:17 | 48.73965 | 18.85460 | 118° | 141km/h | 6753m | -13.9m/s | -19.1°C | 27.2% | 0hPa | 2.5V | 08:09:00 | 00:00:00 | 00:00:00 | |
| OM5KV | 2026-09-06 01:08:16 | 48.73982 | 18.85412 | 118° | 142km/h | 6766m | -14.0m/s | -19.3°C | 27.5% | 0hPa | 2.5V | 08:09:00 | 00:00:00 | 00:00:00 | |
| PETON7-10 | 2026-09-06 01:08:12 | 48.74064 | 18.85167 | 118° | 142km/h | 6831m | -12.9m/s | -19.8°C | 27.9% | 0hPa | 2.5V | 00:00:00 | 00:00:00 | 00:00:00 | |
| HA6NAB-11 | 2026-09-06 01:08:11 | 48.74064 | 18.85167 | 118° | 146km/h | 6831m | -12.9m/s | -19.8°C | 25.9% | 0hPa | 2.5V | 00:00:00 | 00:00:00 | 00:00:00 | |
| OM5KV | 2026-09-06 01:08:09 | 48.74097 | 18.85070 | 118° | 139km/h | 6857m | -13.4m/s | -20.1°C | 26.0% | 0hPa | 2.5V | 08:09:00 | 00:00:00 | 00:00:00 | |
| OM5KV | 2026-09-06 01:08:07 | 48.74130 | 18.84973 | 117° | 144km/h | 6883m | -14.4m/s | -20.3°C | 26.2% | 0hPa | 2.5V | 08:09:00 | 00:00:00 | 00:00:00 | |
| OM5KV | 2026-09-06 01:08:06 | 48.74146 | 18.84923 | 118° | 146km/h | 6896m | -12.7m/s | -20.4°C | 26.6% | 0hPa | 2.5V | 08:09:00 | 00:00:00 | 00:00:00 | |
| HA6NAB-11 | 2026-09-06 01:08:05 | 48.74163 | 18.84873 | 118° | 146km/h | 6909m | -13.0m/s | -20.6°C | 26.7% | 0hPa | 2.5V | 00:00:00 | 00:00:00 | 00:00:00 | |
| OE3OSB-13 | 2026-09-06 01:08:04 | 48.74197 | 18.84776 | 117° | 142km/h | 6932m | -13.4m/s | -20.8°C | 26.7% | -1.0hPa | 2.5V | 00:00:00 | 00:00:00 | 00:00:00 | |
| OM5KV | 2026-09-06 01:08:01 | 48.74231 | 18.84679 | 119° | 141km/h | 6957m | -13.2m/s | -21.0°C | 25.5% | 0hPa | 2.5V | 08:09:00 | 00:00:00 | 00:00:00 | |
| HA6NAB-11 | 2026-09-06 01:07:59 | 48.74264 | 18.84584 | 118° | 139km/h | 6981m | -13.9m/s | -21.2°C | 25.4% | 0hPa | 2.5V | 00:00:00 | 00:00:00 | 00:00:00 | |
| PETON7-10 | 2026-09-06 01:07:57 | 48.74314 | 18.84442 | 118° | 141km/h | 7021m | -14.8m/s | -21.5°C | 28.0% | 0hPa | 2.5V | 00:00:00 | 02:33:30 | 00:00:00 | |
| OM5KV | 2026-09-06 01:07:56 | 48.74314 | 18.84442 | 119° | 139km/h | 7021m | -14.9m/s | -21.6°C | 25.9% | 0hPa | 2.5V | 08:09:00 | 00:00:00 | 00:00:00 | |
| OE3JTB-15 | 2026-09-06 01:07:55 | 48.74346 | 18.84348 | 117° | 141km/h | 7049m | -14.8m/s | -21.7°C | 29.4% | 0hPa | 2.5V | 00:00:00 | 00:00:00 | 00:00:00 | |
| HA6NAB-11 | 2026-09-06 01:07:53 | 48.74362 | 18.84301 | 117° | 142km/h | 7063m | -13.7m/s | -21.9°C | 28.2% | 0hPa | 2.5V | 00:00:00 | 00:00:00 | 00:00:00 | |
| OM5KV | 2026-09-06 01:07:49 | 48.74428 | 18.84106 | 119° | 141km/h | 7112m | -13.4m/s | -22.3°C | 30.2% | 0hPa | 2.5V | 08:09:00 | 00:00:00 | 00:00:00 | |
| HA6NAB-11 | 2026-09-06 01:07:48 | 48.74445 | 18.84059 | 119° | 139km/h | 7125m | -13.9m/s | -22.5°C | 31.0% | 0hPa | 2.5V | 00:00:00 | 00:00:00 | 00:00:00 | |
| S52SK | 2026-09-06 01:07:44 | 48.74508 | 18.83871 | 117° | 142km/h | 7177m | -14.0m/s | -22.9°C | 33.4% | 0hPa | 2.5V | 00:00:00 | 00:00:00 | 00:00:00 | |
| OM5KV | 2026-09-06 01:07:43 | 48.74524 | 18.83823 | 118° | 142km/h | 7190m | -13.2m/s | -23.0°C | 34.1% | 0hPa | 2.5V | 08:09:00 | 00:00:00 | 00:00:00 | |
| PETON7-10 | 2026-09-06 01:07:42 | 48.74556 | 18.83726 | 117° | 137km/h | 7215m | -13.3m/s | -23.2°C | 39.9% | 0hPa | 2.5V | 00:00:00 | 00:00:00 | 00:00:00 | |
| OM5KV | 2026-09-06 01:07:41 | 48.74557 | 18.83726 | 118° | 142km/h | 7215m | -13.3m/s | -23.3°C | 37.0% | 0hPa | 2.5V | 08:09:00 | 00:00:00 | 00:00:00 | |
| OM5KV | 2026-09-06 01:07:40 | 48.74573 | 18.83678 | 118° | 141km/h | 7228m | -13.4m/s | -23.4°C | 38.7% | 0hPa | 2.5V | 08:09:00 | 00:00:00 | 00:00:00 | |
| S52SK | 2026-09-06 01:07:39 | 48.74606 | 18.83583 | 119° | 137km/h | 7253m | -13.1m/s | -23.6°C | 35.9% | 0hPa | 2.5V | 00:00:00 | 00:00:00 | 00:00:00 | |
| HA6NAB-11 | 2026-09-06 01:07:37 | 48.74622 | 18.83536 | 119° | 135km/h | 7265m | -13.6m/s | -23.7°C | 36.7% | 0hPa | 2.5V | 00:00:00 | 00:00:00 | 00:00:00 | |
| OM5KV | 2026-09-06 01:07:36 | 48.74638 | 18.83490 | 119° | 135km/h | 7278m | -14.3m/s | -23.8°C | 38.0% | 0hPa | 2.5V | 08:09:00 | 00:00:00 | 00:00:00 | |
| OM5KV | 2026-09-06 01:07:34 | 48.74671 | 18.83399 | 119° | 135km/h | 7305m | -14.9m/s | -24.1°C | 39.9% | 0hPa | 2.5V | 08:09:00 | 00:00:00 | 00:00:00 | |
| OE3OSB-13 | 2026-09-06 01:07:33 | 48.74703 | 18.83308 | 117° | 137km/h | 7334m | -14.3m/s | -24.3°C | 41.9% | -1.0hPa | 2.5V | 00:00:00 | 00:00:00 | 00:00:00 | |
| OM5KV | 2026-09-06 01:07:31 | 48.74719 | 18.83260 | 118° | 141km/h | 7348m | -13.5m/s | -24.4°C | 42.8% | 0hPa | 2.5V | 08:09:00 | 00:00:00 | 00:00:00 | |
| OM5KV | 2026-09-06 01:07:30 | 48.74736 | 18.83213 | 120° | 141km/h | 7360m | -13.3m/s | -24.5°C | 42.6% | 0hPa | 2.5V | 08:09:00 | 00:00:00 | 00:00:00 | |
| PETON7-10 | 2026-09-06 01:07:27 | 48.74806 | 18.83030 | 121° | 142km/h | 7412m | -13.3m/s | -24.8°C | 49.6% | 0hPa | 2.5V | 00:00:00 | 00:00:00 | 00:00:00 | |
| OM5KV | 2026-09-06 01:07:25 | 48.74825 | 18.82984 | 123° | 142km/h | 7425m | -13.8m/s | -24.9°C | 46.4% | 0hPa | 2.5V | 08:10:00 | 00:00:00 | 00:00:00 | |
| OE3JTB-15 | 2026-09-06 01:07:24 | 48.74863 | 18.82893 | 124° | 151km/h | 7450m | -12.1m/s | -25.0°C | 50.7% | 0hPa | 2.5V | 00:00:00 | 02:32:57 | 00:00:00 | |
| OM5KV | 2026-09-06 01:07:22 | 48.74883 | 18.82849 | 125° | 139km/h | 7462m | -13.3m/s | -25.0°C | 46.7% | 0hPa | 2.5V | 08:10:00 | 00:00:00 | 00:00:00 | |
| OM5KV | 2026-09-06 01:07:18 | 48.74964 | 18.82670 | 127° | 146km/h | 7513m | -11.8m/s | -25.0°C | 44.7% | 0hPa | 2.5V | 08:10:00 | 00:00:00 | 00:00:00 | |
| OM5KV | 2026-09-06 01:07:16 | 48.75008 | 18.82582 | 127° | 144km/h | 7537m | -13.4m/s | -24.9°C | 42.7% | 0hPa | 2.5V | 08:10:00 | 00:00:00 | 00:00:00 | |
| OM5KV | 2026-09-06 01:07:14 | 48.75053 | 18.82495 | 129° | 146km/h | 7562m | -13.9m/s | -24.9°C | 41.1% | 0hPa | 2.5V | 08:10:00 | 00:00:00 | 00:00:00 | |
| PETON7-10 | 2026-09-06 01:07:12 | 48.75124 | 18.82366 | 131° | 155km/h | 7598m | -13.2m/s | -24.9°C | 42.8% | 0hPa | 2.5V | 00:00:00 | 02:32:45 | 00:00:00 | |
| OM5KV | 2026-09-06 01:07:04 | 48.75304 | 18.82068 | 136° | 153km/h | 7687m | -13.8m/s | -24.8°C | 36.3% | 0hPa | 2.5V | 08:10:00 | 00:00:00 | 00:00:00 | |
| OM5KV | 2026-09-06 01:07:03 | 48.75331 | 18.82026 | 135° | 153km/h | 7700m | -14.0m/s | -24.8°C | 36.5% | 0hPa | 2.5V | 08:10:00 | 00:00:00 | 00:00:00 | |
| OE3OSB-13 | 2026-09-06 01:07:02 | 48.75387 | 18.81939 | 133° | 159km/h | 7724m | -13.4m/s | -25.0°C | 36.7% | -1.0hPa | 2.5V | 00:00:00 | 00:00:00 | 00:00:00 | |
| OM5KV | 2026-09-06 01:06:58 | 48.75473 | 18.81806 | 137° | 162km/h | 7761m | -13.6m/s | -25.1°C | 36.9% | 0hPa | 2.5V | 08:10:00 | 00:00:00 | 00:00:00 | |
| PETON7-10 | 2026-09-06 01:06:57 | 48.75532 | 18.81719 | 136° | 162km/h | 7786m | -14.0m/s | -25.0°C | 37.1% | 0hPa | 2.5V | 08:10:00 | 00:00:00 | 00:00:00 | |
| OE3JTB-15 | 2026-09-06 01:06:54 | 48.75619 | 18.81590 | 136° | 164km/h | 7827m | -15.1m/s | -24.6°C | 25.9% | 0hPa | 2.6V | 00:00:00 | 00:00:00 | 00:00:00 | |
| OM5KV | 2026-09-06 01:06:53 | 48.75619 | 18.81590 | 136° | 159km/h | 7827m | -15.2m/s | -24.6°C | 23.7% | 0hPa | 2.5V | 08:10:00 | 00:00:00 | 00:00:00 | |
| OM5KV | 2026-09-06 01:06:50 | 48.75707 | 18.81461 | 136° | 162km/h | 7867m | -14.7m/s | -24.7°C | 21.5% | 0hPa | 2.5V | 08:10:00 | 00:00:00 | 00:00:00 | |
| OM5KV | 2026-09-06 01:06:44 | 48.75884 | 18.81193 | 135° | 166km/h | 7949m | -13.3m/s | -25.1°C | 17.9% | 0hPa | 2.5V | 08:10:00 | 00:00:00 | 00:00:00 | |
| PETON7-10 | 2026-09-06 01:06:42 | 48.75974 | 18.81059 | 136° | 162km/h | 7987m | -14.4m/s | -25.3°C | 18.1% | 0hPa | 2.5V | 00:00:00 | 00:00:00 | 00:00:00 | |
| OM5KV | 2026-09-06 01:06:41 | 48.75974 | 18.81059 | 136° | 164km/h | 7987m | -14.4m/s | -25.4°C | 16.3% | 0hPa | 2.5V | 08:10:00 | 00:00:00 | 00:00:00 | |
| OE3OSB-13 | 2026-09-06 01:06:31 | 48.76298 | 18.80576 | 134° | 162km/h | 8133m | -14.4m/s | -26.5°C | 19.8% | -1.0hPa | 2.5V | 00:00:00 | 00:00:00 | 00:00:00 | |
| POL2MAQ | 2026-09-06 01:06:29 | 48.76327 | 18.80531 | 135° | 166km/h | 8146m | -12.8m/s | -26.6°C | 20.2% | 0hPa | 2.5V | 08:11:00 | 00:00:00 | 00:00:00 | |
| PETON7-10 | 2026-09-06 01:06:27 | 48.76415 | 18.80395 | 134° | 168km/h | 8186m | -14.5m/s | -26.9°C | 23.2% | 0hPa | 2.5V | 00:00:00 | 02:32:00 | 00:00:00 | |
| OE3JTB-15 | 2026-09-06 01:06:25 | 48.76473 | 18.80304 | 134° | 173km/h | 8214m | -13.7m/s | -27.2°C | 24.2% | 0hPa | 2.5V | 00:00:00 | 00:00:00 | 00:00:00 | |
| OM5KV | 2026-09-06 01:06:24 | 48.76473 | 18.80304 | 134° | 166km/h | 8214m | -13.8m/s | -27.2°C | 21.9% | 0hPa | 2.5V | 08:11:00 | 00:00:00 | 00:00:00 | |
| OM5KV | 2026-09-06 01:06:23 | 48.76502 | 18.80258 | 135° | 168km/h | 8227m | -13.2m/s | -27.3°C | 22.4% | 0hPa | 2.5V | 08:11:00 | 00:00:00 | 00:00:00 | |
| OM5KV | 2026-09-06 01:06:19 | 48.76621 | 18.80072 | 136° | 170km/h | 8277m | -13.1m/s | -27.8°C | 24.2% | 0hPa | 2.5V | 08:11:00 | 00:00:00 | 00:00:00 | |
| OM5KV | 2026-09-06 01:06:16 | 48.76712 | 18.79932 | 136° | 168km/h | 8316m | -13.8m/s | -28.2°C | 25.2% | 0hPa | 2.5V | 08:11:00 | 00:00:00 | 00:00:00 | |
| OM5KV | 2026-09-06 01:06:14 | 48.76772 | 18.79840 | 135° | 168km/h | 8343m | -14.3m/s | -28.4°C | 25.8% | 0hPa | 2.5V | 08:11:00 | 00:00:00 | 00:00:00 | |
| HA6NAB-11 | 2026-09-06 01:06:13 | 48.76802 | 18.79793 | 135° | 170km/h | 8356m | -13.8m/s | -28.6°C | 26.2% | 0hPa | 2.5V | 00:00:00 | 00:00:00 | 00:00:00 | |
| PETON7-10 | 2026-09-06 01:06:12 | 48.76862 | 18.79698 | 134° | 177km/h | 8382m | -13.8m/s | -28.8°C | 29.5% | 0hPa | 2.5V | 00:00:00 | 00:00:00 | 00:00:00 | |
| OM5KV | 2026-09-06 01:06:11 | 48.76863 | 18.79698 | 134° | 173km/h | 8382m | -13.9m/s | -28.8°C | 26.6% | 0hPa | 2.6V | 08:11:00 | 00:00:00 | 00:00:00 | |
| OM5KV | 2026-09-06 01:06:09 | 48.76924 | 18.79601 | 135° | 177km/h | 8408m | -13.7m/s | -29.0°C | 26.7% | 0hPa | 2.6V | 08:11:00 | 00:00:00 | 00:00:00 | |
| OM5KV | 2026-09-06 01:06:08 | 48.76956 | 18.79553 | 136° | 175km/h | 8420m | -14.4m/s | -29.1°C | 26.6% | 0hPa | 2.6V | 08:11:00 | 00:00:00 | 00:00:00 | |
| S52SK | 2026-09-06 01:06:06 | 48.77018 | 18.79456 | 135° | 175km/h | 8448m | -14.6m/s | -29.3°C | 25.6% | 0hPa | 2.6V | 00:00:00 | 00:00:00 | 00:00:00 | |
| OM5KV | 2026-09-06 01:06:03 | 48.77111 | 18.79309 | 134° | 177km/h | 8490m | -15.6m/s | -29.5°C | 23.6% | 0hPa | 2.6V | 08:11:00 | 00:00:00 | 00:00:00 | |
| HA6NAB-11 | 2026-09-06 01:06:02 | 48.77142 | 18.79260 | 133° | 179km/h | 8505m | -14.8m/s | -29.6°C | 23.3% | 0hPa | 2.6V | 00:00:00 | 00:00:00 | 00:00:00 | |
| OE3OSB-13 | 2026-09-06 01:06:00 | 48.77236 | 18.79106 | 132° | 179km/h | 8542m | -13.3m/s | -29.7°C | 21.2% | -1.0hPa | 2.6V | 00:00:00 | 00:00:00 | 00:00:00 | |
| PETON7-10 | 2026-09-06 01:05:57 | 48.77329 | 18.78953 | 133° | 181km/h | 8580m | -14.4m/s | -29.9°C | 23.5% | 0hPa | 2.6V | 00:00:00 | 00:00:00 | 00:00:00 | |
| OE3JTB-15 | 2026-09-06 01:05:56 | 48.77360 | 18.78903 | 133° | 181km/h | 8594m | -14.9m/s | -30.1°C | 23.5% | 0hPa | 2.6V | 00:00:00 | 02:31:29 | 00:00:00 | |
| OM5KV | 2026-09-06 01:05:55 | 48.77360 | 18.78903 | 133° | 179km/h | 8594m | -15.0m/s | -30.1°C | 20.9% | 0hPa | 2.6V | 08:11:00 | 00:00:00 | 00:00:00 | |
| OM5KV | 2026-09-06 01:05:50 | 48.77513 | 18.78647 | 132° | 179km/h | 8658m | -14.0m/s | -30.6°C | 20.2% | 0hPa | 2.6V | 08:11:00 | 00:00:00 | 00:00:00 | |
| POL2MAQ | 2026-09-06 01:05:48 | 48.77573 | 18.78544 | 131° | 181km/h | 8684m | -14.0m/s | -30.8°C | 19.9% | 0hPa | 2.6V | 08:11:00 | 00:00:00 | 00:00:00 | |
| OM5KV | 2026-09-06 01:05:45 | 48.77662 | 18.78389 | 131° | 181km/h | 8724m | -13.7m/s | -31.1°C | 19.3% | 0hPa | 2.6V | 08:11:00 | 00:00:00 | 00:00:00 | |
| OM5KV | 2026-09-06 01:05:44 | 48.77692 | 18.78337 | 131° | 181km/h | 8737m | -13.1m/s | -31.2°C | 19.0% | 0hPa | 2.6V | 08:11:00 | 00:00:00 | 00:00:00 | |
| PETON7-10 | 2026-09-06 01:05:42 | 48.77780 | 18.78180 | 131° | 181km/h | 8776m | -13.2m/s | -31.4°C | 20.7% | 0hPa | 2.6V | 00:00:00 | 02:31:15 | 00:00:00 | |
| OM5KV | 2026-09-06 01:05:38 | 48.77869 | 18.78023 | 131° | 181km/h | 8815m | -13.4m/s | -31.9°C | 18.6% | 0hPa | 2.6V | 08:12:00 | 00:00:00 | 00:00:00 | |
| OM5KV | 2026-09-06 01:05:37 | 48.77898 | 18.77971 | 131° | 181km/h | 8829m | -13.6m/s | -32.0°C | 18.8% | 0hPa | 2.6V | 08:12:00 | 00:00:00 | 00:00:00 | |
| OM5KV | 2026-09-06 01:05:33 | 48.78016 | 18.77761 | 130° | 181km/h | 8882m | -14.6m/s | -32.5°C | 19.8% | 0hPa | 2.6V | 08:12:00 | 00:00:00 | 00:00:00 | |
| OE3OSB-13 | 2026-09-06 01:05:29 | 48.78164 | 18.77496 | 130° | 181km/h | 8948m | -13.3m/s | -33.2°C | 20.5% | -1.0hPa | 2.6V | 00:00:00 | 00:00:00 | 00:00:00 | |
| POL2MAQ | 2026-09-06 01:05:28 | 48.78164 | 18.77496 | 131° | 181km/h | 8948m | -13.3m/s | -33.2°C | 20.6% | 0hPa | 2.6V | 08:12:00 | 00:00:00 | 00:00:00 | |
| PETON7-10 | 2026-09-06 01:05:27 | 48.78223 | 18.77389 | 131° | 177km/h | 8974m | -14.0m/s | -33.4°C | 23.8% | 0hPa | 2.6V | 00:00:00 | 00:00:00 | 00:00:00 | |
| OM5KV | 2026-09-06 01:05:26 | 48.78223 | 18.77389 | 131° | 181km/h | 8974m | -14.1m/s | -33.4°C | 21.0% | 0hPa | 2.5V | 08:12:00 | 00:00:00 | 00:00:00 | |
| OM5KV | 2026-09-06 01:05:25 | 48.78253 | 18.77336 | 132° | 177km/h | 8986m | -13.1m/s | -33.6°C | 21.3% | 0hPa | 2.5V | 08:12:00 | 00:00:00 | 00:00:00 | |
| OM5KV | 2026-09-06 01:05:22 | 48.78342 | 18.77180 | 132° | 175km/h | 9025m | -15.1m/s | -34.0°C | 21.8% | 0hPa | 2.5V | 08:12:00 | 00:00:00 | 00:00:00 | |
| OM5KV | 2026-09-06 01:05:21 | 48.78371 | 18.77128 | 131° | 177km/h | 9039m | -15.1m/s | -34.1°C | 22.0% | 0hPa | 2.5V | 08:12:00 | 00:00:00 | 00:00:00 | |
| OM5KV | 2026-09-06 01:05:19 | 48.78430 | 18.77024 | 131° | 177km/h | 9066m | -15.5m/s | -34.4°C | 22.5% | 0hPa | 2.5V | 08:12:00 | 00:00:00 | 00:00:00 | |
| PETON7-10 | 2026-09-06 01:05:12 | 48.78664 | 18.76609 | 131° | 181km/h | 9180m | -16.1m/s | -35.4°C | 27.4% | 0hPa | 2.5V | 00:00:00 | 00:00:00 | 00:00:00 | |
| OM5KV | 2026-09-06 01:05:10 | 48.78694 | 18.76558 | 132° | 177km/h | 9195m | -16.0m/s | -35.6°C | 24.2% | 0hPa | 2.5V | 08:12:00 | 00:00:00 | 00:00:00 | |
| POL2MAQ | 2026-09-06 01:05:08 | 48.78753 | 18.76456 | 132° | 177km/h | 9226m | -16.1m/s | -35.8°C | 24.7% | 0hPa | 2.5V | 08:12:00 | 00:00:00 | 00:00:00 | |
| OE3JTB-15 | 2026-09-06 01:04:58 | 48.79083 | 18.75880 | 131° | 188km/h | 9383m | -14.3m/s | -37.3°C | 32.3% | 0hPa | 2.5V | 00:00:00 | 00:00:00 | 00:00:00 | |
| PETON7-10 | 2026-09-06 01:04:57 | 48.79114 | 18.75827 | 131° | 186km/h | 9397m | -14.3m/s | -37.5°C | 32.7% | 0hPa | 2.5V | 00:00:00 | 02:30:30 | 00:00:00 | |
| GYPAP8-17 | 2026-09-06 01:04:54 | 48.79176 | 18.75720 | 132° | 186km/h | 9424m | -14.4m/s | -37.8°C | 29.2% | 0hPa | 2.5V | 00:00:00 | 00:00:00 | 00:00:00 | |
| OM5KV | 2026-09-06 01:04:52 | 48.79238 | 18.75613 | 132° | 186km/h | 9452m | -14.1m/s | -38.1°C | 29.9% | 0hPa | 2.5V | 08:13:00 | 00:00:00 | 00:00:00 | |
| OM5KV | 2026-09-06 01:04:51 | 48.79269 | 18.75560 | 132° | 186km/h | 9466m | -15.1m/s | -38.2°C | 30.2% | 0hPa | 2.5V | 08:13:00 | 00:00:00 | 00:00:00 | |
| POL2MAQ | 2026-09-06 01:04:47 | 48.79395 | 18.75348 | 134° | 186km/h | 9522m | -15.2m/s | -38.8°C | 31.0% | 0hPa | 2.5V | 08:13:00 | 00:00:00 | 00:00:00 | |
| OM5KV | 2026-09-06 01:04:46 | 48.79459 | 18.75243 | 134° | 186km/h | 9551m | -16.0m/s | -39.0°C | 31.1% | 0hPa | 2.5V | 08:13:00 | 00:00:00 | 00:00:00 | |
| PETON7-10 | 2026-09-06 01:04:42 | 48.79586 | 18.75034 | 133° | 193km/h | 9611m | -15.2m/s | -39.5°C | 35.2% | 0hPa | 2.5V | 08:12:00 | 00:00:00 | 00:00:00 | |
| OM5KV | 2026-09-06 01:04:41 | 48.79586 | 18.75034 | 133° | 186km/h | 9611m | -15.3m/s | -39.6°C | 30.8% | 0hPa | 2.5V | 08:13:00 | 00:00:00 | 00:00:00 | |
| OM5KV | 2026-09-06 01:04:40 | 48.79618 | 18.74981 | 133° | 192km/h | 9626m | -14.3m/s | -39.7°C | 30.8% | 0hPa | 2.5V | 08:13:00 | 00:00:00 | 00:00:00 | |
| HA6NAB-11 | 2026-09-06 01:04:38 | 48.79683 | 18.74872 | 133° | 192km/h | 9655m | -15.6m/s | -39.9°C | 30.2% | 0hPa | 2.5V | 00:00:00 | 00:00:00 | 00:00:00 | |
| OM5KV | 2026-09-06 01:04:35 | 48.79781 | 18.74707 | 134° | 193km/h | 9698m | -14.8m/s | -40.2°C | 30.3% | 0hPa | 2.5V | 08:13:00 | 00:00:00 | 00:00:00 | |
| OM5KV | 2026-09-06 01:04:34 | 48.79814 | 18.74653 | 134° | 192km/h | 9712m | -14.2m/s | -40.3°C | 30.3% | 0hPa | 2.5V | 08:13:00 | 00:00:00 | 00:00:00 | |
| HA6NAB-11 | 2026-09-06 01:04:32 | 48.79880 | 18.74544 | 133° | 195km/h | 9741m | -14.5m/s | -40.5°C | 30.6% | 0hPa | 2.5V | 00:00:00 | 00:00:00 | 00:00:00 | |
| OE3JTB-15 | 2026-09-06 01:04:29 | 48.80014 | 18.74322 | 133° | 201km/h | 9798m | -15.1m/s | -41.0°C | 35.8% | 0hPa | 2.5V | 00:00:00 | 02:30:02 | 00:00:00 | |
| PETON7-10 | 2026-09-06 01:04:27 | 48.80081 | 18.74211 | 133° | 197km/h | 9826m | -14.3m/s | -41.2°C | 36.3% | 0hPa | 2.5V | 00:00:00 | 00:00:00 | 00:00:00 | |
| HA6NAB-11 | 2026-09-06 01:04:22 | 48.80215 | 18.73991 | 133° | 193km/h | 9882m | -15.5m/s | -41.8°C | 32.4% | 0hPa | 2.5V | 00:00:00 | 00:00:00 | 00:00:00 | |
| OM5KV | 2026-09-06 01:04:21 | 48.80249 | 18.73936 | 133° | 195km/h | 9897m | -15.5m/s | -41.9°C | 32.6% | 0hPa | 2.5V | 08:13:00 | 00:00:00 | 00:00:00 | |
| HA6NAB-11 | 2026-09-06 01:04:17 | 48.80382 | 18.73715 | 132° | 199km/h | 9956m | -15.0m/s | -42.4°C | 32.9% | 0hPa | 2.5V | 00:00:00 | 00:00:00 | 00:00:00 | |
| OM5KV | 2026-09-06 01:04:15 | 48.80449 | 18.73601 | 132° | 201km/h | 9985m | -14.5m/s | -42.6°C | 32.6% | 0hPa | 2.5V | 08:13:00 | 00:00:00 | 00:00:00 | |
| OM5KV | 2026-09-06 01:04:14 | 48.80482 | 18.73543 | 131° | 203km/h | 10000m | -15.1m/s | -42.7°C | 32.6% | 0hPa | 2.5V | 08:13:00 | 00:00:00 | 00:00:00 | |
| PETON7-10 | 2026-09-06 01:04:12 | 48.80582 | 18.73366 | 131° | 204km/h | 10042m | -14.3m/s | -43.0°C | 37.6% | 0hPa | 2.5V | 00:00:00 | 02:29:45 | 00:00:00 | |
| OM5KV | 2026-09-06 01:04:11 | 48.80582 | 18.73366 | 131° | 204km/h | 10042m | -14.3m/s | -43.0°C | 32.5% | 0hPa | 2.5V | 08:13:00 | 00:00:00 | 00:00:00 | |
| OM5KV | 2026-09-06 01:04:10 | 48.80616 | 18.73306 | 131° | 204km/h | 10056m | -14.5m/s | -43.1°C | 32.5% | 0hPa | 2.5V | 08:13:00 | 00:00:00 | 00:00:00 | |
| POL2MAQ | 2026-09-06 01:04:07 | 48.80717 | 18.73129 | 132° | 203km/h | 10098m | -14.8m/s | -43.4°C | 32.9% | 0hPa | 2.5V | 08:13:00 | 00:00:00 | 00:00:00 | |
| OM5KV | 2026-09-06 01:04:05 | 48.80784 | 18.73012 | 131° | 203km/h | 10126m | -14.5m/s | -43.7°C | 33.1% | 0hPa | 2.5V | 08:13:00 | 00:00:00 | 00:00:00 | |
| OM5KV | 2026-09-06 01:04:04 | 48.80817 | 18.72952 | 131° | 206km/h | 10140m | -14.2m/s | -43.8°C | 33.3% | 0hPa | 2.5V | 08:13:00 | 00:00:00 | 00:00:00 | |
| OE3OSB-13 | 2026-09-06 01:03:56 | 48.81154 | 18.72358 | 129° | 204km/h | 10278m | -14.7m/s | -45.0°C | 35.7% | -1.0hPa | 2.5V | 00:00:00 | 00:00:00 | 00:00:00 | |
| OM5KV | 2026-09-06 01:03:55 | 48.81120 | 18.72418 | 131° | 206km/h | 10264m | -14.8m/s | -44.8°C | 35.3% | 0hPa | 2.5V | 08:14:00 | 00:00:00 | 00:00:00 | |
| OM5KV | 2026-09-06 01:03:51 | 48.81255 | 18.72177 | 130° | 204km/h | 10320m | -15.5m/s | -45.3°C | 37.0% | 0hPa | 2.5V | 08:14:00 | 00:00:00 | 00:00:00 | |
| OM5KV | 2026-09-06 01:03:50 | 48.81288 | 18.72117 | 130° | 204km/h | 10335m | -15.4m/s | -45.5°C | 37.5% | 0hPa | 2.5V | 08:14:00 | 00:00:00 | 00:00:00 | |
| OM5KV | 2026-09-06 01:03:49 | 48.81321 | 18.72056 | 130° | 204km/h | 10349m | -15.1m/s | -45.6°C | 37.9% | 0hPa | 2.5V | 08:14:00 | 00:00:00 | 00:00:00 | |
| POL2MAQ | 2026-09-06 01:03:46 | 48.81421 | 18.71876 | 131° | 203km/h | 10394m | -14.7m/s | -46.0°C | 39.4% | 0hPa | 2.5V | 08:14:00 | 00:00:00 | 00:00:00 | |
| OM5KV | 2026-09-06 01:03:44 | 48.81486 | 18.71756 | 131° | 203km/h | 10422m | -15.4m/s | -46.2°C | 40.4% | 0hPa | 2.5V | 08:14:00 | 00:00:00 | 00:00:00 | |
| OM5KV | 2026-09-06 01:03:43 | 48.81519 | 18.71697 | 130° | 203km/h | 10436m | -15.0m/s | -46.4°C | 40.9% | 0hPa | 2.5V | 08:14:00 | 00:00:00 | 00:00:00 | |
| PETON7-10 | 2026-09-06 01:03:42 | 48.81585 | 18.71577 | 130° | 201km/h | 10466m | -15.7m/s | -46.6°C | 48.7% | 0hPa | 2.5V | 00:00:00 | 00:00:00 | 00:00:00 | |
| OM5KV | 2026-09-06 01:03:38 | 48.81684 | 18.71398 | 130° | 201km/h | 10509m | -15.9m/s | -47.1°C | 43.5% | 0hPa | 2.5V | 08:14:00 | 00:00:00 | 00:00:00 | |
| OE3JTB-15 | 2026-09-06 01:03:31 | 48.81947 | 18.70921 | 131° | 197km/h | 10627m | -14.9m/s | -48.1°C | 52.4% | 0hPa | 2.5V | 00:00:00 | 00:00:00 | 00:00:00 | |
| OM5KV | 2026-09-06 01:03:30 | 48.81948 | 18.70921 | 132° | 201km/h | 10627m | -15.0m/s | -48.2°C | 45.0% | 0hPa | 2.5V | 08:14:00 | 00:00:00 | 00:00:00 | |
| PETON7-10 | 2026-09-06 01:03:28 | 48.82081 | 18.70686 | 131° | 199km/h | 10685m | -15.6m/s | -48.6°C | 52.0% | 0hPa | 2.5V | 00:00:00 | 02:29:00 | 00:00:00 | |
| OM5KV | 2026-09-06 01:03:27 | 48.82081 | 18.70686 | 132° | 201km/h | 10685m | -15.6m/s | -48.7°C | 44.5% | 0hPa | 2.5V | 08:14:00 | 00:00:00 | 00:00:00 | |
| OE3OSB-13 | 2026-09-06 01:03:25 | 48.82182 | 18.70510 | 130° | 199km/h | 10728m | -15.5m/s | -49.1°C | 44.0% | -1.0hPa | 2.5V | 00:00:00 | 00:00:00 | 00:00:00 | |
| OM5KV | 2026-09-06 01:03:23 | 48.82182 | 18.70510 | 132° | 199km/h | 10728m | -15.5m/s | -49.1°C | 44.3% | 0hPa | 2.5V | 08:14:00 | 00:00:00 | 00:00:00 | |
| OM5KV | 2026-09-06 01:03:20 | 48.82281 | 18.70333 | 132° | 199km/h | 10772m | -15.0m/s | -49.5°C | 44.2% | 0hPa | 2.5V | 08:14:00 | 00:00:00 | 00:00:00 | |
| OM5KV | 2026-09-06 01:03:17 | 48.82381 | 18.70157 | 132° | 199km/h | 10817m | -15.4m/s | -49.9°C | 43.7% | 0hPa | 2.5V | 08:14:00 | 00:00:00 | 00:00:00 | |
| OM5KV | 2026-09-06 01:03:14 | 48.82479 | 18.69981 | 131° | 197km/h | 10860m | -15.5m/s | -50.3°C | 42.3% | 0hPa | 2.5V | 08:14:00 | 00:00:00 | 00:00:00 | |
| OM5KV | 2026-09-06 01:03:13 | 48.82511 | 18.69922 | 131° | 197km/h | 10875m | -15.2m/s | -50.4°C | 41.8% | 0hPa | 2.5V | 08:14:00 | 00:00:00 | 00:00:00 | |
| PETON7-10 | 2026-09-06 01:03:12 | 48.82576 | 18.69806 | 131° | 195km/h | 10904m | -15.2m/s | -50.7°C | 48.2% | 0hPa | 2.5V | 00:00:00 | 00:00:00 | 00:00:00 | |
| OM5KV | 2026-09-06 01:03:10 | 48.82608 | 18.69748 | 131° | 195km/h | 10919m | -15.5m/s | -50.8°C | 39.8% | 0hPa | 2.6V | 08:15:00 | 00:00:00 | 00:00:00 | |
| OM5KV | 2026-09-06 01:03:08 | 48.82673 | 18.69632 | 131° | 195km/h | 10949m | -15.4m/s | -51.1°C | 38.5% | 0hPa | 2.6V | 08:15:00 | 00:00:00 | 00:00:00 | |
| OM5KV | 2026-09-06 01:03:07 | 48.82705 | 18.69575 | 131° | 193km/h | 10963m | -15.5m/s | -51.2°C | 38.0% | 0hPa | 2.6V | 08:15:00 | 00:00:00 | 00:00:00 | |
| OE5DRO-10 | 2026-09-06 01:03:06 | 48.82769 | 18.69459 | 131° | 197km/h | 10992m | -15.6m/s | -51.3°C | 44.1% | 0hPa | 2.6V | 00:00:00 | 00:00:00 | 00:00:00 | |
| POL2MAQ | 2026-09-06 01:03:05 | 48.82769 | 18.69460 | 131° | 195km/h | 10992m | -15.6m/s | -51.4°C | 36.9% | 0hPa | 2.6V | 08:15:00 | 00:00:00 | 00:00:00 | |
| HA6NAB-11 | 2026-09-06 01:03:03 | 48.82833 | 18.69344 | 131° | 195km/h | 11022m | -15.8m/s | -51.6°C | 37.0% | 0hPa | 2.6V | 00:00:00 | 00:00:00 | 00:00:00 | |
| OE3OSB-13 | 2026-09-06 01:02:54 | 48.83180 | 18.68701 | 127° | 199km/h | 11187m | -15.4m/s | -52.3°C | 39.2% | -1.0hPa | 2.6V | 00:00:00 | 00:00:00 | 00:00:00 | |
| OM5KV | 2026-09-06 01:02:52 | 48.83180 | 18.68701 | 128° | 199km/h | 11187m | -15.4m/s | -52.3°C | 39.4% | 0hPa | 2.6V | 08:15:00 | 00:00:00 | 00:00:00 | |
| HA6NAB-11 | 2026-09-06 01:02:51 | 48.83211 | 18.68640 | 128° | 201km/h | 11201m | -14.8m/s | -52.4°C | 39.2% | 0hPa | 2.6V | 00:00:00 | 00:00:00 | 00:00:00 | |
| OE5DRO-10 | 2026-09-06 01:02:47 | 48.83360 | 18.68330 | 126° | 204km/h | 11275m | -15.0m/s | -53.0°C | 46.7% | 0hPa | 2.6V | 00:00:00 | 00:00:00 | 00:00:00 | |
| POL2MAQ | 2026-09-06 01:02:45 | 48.83390 | 18.68268 | 127° | 201km/h | 11290m | -14.2m/s | -53.1°C | 38.5% | 0hPa | 2.6V | 08:15:00 | 00:00:00 | 00:00:00 | |
| PETON7-10 | 2026-09-06 01:02:42 | 48.83507 | 18.68015 | 125° | 197km/h | 11346m | -14.6m/s | -53.6°C | 46.1% | 0hPa | 2.6V | 00:00:00 | 02:28:15 | 00:00:00 | |
| OM5KV | 2026-09-06 01:02:39 | 48.83565 | 18.67889 | 126° | 199km/h | 11375m | -15.4m/s | -53.8°C | 37.6% | 0hPa | 2.6V | 08:15:00 | 00:00:00 | 00:00:00 | |
| HA6NAB-11 | 2026-09-06 01:02:34 | 48.83706 | 18.67576 | 125° | 195km/h | 11447m | -15.5m/s | -54.5°C | 36.8% | 0hPa | 2.6V | 00:00:00 | 00:00:00 | 00:00:00 | |
| OE3JTB-15 | 2026-09-06 01:02:33 | 48.83761 | 18.67450 | 124° | 206km/h | 11477m | -15.5m/s | -54.7°C | 44.5% | 0hPa | 2.6V | 00:00:00 | 00:00:00 | 00:00:00 | |
| OM5KV | 2026-09-06 01:02:29 | 48.83843 | 18.67261 | 125° | 197km/h | 11523m | -15.4m/s | -55.1°C | 35.3% | 0hPa | 2.6V | 08:15:00 | 00:00:00 | 00:00:00 | |
| OM5KV | 2026-09-06 01:02:28 | 48.83871 | 18.67198 | 125° | 197km/h | 11538m | -16.1m/s | -55.3°C | 34.7% | 0hPa | 2.6V | 08:15:00 | 00:00:00 | 00:00:00 | |
| PETON7-10 | 2026-09-06 01:02:27 | 48.83927 | 18.67071 | 124° | 208km/h | 11569m | -15.5m/s | -55.5°C | 41.7% | 0hPa | 2.6V | 08:14:00 | 00:00:00 | 00:00:00 | |
| POL2MAQ | 2026-09-06 01:02:24 | 48.83983 | 18.66943 | 124° | 203km/h | 11599m | -15.5m/s | -55.8°C | 32.8% | 0hPa | 2.6V | 08:15:00 | 00:00:00 | 00:00:00 | |
| OE3OSB-13 | 2026-09-06 01:02:22 | 48.84070 | 18.66746 | 123° | 210km/h | 11642m | -13.8m/s | -55.7°C | 30.2% | -1.0hPa | 2.6V | 00:00:00 | 00:00:00 | 00:00:00 | |
| OM5KV | 2026-09-06 01:02:21 | 48.84070 | 18.66746 | 125° | 212km/h | 11642m | -13.8m/s | -55.7°C | 30.5% | 0hPa | 2.6V | 08:15:00 | 00:00:00 | 00:00:00 | |
| OM5KV | 2026-09-06 01:02:14 | 48.84286 | 18.66286 | 127° | 210km/h | 11738m | -14.3m/s | -56.2°C | 29.2% | 0hPa | 2.6V | 08:15:00 | 00:00:00 | 00:00:00 | |
| PETON7-10 | 2026-09-06 01:02:12 | 48.84381 | 18.66096 | 129° | 208km/h | 11781m | -13.9m/s | -56.3°C | 37.0% | 0hPa | 2.6V | 00:00:00 | 00:00:00 | 00:00:00 | |
| OE5DRO-10 | 2026-09-06 01:02:08 | 48.84514 | 18.65846 | 130° | 204km/h | 11837m | -13.3m/s | -56.0°C | 34.4% | 0hPa | 2.6V | 00:00:00 | 00:00:00 | 00:00:00 | |
| OE3JTB-15 | 2026-09-06 01:02:04 | 48.84651 | 18.65601 | 131° | 204km/h | 11892m | -14.6m/s | -56.0°C | 32.3% | 0hPa | 2.5V | 00:00:00 | 00:00:00 | 00:00:00 | |
| OM5KV | 2026-09-06 01:02:02 | 48.84685 | 18.65541 | 131° | 206km/h | 11906m | -14.6m/s | -55.5°C | 23.7% | 0hPa | 2.5V | 08:15:00 | 00:00:00 | 00:00:00 | |
| OE3OSB-13 | 2026-09-06 01:01:52 | 48.85060 | 18.64790 | 125° | 203km/h | 12073m | -15.9m/s | -55.2°C | 20.1% | -1.0hPa | 2.5V | 00:00:00 | 00:00:00 | 00:00:00 | |
| PG1ADW-2 | 2026-09-06 01:01:50 | 48.85090 | 18.64727 | 126° | 204km/h | 12088m | -15.4m/s | -55.2°C | 26.3% | 0hPa | 2.5V | 00:00:00 | 00:00:00 | 00:00:00 | |
| OE5DRO-10 | 2026-09-06 01:01:49 | 48.85121 | 18.64663 | 126° | 204km/h | 12103m | -14.7m/s | -55.3°C | 26.1% | 0hPa | 2.5V | 00:00:00 | 00:00:00 | 00:00:00 | |
| OM5KV | 2026-09-06 01:01:45 | 48.85210 | 18.64472 | 126° | 203km/h | 12146m | -15.9m/s | -55.4°C | 19.5% | 0hPa | 2.5V | 08:15:00 | 00:00:00 | 00:00:00 | |
| POL2MAQ | 2026-09-06 01:01:44 | 48.85240 | 18.64409 | 126° | 203km/h | 12162m | -15.0m/s | -55.5°C | 19.5% | 0hPa | 2.5V | 08:15:00 | 00:00:00 | 00:00:00 | |
| PETON7-10 | 2026-09-06 01:01:42 | 48.85329 | 18.64219 | 125° | 204km/h | 12204m | -14.3m/s | -55.7°C | 25.1% | 0hPa | 2.5V | 00:00:00 | 00:00:00 | 00:00:00 | |
| OM5KV | 2026-09-06 01:01:39 | 48.85389 | 18.64093 | 127° | 204km/h | 12231m | -13.5m/s | -55.9°C | 19.1% | 0hPa | 2.5V | 08:15:00 | 00:00:00 | 00:00:00 | |
| OM5KV | 2026-09-06 01:01:37 | 48.85450 | 18.63968 | 127° | 206km/h | 12258m | -14.3m/s | -56.1°C | 18.8% | 0hPa | 2.5V | 08:15:00 | 00:00:00 | 00:00:00 | |
| OE3JTB-15 | 2026-09-06 01:01:35 | 48.85543 | 18.63779 | 127° | 184km/h | 12301m | -13.8m/s | -56.3°C | 24.8% | 0hPa | 2.5V | 00:00:00 | 02:27:08 | 00:00:00 | |
| OM5KV | 2026-09-06 01:01:34 | 48.85543 | 18.63779 | 128° | 206km/h | 12301m | -13.9m/s | -56.4°C | 18.8% | 0hPa | 2.5V | 08:15:00 | 00:00:00 | 00:00:00 | |
| PG1ADW-2 | 2026-09-06 01:01:30 | 48.85703 | 18.63473 | 130° | 193km/h | 12370m | -13.3m/s | -56.9°C | 24.6% | 0hPa | 2.5V | 00:00:00 | 02:27:03 | 00:00:00 | |
| PETON7-10 | 2026-09-06 01:01:27 | 48.85802 | 18.63291 | 131° | 193km/h | 12412m | -14.1m/s | -57.1°C | 23.7% | 0hPa | 2.6V | 00:00:00 | 00:00:00 | 00:00:00 | |
| OM5KV | 2026-09-06 01:01:26 | 48.85802 | 18.63291 | 131° | 203km/h | 12412m | -14.2m/s | -57.2°C | 17.6% | 0hPa | 2.6V | 08:16:00 | 00:00:00 | 00:00:00 | |
| POL2MAQ | 2026-09-06 01:01:23 | 48.85901 | 18.63114 | 132° | 197km/h | 12453m | -14.0m/s | -57.4°C | 16.9% | 0hPa | 2.6V | 08:16:00 | 00:00:00 | 00:00:00 | |
| OM5KV | 2026-09-06 01:01:21 | 48.85966 | 18.63000 | 132° | 195km/h | 12480m | -12.8m/s | -57.4°C | 15.9% | 0hPa | 2.6V | 08:16:00 | 00:00:00 | 00:00:00 | |
| OM5KV | 2026-09-06 01:01:20 | 48.85999 | 18.62943 | 133° | 197km/h | 12493m | -14.6m/s | -57.4°C | 15.3% | 0hPa | 2.6V | 08:16:00 | 00:00:00 | 00:00:00 | |
| OM5KV | 2026-09-06 01:01:19 | 48.86032 | 18.62887 | 133° | 197km/h | 12507m | -15.1m/s | -57.4°C | 15.0% | 0hPa | 2.6V | 08:16:00 | 00:00:00 | 00:00:00 | |
| HA6NAB-11 | 2026-09-06 01:01:17 | 48.86099 | 18.62779 | 135° | 190km/h | 12537m | -14.8m/s | -57.3°C | 14.1% | 0hPa | 2.6V | 00:00:00 | 00:00:00 | 00:00:00 | |
| OE5DXL-15 | 2026-09-06 01:01:15 | 48.86199 | 18.62625 | 136° | 161km/h | 12580m | -14.0m/s | -56.9°C | 17.7% | 0hPa | 2.6V | 00:00:00 | 00:00:00 | 00:00:00 | |
| PETON7-10 | 2026-09-06 01:01:12 | 48.86299 | 18.62480 | 138° | 166km/h | 12621m | -13.5m/s | -56.8°C | 16.5% | 0hPa | 2.6V | 00:00:00 | 02:26:45 | 00:00:00 | |
| OE5DRO-10 | 2026-09-06 01:01:11 | 48.86332 | 18.62434 | 138° | 161km/h | 12635m | -15.4m/s | -56.5°C | 15.7% | 0hPa | 2.6V | 00:00:00 | 00:00:00 | 00:00:00 | |
| PG1ADW-2 | 2026-09-06 01:01:10 | 48.86365 | 18.62388 | 136° | 159km/h | 12649m | -14.3m/s | -56.4°C | 15.2% | 0hPa | 2.5V | 00:00:00 | 00:00:00 | 00:00:00 | |
| OM5KV | 2026-09-06 01:01:09 | 48.86365 | 18.62388 | 137° | 179km/h | 12649m | -14.3m/s | -56.5°C | 10.6% | 0hPa | 2.5V | 08:16:00 | 00:00:00 | 00:00:00 | |
| HA6NAB-11 | 2026-09-06 01:01:06 | 48.86462 | 18.62251 | 138° | 172km/h | 12694m | -14.4m/s | -56.5°C | 9.7% | 0hPa | 2.5V | 00:00:00 | 00:00:00 | 00:00:00 | |
| OM5KV | 2026-09-06 01:01:04 | 48.86525 | 18.62163 | 137° | 166km/h | 12724m | -14.3m/s | -56.5°C | 9.1% | 0hPa | 2.5V | 08:16:00 | 00:00:00 | 00:00:00 | |
| POL2MAQ | 2026-09-06 01:01:03 | 48.86555 | 18.62120 | 137° | 162km/h | 12737m | -13.6m/s | -56.6°C | 8.8% | 0hPa | 2.5V | 08:16:00 | 00:00:00 | 00:00:00 | |
| OE3OSB-13 | 2026-09-06 01:00:49 | 48.86937 | 18.61475 | 127° | 146km/h | 12984m | -17.0m/s | -57.6°C | 6.5% | -1.0hPa | 2.5V | 00:00:00 | 00:00:00 | 00:00:00 | |
| OM5KV | 2026-09-06 01:00:47 | 48.86959 | 18.61430 | 128° | 148km/h | 13000m | -16.5m/s | -57.7°C | 6.7% | 0hPa | 2.5V | 08:16:00 | 00:00:00 | 00:00:00 | |
| OE5DXL-15 | 2026-09-06 01:00:45 | 48.87026 | 18.61294 | 127° | 133km/h | 13048m | -15.4m/s | -58.2°C | 10.6% | 0hPa | 2.5V | 00:00:00 | 00:00:00 | 00:00:00 | |
| OM5KV | 2026-09-06 01:00:44 | 48.87026 | 18.61294 | 127° | 146km/h | 13048m | -15.4m/s | -58.2°C | 6.5% | 0hPa | 2.6V | 08:16:00 | 00:00:00 | 00:00:00 | |
| PETON7-10 | 2026-09-06 01:00:42 | 48.87088 | 18.61163 | 125° | 133km/h | 13097m | -18.0m/s | -58.6°C | 10.4% | 0hPa | 2.6V | 00:00:00 | 00:00:00 | 00:00:00 | |
| OM5KV | 2026-09-06 01:00:41 | 48.87088 | 18.61163 | 125° | 135km/h | 13097m | -18.0m/s | -58.7°C | 6.1% | 0hPa | 2.6V | 08:16:00 | 00:00:00 | 00:00:00 | |
| OM5KV | 2026-09-06 01:00:40 | 48.87107 | 18.61119 | 125° | 139km/h | 13114m | -15.6m/s | -58.7°C | 6.0% | 0hPa | 2.6V | 08:16:00 | 00:00:00 | 00:00:00 | |
| OM5KV | 2026-09-06 01:00:34 | 48.87212 | 18.60852 | 118° | 130km/h | 13209m | -16.5m/s | -58.4°C | 4.9% | 0hPa | 2.6V | 08:17:00 | 00:00:00 | 00:00:00 | |
| OE5DRO-10 | 2026-09-06 01:00:33 | 48.87241 | 18.60761 | 116° | 131km/h | 13241m | -16.2m/s | -58.3°C | 8.4% | 0hPa | 2.6V | 00:00:00 | 00:00:00 | 00:00:00 | |
| PG1ADW-2 | 2026-09-06 01:00:30 | 48.87281 | 18.60624 | 112° | 133km/h | 13287m | -15.5m/s | -58.6°C | 8.1% | 0hPa | 2.6V | 00:00:00 | 00:00:00 | 00:00:00 | |
| PETON7-10 | 2026-09-06 01:00:27 | 48.87317 | 18.60483 | 110° | 131km/h | 13335m | -18.1m/s | -58.3°C | 7.4% | 0hPa | 2.5V | 00:00:00 | 02:26:00 | 00:00:00 | |
| OM5KV | 2026-09-06 01:00:23 | 48.87353 | 18.60342 | 112° | 130km/h | 13389m | -18.5m/s | -57.7°C | 3.3% | 0hPa | 2.5V | 08:17:00 | 00:00:00 | 00:00:00 | |
| OM5KV | 2026-09-06 01:00:22 | 48.87365 | 18.60295 | 113° | 131km/h | 13407m | -17.5m/s | -57.6°C | 3.2% | 0hPa | 2.5V | 08:17:00 | 00:00:00 | 00:00:00 | |
| POL2MAQ | 2026-09-06 01:00:21 | 48.87378 | 18.60249 | 113° | 133km/h | 13424m | -16.4m/s | -57.6°C | 3.1% | 0hPa | 2.5V | 08:17:00 | 00:00:00 | 00:00:00 | |
| OM5KV | 2026-09-06 01:00:18 | 48.87426 | 18.60062 | 111° | 131km/h | 13487m | -15.8m/s | -57.6°C | 3.1% | 0hPa | 2.5V | 08:17:00 | 00:00:00 | 00:00:00 | |
| OE5DXL-15 | 2026-09-06 01:00:15 | 48.87461 | 18.59919 | 111° | 131km/h | 13532m | -16.5m/s | -57.4°C | 6.3% | 0hPa | 2.5V | 00:00:00 | 00:00:00 | 00:00:00 | |
| PETON7-10 | 2026-09-06 01:00:12 | 48.87494 | 18.59776 | 109° | 139km/h | 13582m | -16.4m/s | -57.5°C | 6.2% | 0hPa | 2.5V | 08:17:00 | 00:00:00 | 00:00:00 | |
| OM5KV | 2026-09-06 01:00:11 | 48.87494 | 18.59776 | 110° | 135km/h | 13582m | -16.5m/s | -57.6°C | 2.9% | 0hPa | 2.5V | 08:17:00 | 00:00:00 | 00:00:00 | |
| PG1ADW-2 | 2026-09-06 01:00:10 | 48.87516 | 18.59677 | 109° | 135km/h | 13615m | -16.8m/s | -57.8°C | 6.3% | 0hPa | 2.5V | 00:00:00 | 02:25:43 | 00:00:00 | |
| OM5KV | 2026-09-06 01:00:05 | 48.87561 | 18.59478 | 110° | 139km/h | 13684m | -17.2m/s | -58.2°C | 3.0% | 0hPa | 2.5V | 08:17:00 | 00:00:00 | 00:00:00 | |
| OE3OSB-13 | 2026-09-06 00:59:47 | 48.87814 | 18.58595 | 116° | 117km/h | 14002m | -18.9m/s | -57.1°C | 2.3% | -1.0hPa | 2.5V | 00:00:00 | 00:00:00 | 00:00:00 | |
| OE5DXL-15 | 2026-09-06 00:59:45 | 48.87842 | 18.58515 | 117° | 108km/h | 14038m | -18.0m/s | -57.1°C | 5.7% | 0hPa | 2.5V | 00:00:00 | 00:00:00 | 00:00:00 | |
| OM5KV | 2026-09-06 00:59:43 | 48.87855 | 18.58475 | 118° | 117km/h | 14055m | -17.4m/s | -57.2°C | 2.5% | 0hPa | 2.5V | 08:18:00 | 00:00:00 | 00:00:00 | |
| PETON7-10 | 2026-09-06 00:59:42 | 48.87882 | 18.58395 | 117° | 113km/h | 14090m | -17.1m/s | -57.2°C | 5.7% | 0hPa | 2.5V | 00:00:00 | 02:25:15 | 00:00:00 | |
| OM5KV | 2026-09-06 00:59:41 | 48.87882 | 18.58395 | 117° | 119km/h | 14090m | -17.2m/s | -57.3°C | 2.5% | 0hPa | 2.5V | 08:18:00 | 00:00:00 | 00:00:00 | |
| OE5DRO-10 | 2026-09-06 00:59:36 | 48.87963 | 18.58154 | 118° | 106km/h | 14192m | -19.8m/s | -57.3°C | 5.7% | 0hPa | 2.5V | 00:00:00 | 00:00:00 | 00:00:00 | |
| HA6NAB-11 | 2026-09-06 00:59:34 | 48.87976 | 18.58116 | 117° | 111km/h | 14212m | -19.1m/s | -57.3°C | 2.4% | 0hPa | 2.5V | 00:00:00 | 00:00:00 | 00:00:00 | |
| OM5KV | 2026-09-06 00:59:33 | 48.88001 | 18.58039 | 117° | 110km/h | 14248m | -17.9m/s | -57.2°C | 2.4% | 0hPa | 2.5V | 08:18:00 | 00:00:00 | 00:00:00 | |
| PG1ADW-2 | 2026-09-06 00:59:30 | 48.88039 | 18.57925 | 118° | 102km/h | 14299m | -16.4m/s | -57.1°C | 5.6% | 0hPa | 2.5V | 08:17:00 | 00:00:00 | 00:00:00 | |
| HA6NAB-11 | 2026-09-06 00:59:28 | 48.88052 | 18.57888 | 119° | 108km/h | 14316m | -17.1m/s | -57.2°C | 2.4% | 0hPa | 2.5V | 00:00:00 | 00:00:00 | 00:00:00 | |
| PETON7-10 | 2026-09-06 00:59:27 | 48.88078 | 18.57816 | 119° | 100km/h | 14350m | -17.8m/s | -57.2°C | 5.6% | 0hPa | 2.5V | 00:00:00 | 00:00:00 | 00:00:00 | |
| OM5KV | 2026-09-06 00:59:26 | 48.88078 | 18.57817 | 119° | 106km/h | 14350m | -17.8m/s | -57.2°C | 2.4% | 0hPa | 2.5V | 08:18:00 | 00:00:00 | 00:00:00 | |
| OE3JTB-15 | 2026-09-06 00:59:25 | 48.88103 | 18.57747 | 119° | 102km/h | 14383m | -17.4m/s | -57.2°C | 5.6% | 0hPa | 2.5V | 08:17:00 | 00:00:00 | 00:00:00 | |
| HA6NAB-11 | 2026-09-06 00:59:22 | 48.88127 | 18.57679 | 117° | 102km/h | 14417m | -18.0m/s | -57.3°C | 2.4% | 0hPa | 2.6V | 00:00:00 | 00:00:00 | 00:00:00 | |
| POL2MAQ | 2026-09-06 00:59:20 | 48.88161 | 18.57574 | 116° | 100km/h | 14469m | -19.2m/s | -57.2°C | 2.3% | 0hPa | 2.6V | 08:18:00 | 00:00:00 | 00:00:00 | |
| OM5KV | 2026-09-06 00:59:19 | 48.88161 | 18.57574 | 116° | 100km/h | 14469m | -19.2m/s | -57.2°C | 2.3% | 0hPa | 2.6V | 08:18:00 | 00:00:00 | 00:00:00 | |
| OE5DRO-10 | 2026-09-06 00:59:17 | 48.88195 | 18.57472 | 116° | 102km/h | 14524m | -19.3m/s | -57.1°C | 5.5% | 0hPa | 2.6V | 00:00:00 | 00:00:00 | 00:00:00 | |
| HA6NAB-11 | 2026-09-06 00:59:16 | 48.88195 | 18.57472 | 117° | 99km/h | 14524m | -19.3m/s | -57.2°C | 2.3% | 0hPa | 2.5V | 00:00:00 | 00:00:00 | 00:00:00 | |
| OM5KV | 2026-09-06 00:59:15 | 48.88217 | 18.57405 | 116° | 99km/h | 14563m | -18.4m/s | -57.2°C | 2.3% | 0hPa | 2.5V | 08:18:00 | 00:00:00 | 00:00:00 | |
| OM5KV | 2026-09-06 00:59:14 | 48.88228 | 18.57371 | 116° | 100km/h | 14581m | -18.4m/s | -57.3°C | 2.3% | 0hPa | 2.5V | 08:18:00 | 00:00:00 | 00:00:00 | |
| OM5KV | 2026-09-06 00:59:13 | 48.88228 | 18.57371 | 116° | 100km/h | 14581m | -18.4m/s | -57.3°C | 2.3% | 0hPa | 2.5V | 08:18:00 | 00:00:00 | 00:00:00 | |
| PETON7-10 | 2026-09-06 00:59:12 | 48.88249 | 18.57301 | 115° | 104km/h | 14617m | -18.6m/s | -57.4°C | 5.6% | 0hPa | 2.5V | 00:00:00 | 00:00:00 | 00:00:00 | |
| PG1ADW-2 | 2026-09-06 00:59:10 | 48.88271 | 18.57232 | 115° | 108km/h | 14652m | -18.9m/s | -57.6°C | 5.7% | 0hPa | 2.5V | 00:00:00 | 00:00:00 | 00:00:00 | |
| OM5KV | 2026-09-06 00:59:09 | 48.88282 | 18.57197 | 116° | 102km/h | 14671m | -18.1m/s | -57.7°C | 2.4% | 0hPa | 2.5V | 08:18:00 | 00:00:00 | 00:00:00 | |
| OM5KV | 2026-09-06 00:59:08 | 48.88293 | 18.57162 | 115° | 104km/h | 14689m | -18.2m/s | -57.7°C | 2.4% | 0hPa | 2.5V | 08:18:00 | 00:00:00 | 00:00:00 | |
| OM5KV | 2026-09-06 00:59:03 | 48.88335 | 18.57019 | 114° | 106km/h | 14758m | -16.8m/s | -57.5°C | 2.3% | 0hPa | 2.5V | 08:18:00 | 00:00:00 | 00:00:00 | |
| OM5KV | 2026-09-06 00:59:01 | 48.88357 | 18.56946 | 114° | 106km/h | 14792m | -18.2m/s | -57.6°C | 2.3% | 0hPa | 2.5V | 08:18:00 | 00:00:00 | 00:00:00 | |
| POL2MAQ | 2026-09-06 00:58:59 | 48.88379 | 18.56872 | 114° | 110km/h | 14829m | -17.7m/s | -57.6°C | 2.3% | 0hPa | 2.5V | 08:18:00 | 00:00:00 | 00:00:00 | |
| OE5DRO-10 | 2026-09-06 00:58:58 | 48.88401 | 18.56797 | 116° | 115km/h | 14865m | -16.3m/s | -57.3°C | 5.4% | 0hPa | 2.5V | 00:00:00 | 00:00:00 | 00:00:00 | |
| PETON7-10 | 2026-09-06 00:58:57 | 48.88413 | 18.56758 | 116° | 117km/h | 14882m | -18.0m/s | -57.2°C | 5.3% | 0hPa | 2.5V | 00:00:00 | 02:24:30 | 00:00:00 | |
| OE3JTB-15 | 2026-09-06 00:58:56 | 48.88425 | 18.56720 | 115° | 113km/h | 14900m | -18.8m/s | -57.0°C | 5.3% | 0hPa | 2.5V | 00:00:00 | 00:00:00 | 00:00:00 | |
| OM5KV | 2026-09-06 00:58:55 | 48.88425 | 18.56720 | 116° | 111km/h | 14900m | -18.9m/s | -57.0°C | 2.2% | 0hPa | 2.5V | 08:19:00 | 00:00:00 | 00:00:00 | |
| OM5KV | 2026-09-06 00:58:54 | 48.88438 | 18.56681 | 116° | 113km/h | 14918m | -17.7m/s | -56.8°C | 2.1% | 0hPa | 2.5V | 08:19:00 | 00:00:00 | 00:00:00 | |
| SQ9EZE-14 | 2026-09-06 00:58:53 | 48.88449 | 18.56642 | 116° | 113km/h | 14935m | -16.6m/s | 0°C | 0% | 0hPa | 2.5V | 00:00:00 | 00:00:00 | 00:00:00 | |
| PG1ADW-2 | 2026-09-06 00:58:50 | 48.88498 | 18.56484 | 116° | 115km/h | 15005m | -17.2m/s | -56.7°C | 5.0% | 0hPa | 2.5V | 00:00:00 | 02:24:23 | 00:00:00 | |
| OM5KV | 2026-09-06 00:58:48 | 48.88511 | 18.56444 | 117° | 115km/h | 15022m | -17.3m/s | -56.9°C | 2.0% | 0hPa | 2.5V | 08:19:00 | 00:00:00 | 00:00:00 | |
| OE5DXL-15 | 2026-09-06 00:58:45 | 48.88563 | 18.56280 | 116° | 106km/h | 15093m | -18.9m/s | -57.5°C | 5.2% | 0hPa | 2.5V | 00:00:00 | 00:00:00 | 00:00:00 | |
| OM5KV | 2026-09-06 00:58:43 | 48.88577 | 18.56238 | 118° | 122km/h | 15111m | -18.4m/s | -57.7°C | 2.1% | 0hPa | 2.5V | 08:19:00 | 00:00:00 | 00:00:00 | |
| PETON7-10 | 2026-09-06 00:58:42 | 48.88606 | 18.56156 | 119° | 111km/h | 15146m | -17.6m/s | -58.0°C | 5.5% | 0hPa | 2.5V | 00:00:00 | 00:00:00 | 00:00:00 | |
| OE5DRO-10 | 2026-09-06 00:58:39 | 48.88648 | 18.56036 | 119° | 106km/h | 15201m | -18.9m/s | -58.5°C | 5.8% | 0hPa | 2.5V | 00:00:00 | 00:00:00 | 00:00:00 | |
| OM5KV | 2026-09-06 00:58:38 | 48.88662 | 18.55997 | 120° | 115km/h | 15220m | -20.5m/s | -58.7°C | 2.3% | 0hPa | 2.5V | 08:19:00 | 00:00:00 | 00:00:00 | |
| OM5KV | 2026-09-06 00:58:34 | 48.88704 | 18.55882 | 120° | 113km/h | 15277m | -18.0m/s | -58.6°C | 2.3% | 0hPa | 2.5V | 08:19:00 | 00:00:00 | 00:00:00 | |
| OM5KV | 2026-09-06 00:58:31 | 48.88745 | 18.55770 | 121° | 106km/h | 15331m | -18.0m/s | -58.7°C | 2.4% | 0hPa | 2.5V | 08:19:00 | 00:00:00 | 00:00:00 | |
| PG1ADW-2 | 2026-09-06 00:58:30 | 48.88771 | 18.55697 | 120° | 93km/h | 15364m | -16.3m/s | -58.9°C | 6.1% | 0hPa | 2.5V | 00:00:00 | 00:00:00 | 00:00:00 | |
| OM5KV | 2026-09-06 00:58:29 | 48.88771 | 18.55697 | 121° | 104km/h | 15364m | -16.4m/s | -58.9°C | 2.3% | 0hPa | 2.5V | 08:19:00 | 00:00:00 | 00:00:00 | |
| PETON7-10 | 2026-09-06 00:58:27 | 48.88810 | 18.55595 | 121° | 93km/h | 15420m | -19.8m/s | -59.1°C | 6.3% | 0hPa | 2.5V | 00:00:00 | 00:00:00 | 00:00:00 | |
| GYPAP8-17 | 2026-09-06 00:58:26 | 48.88811 | 18.55595 | 122° | 100km/h | 15420m | -19.8m/s | -59.1°C | 2.3% | 0hPa | 2.5V | 00:00:00 | 00:00:00 | 00:00:00 | |
| OM5KV | 2026-09-06 00:58:25 | 48.88824 | 18.55562 | 122° | 99km/h | 15439m | -19.6m/s | -59.1°C | 2.4% | 0hPa | 2.5V | 08:19:00 | 00:00:00 | 00:00:00 | |
| OM5KV | 2026-09-06 00:58:20 | 48.88901 | 18.55371 | 123° | 89km/h | 15541m | -17.9m/s | -57.2°C | 2.0% | 0hPa | 2.5V | 08:19:00 | 00:00:00 | 00:00:00 | |
| POL2MAQ | 2026-09-06 00:58:19 | 48.88913 | 18.55342 | 123° | 89km/h | 15559m | -19.2m/s | -57.1°C | 2.0% | 0hPa | 2.5V | 08:19:00 | 00:00:00 | 00:00:00 | |
| OM5KV | 2026-09-06 00:58:18 | 48.88913 | 18.55342 | 123° | 89km/h | 15559m | -19.2m/s | -57.1°C | 2.0% | 0hPa | 2.5V | 08:19:00 | 00:00:00 | 00:00:00 | |
| OE5DXL-15 | 2026-09-06 00:58:15 | 48.88961 | 18.55227 | 122° | 78km/h | 15633m | -18.1m/s | -56.4°C | 5.0% | 0hPa | 2.5V | 00:00:00 | 00:00:00 | 00:00:00 | |
| OE3OSB-13 | 2026-09-06 00:58:14 | 48.88972 | 18.55199 | 120° | 86km/h | 15651m | -17.3m/s | -56.5°C | 1.7% | -1.0hPa | 2.5V | 00:00:00 | 00:00:00 | 00:00:00 | |
| OM5KV | 2026-09-06 00:58:13 | 48.88972 | 18.55199 | 121° | 88km/h | 15651m | -17.3m/s | -56.5°C | 1.9% | 0hPa | 2.5V | 08:19:00 | 00:00:00 | 00:00:00 | |
| PETON7-10 | 2026-09-06 00:58:12 | 48.88995 | 18.55142 | 120° | 77km/h | 15687m | -18.8m/s | -56.5°C | 5.1% | 0hPa | 2.5V | 00:00:00 | 02:23:45 | 00:00:00 | |
| PG1ADW-2 | 2026-09-06 00:58:10 | 48.89017 | 18.55088 | 120° | 77km/h | 15722m | -19.1m/s | -56.4°C | 5.1% | 0hPa | 2.5V | 00:00:00 | 00:00:00 | 00:00:00 | |
| OM5KV | 2026-09-06 00:58:08 | 48.89027 | 18.55061 | 120° | 77km/h | 15741m | -18.8m/s | -56.4°C | 1.8% | 0hPa | 2.5V | 08:19:00 | 00:00:00 | 00:00:00 | |
| OM5KV | 2026-09-06 00:58:07 | 48.89036 | 18.55036 | 120° | 75km/h | 15760m | -19.9m/s | -56.3°C | 1.8% | 0hPa | 2.5V | 08:19:00 | 00:00:00 | 00:00:00 | |
| OM5KV | 2026-09-06 00:58:02 | 48.89084 | 18.54910 | 118° | 75km/h | 15857m | -19.9m/s | -56.5°C | 1.9% | 0hPa | 2.5V | 08:20:00 | 00:00:00 | 00:00:00 | |
| OE5DRO-10 | 2026-09-06 00:58:01 | 48.89102 | 18.54857 | 117° | 75km/h | 15896m | -20.5m/s | -56.1°C | 5.0% | 0hPa | 2.5V | 00:00:00 | 00:00:00 | 00:00:00 | |
| HA6NAB-11 | 2026-09-06 00:58:00 | 48.89102 | 18.54857 | 117° | 77km/h | 15896m | -20.5m/s | -56.1°C | 1.8% | 0hPa | 2.5V | 00:00:00 | 00:00:00 | 00:00:00 | |
| OE3JTB-15 | 2026-09-06 00:57:58 | 48.89128 | 18.54779 | 116° | 75km/h | 15955m | -20.3m/s | -55.5°C | 4.7% | 0hPa | 2.5V | 00:00:00 | 00:00:00 | 00:00:00 | |
| PETON7-10 | 2026-09-06 00:57:57 | 48.89137 | 18.54752 | 117° | 75km/h | 15975m | -19.8m/s | -55.5°C | 4.7% | 0hPa | 2.5V | 08:19:00 | 00:00:00 | 00:00:00 | |
| OM5KV | 2026-09-06 00:57:56 | 48.89137 | 18.54752 | 117° | 78km/h | 15975m | -19.9m/s | -55.5°C | 1.7% | 0hPa | 2.5V | 08:20:00 | 00:00:00 | 00:00:00 | |
| OM5KV | 2026-09-06 00:57:55 | 48.89146 | 18.54725 | 117° | 78km/h | 15994m | -19.2m/s | -55.6°C | 1.7% | 0hPa | 2.5V | 08:20:00 | 00:00:00 | 00:00:00 | |
| OM5KV | 2026-09-06 00:57:52 | 48.89182 | 18.54616 | 116° | 77km/h | 16070m | -19.4m/s | -56.0°C | 1.8% | 0hPa | 2.5V | 08:20:00 | 00:00:00 | 00:00:00 | |
| PG1ADW-2 | 2026-09-06 00:57:50 | 48.89199 | 18.54561 | 115° | 75km/h | 16107m | -18.5m/s | -56.0°C | 4.9% | 0hPa | 2.5V | 00:00:00 | 00:00:00 | 00:00:00 | |
| HA6NAB-11 | 2026-09-06 00:57:49 | 48.89199 | 18.54561 | 116° | 78km/h | 16107m | -18.5m/s | -56.0°C | 1.8% | 0hPa | 2.5V | 00:00:00 | 00:00:00 | 00:00:00 | |
| OM5KV | 2026-09-06 00:57:45 | 48.89236 | 18.54436 | 112° | 69km/h | 16198m | -20.6m/s | -55.4°C | 1.6% | 0hPa | 2.5V | 08:20:00 | 00:00:00 | 00:00:00 | |
| OM5KV | 2026-09-06 00:57:44 | 48.89236 | 18.54436 | 112° | 69km/h | 16198m | -20.6m/s | -55.4°C | 1.6% | 0hPa | 2.5V | 08:20:00 | 00:00:00 | 00:00:00 | |
| OE3OSB-13 | 2026-09-06 00:57:43 | 48.89249 | 18.54386 | 109° | 69km/h | 16237m | -19.1m/s | -55.4°C | 1.5% | -1.0hPa | 2.5V | 00:00:00 | 00:00:00 | 00:00:00 | |
| PETON7-10 | 2026-09-06 00:57:42 | 48.89255 | 18.54360 | 109° | 77km/h | 16257m | -18.5m/s | -55.5°C | 4.7% | 0hPa | 2.5V | 00:00:00 | 00:00:00 | 00:00:00 | |
| OM5KV | 2026-09-06 00:57:40 | 48.89266 | 18.54306 | 108° | 77km/h | 16292m | -17.9m/s | -55.7°C | 1.7% | 0hPa | 2.5V | 08:20:00 | 00:00:00 | 00:00:00 | |
| OM5KV | 2026-09-06 00:57:38 | 48.89272 | 18.54278 | 108° | 77km/h | 16310m | -17.5m/s | -55.6°C | 1.6% | 0hPa | 2.5V | 08:20:00 | 00:00:00 | 00:00:00 | |
| POL2MAQ | 2026-09-06 00:57:37 | 48.89277 | 18.54250 | 108° | 75km/h | 16327m | -16.8m/s | -55.4°C | 1.6% | 0hPa | 2.5V | 08:20:00 | 00:00:00 | 00:00:00 | |
| OM5KV | 2026-09-06 00:57:33 | 48.89302 | 18.54138 | 110° | 80km/h | 16399m | -19.5m/s | -55.4°C | 1.6% | 0hPa | 2.5V | 08:20:00 | 00:00:00 | 00:00:00 | |
| HA6NAB-11 | 2026-09-06 00:57:32 | 48.89315 | 18.54082 | 112° | 78km/h | 16437m | -18.6m/s | -55.4°C | 1.4% | 0hPa | 2.5V | 00:00:00 | 00:00:00 | 00:00:00 | |
| PG1ADW-2 | 2026-09-06 00:57:30 | 48.89330 | 18.54027 | 113° | 68km/h | 16474m | -18.0m/s | -54.9°C | 4.4% | 0hPa | 2.5V | 00:00:00 | 02:23:03 | 00:00:00 | |
| PETON7-10 | 2026-09-06 00:57:27 | 48.89352 | 18.53947 | 115° | 68km/h | 16528m | -18.1m/s | -55.2°C | 4.7% | 0hPa | 2.5V | 00:00:00 | 02:23:00 | 00:00:00 | |
| OE5DRO-10 | 2026-09-06 00:57:23 | 48.89382 | 18.53847 | 114° | 62km/h | 16598m | -18.2m/s | -55.5°C | 4.9% | 0hPa | 2.5V | 08:19:00 | 00:00:00 | 00:00:00 | |
| OM5KV | 2026-09-06 00:57:21 | 48.89389 | 18.53822 | 114° | 69km/h | 16617m | -19.1m/s | -55.7°C | 1.7% | 0hPa | 2.5V | 08:20:00 | 00:00:00 | 00:00:00 | |
| OM5KV | 2026-09-06 00:57:20 | 48.89396 | 18.53798 | 115° | 68km/h | 16635m | -19.9m/s | -55.8°C | 1.7% | 0hPa | 2.5V | 08:20:00 | 00:00:00 | 00:00:00 | |
| POL2MAQ | 2026-09-06 00:57:17 | 48.89425 | 18.53704 | 118° | 66km/h | 16707m | -19.6m/s | -56.1°C | 1.8% | 0hPa | 2.5V | 08:20:00 | 00:00:00 | 00:00:00 | |
| OE5DXL-15 | 2026-09-06 00:57:15 | 48.89440 | 18.53660 | 116° | 60km/h | 16744m | -19.5m/s | -55.9°C | 5.3% | 0hPa | 2.5V | 00:00:00 | 00:00:00 | 00:00:00 | |
| OM5KV | 2026-09-06 00:57:14 | 48.89446 | 18.53638 | 115° | 60km/h | 16762m | -19.7m/s | -55.8°C | 1.8% | 0hPa | 2.5V | 08:20:00 | 00:00:00 | 00:00:00 | |
| GYPAP8-17 | 2026-09-06 00:57:13 | 48.89446 | 18.53638 | 115° | 60km/h | 16762m | -19.7m/s | -55.8°C | 1.7% | 0hPa | 2.5V | 00:00:00 | 00:00:00 | 00:00:00 | |
| PETON7-10 | 2026-09-06 00:57:12 | 48.89459 | 18.53595 | 113° | 58km/h | 16800m | -20.4m/s | -55.3°C | 5.1% | 0hPa | 2.5V | 00:00:00 | 00:00:00 | 00:00:00 | |
| PG1ADW-2 | 2026-09-06 00:57:10 | 48.89470 | 18.53553 | 110° | 60km/h | 16839m | -20.7m/s | -54.7°C | 4.9% | 0hPa | 2.5V | 00:00:00 | 00:00:00 | 00:00:00 | |
| OM5KV | 2026-09-06 00:57:09 | 48.89475 | 18.53532 | 111° | 58km/h | 16859m | -20.4m/s | -54.7°C | 1.6% | 0hPa | 2.5V | 08:20:00 | 00:00:00 | 00:00:00 | |
| OM5KV | 2026-09-06 00:57:07 | 48.89480 | 18.53510 | 109° | 60km/h | 16879m | -21.4m/s | -54.4°C | 1.6% | 0hPa | 2.5V | 08:20:00 | 00:00:00 | 00:00:00 | |
| OE5DRO-10 | 2026-09-06 00:57:04 | 48.89496 | 18.53420 | 104° | 60km/h | 16960m | -20.3m/s | -53.5°C | 4.4% | 0hPa | 2.5V | 00:00:00 | 00:00:00 | 00:00:00 | |
| OM5KV | 2026-09-06 00:56:59 | 48.89508 | 18.53331 | 99° | 57km/h | 17039m | -18.4m/s | -53.5°C | 1.5% | 0hPa | 2.5V | 08:20:00 | 00:00:00 | 00:00:00 | |
| PETON7-10 | 2026-09-06 00:56:57 | 48.89513 | 18.53264 | 97° | 62km/h | 17094m | -19.0m/s | -52.6°C | 4.1% | 0hPa | 2.5V | 00:00:00 | 00:00:00 | 00:00:00 | |
| POL2MAQ | 2026-09-06 00:56:56 | 48.89514 | 18.53240 | 95° | 62km/h | 17113m | -20.5m/s | -52.3°C | 1.3% | 0hPa | 2.5V | 08:20:00 | 00:00:00 | 00:00:00 | |
| OM5KV | 2026-09-06 00:56:55 | 48.89514 | 18.53240 | 95° | 62km/h | 17113m | -20.5m/s | -52.3°C | 1.3% | 0hPa | 2.5V | 08:20:00 | 00:00:00 | 00:00:00 | |
| OM5KV | 2026-09-06 00:56:53 | 48.89516 | 18.53193 | 93° | 60km/h | 17152m | -19.7m/s | -51.6°C | 1.3% | 0hPa | 2.5V | 08:20:00 | 00:00:00 | 00:00:00 | |
| OE3JTB-15 | 2026-09-06 00:56:52 | 48.89517 | 18.53145 | 89° | 62km/h | 17192m | -21.0m/s | -50.7°C | 3.4% | 0hPa | 2.5V | 00:00:00 | 02:22:25 | 00:00:00 | |
| PG1ADW-2 | 2026-09-06 00:56:50 | 48.89516 | 18.53098 | 87° | 62km/h | 17232m | -20.5m/s | -50.7°C | 3.4% | 0hPa | 2.5V | 00:00:00 | 00:00:00 | 00:00:00 | |
| OE5DXL-15 | 2026-09-06 00:56:45 | 48.89515 | 18.52977 | 88° | 60km/h | 17335m | -20.8m/s | -51.6°C | 3.5% | 0hPa | 2.5V | 00:00:00 | 00:00:00 | 00:00:00 | |
| OM5KV | 2026-09-06 00:56:43 | 48.89514 | 18.52953 | 89° | 60km/h | 17356m | -21.3m/s | -51.8°C | 1.2% | 0hPa | 2.5V | 08:20:00 | 00:00:00 | 00:00:00 | |
| PETON7-10 | 2026-09-06 00:56:42 | 48.89515 | 18.52907 | 90° | 62km/h | 17399m | -22.9m/s | -52.1°C | 3.6% | 0hPa | 2.5V | 00:00:00 | 02:22:15 | 00:00:00 | |
| OE3OSB-13 | 2026-09-06 00:56:41 | 48.89515 | 18.52861 | 88° | 58km/h | 17442m | -21.4m/s | -52.6°C | 1.1% | -1.0hPa | 2.5V | 00:00:00 | 00:00:00 | 00:00:00 | |
| POL2MAQ | 2026-09-06 00:56:35 | 48.89514 | 18.52765 | 88° | 64km/h | 17523m | -19.8m/s | -53.4°C | 1.3% | 0hPa | 2.5V | 08:20:00 | 00:00:00 | 00:00:00 | |
| OM5KV | 2026-09-06 00:56:33 | 48.89512 | 18.52716 | 88° | 66km/h | 17564m | -20.1m/s | -53.8°C | 1.3% | 0hPa | 2.5V | 08:20:00 | 00:00:00 | 00:00:00 | |
| OM5KV | 2026-09-06 00:56:32 | 48.89512 | 18.52691 | 88° | 64km/h | 17584m | -20.0m/s | -54.0°C | 1.4% | 0hPa | 2.5V | 08:20:00 | 00:00:00 | 00:00:00 | |
| PG1ADW-2 | 2026-09-06 00:56:30 | 48.89509 | 18.52617 | 84° | 58km/h | 17645m | -21.4m/s | -54.4°C | 4.1% | 0hPa | 2.5V | 08:20:00 | 00:00:00 | 00:00:00 | |
| OM5KV | 2026-09-06 00:56:27 | 48.89505 | 18.52544 | 86° | 64km/h | 17710m | -22.6m/s | -55.1°C | 1.5% | 0hPa | 2.5V | 08:20:00 | 00:00:00 | 00:00:00 | |
| OE5DRO-10 | 2026-09-06 00:56:26 | 48.89504 | 18.52521 | 87° | 58km/h | 17733m | -22.2m/s | -55.2°C | 4.4% | 0hPa | 2.5V | 00:00:00 | 00:00:00 | 00:00:00 | |
| OE3JTB-15 | 2026-09-06 00:56:23 | 48.89504 | 18.52452 | 93° | 62km/h | 17796m | -20.3m/s | -55.6°C | 4.6% | 0hPa | 2.6V | 00:00:00 | 00:00:00 | 00:00:00 | |
| OM5KV | 2026-09-06 00:56:20 | 48.89505 | 18.52409 | 96° | 57km/h | 17836m | -19.5m/s | -55.2°C | 1.4% | 0hPa | 2.5V | 08:21:00 | 00:00:00 | 00:00:00 | |
| OM5KV | 2026-09-06 00:56:19 | 48.89507 | 18.52388 | 98° | 55km/h | 17855m | -19.3m/s | -55.2°C | 1.4% | 0hPa | 2.5V | 08:21:00 | 00:00:00 | 00:00:00 | |
| POL2MAQ | 2026-09-06 00:56:15 | 48.89514 | 18.52284 | 97° | 55km/h | 17955m | -21.1m/s | -55.7°C | 1.5% | 0hPa | 2.5V | 08:21:00 | 00:00:00 | 00:00:00 | |
| OM5KV | 2026-09-06 00:56:14 | 48.89515 | 18.52264 | 98° | 57km/h | 17975m | -18.8m/s | -55.8°C | 1.5% | 0hPa | 2.5V | 08:21:00 | 00:00:00 | 00:00:00 | |
| OM5KV | 2026-09-06 00:56:13 | 48.89515 | 18.52264 | 98° | 57km/h | 17975m | -18.8m/s | -55.8°C | 1.5% | 0hPa | 2.5V | 08:21:00 | 00:00:00 | 00:00:00 | |
| PETON7-10 | 2026-09-06 00:56:12 | 48.89519 | 18.52219 | 99° | 66km/h | 18014m | -18.9m/s | -55.9°C | 4.6% | 0hPa | 2.5V | 00:00:00 | 00:00:00 | 00:00:00 | |
| PG1ADW-2 | 2026-09-06 00:56:10 | 48.89524 | 18.52172 | 98° | 68km/h | 18055m | -21.2m/s | -56.1°C | 4.7% | 0hPa | 2.5V | 00:00:00 | 02:21:43 | 00:00:00 | |
| OM5KV | 2026-09-06 00:56:08 | 48.89526 | 18.52147 | 99° | 64km/h | 18076m | -20.6m/s | -56.1°C | 1.5% | 0hPa | 2.5V | 08:21:00 | 00:00:00 | 00:00:00 | |
| OE5DRO-10 | 2026-09-06 00:56:07 | 48.89531 | 18.52099 | 100° | 68km/h | 18117m | -21.1m/s | -56.2°C | 4.7% | 0hPa | 2.5V | 00:00:00 | 00:00:00 | 00:00:00 | |
| GYPAP8-17 | 2026-09-06 00:56:06 | 48.89531 | 18.52099 | 101° | 62km/h | 18117m | -21.2m/s | -56.3°C | 1.5% | 0hPa | 2.5V | 00:00:00 | 00:00:00 | 00:00:00 | |
| OM5KV | 2026-09-06 00:56:04 | 48.89536 | 18.52052 | 101° | 62km/h | 18158m | -21.0m/s | -56.6°C | 1.6% | 0hPa | 2.5V | 08:21:00 | 00:00:00 | 00:00:00 | |
| SQ9EZE-14 | 2026-09-06 00:56:00 | 48.89549 | 18.51955 | 105° | 68km/h | 18238m | -19.0m/s | 0°C | 0% | 0hPa | 2.5V | 00:00:00 | 00:00:00 | 00:00:00 | |
| OM5KV | 2026-09-06 00:55:58 | 48.89558 | 18.51904 | 105° | 69km/h | 18277m | -18.6m/s | -57.1°C | 1.7% | 0hPa | 2.5V | 08:21:00 | 00:00:00 | 00:00:00 | |
| PETON7-10 | 2026-09-06 00:55:57 | 48.89568 | 18.51851 | 108° | 62km/h | 18315m | -18.7m/s | -56.9°C | 5.2% | 0hPa | 2.5V | 00:00:00 | 02:21:30 | 00:00:00 | |
| POL2MAQ | 2026-09-06 00:55:54 | 48.89587 | 18.51771 | 113° | 71km/h | 18372m | -20.5m/s | -56.7°C | 1.7% | 0hPa | 2.5V | 08:21:00 | 00:00:00 | 00:00:00 | |
| OM5KV | 2026-09-06 00:55:52 | 48.89594 | 18.51745 | 113° | 75km/h | 18392m | -19.7m/s | -56.6°C | 1.6% | 0hPa | 2.5V | 08:21:00 | 00:00:00 | 00:00:00 | |
| PG1ADW-2 | 2026-09-06 00:55:50 | 48.89617 | 18.51673 | 121° | 58km/h | 18449m | -19.7m/s | -56.2°C | 5.0% | 0hPa | 2.5V | 00:00:00 | 00:00:00 | 00:00:00 | |
| OE5DRO-10 | 2026-09-06 00:55:48 | 48.89633 | 18.51633 | 123° | 58km/h | 18487m | -20.8m/s | -55.6°C | 4.7% | 0hPa | 2.5V | 00:00:00 | 00:00:00 | 00:00:00 | |
| OM5KV | 2026-09-06 00:55:46 | 48.89642 | 18.51614 | 126° | 58km/h | 18508m | -21.4m/s | -55.5°C | 1.5% | 0hPa | 2.5V | 08:21:00 | 00:00:00 | 00:00:00 | |
| OE5DXL-15 | 2026-09-06 00:55:45 | 48.89659 | 18.51582 | 131° | 57km/h | 18549m | -21.4m/s | -55.4°C | 4.6% | 0hPa | 2.5V | 00:00:00 | 00:00:00 | 00:00:00 | |
| OM5KV | 2026-09-06 00:55:43 | 48.89668 | 18.51567 | 131° | 55km/h | 18570m | -21.0m/s | -55.5°C | 1.5% | 0hPa | 2.5V | 08:21:00 | 00:00:00 | 00:00:00 | |
| PETON7-10 | 2026-09-06 00:55:41 | 48.89696 | 18.51524 | 136° | 60km/h | 18633m | -21.4m/s | -55.6°C | 4.9% | 0hPa | 2.5V | 08:21:00 | 00:00:00 | 00:00:00 | |
| OE3OSB-13 | 2026-09-06 00:55:39 | 48.89728 | 18.51477 | 136° | 58km/h | 18699m | -21.2m/s | -55.4°C | 1.4% | -1.0hPa | 2.5V | 00:00:00 | 00:00:00 | 00:00:00 | |
| OM5KV | 2026-09-06 00:55:38 | 48.89727 | 18.51477 | 138° | 60km/h | 18699m | -21.2m/s | -55.4°C | 1.5% | 0hPa | 2.5V | 08:21:00 | 00:00:00 | 00:00:00 | |
| POL2MAQ | 2026-09-06 00:55:34 | 48.89771 | 18.51410 | 133° | 62km/h | 18785m | -22.3m/s | -55.2°C | 1.5% | 0hPa | 2.5V | 08:21:00 | 00:00:00 | 00:00:00 | |
| PG1ADW-2 | 2026-09-06 00:55:30 | 48.89813 | 18.51342 | 136° | 51km/h | 18869m | -21.6m/s | -55.5°C | 5.0% | 0hPa | 2.5V | 00:00:00 | 00:00:00 | 00:00:00 | |
| OE5DRO-10 | 2026-09-06 00:55:29 | 48.89823 | 18.51326 | 134° | 51km/h | 18891m | -21.2m/s | -55.6°C | 5.1% | 0hPa | 2.6V | 00:00:00 | 00:00:00 | 00:00:00 | |
| PETON7-10 | 2026-09-06 00:55:26 | 48.89854 | 18.51277 | 136° | 51km/h | 18953m | -20.8m/s | -54.5°C | 4.7% | 0hPa | 2.5V | 00:00:00 | 00:00:00 | 00:00:00 | |
| OM5KV | 2026-09-06 00:55:22 | 48.89886 | 18.51230 | 137° | 58km/h | 19014m | -20.4m/s | -54.5°C | 1.5% | 0hPa | 2.5V | 08:22:00 | 00:00:00 | 00:00:00 | |
| OM5KV | 2026-09-06 00:55:19 | 48.89919 | 18.51188 | 142° | 57km/h | 19072m | -18.8m/s | -53.4°C | 1.3% | 0hPa | 2.5V | 08:22:00 | 00:00:00 | 00:00:00 | |
| OE5DXL-15 | 2026-09-06 00:55:15 | 48.89969 | 18.51132 | 146° | 31km/h | 19173m | -20.7m/s | -52.2°C | 3.8% | 0hPa | 2.5V | 00:00:00 | 00:00:00 | 00:00:00 | |
| POL2MAQ | 2026-09-06 00:55:12 | 48.89985 | 18.51114 | 147° | 37km/h | 19215m | -21.6m/s | -52.1°C | 1.2% | 0hPa | 2.5V | 08:22:00 | 00:00:00 | 00:00:00 | |
| PETON7-10 | 2026-09-06 00:55:11 | 48.89999 | 18.51100 | 145° | 29km/h | 19258m | -21.1m/s | -52.0°C | 3.7% | 0hPa | 2.5V | 00:00:00 | 02:20:44 | 00:00:00 | |
| OE5DRO-10 | 2026-09-06 00:55:10 | 48.90006 | 18.51092 | 139° | 29km/h | 19279m | -21.5m/s | -52.1°C | 3.7% | 0hPa | 2.5V | 00:00:00 | 00:00:00 | 00:00:00 | |
| OE3OSB-13 | 2026-09-06 00:55:08 | 48.90021 | 18.51068 | 125° | 22km/h | 19342m | -21.9m/s | -52.6°C | 1.1% | -1.0hPa | 2.5V | 00:00:00 | 00:00:00 | 00:00:00 | |
| OM5KV | 2026-09-06 00:55:05 | 48.90024 | 18.51060 | 120° | 26km/h | 19363m | -20.9m/s | -52.6°C | 1.2% | 0hPa | 2.5V | 08:22:00 | 00:00:00 | 00:00:00 | |
| OM5KV | 2026-09-06 00:55:03 | 48.90029 | 18.51042 | 111° | 27km/h | 19409m | -22.7m/s | -52.9°C | 1.3% | 0hPa | 2.5V | 08:22:00 | 00:00:00 | 00:00:00 | |
| OM5KV | 2026-09-06 00:55:02 | 48.90031 | 18.51031 | 109° | 31km/h | 19431m | -21.0m/s | -52.9°C | 1.2% | 0hPa | 2.5V | 08:22:00 | 00:00:00 | 00:00:00 | |
| OM5KV | 2026-09-06 00:55:00 | 48.90038 | 18.50997 | 106° | 33km/h | 19499m | -21.7m/s | -53.4°C | 1.3% | 0hPa | 2.5V | 08:22:00 | 00:00:00 | 00:00:00 | |
| OM5KV | 2026-09-06 00:54:57 | 48.90042 | 18.50973 | 103° | 33km/h | 19540m | -20.9m/s | -53.7°C | 1.3% | 0hPa | 2.5V | 08:22:00 | 00:00:00 | 00:00:00 | |
| PETON7-10 | 2026-09-06 00:54:56 | 48.90045 | 18.50948 | 102° | 27km/h | 19583m | -21.3m/s | -53.9°C | 4.4% | 0hPa | 2.5V | 00:00:00 | 00:00:00 | 00:00:00 | |
| OM5KV | 2026-09-06 00:54:55 | 48.90046 | 18.50937 | 101° | 29km/h | 19606m | -21.0m/s | -54.0°C | 1.4% | 0hPa | 2.5V | 08:22:00 | 00:00:00 | 00:00:00 | |
| OE3JTB-15 | 2026-09-06 00:54:54 | 48.90047 | 18.50926 | 98° | 13km/h | 19627m | -20.5m/s | -53.8°C | 4.4% | 0hPa | 2.5V | 08:22:00 | 00:00:00 | 00:00:00 | |
| POL2MAQ | 2026-09-06 00:54:52 | 48.90048 | 18.50916 | 100° | 27km/h | 19647m | -20.4m/s | -53.7°C | 1.3% | 0hPa | 2.5V | 08:22:00 | 00:00:00 | 00:00:00 | |
| OE5DRO-10 | 2026-09-06 00:54:51 | 48.90051 | 18.50895 | 101° | 24km/h | 19690m | -20.5m/s | -53.1°C | 4.1% | 0hPa | 2.5V | 00:00:00 | 00:00:00 | 00:00:00 | |
| PG1ADW-2 | 2026-09-06 00:54:50 | 48.90052 | 18.50885 | 102° | 24km/h | 19710m | -20.6m/s | -52.8°C | 3.9% | 0hPa | 2.5V | 00:00:00 | 02:20:23 | 00:00:00 | |
| OE5DXL-15 | 2026-09-06 00:54:45 | 48.90065 | 18.50837 | 119° | 22km/h | 19819m | -22.3m/s | -52.8°C | 3.8% | 0hPa | 2.5V | 08:22:00 | 00:00:00 | 00:00:00 | |
| GYPAP8-17 | 2026-09-06 00:54:43 | 48.90071 | 18.50821 | 122° | 22km/h | 19864m | -22.6m/s | -53.0°C | 1.1% | 0hPa | 2.5V | 00:00:00 | 00:00:00 | 00:00:00 | |
| PETON7-10 | 2026-09-06 00:54:41 | 48.90077 | 18.50804 | 118° | 22km/h | 19910m | -22.8m/s | -53.0°C | 3.8% | 0hPa | 2.5V | 00:00:00 | 00:00:00 | 00:00:00 | |
| OM5KV | 2026-09-06 00:54:39 | 48.90080 | 18.50796 | 121° | 24km/h | 19932m | -22.1m/s | -53.2°C | 1.2% | 0hPa | 2.5V | 08:23:00 | 00:00:00 | 00:00:00 | |
| OE3OSB-13 | 2026-09-06 00:54:37 | 48.90090 | 18.50765 | 116° | 20km/h | 20020m | -22.6m/s | -53.5°C | 1.1% | -1.0hPa | 2.5V | 00:00:00 | 00:00:00 | 00:00:00 | |
| DO3MHA-11 | 2026-09-06 00:54:33 | 48.90095 | 18.50744 | 103° | 22km/h | 20086m | -22.1m/s | -53.4°C | 4.0% | 0hPa | 2.5V | 00:00:00 | 02:20:06 | 00:00:00 | |
| OE5DRO-10 | 2026-09-06 00:54:32 | 48.90097 | 18.50736 | 104° | 20km/h | 20108m | -21.2m/s | -53.5°C | 4.0% | 0hPa | 2.5V | 08:22:00 | 00:00:00 | 00:00:00 | |
| POL2MAQ | 2026-09-06 00:54:31 | 48.90097 | 18.50736 | 104° | 22km/h | 20108m | -21.2m/s | -53.6°C | 1.2% | 0hPa | 2.6V | 08:23:00 | 00:00:00 | 00:00:00 | |
| OM5KV | 2026-09-06 00:54:30 | 48.90098 | 18.50721 | 87° | 20km/h | 20150m | -22.7m/s | -53.9°C | 1.3% | 0hPa | 2.6V | 08:23:00 | 00:00:00 | 00:00:00 | |
| OM5KV | 2026-09-06 00:54:28 | 48.90098 | 18.50713 | 87° | 24km/h | 20172m | -21.8m/s | -54.1°C | 1.3% | 0hPa | 2.6V | 08:23:00 | 00:00:00 | 00:00:00 | |
| PETON7-10 | 2026-09-06 00:54:26 | 48.90096 | 18.50687 | 71° | 20km/h | 20238m | -23.1m/s | -54.6°C | 4.4% | 0hPa | 2.6V | 00:00:00 | 02:19:59 | 00:00:00 | |
| OM5KV | 2026-09-06 00:54:23 | 48.90092 | 18.50672 | 72° | 24km/h | 20284m | -21.5m/s | -55.0°C | 1.4% | 0hPa | 2.6V | 08:23:00 | 00:00:00 | 00:00:00 | |
| DO3MHA-11 | 2026-09-06 00:54:21 | 48.90088 | 18.50649 | 80° | 18km/h | 20349m | -22.2m/s | -55.5°C | 5.0% | 0hPa | 2.6V | 00:00:00 | 02:19:54 | 00:00:00 | |
| HA6NAB-11 | 2026-09-06 00:54:17 | 48.90088 | 18.50621 | 93° | 20km/h | 20437m | -21.9m/s | -55.0°C | 1.5% | 0hPa | 2.6V | 08:23:00 | 00:00:00 | 00:00:00 | |
| OE5DXL-15 | 2026-09-06 00:54:15 | 48.90088 | 18.50608 | 99° | 27km/h | 20483m | -25.0m/s | -54.5°C | 4.6% | 0hPa | 2.6V | 00:00:00 | 00:00:00 | 00:00:00 | |
| OE5DRO-10 | 2026-09-06 00:54:13 | 48.90091 | 18.50595 | 112° | 31km/h | 20530m | -22.7m/s | -54.6°C | 4.7% | 0hPa | 2.6V | 00:00:00 | 00:00:00 | 00:00:00 | |
| OM5KV | 2026-09-06 00:54:12 | 48.90091 | 18.50595 | 113° | 20km/h | 20530m | -22.8m/s | -54.7°C | 1.4% | 0hPa | 2.6V | 08:23:00 | 00:00:00 | 00:00:00 | |
| PETON7-10 | 2026-09-06 00:54:11 | 48.90096 | 18.50582 | 119° | 33km/h | 20576m | -23.0m/s | -54.5°C | 4.6% | 0hPa | 2.6V | 00:00:00 | 00:00:00 | 00:00:00 | |
| PG1ADW-2 | 2026-09-06 00:54:10 | 48.90098 | 18.50576 | 114° | 33km/h | 20601m | -25.1m/s | -54.4°C | 4.6% | 0hPa | 2.5V | 00:00:00 | 00:00:00 | 00:00:00 | |
| OM5KV | 2026-09-06 00:54:07 | 48.90107 | 18.50551 | 116° | 31km/h | 20673m | -23.5m/s | -54.6°C | 1.4% | 0hPa | 2.5V | 08:23:00 | 00:00:00 | 00:00:00 | |
| HA6NAB-11 | 2026-09-06 00:54:06 | 48.90110 | 18.50540 | 114° | 29km/h | 20696m | -23.0m/s | -54.5°C | 1.5% | 0hPa | 2.5V | 08:23:00 | 00:00:00 | 00:00:00 | |
| OE3OSB-13 | 2026-09-06 00:54:05 | 48.90113 | 18.50528 | 110° | 35km/h | 20718m | -22.0m/s | -54.5°C | 1.3% | -1.0hPa | 2.5V | 00:00:00 | 00:00:00 | 00:00:00 | |
| OE5MMP-10 | 2026-09-06 00:54:01 | 48.90129 | 18.50472 | 111° | 29km/h | 20800m | -22.0m/s | -53.2°C | 4.4% | 0hPa | 2.5V | 00:00:00 | 02:19:34 | 00:00:00 | |
| HA6NAB-11 | 2026-09-06 00:54:00 | 48.90133 | 18.50457 | 113° | 44km/h | 20822m | -21.5m/s | -53.1°C | 1.3% | 0hPa | 2.6V | 08:23:00 | 00:00:00 | 00:00:00 | |
| PETON7-10 | 2026-09-06 00:53:56 | 48.90150 | 18.50404 | 117° | 20km/h | 20907m | -25.2m/s | -53.2°C | 4.4% | 0hPa | 2.6V | 00:00:00 | 00:00:00 | 00:00:00 | |
| HA6NAB-11 | 2026-09-06 00:53:54 | 48.90157 | 18.50384 | 126° | 27km/h | 20957m | -24.0m/s | -52.4°C | 1.2% | 0hPa | 2.6V | 08:23:00 | 00:00:00 | 00:00:00 | |
| OM5KV | 2026-09-06 00:53:53 | 48.90157 | 18.50384 | 126° | 27km/h | 20957m | -24.0m/s | -52.4°C | 1.2% | 0hPa | 2.6V | 08:23:00 | 00:00:00 | 00:00:00 | |
| OM5KV | 2026-09-06 00:53:52 | 48.90162 | 18.50376 | 131° | 26km/h | 20980m | -24.3m/s | -51.7°C | 1.1% | 0hPa | 2.6V | 08:23:00 | 00:00:00 | 00:00:00 | |
| POL2MAQ | 2026-09-06 00:53:51 | 48.90166 | 18.50369 | 132° | 24km/h | 21004m | -25.2m/s | -51.3°C | 1.1% | 0hPa | 2.6V | 08:23:00 | 00:00:00 | 00:00:00 | |
| OE5MMP-10 | 2026-09-06 00:53:50 | 48.90174 | 18.50356 | 131° | 13km/h | 21054m | -23.8m/s | -50.9°C | 3.5% | 0hPa | 2.6V | 00:00:00 | 02:19:23 | 00:00:00 | |
| OM5KV | 2026-09-06 00:53:49 | 48.90174 | 18.50356 | 131° | 24km/h | 21054m | -23.8m/s | -50.9°C | 1.1% | 0hPa | 2.6V | 08:24:00 | 00:00:00 | 00:00:00 | |
| HA6NAB-11 | 2026-09-06 00:53:47 | 48.90181 | 18.50344 | 132° | 20km/h | 21103m | -24.1m/s | -51.1°C | 1.0% | 0hPa | 2.6V | 00:00:00 | 00:00:00 | 00:00:00 | |
| OM5KV | 2026-09-06 00:53:46 | 48.90184 | 18.50340 | 128° | 16km/h | 21127m | -23.8m/s | -51.3°C | 1.0% | 0hPa | 2.6V | 08:24:00 | 00:00:00 | 00:00:00 | |
| OE5DXL-15 | 2026-09-06 00:53:45 | 48.90188 | 18.50332 | 115° | 18km/h | 21175m | -24.0m/s | -51.6°C | 3.6% | 0hPa | 2.6V | 00:00:00 | 00:00:00 | 00:00:00 | |
| OM5KV | 2026-09-06 00:53:44 | 48.90188 | 18.50329 | 104° | 9km/h | 21198m | -23.3m/s | -51.8°C | 1.1% | 0hPa | 2.6V | 08:24:00 | 00:00:00 | 00:00:00 | |
| OM5KV | 2026-09-06 00:53:42 | 48.90189 | 18.50327 | 93° | 7km/h | 21222m | -23.6m/s | -52.0°C | 1.1% | 0hPa | 2.6V | 08:24:00 | 00:00:00 | 00:00:00 | |
| PETON7-10 | 2026-09-06 00:53:41 | 48.90188 | 18.50323 | 50° | 15km/h | 21270m | -25.3m/s | -52.2°C | 3.8% | 0hPa | 2.6V | 00:00:00 | 02:19:14 | 00:00:00 | |
| OE5MMP-10 | 2026-09-06 00:53:39 | 48.90184 | 18.50319 | 42° | 13km/h | 21320m | -24.0m/s | -52.3°C | 3.8% | 0hPa | 2.6V | 00:00:00 | 02:19:12 | 00:00:00 | |
| OM5KV | 2026-09-06 00:53:37 | 48.90182 | 18.50317 | 39° | 13km/h | 21344m | -23.8m/s | -52.4°C | 1.1% | 0hPa | 2.6V | 08:24:00 | 00:00:00 | 00:00:00 | |
| OE5DRO-10 | 2026-09-06 00:53:35 | 48.90175 | 18.50308 | 45° | 27km/h | 21418m | -25.1m/s | -52.5°C | 3.8% | 0hPa | 2.6V | 00:00:00 | 00:00:00 | 00:00:00 | |
| OE3OSB-13 | 2026-09-06 00:53:34 | 48.90173 | 18.50305 | 54° | 11km/h | 21442m | -24.3m/s | -52.7°C | 1.0% | -1.0hPa | 2.5V | 00:00:00 | 00:00:00 | 00:00:00 | |
| POL2MAQ | 2026-09-06 00:53:31 | 48.90169 | 18.50297 | 52° | 11km/h | 21489m | -23.1m/s | -53.0°C | 1.2% | 0hPa | 2.5V | 08:24:00 | 00:00:00 | 00:00:00 | |
| DO3MHA-11 | 2026-09-06 00:53:28 | 48.90159 | 18.50276 | 60° | 27km/h | 21579m | -21.3m/s | -53.1°C | 4.1% | 0hPa | 2.5V | 00:00:00 | 02:19:01 | 00:00:00 | |
| PETON7-10 | 2026-09-06 00:53:26 | 48.90153 | 18.50260 | 61° | 29km/h | 21625m | -24.7m/s | -53.4°C | 4.2% | 0hPa | 2.5V | 08:23:00 | 00:00:00 | 00:00:00 | |
| OM5KV | 2026-09-06 00:53:24 | 48.90151 | 18.50250 | 72° | 29km/h | 21648m | -22.6m/s | -53.5°C | 1.2% | 0hPa | 2.6V | 08:24:00 | 00:00:00 | 00:00:00 | |
| OM5KV | 2026-09-06 00:53:21 | 48.90148 | 18.50218 | 90° | 29km/h | 21720m | -25.3m/s | -53.5°C | 1.3% | 0hPa | 2.6V | 08:24:00 | 00:00:00 | 00:00:00 | |
| OM5KV | 2026-09-06 00:53:18 | 48.90150 | 18.50182 | 106° | 31km/h | 21793m | -23.9m/s | -53.7°C | 1.3% | 0hPa | 2.6V | 08:24:00 | 00:00:00 | 00:00:00 | |
| OE5MMP-10 | 2026-09-06 00:53:17 | 48.90154 | 18.50160 | 108° | 29km/h | 21841m | -23.3m/s | -53.2°C | 4.2% | 0hPa | 2.6V | 00:00:00 | 02:18:50 | 00:00:00 | |
| OM5KV | 2026-09-06 00:53:16 | 48.90155 | 18.50160 | 108° | 31km/h | 21841m | -23.4m/s | -53.2°C | 1.2% | 0hPa | 2.6V | 08:24:00 | 00:00:00 | 00:00:00 | |
| OE5DXL-15 | 2026-09-06 00:53:15 | 48.90159 | 18.50138 | 102° | 26km/h | 21889m | -24.8m/s | -53.1°C | 4.2% | 0hPa | 2.6V | 00:00:00 | 00:00:00 | 00:00:00 | |
| OM5KV | 2026-09-06 00:53:14 | 48.90160 | 18.50128 | 96° | 27km/h | 21914m | -25.4m/s | -53.3°C | 1.2% | 0hPa | 2.5V | 08:24:00 | 00:00:00 | 00:00:00 | |
| PETON7-10 | 2026-09-06 00:53:11 | 48.90161 | 18.50093 | 90° | 31km/h | 21986m | -22.1m/s | -53.5°C | 4.4% | 0hPa | 2.5V | 00:00:00 | 00:00:00 | 00:00:00 | |
| PG1ADW-2 | 2026-09-06 00:53:10 | 48.90162 | 18.50081 | 89° | 27km/h | 22009m | -23.9m/s | -53.5°C | 4.4% | 0hPa | 2.5V | 00:00:00 | 00:00:00 | 00:00:00 | |
| OM5KV | 2026-09-06 00:53:08 | 48.90162 | 18.50056 | 94° | 31km/h | 22058m | -25.4m/s | -53.5°C | 1.2% | 0hPa | 2.5V | 08:24:00 | 00:00:00 | 00:00:00 | |
| OM5KV | 2026-09-06 00:53:07 | 48.90162 | 18.50056 | 94° | 31km/h | 22058m | -25.4m/s | -53.5°C | 0% | 0hPa | 2.5V | 08:24:00 | 00:00:00 | 00:00:00 | |
| OE5MMP-10 | 2026-09-06 00:53:06 | 48.90164 | 18.50032 | 104° | 29km/h | 22110m | -26.2m/s | -53.0°C | 4.2% | 0hPa | 2.5V | 00:00:00 | 02:18:39 | 00:00:00 | |
| OE3OSB-13 | 2026-09-06 00:53:03 | 48.90174 | 18.49999 | 120° | 31km/h | 22186m | -26.2m/s | -52.7°C | 1.1% | -1.0hPa | 2.5V | 00:00:00 | 00:00:00 | 00:00:00 | |
| OM5KV | 2026-09-06 00:53:02 | 48.90174 | 18.49999 | 121° | 33km/h | 22186m | -26.2m/s | 0°C | 0% | 0hPa | 2.5V | 08:24:00 | 00:00:00 | 00:00:00 | |
| OM5KV | 2026-09-06 00:52:59 | 48.90189 | 18.49970 | 132° | 31km/h | 22261m | -25.1m/s | 0°C | 0% | 0hPa | 2.5V | 08:24:00 | 00:00:00 | 00:00:00 | |
| PETON7-10 | 2026-09-06 00:52:56 | 48.90210 | 18.49941 | 144° | 20km/h | 22360m | -25.5m/s | -52.1°C | 3.9% | 0hPa | 2.5V | 00:00:00 | 02:18:29 | 00:00:00 | |
| OE5MMP-10 | 2026-09-06 00:52:54 | 48.90219 | 18.49930 | 146° | 16km/h | 22408m | -23.8m/s | -52.1°C | 3.9% | 0hPa | 2.5V | 00:00:00 | 02:18:27 | 00:00:00 | |
| OM5KV | 2026-09-06 00:52:51 | 48.90227 | 18.49923 | 151° | 15km/h | 22456m | -24.0m/s | 0°C | 0% | 0hPa | 2.6V | 00:00:00 | 00:00:00 | 00:00:00 | |
| PG1ADW-2 | 2026-09-06 00:52:50 | 48.90232 | 18.49916 | 138° | 27km/h | 22509m | -26.4m/s | -51.8°C | 3.8% | 0hPa | 2.6V | 00:00:00 | 00:00:00 | 00:00:00 | |
| OM5KV | 2026-09-06 00:52:45 | 48.90241 | 18.49889 | 116° | 20km/h | 22640m | -23.5m/s | 0°C | 0% | 0hPa | 2.6V | 00:00:00 | 00:00:00 | 00:00:00 | |
| OE5MMP-10 | 2026-09-06 00:52:44 | 48.90242 | 18.49882 | 112° | 33km/h | 22665m | -24.1m/s | -52.2°C | 3.9% | 0hPa | 2.6V | 00:00:00 | 02:18:17 | 00:00:00 | |
| OM5KV | 2026-09-06 00:52:43 | 48.90242 | 18.49882 | 112° | 22km/h | 22665m | -24.1m/s | 0°C | 0% | 0hPa | 2.6V | 00:00:00 | 00:00:00 | 00:00:00 | |
| PETON7-10 | 2026-09-06 00:52:41 | 48.90253 | 18.49856 | 128° | 29km/h | 22738m | -25.8m/s | -52.3°C | 3.9% | 0hPa | 2.6V | 00:00:00 | 00:00:00 | 00:00:00 | |
| OM5KV | 2026-09-06 00:52:38 | 48.90264 | 18.49836 | 135° | 37km/h | 22788m | -24.2m/s | 0°C | 0% | 0hPa | 2.5V | 00:00:00 | 00:00:00 | 00:00:00 | |
| OM5KV | 2026-09-06 00:52:37 | 48.90271 | 18.49826 | 138° | 37km/h | 22813m | -26.6m/s | 0°C | 0% | 0hPa | 2.5V | 00:00:00 | 00:00:00 | 00:00:00 | |
| OE5MMP-10 | 2026-09-06 00:52:34 | 48.90303 | 18.49798 | 158° | 20km/h | 22912m | -24.5m/s | -52.2°C | 3.9% | 0hPa | 2.5V | 00:00:00 | 02:18:07 | 00:00:00 | |
| OM5KV | 2026-09-06 00:52:33 | 48.90303 | 18.49798 | 159° | 35km/h | 22912m | -24.5m/s | 0°C | 0% | 0hPa | 2.5V | 00:00:00 | 00:00:00 | 00:00:00 | |
| OE3OSB-13 | 2026-09-06 00:52:32 | 48.90317 | 18.49790 | 160° | 24km/h | 22965m | -27.6m/s | -52.3°C | 1.0% | -1.0hPa | 2.5V | 00:00:00 | 00:00:00 | 00:00:00 | |
| PG1ADW-2 | 2026-09-06 00:52:30 | 48.90328 | 18.49786 | 172° | 13km/h | 23019m | -26.3m/s | -52.4°C | 4.0% | 0hPa | 2.5V | 00:00:00 | 00:00:00 | 00:00:00 | |
| POL2MAQ | 2026-09-06 00:52:29 | 48.90328 | 18.49786 | 173° | 18km/h | 23019m | -26.4m/s | -52.4°C | 1.1% | 0hPa | 2.5V | 08:25:00 | 00:00:00 | 00:00:00 | |
| OM5KV | 2026-09-06 00:52:27 | 48.90340 | 18.49785 | 181° | 15km/h | 23099m | -25.9m/s | 0°C | 0% | 0hPa | 2.5V | 00:00:00 | 00:00:00 | 00:00:00 | |
| PETON7-10 | 2026-09-06 00:52:26 | 48.90343 | 18.49785 | 192° | 11km/h | 23125m | -25.4m/s | -52.5°C | 4.0% | 0hPa | 2.5V | 00:00:00 | 00:00:00 | 00:00:00 | |
| OE5MMP-10 | 2026-09-06 00:52:24 | 48.90351 | 18.49786 | 186° | 11km/h | 23177m | -26.1m/s | -52.7°C | 4.1% | 0hPa | 2.5V | 00:00:00 | 02:17:57 | 00:00:00 | |
| OM5KV | 2026-09-06 00:52:21 | 48.90357 | 18.49784 | 165° | 13km/h | 23230m | -26.7m/s | 0°C | 0% | 0hPa | 2.6V | 00:00:00 | 00:00:00 | 00:00:00 | |
| OM5KV | 2026-09-06 00:52:19 | 48.90364 | 18.49783 | 179° | 13km/h | 23281m | -27.8m/s | 0°C | 0% | 0hPa | 2.6V | 00:00:00 | 00:00:00 | 00:00:00 | |
| OE5DXL-15 | 2026-09-06 00:52:15 | 48.90373 | 18.49777 | 114° | 11km/h | 23430m | -30.0m/s | -52.4°C | 3.9% | 0hPa | 2.6V | 00:00:00 | 00:00:00 | 00:00:00 | |
| OE5MMP-10 | 2026-09-06 00:52:14 | 48.90374 | 18.49775 | 105° | 11km/h | 23459m | -29.7m/s | -52.4°C | 4.0% | 0hPa | 2.6V | 00:00:00 | 02:17:47 | 00:00:00 | |
| PETON7-10 | 2026-09-06 00:52:11 | 48.90375 | 18.49761 | 99° | 9km/h | 23542m | -26.2m/s | -52.2°C | 3.9% | 0hPa | 2.6V | 00:00:00 | 02:17:44 | 00:00:00 | |
| PG1ADW-2 | 2026-09-06 00:52:10 | 48.90376 | 18.49756 | 102° | 9km/h | 23568m | -26.7m/s | -52.2°C | 3.8% | 0hPa | 2.6V | 00:00:00 | 02:17:43 | 00:00:00 | |
| POL2MAQ | 2026-09-06 00:52:08 | 48.90377 | 18.49751 | 108° | 13km/h | 23594m | -26.5m/s | -52.2°C | 1.1% | 0hPa | 2.6V | 08:25:00 | 00:00:00 | 00:00:00 | |
| OE5MMP-10 | 2026-09-06 00:52:04 | 48.90379 | 18.49738 | 255° | 7km/h | 23732m | -27.2m/s | -52.4°C | 3.9% | 0hPa | 2.6V | 00:00:00 | 02:17:37 | 00:00:00 | |
| OE3OSB-13 | 2026-09-06 00:52:01 | 48.90378 | 18.49744 | 308° | 7km/h | 23811m | -27.8m/s | -52.6°C | 1.0% | -1.0hPa | 2.6V | 00:00:00 | 00:00:00 | 00:00:00 | |
| PETON7-10 | 2026-09-06 00:51:56 | 48.90369 | 18.49754 | 5° | 11km/h | 23947m | -26.2m/s | -52.3°C | 3.8% | 0hPa | 2.6V | 00:00:00 | 00:00:00 | 00:00:00 | |
| OE5MMP-10 | 2026-09-06 00:51:54 | 48.90365 | 18.49750 | 49° | 13km/h | 24000m | -27.4m/s | -52.4°C | 3.9% | 0hPa | 2.5V | 08:25:00 | 02:17:27 | 00:00:00 | |
| PG1ADW-2 | 2026-09-06 00:51:50 | 48.90359 | 18.49730 | 71° | 7km/h | 24113m | -31.3m/s | -52.8°C | 4.0% | 0hPa | 2.5V | 00:00:00 | 00:00:00 | 00:00:00 | |
| POL2MAQ | 2026-09-06 00:51:48 | 48.90358 | 18.49724 | 77° | 15km/h | 24144m | -29.0m/s | -53.0°C | 1.1% | 0hPa | 2.5V | 08:26:00 | 00:00:00 | 00:00:00 | |
| OE5DXL-15 | 2026-09-06 00:51:45 | 48.90357 | 18.49707 | 94° | 11km/h | 24262m | -28.7m/s | -53.1°C | 4.1% | 0hPa | 2.5V | 00:00:00 | 00:00:00 | 00:00:00 | |
| PETON7-10 | 2026-09-06 00:51:41 | 48.90358 | 18.49703 | 243° | 7km/h | 24367m | -22.7m/s | -53.3°C | 4.2% | 0hPa | 2.5V | 00:00:00 | 00:00:00 | 00:00:00 | |
| OE3JTB-15 | 2026-09-06 00:51:38 | 48.90357 | 18.49701 | 51° | 15km/h | 24475m | -30.4m/s | -53.4°C | 4.3% | 0hPa | 2.5V | 00:00:00 | 00:00:00 | 00:00:00 | |
| OE5MMP-10 | 2026-09-06 00:51:34 | 48.90354 | 18.49697 | 60° | 13km/h | 24558m | -25.3m/s | -53.5°C | 4.4% | 0hPa | 2.5V | 00:00:00 | 02:17:07 | 00:00:00 | |
| OE3OSB-13 | 2026-09-06 00:51:30 | 48.90349 | 18.49683 | 54° | 15km/h | 24667m | -28.2m/s | -53.6°C | 1.1% | -1.0hPa | 2.5V | 00:00:00 | 00:00:00 | 00:00:00 | |
| PG1ADW-2 | 2026-09-06 00:51:29 | 48.90347 | 18.49677 | 56° | 16km/h | 24695m | -29.2m/s | -53.6°C | 4.6% | 0hPa | 2.5V | 00:00:00 | 00:00:00 | 00:00:00 | |
| POL2MAQ | 2026-09-06 00:51:27 | 48.90345 | 18.49673 | 47° | 15km/h | 24724m | -30.9m/s | -53.7°C | 1.2% | 0hPa | 2.5V | 08:26:00 | 00:00:00 | 00:00:00 | |
| PETON7-10 | 2026-09-06 00:51:26 | 48.90341 | 18.49663 | 66° | 15km/h | 24789m | -32.9m/s | -53.3°C | 4.6% | 0hPa | 2.5V | 00:00:00 | 02:16:59 | 00:00:00 | |
| OE5MMP-10 | 2026-09-06 00:51:24 | 48.90338 | 18.49650 | 75° | 16km/h | 24852m | -31.1m/s | -52.6°C | 4.3% | 0hPa | 2.5V | 00:00:00 | 02:16:57 | 00:00:00 | |
| OE5DXL-15 | 2026-09-06 00:51:15 | 48.90335 | 18.49591 | 88° | 18km/h | 25102m | -26.4m/s | -51.3°C | 3.9% | 0hPa | 2.6V | 00:00:00 | 00:00:00 | 00:00:00 | |
| OE5MMP-10 | 2026-09-06 00:51:14 | 48.90335 | 18.49588 | 86° | 9km/h | 25129m | -27.6m/s | -51.0°C | 3.7% | 0hPa | 2.6V | 00:00:00 | 02:16:47 | 00:00:00 | |
| HA6NAB-11 | 2026-09-06 00:51:13 | 48.90335 | 18.49586 | 39° | 5km/h | 25155m | -27.1m/s | -51.0°C | 1.0% | 0hPa | 2.6V | 00:00:00 | 00:00:00 | 00:00:00 | |
| PETON7-10 | 2026-09-06 00:51:11 | 48.90333 | 18.49584 | 31° | 16km/h | 25207m | -25.0m/s | -50.9°C | 3.7% | 0hPa | 2.6V | 08:26:00 | 00:00:00 | 00:00:00 | |
| OE5DRO-10 | 2026-09-06 00:51:10 | 48.90331 | 18.49583 | 4° | 20km/h | 25233m | -27.8m/s | -50.9°C | 3.8% | 0hPa | 2.5V | 00:00:00 | 00:00:00 | 00:00:00 | |
| OE3JTB-15 | 2026-09-06 00:51:09 | 48.90329 | 18.49583 | 8° | 13km/h | 25260m | -25.6m/s | -50.8°C | 3.7% | 0hPa | 2.5V | 00:00:00 | 02:16:42 | 00:00:00 | |
| POL2MAQ | 2026-09-06 00:51:07 | 48.90323 | 18.49582 | 13° | 13km/h | 25313m | -27.8m/s | -50.6°C | 1.0% | 0hPa | 2.5V | 08:26:00 | 00:00:00 | 00:00:00 | |
| OE5MMP-10 | 2026-09-06 00:51:04 | 48.90314 | 18.49577 | 32° | 22km/h | 25392m | -26.6m/s | -50.8°C | 3.8% | 0hPa | 2.5V | 00:00:00 | 02:16:37 | 00:00:00 | |
| OE3OSB-13 | 2026-09-06 00:50:59 | 48.90298 | 18.49550 | 61° | 24km/h | 25528m | -27.4m/s | -51.1°C | 0.9% | -1.0hPa | 2.5V | 00:00:00 | 00:00:00 | 00:00:00 | |
| DO3MHA-11 | 2026-09-06 00:50:58 | 48.90295 | 18.49542 | 61° | 20km/h | 25556m | -29.2m/s | -51.1°C | 3.9% | 0hPa | 2.5V | 00:00:00 | 02:16:31 | 00:00:00 | |
| PETON7-10 | 2026-09-06 00:50:56 | 48.90290 | 18.49522 | 77° | 22km/h | 25611m | -28.1m/s | -51.1°C | 4.0% | 0hPa | 2.5V | 00:00:00 | 00:00:00 | 00:00:00 | |
| OE5DRO-10 | 2026-09-06 00:50:51 | 48.90289 | 18.49468 | 102° | 16km/h | 25746m | -25.7m/s | -50.5°C | 3.8% | 0hPa | 2.5V | 00:00:00 | 00:00:00 | 00:00:00 | |
| POL2MAQ | 2026-09-06 00:50:46 | 48.90298 | 18.49434 | 132° | 20km/h | 25850m | -28.2m/s | -50.0°C | 0.9% | 0hPa | 2.5V | 08:26:00 | 00:00:00 | 00:00:00 | |
| OE5DXL-15 | 2026-09-06 00:50:45 | 48.90306 | 18.49425 | 153° | 18km/h | 25906m | -27.7m/s | -49.4°C | 3.5% | 0hPa | 2.5V | 00:00:00 | 00:00:00 | 00:00:00 | |
| OE5MMP-10 | 2026-09-06 00:50:44 | 48.90309 | 18.49422 | 149° | 11km/h | 25933m | -27.2m/s | -49.2°C | 3.4% | 0hPa | 2.5V | 00:00:00 | 02:16:17 | 00:00:00 | |
| PETON7-10 | 2026-09-06 00:50:41 | 48.90318 | 18.49416 | 147° | 20km/h | 26013m | -26.9m/s | -49.1°C | 3.4% | 0hPa | 2.5V | 00:00:00 | 02:16:14 | 00:00:00 | |
| HA6NAB-11 | 2026-09-06 00:50:40 | 48.90318 | 18.49416 | 147° | 7km/h | 26013m | -26.9m/s | -49.2°C | 0.9% | 0hPa | 2.5V | 00:00:00 | 00:00:00 | 00:00:00 | |
| DO3MHA-11 | 2026-09-06 00:50:39 | 48.90321 | 18.49412 | 121° | 18km/h | 26066m | -26.7m/s | -49.5°C | 3.5% | 0hPa | 2.5V | 00:00:00 | 02:16:12 | 00:00:00 | |
| OE5MMP-10 | 2026-09-06 00:50:34 | 48.90328 | 18.49389 | 112° | 27km/h | 26195m | -27.3m/s | -49.4°C | 3.5% | 0hPa | 2.6V | 00:00:00 | 02:16:07 | 00:00:00 | |
| OE5DRO-10 | 2026-09-06 00:50:32 | 48.90334 | 18.49373 | 123° | 20km/h | 26251m | -27.1m/s | -49.4°C | 3.5% | 0hPa | 2.6V | 00:00:00 | 00:00:00 | 00:00:00 | |
| HA6NAB-11 | 2026-09-06 00:50:29 | 48.90349 | 18.49347 | 136° | 31km/h | 26331m | -26.2m/s | -49.6°C | 0.9% | 0hPa | 2.6V | 00:00:00 | 00:00:00 | 00:00:00 | |
| OE3OSB-13 | 2026-09-06 00:50:28 | 48.90355 | 18.49339 | 135° | 29km/h | 26357m | -26.7m/s | -49.6°C | 0.8% | -1.0hPa | 2.6V | 00:00:00 | 00:00:00 | 00:00:00 | |
| PETON7-10 | 2026-09-06 00:50:26 | 48.90367 | 18.49324 | 144° | 15km/h | 26410m | -27.5m/s | -49.5°C | 3.5% | 0hPa | 2.6V | 00:00:00 | 00:00:00 | 00:00:00 | |
| OE5MMP-10 | 2026-09-06 00:50:24 | 48.90379 | 18.49314 | 160° | 15km/h | 26466m | -29.4m/s | -49.2°C | 3.5% | 0hPa | 2.5V | 08:26:00 | 02:15:57 | 00:00:00 | |
| DO3MHA-11 | 2026-09-06 00:50:19 | 48.90401 | 18.49308 | 177° | 7km/h | 26613m | -29.5m/s | -48.9°C | 3.4% | 0hPa | 2.5V | 00:00:00 | 02:15:52 | 00:00:00 | |
| OE5DXL-15 | 2026-09-06 00:50:15 | 48.90411 | 18.49309 | 170° | 15km/h | 26732m | -28.2m/s | -49.3°C | 3.6% | 0hPa | 2.5V | 08:27:00 | 00:00:00 | 00:00:00 | |
| OE5MMP-10 | 2026-09-06 00:50:14 | 48.90412 | 18.49309 | 171° | 7km/h | 26759m | -26.6m/s | -49.3°C | 3.7% | 0hPa | 2.5V | 00:00:00 | 02:15:47 | 00:00:00 | |
| OE5DRO-10 | 2026-09-06 00:50:13 | 48.90414 | 18.49309 | 208° | 15km/h | 26785m | -26.0m/s | -49.3°C | 3.7% | 0hPa | 2.5V | 08:27:00 | 00:00:00 | 00:00:00 | |
| PETON7-10 | 2026-09-06 00:50:11 | 48.90416 | 18.49309 | 142° | 15km/h | 26840m | -27.3m/s | -49.2°C | 3.6% | 0hPa | 2.5V | 00:00:00 | 00:00:00 | 00:00:00 | |
| DO3MHA-11 | 2026-09-06 00:50:09 | 48.90418 | 18.49305 | 123° | 13km/h | 26899m | -31.7m/s | -49.1°C | 3.6% | 0hPa | 2.5V | 00:00:00 | 02:15:42 | 00:00:00 | |
| PG1ADW-2 | 2026-09-06 00:50:06 | 48.90419 | 18.49297 | 97° | 9km/h | 26993m | -30.1m/s | -48.7°C | 3.6% | 0hPa | 2.5V | 00:00:00 | 00:00:00 | 00:00:00 | |
| POL2MAQ | 2026-09-06 00:50:05 | 48.90419 | 18.49297 | 98° | 7km/h | 26993m | -30.2m/s | -48.7°C | 0.9% | 0hPa | 2.5V | 08:27:00 | 00:00:00 | 00:00:00 | |
| OE5MMP-10 | 2026-09-06 00:50:04 | 48.90420 | 18.49289 | 103° | 22km/h | 27052m | -29.6m/s | -48.1°C | 3.3% | 0hPa | 2.5V | 00:00:00 | 02:15:37 | 00:00:00 | |
| OE3OSB-13 | 2026-09-06 00:49:57 | 48.90448 | 18.49258 | 173° | 26km/h | 27265m | -29.7m/s | -48.1°C | 0.8% | -1.0hPa | 2.5V | 00:00:00 | 00:00:00 | 00:00:00 | |
| PETON7-10 | 2026-09-06 00:49:56 | 48.90455 | 18.49257 | 171° | 15km/h | 27293m | -28.1m/s | -47.8°C | 3.4% | 0hPa | 2.5V | 00:00:00 | 02:15:29 | 00:00:00 | |
| OE5MMP-10 | 2026-09-06 00:49:54 | 48.90468 | 18.49256 | 181° | 15km/h | 27347m | -24.8m/s | -47.5°C | 3.2% | 0hPa | 2.5V | 00:00:00 | 02:15:27 | 00:00:00 | |
| S52SK | 2026-09-06 00:49:51 | 48.90480 | 18.49258 | 197° | 22km/h | 27399m | -27.3m/s | -47.4°C | 0.8% | 0hPa | 2.6V | 00:00:00 | 00:00:00 | 00:00:00 | |
| DO3MHA-11 | 2026-09-06 00:49:49 | 48.90489 | 18.49268 | 234° | 7km/h | 27486m | -30.3m/s | -47.4°C | 3.2% | 0hPa | 2.6V | 00:00:00 | 02:15:22 | 00:00:00 | |
| PG1ADW-2 | 2026-09-06 00:49:45 | 48.90488 | 18.49281 | 293° | 16km/h | 27607m | -30.6m/s | -47.4°C | 3.2% | 0hPa | 2.6V | 00:00:00 | 02:15:18 | 00:00:00 | |
| OE5MMP-10 | 2026-09-06 00:49:44 | 48.90488 | 18.49283 | 334° | 9km/h | 27637m | -29.3m/s | -47.4°C | 3.2% | 0hPa | 2.6V | 00:00:00 | 02:15:17 | 00:00:00 | |
| PETON7-10 | 2026-09-06 00:49:41 | 48.90486 | 18.49284 | 61° | 15km/h | 27726m | -31.3m/s | -47.4°C | 3.2% | 0hPa | 2.6V | 00:00:00 | 00:00:00 | 00:00:00 | |
| DO3MHA-11 | 2026-09-06 00:49:39 | 48.90485 | 18.49278 | 75° | 15km/h | 27790m | -31.8m/s | -47.2°C | 3.2% | 0hPa | 2.5V | 08:27:00 | 02:15:12 | 00:00:00 | |
| OE5DRO-10 | 2026-09-06 00:49:35 | 48.90483 | 18.49258 | 90° | 16km/h | 27916m | -31.2m/s | -47.0°C | 3.1% | 0hPa | 2.6V | 00:00:00 | 00:00:00 | 00:00:00 | |
| OE5MMP-10 | 2026-09-06 00:49:34 | 48.90483 | 18.49252 | 94° | 18km/h | 27947m | -29.9m/s | -47.1°C | 3.2% | 0hPa | 2.6V | 00:00:00 | 02:15:07 | 00:00:00 | |
| OE3JTB-15 | 2026-09-06 00:49:32 | 48.90486 | 18.49240 | 106° | 16km/h | 28005m | -29.2m/s | -47.0°C | 3.2% | 0hPa | 2.6V | 00:00:00 | 00:00:00 | 00:00:00 | |
| DO3MHA-11 | 2026-09-06 00:49:29 | 48.90492 | 18.49222 | 133° | 16km/h | 28102m | -31.0m/s | -46.9°C | 3.1% | 0hPa | 2.5V | 00:00:00 | 02:15:02 | 00:00:00 | |
| OE3OSB-13 | 2026-09-06 00:49:26 | 48.90507 | 18.49200 | 135° | 18km/h | 28217m | -30.7m/s | -46.6°C | 0.7% | -1.0hPa | 2.5V | 00:00:00 | 00:00:00 | 00:00:00 | |
| OE5MMP-10 | 2026-09-06 00:49:24 | 48.90510 | 18.49195 | 131° | 13km/h | 28247m | -29.6m/s | -46.5°C | 3.0% | 0hPa | 2.5V | 00:00:00 | 02:14:57 | 00:00:00 | |
| DO3MHA-11 | 2026-09-06 00:49:19 | 48.90519 | 18.49176 | 117° | 16km/h | 28402m | -30.7m/s | -46.8°C | 3.1% | 0hPa | 2.6V | 00:00:00 | 02:14:52 | 00:00:00 | |
| PG1ADW-2 | 2026-09-06 00:49:17 | 48.90522 | 18.49169 | 123° | 18km/h | 28462m | -30.1m/s | -46.9°C | 3.2% | 0hPa | 2.6V | 08:28:00 | 00:00:00 | 00:00:00 | |
| OE5DRO-10 | 2026-09-06 00:49:16 | 48.90524 | 18.49164 | 117° | 18km/h | 28493m | -32.1m/s | -46.9°C | 3.2% | 0hPa | 2.6V | 00:00:00 | 00:00:00 | 00:00:00 | |
| OE5DXL-15 | 2026-09-06 00:49:15 | 48.90525 | 18.49158 | 121° | 18km/h | 28524m | -32.2m/s | -47.0°C | 3.2% | 0hPa | 2.5V | 00:00:00 | 02:14:48 | 00:00:00 | |
| OE5MMP-10 | 2026-09-06 00:49:14 | 48.90528 | 18.49153 | 123° | 18km/h | 28555m | -30.3m/s | -47.1°C | 3.3% | 0hPa | 2.5V | 00:00:00 | 02:14:47 | 00:00:00 | |
| PETON7-10 | 2026-09-06 00:49:11 | 48.90538 | 18.49137 | 135° | 18km/h | 28642m | -29.3m/s | -47.0°C | 3.3% | 0hPa | 2.5V | 00:00:00 | 02:14:44 | 00:00:00 | |
| DO3MHA-11 | 2026-09-06 00:49:09 | 48.90545 | 18.49127 | 133° | 18km/h | 28696m | -27.0m/s | -47.0°C | 3.3% | 0hPa | 2.5V | 00:00:00 | 02:14:42 | 00:00:00 | |
| POL2MAQ | 2026-09-06 00:49:04 | 48.90560 | 18.49104 | 138° | 18km/h | 28855m | -31.5m/s | -46.9°C | 0.8% | 0hPa | 2.5V | 08:28:00 | 00:00:00 | 00:00:00 | |
| OE3OSB-13 | 2026-09-06 00:48:55 | 48.90604 | 18.49063 | 165° | 20km/h | 29193m | -26.0m/s | -45.3°C | 0.7% | -1.0hPa | 2.5V | 00:00:00 | 00:00:00 | 00:00:00 | |
| OE5MMP-10 | 2026-09-06 00:48:54 | 48.90599 | 18.49065 | 163° | 22km/h | 29166m | -27.9m/s | -45.3°C | 2.9% | 0hPa | 2.5V | 08:28:00 | 02:14:27 | 00:00:00 | |
| PG1ADW-2 | 2026-09-06 00:48:52 | 48.90609 | 18.49060 | 161° | 16km/h | 29221m | -28.4m/s | -45.1°C | 2.9% | 0hPa | 2.5V | 00:00:00 | 00:00:00 | 00:00:00 | |
| DO3MHA-11 | 2026-09-06 00:48:49 | 48.90625 | 18.49053 | 161° | 20km/h | 29300m | -27.3m/s | -44.9°C | 2.8% | 0hPa | 2.5V | 00:00:00 | 02:14:22 | 00:00:00 | |
| OE5DXL-15 | 2026-09-06 00:48:45 | 48.90645 | 18.49036 | 142° | 9km/h | 29414m | -30.3m/s | -44.8°C | 2.8% | 0hPa | 2.5V | 00:00:00 | 00:00:00 | 00:00:00 | |
| POL2MAQ | 2026-09-06 00:48:44 | 48.90649 | 18.49031 | 147° | 18km/h | 29444m | -31.2m/s | -44.9°C | 0.7% | 0hPa | 2.5V | 08:29:00 | 00:00:00 | 00:00:00 | |
| PETON7-10 | 2026-09-06 00:48:41 | 48.90660 | 18.49019 | 143° | 7km/h | 29529m | -28.1m/s | -44.9°C | 2.8% | 0hPa | 2.5V | 00:00:00 | 00:00:00 | 00:00:00 | |
| DO3MHA-11 | 2026-09-06 00:48:39 | 48.90665 | 18.49013 | 143° | 5km/h | 29589m | -30.8m/s | -45.0°C | 2.9% | 0hPa | 2.5V | 00:00:00 | 02:14:12 | 00:00:00 | |
| OE5DRO-10 | 2026-09-06 00:48:38 | 48.90667 | 18.49010 | 136° | 7km/h | 29620m | -30.2m/s | -45.0°C | 2.9% | 0hPa | 2.6V | 00:00:00 | 00:00:00 | 00:00:00 | |
| OE5MMP-10 | 2026-09-06 00:48:34 | 48.90671 | 18.49005 | 306° | 9km/h | 29740m | -31.2m/s | -45.1°C | 3.0% | 0hPa | 2.6V | 00:00:00 | 02:14:07 | 00:00:00 | |
| PG1ADW-2 | 2026-09-06 00:48:32 | 48.90670 | 18.49004 | 7° | 11km/h | 29803m | -31.4m/s | -45.2°C | 3.0% | 0hPa | 2.6V | 00:00:00 | 00:00:00 | 00:00:00 | |
| DO3MHA-11 | 2026-09-06 00:48:29 | 48.90669 | 18.48998 | 90° | 11km/h | 29897m | -30.1m/s | -45.3°C | 3.1% | 0hPa | 2.6V | 00:00:00 | 02:14:02 | 00:00:00 | |
| PETON7-10 | 2026-09-06 00:48:26 | 48.90671 | 18.48984 | 99° | 7km/h | 29987m | -28.1m/s | -45.0°C | 3.0% | 0hPa | 2.6V | 00:00:00 | 02:13:59 | 00:00:00 | |
| POL2MAQ | 2026-09-06 00:48:24 | 48.90672 | 18.48975 | 119° | 9km/h | 30048m | -32.8m/s | -44.8°C | 0.7% | 0hPa | 2.6V | 08:29:00 | 00:00:00 | 00:00:00 | |
| DO3MHA-11 | 2026-09-06 00:48:19 | 48.90680 | 18.48965 | 167° | 4km/h | 30215m | -34.8m/s | -43.9°C | 2.8% | 0hPa | 2.6V | 00:00:00 | 02:13:52 | 00:00:00 | |
| OE5DXL-15 | 2026-09-06 00:48:15 | 48.90686 | 18.48968 | 224° | 13km/h | 30336m | -25.3m/s | -44.0°C | 2.8% | 0hPa | 2.6V | 00:00:00 | 00:00:00 | 00:00:00 | |
| OE5MMP-10 | 2026-09-06 00:48:14 | 48.90686 | 18.48968 | 198° | 9km/h | 30361m | -24.7m/s | -44.0°C | 2.8% | 0hPa | 2.6V | 00:00:00 | 02:13:47 | 00:00:00 | |
| PETON7-10 | 2026-09-06 00:48:11 | 48.90687 | 18.48968 | 41° | 15km/h | 30433m | -29.6m/s | -43.6°C | 2.7% | 0hPa | 2.6V | 00:00:00 | 00:00:00 | 00:00:00 | |
| DO3MHA-11 | 2026-09-06 00:48:09 | 48.90684 | 18.48965 | 25° | 15km/h | 30494m | -31.2m/s | -43.3°C | 2.6% | 0hPa | 2.5V | 08:29:00 | 02:13:42 | 00:00:00 | |
| HA6NAB-11 | 2026-09-06 00:48:07 | 48.90681 | 18.48962 | 37° | 15km/h | 30527m | -35.9m/s | -43.2°C | 0.6% | 0hPa | 2.5V | 08:29:00 | 00:00:00 | 00:00:00 | |
| OE5MMP-10 | 2026-09-06 00:48:04 | 48.90669 | 18.48948 | 36° | 16km/h | 30663m | -36.5m/s | -43.6°C | 2.7% | 0hPa | 2.5V | 00:00:00 | 02:13:37 | 00:00:00 | |
| HA6NAB-11 | 2026-09-06 00:48:02 | 48.90667 | 18.48944 | 57° | 15km/h | 30699m | -32.7m/s | -43.8°C | 0.7% | 0hPa | 2.5V | 08:29:00 | 00:00:00 | 00:00:00 | |
| OE3OSB-13 | 2026-09-06 00:47:53 | 48.90644 | 18.48890 | 43° | 15km/h | 31054m | -27.5m/s | -43.8°C | 0.6% | -1.0hPa | 2.5V | 00:00:00 | 00:00:00 | 00:00:00 | |
| HA6NAB-11 | 2026-09-06 00:47:52 | 48.90644 | 18.48890 | 44° | 15km/h | 31054m | -27.5m/s | -43.8°C | 0.7% | 0hPa | 2.5V | 00:00:00 | 00:00:00 | 00:00:00 | |
| S52SK | 2026-09-06 00:47:50 | 48.90641 | 18.48886 | 36° | 13km/h | 31081m | -26.6m/s | -43.8°C | 0.7% | 0hPa | 2.5V | 00:00:00 | 00:00:00 | 00:00:00 | |
| DO3MHA-11 | 2026-09-06 00:47:49 | 48.90637 | 18.48879 | 50° | 24km/h | 31137m | -31.4m/s | -43.5°C | 2.8% | 0hPa | 2.5V | 00:00:00 | 02:13:22 | 00:00:00 | |
| HA6NAB-11 | 2026-09-06 00:47:46 | 48.90631 | 18.48869 | 44° | 18km/h | 31201m | -32.8m/s | -43.2°C | 0.6% | 0hPa | 2.5V | 00:00:00 | 00:00:00 | 00:00:00 | |
| OE5DXL-15 | 2026-09-06 00:47:45 | 48.90623 | 18.48857 | 44° | 24km/h | 31262m | -30.7m/s | -42.7°C | 2.6% | 0hPa | 2.5V | 00:00:00 | 00:00:00 | 00:00:00 | |
| OE5MMP-10 | 2026-09-06 00:47:43 | 48.90615 | 18.48843 | 47° | 22km/h | 31321m | -30.1m/s | -42.3°C | 2.5% | 0hPa | 2.5V | 00:00:00 | 02:13:16 | 00:00:00 | |
| HA6NAB-11 | 2026-09-06 00:47:42 | 48.90610 | 18.48835 | 51° | 31km/h | 31350m | -27.8m/s | -42.3°C | 0.6% | 0hPa | 2.5V | 00:00:00 | 00:00:00 | 00:00:00 | |
| PETON7-10 | 2026-09-06 00:47:41 | 48.90605 | 18.48827 | 49° | 18km/h | 31377m | -28.7m/s | -42.3°C | 2.5% | 0hPa | 2.5V | 00:00:00 | 02:13:14 | 00:00:00 | |
| DO3MHA-11 | 2026-09-06 00:47:39 | 48.90599 | 18.48812 | 67° | 18km/h | 31439m | -33.5m/s | -42.3°C | 2.5% | 0hPa | 2.5V | 00:00:00 | 02:13:12 | 00:00:00 | |
| HA6NAB-11 | 2026-09-06 00:47:36 | 48.90599 | 18.48792 | 127° | 18km/h | 31545m | -36.4m/s | -42.3°C | 0.6% | 0hPa | 2.6V | 00:00:00 | 00:00:00 | 00:00:00 | |
| OE5MMP-10 | 2026-09-06 00:47:33 | 48.90608 | 18.48774 | 133° | 16km/h | 31652m | -35.0m/s | -42.3°C | 2.4% | 0hPa | 2.6V | 00:00:00 | 02:13:06 | 00:00:00 | |
| DO3MHA-11 | 2026-09-06 00:47:29 | 48.90619 | 18.48754 | 109° | 27km/h | 31788m | -32.0m/s | -42.1°C | 2.4% | 0hPa | 2.6V | 00:00:00 | 02:13:02 | 00:00:00 | |
| PETON7-10 | 2026-09-06 00:47:26 | 48.90621 | 18.48732 | 92° | 27km/h | 31893m | -33.0m/s | -42.4°C | 2.4% | 0hPa | 2.6V | 00:00:00 | 00:00:00 | 00:00:00 | |
| OE3OSB-13 | 2026-09-06 00:47:22 | 48.90621 | 18.48673 | 86° | 33km/h | 32034m | -26.4m/s | -43.3°C | 0.6% | -1.0hPa | 2.6V | 00:00:00 | 00:00:00 | 00:00:00 | |
| OE3MUC-15 | 2026-09-06 00:47:21 | 48.90621 | 18.48673 | 87° | 33km/h | 32034m | -26.3m/s | -43.2°C | 2.6% | 0hPa | 2.6V | 00:00:00 | 00:00:00 | 00:00:00 | |
| DO3MHA-11 | 2026-09-06 00:47:19 | 48.90620 | 18.48647 | 85° | 22km/h | 32087m | -24.3m/s | -43.5°C | 2.6% | 0hPa | 2.5V | 00:00:00 | 02:12:52 | 00:00:00 | |
| OE3MUC-15 | 2026-09-06 00:47:17 | 48.90619 | 18.48625 | 88° | 20km/h | 32140m | -32.9m/s | -43.6°C | 2.6% | 0hPa | 2.5V | 00:00:00 | 00:00:00 | 00:00:00 | |
| OE5DXL-15 | 2026-09-06 00:47:15 | 48.90619 | 18.48607 | 97° | 24km/h | 32210m | -35.9m/s | -43.7°C | 2.7% | 0hPa | 2.5V | 00:00:00 | 00:00:00 | 00:00:00 | |
| OE3MUC-15 | 2026-09-06 00:47:12 | 48.90621 | 18.48587 | 91° | 16km/h | 32318m | -34.6m/s | -44.1°C | 2.8% | 0hPa | 2.5V | 00:00:00 | 00:00:00 | 00:00:00 | |
| PETON7-10 | 2026-09-06 00:47:11 | 48.90621 | 18.48581 | 77° | 16km/h | 32353m | -36.1m/s | -44.3°C | 2.8% | 0hPa | 2.5V | 00:00:00 | 00:00:00 | 00:00:00 | |
| DO3MHA-11 | 2026-09-06 00:47:09 | 48.90618 | 18.48571 | 44° | 16km/h | 32420m | -33.2m/s | -44.4°C | 2.9% | 0hPa | 2.5V | 00:00:00 | 02:12:42 | 00:00:00 | |
| OE3MUC-15 | 2026-09-06 00:47:08 | 48.90614 | 18.48566 | 36° | 18km/h | 32451m | -30.1m/s | -44.3°C | 2.9% | 0hPa | 2.5V | 00:00:00 | 00:00:00 | 08:30:00 | |
| OE3MUC-15 | 2026-09-06 00:47:04 | 48.90599 | 18.48552 | 38° | 16km/h | 32555m | -23.2m/s | -44.3°C | 2.9% | 0hPa | 2.5V | 00:00:00 | 00:00:00 | 00:00:00 | |
| OE5DRO-10 | 2026-09-06 00:47:03 | 48.90597 | 18.48548 | 59° | 26km/h | 32579m | -24.8m/s | -44.1°C | 2.9% | 0hPa | 2.5V | 00:00:00 | 00:00:00 | 00:00:00 | |
| POL2MAQ | 2026-09-06 00:47:01 | 48.90595 | 18.48543 | 87° | 13km/h | 32604m | -25.9m/s | -44.1°C | 0.7% | 0hPa | 2.5V | 00:00:00 | 00:00:00 | 00:00:00 | |
| DO3MHA-11 | 2026-09-06 00:46:59 | 48.90598 | 18.48528 | 116° | 33km/h | 32682m | -27.2m/s | -43.5°C | 2.7% | 0hPa | 2.5V | 00:00:00 | 02:12:32 | 00:00:00 | |
| OE3MUC-15 | 2026-09-06 00:46:57 | 48.90601 | 18.48515 | 94° | 31km/h | 32735m | -27.5m/s | -43.1°C | 2.5% | 0hPa | 2.5V | 00:00:00 | 00:00:00 | 00:00:00 | |
| PETON7-10 | 2026-09-06 00:46:56 | 48.90600 | 18.48505 | 78° | 31km/h | 32765m | -32.0m/s | -43.0°C | 2.5% | 0hPa | 2.5V | 00:00:00 | 02:12:29 | 00:00:00 | |
| OE3MUC-15 | 2026-09-06 00:46:53 | 48.90591 | 18.48463 | 72° | 42km/h | 32862m | -22.3m/s | -43.1°C | 2.6% | 0hPa | 2.5V | 00:00:00 | 00:00:00 | 00:00:00 | |
| OE3MUC-15 | 2026-09-06 00:46:49 | 48.90578 | 18.48401 | 76° | 27km/h | 32879m | 10.3m/s | -43.1°C | 2.6% | 0hPa | 2.6V | 00:00:00 | 00:00:00 | 00:00:00 | |
| OE5DXL-15 | 2026-09-06 00:46:45 | 48.90574 | 18.48369 | 106° | 22km/h | 32849m | 5.5m/s | -43.2°C | 2.6% | 0hPa | 2.6V | 00:00:00 | 00:00:00 | 00:00:00 | |
| OE5DRO-10 | 2026-09-06 00:46:44 | 48.90575 | 18.48363 | 105° | 27km/h | 32843m | 7.1m/s | -43.2°C | 2.6% | 0hPa | 2.6V | 00:00:00 | 00:00:00 | 00:00:00 | |
| GYPAP8-17 | 2026-09-06 00:46:42 | 48.90577 | 18.48344 | 94° | 33km/h | 32828m | 6.6m/s | -43.4°C | 0.6% | 0hPa | 2.6V | 00:00:00 | 00:00:00 | 00:00:00 | |
| PETON7-10 | 2026-09-06 00:46:41 | 48.90577 | 18.48330 | 88° | 27km/h | 32822m | 5.8m/s | -43.4°C | 2.6% | 0hPa | 2.6V | 00:00:00 | 00:00:00 | 08:30:00 | |
| DO3MHA-11 | 2026-09-06 00:46:39 | 48.90575 | 18.48301 | 79° | 29km/h | 32810m | 7.0m/s | -43.4°C | 2.6% | 0hPa | 2.5V | 00:00:00 | 02:12:12 | 08:30:00 | |
| OE3MUC-15 | 2026-09-06 00:46:38 | 48.90573 | 18.48288 | 74° | 31km/h | 32802m | 7.4m/s | -43.5°C | 2.6% | 0hPa | 2.5V | 00:00:00 | 00:00:00 | 00:00:00 | |
| PG1ADW-2 | 2026-09-06 00:46:36 | 48.90568 | 18.48267 | 68° | 18km/h | 32788m | 6.5m/s | -43.5°C | 2.6% | 0hPa | 2.6V | 00:00:00 | 02:12:09 | 00:00:00 | |
| OE3MUC-15 | 2026-09-06 00:46:32 | 48.90560 | 18.48224 | 82° | 18km/h | 32761m | 5.6m/s | -43.6°C | 2.6% | 0hPa | 2.6V | 00:00:00 | 00:00:00 | 00:00:00 | |
| DO3MHA-11 | 2026-09-06 00:46:29 | 48.90557 | 18.48199 | 72° | 18km/h | 32739m | 7.8m/s | -43.7°C | 2.6% | 0hPa | 2.6V | 00:00:00 | 02:12:02 | 00:00:00 | |
| SP3BTT-10 | 2026-09-06 00:46:28 | 48.90556 | 18.48194 | 60° | 29km/h | 32732m | 6.7m/s | 0°C | 0% | 0hPa | 2.6V | 00:00:00 | 00:00:00 | 00:00:00 | |
| PETON7-10 | 2026-09-06 00:46:26 | 48.90552 | 18.48184 | 61° | 13km/h | 32719m | 7.4m/s | -43.8°C | 2.7% | 0hPa | 2.6V | 00:00:00 | 00:00:00 | 00:00:00 | |
| OE3MUC-15 | 2026-09-06 00:46:25 | 48.90549 | 18.48177 | 66° | 24km/h | 32712m | 7.8m/s | -43.9°C | 2.7% | 0hPa | 2.6V | 00:00:00 | 00:00:00 | 00:00:00 | |
| OE3MUC-15 | 2026-09-06 00:46:21 | 48.90539 | 18.48146 | 54° | 11km/h | 32685m | 8.2m/s | -44.1°C | 2.7% | 0hPa | 2.6V | 00:00:00 | 00:00:00 | 08:30:00 | |
| POL2MAQ | 2026-09-06 00:46:20 | 48.90539 | 18.48146 | 54° | 15km/h | 32685m | 8.2m/s | -44.1°C | 0.7% | 0hPa | 2.5V | 00:00:00 | 00:00:00 | 00:00:00 | |
| DO3MHA-11 | 2026-09-06 00:46:19 | 48.90536 | 18.48142 | 36° | 9km/h | 32671m | 6.0m/s | -44.1°C | 2.7% | 0hPa | 2.5V | 00:00:00 | 02:11:52 | 00:00:00 | |
| PG1ADW-2 | 2026-09-06 00:46:16 | 48.90535 | 18.48136 | 83° | 16km/h | 32650m | 6.8m/s | -44.2°C | 2.7% | 0hPa | 2.5V | 00:00:00 | 00:00:00 | 00:00:00 | |
| OE5DXL-15 | 2026-09-06 00:46:15 | 48.90535 | 18.48132 | 74° | 15km/h | 32643m | 5.7m/s | -44.3°C | 2.7% | 0hPa | 2.5V | 00:00:00 | 00:00:00 | 00:00:00 | |
| PETON7-10 | 2026-09-06 00:46:11 | 48.90526 | 18.48128 | 359° | 18km/h | 32615m | 5.7m/s | -44.5°C | 2.8% | 0hPa | 2.5V | 00:00:00 | 02:11:44 | 00:00:00 | |
| DO3MHA-11 | 2026-09-06 00:46:09 | 48.90517 | 18.48125 | 25° | 16km/h | 32602m | 8.2m/s | -44.5°C | 2.8% | 0hPa | 2.5V | 00:00:00 | 02:11:42 | 00:00:00 | |
| OE5DRO-10 | 2026-09-06 00:46:07 | 48.90505 | 18.48109 | 51° | 15km/h | 32582m | 7.2m/s | -44.6°C | 2.8% | 0hPa | 2.6V | 00:00:00 | 00:00:00 | 00:00:00 | |
| OE3MUC-15 | 2026-09-06 00:46:06 | 48.90505 | 18.48109 | 51° | 16km/h | 32582m | 7.2m/s | -44.6°C | 2.8% | 0hPa | 2.6V | 00:00:00 | 00:00:00 | 00:00:00 | |
| OE5MMP-10 | 2026-09-06 00:46:03 | 48.90501 | 18.48097 | 96° | 20km/h | 32561m | 5.4m/s | -44.6°C | 2.8% | 0hPa | 2.5V | 00:00:00 | 02:11:36 | 08:30:00 | |
| POL2MAQ | 2026-09-06 00:46:01 | 48.90503 | 18.48086 | 98° | 18km/h | 32547m | 8.3m/s | -44.6°C | 0.7% | 0hPa | 2.6V | 00:00:00 | 00:00:00 | 00:00:00 | |
| DO3MHA-11 | 2026-09-06 00:45:59 | 48.90502 | 18.48069 | 83° | 16km/h | 32534m | 5.6m/s | -44.6°C | 2.8% | 0hPa | 2.6V | 00:00:00 | 02:11:32 | 00:00:00 | |
| OE3MUC-15 | 2026-09-06 00:45:57 | 48.90499 | 18.48055 | 61° | 16km/h | 32520m | 8.5m/s | -44.6°C | 2.8% | 0hPa | 2.6V | 00:00:00 | 00:00:00 | 00:00:00 | |
| PG1ADW-2 | 2026-09-06 00:45:56 | 48.90497 | 18.48051 | 39° | 15km/h | 32512m | 7.5m/s | -44.6°C | 2.8% | 0hPa | 2.6V | 00:00:00 | 00:00:00 | 08:30:00 | |
| OE3MUC-15 | 2026-09-06 00:45:51 | 48.90485 | 18.48029 | 73° | 11km/h | 32479m | 4.8m/s | -44.6°C | 2.8% | 0hPa | 2.6V | 00:00:00 | 00:00:00 | 00:00:00 | |
| DO3MHA-11 | 2026-09-06 00:45:49 | 48.90484 | 18.48020 | 100° | 16km/h | 32466m | 8.2m/s | -44.7°C | 2.9% | 0hPa | 2.5V | 00:00:00 | 02:11:22 | 00:00:00 | |
| OE3MUC-15 | 2026-09-06 00:45:47 | 48.90486 | 18.48016 | 127° | 18km/h | 32452m | 5.7m/s | -44.8°C | 2.9% | 0hPa | 2.5V | 00:00:00 | 00:00:00 | 00:00:00 | |
| OE5DXL-15 | 2026-09-06 00:45:45 | 48.90488 | 18.48008 | 95° | 24km/h | 32440m | 7.0m/s | -44.9°C | 2.9% | 0hPa | 2.5V | 00:00:00 | 00:00:00 | 08:30:00 | |
| S52SK | 2026-09-06 00:45:43 | 48.90488 | 18.48000 | 88° | 24km/h | 32432m | 8.2m/s | -44.9°C | 0.7% | 0hPa | 2.5V | 00:00:00 | 00:00:00 | 00:00:00 | |
| PETON7-10 | 2026-09-06 00:45:41 | 48.90483 | 18.47970 | 64° | 20km/h | 32413m | 5.6m/s | -44.8°C | 2.9% | 0hPa | 2.5V | 00:00:00 | 00:00:00 | 00:00:00 | |
| POL2MAQ | 2026-09-06 00:45:40 | 48.90483 | 18.47970 | 65° | 26km/h | 32413m | 5.7m/s | -44.8°C | 0.7% | 0hPa | 2.5V | 00:00:00 | 00:00:00 | 00:00:00 | |
| DO3MHA-11 | 2026-09-06 00:45:39 | 48.90477 | 18.47958 | 30° | 18km/h | 32399m | 7.7m/s | -44.7°C | 2.9% | 0hPa | 2.5V | 00:00:00 | 02:11:12 | 00:00:00 | |
| GYPAP8-17 | 2026-09-06 00:45:38 | 48.90477 | 18.47958 | 30° | 15km/h | 32399m | 7.7m/s | -44.8°C | 0.7% | 0hPa | 2.5V | 00:00:00 | 00:00:00 | 00:00:00 | |
| PG1ADW-2 | 2026-09-06 00:45:36 | 48.90470 | 18.47957 | 66° | 24km/h | 32379m | 6.5m/s | -44.7°C | 2.9% | 0hPa | 2.5V | 00:00:00 | 00:00:00 | 00:00:00 | |
| OE5MMP-10 | 2026-09-06 00:45:31 | 48.90488 | 18.47925 | 135° | 27km/h | 32346m | 6.9m/s | -44.5°C | 2.9% | 0hPa | 2.5V | 00:00:00 | 02:11:04 | 00:00:00 | |
| DO3MHA-11 | 2026-09-06 00:45:29 | 48.90496 | 18.47910 | 114° | 26km/h | 32333m | 5.4m/s | -44.4°C | 2.8% | 0hPa | 2.5V | 00:00:00 | 02:11:02 | 00:00:00 | |
| OE5DRO-10 | 2026-09-06 00:45:28 | 48.90497 | 18.47902 | 90° | 27km/h | 32327m | 5.8m/s | -44.4°C | 2.8% | 0hPa | 2.5V | 00:00:00 | 00:00:00 | 00:00:00 | |
| PETON7-10 | 2026-09-06 00:45:26 | 48.90494 | 18.47882 | 66° | 27km/h | 32312m | 8.9m/s | -44.3°C | 2.8% | 0hPa | 2.6V | 00:00:00 | 02:10:59 | 00:00:00 | |
| OE5MMP-10 | 2026-09-06 00:45:21 | 48.90478 | 18.47835 | 100° | 27km/h | 32280m | 6.9m/s | -44.1°C | 2.8% | 0hPa | 2.6V | 00:00:00 | 02:10:54 | 00:00:00 | |
| DO3MHA-11 | 2026-09-06 00:45:19 | 48.90483 | 18.47825 | 141° | 29km/h | 32266m | 7.0m/s | -44.1°C | 2.8% | 0hPa | 2.6V | 00:00:00 | 02:10:52 | 00:00:00 | |
| OE3MUC-15 | 2026-09-06 00:45:17 | 48.90492 | 18.47810 | 127° | 31km/h | 32252m | 6.2m/s | -44.2°C | 2.8% | 0hPa | 2.6V | 00:00:00 | 00:00:00 | 00:00:00 | |
| PG1ADW-2 | 2026-09-06 00:45:16 | 48.90497 | 18.47800 | 119° | 26km/h | 32246m | 5.4m/s | -44.2°C | 2.8% | 0hPa | 2.6V | 00:00:00 | 02:10:49 | 00:00:00 | |
| OE5DXL-15 | 2026-09-06 00:45:15 | 48.90501 | 18.47789 | 112° | 29km/h | 32241m | 5.9m/s | -44.2°C | 2.8% | 0hPa | 2.6V | 00:00:00 | 00:00:00 | 00:00:00 | |
| PETON7-10 | 2026-09-06 00:45:11 | 48.90500 | 18.47746 | 66° | 35km/h | 32214m | 5.5m/s | -44.2°C | 2.8% | 0hPa | 2.6V | 00:00:00 | 00:00:00 | 00:00:00 | |
| OE5MMP-10 | 2026-09-06 00:45:10 | 48.90496 | 18.47734 | 64° | 33km/h | 32208m | 6.4m/s | -44.2°C | 2.8% | 0hPa | 2.5V | 00:00:00 | 02:10:43 | 00:00:00 | |
| DO3MHA-11 | 2026-09-06 00:45:09 | 48.90492 | 18.47720 | 66° | 35km/h | 32201m | 8.2m/s | -44.2°C | 2.8% | 0hPa | 2.5V | 00:00:00 | 02:10:42 | 08:30:00 | |
| SP3BTT-10 | 2026-09-06 00:45:07 | 48.90484 | 18.47688 | 76° | 27km/h | 32187m | 5.6m/s | 0°C | 0% | 0hPa | 2.5V | 00:00:00 | 00:00:00 | 08:30:00 | |
| OE3MUC-15 | 2026-09-06 00:45:06 | 48.90482 | 18.47673 | 83° | 31km/h | 32181m | 5.7m/s | -44.2°C | 2.8% | 0hPa | 2.5V | 00:00:00 | 00:00:00 | 00:00:00 | |
| OE3OSB-13 | 2026-09-06 00:44:46 | 48.90484 | 18.47470 | 114° | 18km/h | 32046m | 6.3m/s | -43.3°C | 0.6% | -1.0hPa | 2.5V | 00:00:00 | 00:00:00 | 00:00:00 | |
| OE5DXL-15 | 2026-09-06 00:44:45 | 48.90486 | 18.47462 | 108° | 22km/h | 32038m | 8.3m/s | -43.2°C | 2.7% | 0hPa | 2.5V | 00:00:00 | 00:00:00 | 00:00:00 | |
| OE3MUC-15 | 2026-09-06 00:44:44 | 48.90487 | 18.47452 | 102° | 29km/h | 32031m | 6.6m/s | -43.2°C | 2.7% | 0hPa | 2.5V | 00:00:00 | 00:00:00 | 00:00:00 | |
| PETON7-10 | 2026-09-06 00:44:41 | 48.90490 | 18.47419 | 91° | 22km/h | 32011m | 8.2m/s | -43.1°C | 2.7% | 0hPa | 2.5V | 00:00:00 | 02:10:14 | 00:00:00 | |
| OE3MUC-15 | 2026-09-06 00:44:40 | 48.90489 | 18.47410 | 86° | 24km/h | 32003m | 6.8m/s | -43.0°C | 2.7% | 0hPa | 2.5V | 00:00:00 | 00:00:00 | 00:00:00 | |
| POL2MAQ | 2026-09-06 00:44:39 | 48.90488 | 18.47401 | 81° | 24km/h | 31997m | 6.4m/s | -43.1°C | 0.7% | 0hPa | 2.5V | 00:00:00 | 00:00:00 | 00:00:00 | |
| OE5MMP-10 | 2026-09-06 00:44:38 | 48.90487 | 18.47392 | 78° | 22km/h | 31989m | 7.6m/s | -43.0°C | 2.7% | 0hPa | 2.5V | 00:00:00 | 02:10:11 | 00:00:00 | |
| SP3BTT-10 | 2026-09-06 00:44:37 | 48.90486 | 18.47383 | 79° | 24km/h | 31982m | 7.1m/s | 0°C | 0% | 0hPa | 2.6V | 00:00:00 | 00:00:00 | 00:00:00 | |
| OE3MUC-15 | 2026-09-06 00:44:36 | 48.90485 | 18.47373 | 88° | 18km/h | 31976m | 5.3m/s | -43.1°C | 2.7% | 0hPa | 2.6V | 00:00:00 | 00:00:00 | 00:00:00 | |
| OE3MUC-15 | 2026-09-06 00:44:32 | 48.90493 | 18.47353 | 163° | 22km/h | 31948m | 6.2m/s | -42.9°C | 2.7% | 0hPa | 2.6V | 00:00:00 | 02:10:05 | 00:00:00 | |
| OE5DRO-10 | 2026-09-06 00:44:31 | 48.90497 | 18.47350 | 155° | 22km/h | 31943m | 4.7m/s | -42.9°C | 2.6% | 0hPa | 2.6V | 00:00:00 | 00:00:00 | 08:30:00 | |
| DO3MHA-11 | 2026-09-06 00:44:29 | 48.90506 | 18.47339 | 124° | 22km/h | 31929m | 7.9m/s | -42.9°C | 2.6% | 0hPa | 2.6V | 00:00:00 | 02:10:02 | 00:00:00 | |
| OE3MUC-15 | 2026-09-06 00:44:28 | 48.90509 | 18.47329 | 112° | 29km/h | 31922m | 7.0m/s | -43.0°C | 2.6% | 0hPa | 2.6V | 00:00:00 | 00:00:00 | 00:00:00 | |
| GYPAP8-17 | 2026-09-06 00:44:27 | 48.90512 | 18.47318 | 105° | 31km/h | 31915m | 6.2m/s | -43.0°C | 0.7% | 0hPa | 2.6V | 00:00:00 | 00:00:00 | 00:00:00 | |
| PETON7-10 | 2026-09-06 00:44:26 | 48.90513 | 18.47306 | 102° | 22km/h | 31909m | 6.7m/s | -43.0°C | 2.6% | 0hPa | 2.6V | 00:00:00 | 00:00:00 | 08:30:00 | |
| OE3MUC-15 | 2026-09-06 00:44:24 | 48.90516 | 18.47289 | 102° | 15km/h | 31894m | 6.5m/s | -42.9°C | 2.6% | 0hPa | 2.5V | 00:00:00 | 00:00:00 | 00:00:00 | |
| OE3MUC-15 | 2026-09-06 00:44:20 | 48.90520 | 18.47267 | 119° | 16km/h | 31868m | 6.3m/s | -42.8°C | 2.6% | 0hPa | 2.6V | 00:00:00 | 00:00:00 | 00:00:00 | |
| DO3MHA-11 | 2026-09-06 00:44:19 | 48.90522 | 18.47262 | 138° | 26km/h | 31862m | 5.6m/s | -42.8°C | 2.6% | 0hPa | 2.6V | 00:00:00 | 02:09:52 | 00:00:00 | |
| OE5MMP-10 | 2026-09-06 00:44:18 | 48.90525 | 18.47259 | 156° | 27km/h | 31856m | 6.7m/s | -42.7°C | 2.6% | 0hPa | 2.6V | 00:00:00 | 02:09:51 | 00:00:00 | |
| PG1ADW-2 | 2026-09-06 00:44:17 | 48.90530 | 18.47257 | 169° | 24km/h | 31848m | 8.3m/s | -42.7°C | 2.6% | 0hPa | 2.6V | 00:00:00 | 00:00:00 | 00:00:00 | |
| OE3MUC-15 | 2026-09-06 00:44:16 | 48.90535 | 18.47256 | 174° | 27km/h | 31840m | 6.6m/s | -42.7°C | 2.6% | 0hPa | 2.5V | 00:00:00 | 00:00:00 | 00:00:00 | |
| OE5DXL-15 | 2026-09-06 00:44:15 | 48.90541 | 18.47254 | 164° | 24km/h | 31834m | 5.5m/s | -42.7°C | 2.6% | 0hPa | 2.5V | 00:00:00 | 00:00:00 | 00:00:00 | |
| OE3MUC-15 | 2026-09-06 00:44:12 | 48.90558 | 18.47234 | 125° | 33km/h | 31814m | 7.3m/s | -42.9°C | 2.6% | 0hPa | 2.6V | 00:00:00 | 00:00:00 | 08:30:00 | |
| PETON7-10 | 2026-09-06 00:44:11 | 48.90563 | 18.47223 | 120° | 22km/h | 31807m | 5.5m/s | -42.9°C | 2.6% | 0hPa | 2.5V | 00:00:00 | 00:00:00 | 00:00:00 | |
| DO3MHA-11 | 2026-09-06 00:44:09 | 48.90572 | 18.47201 | 129° | 18km/h | 31796m | 7.0m/s | -42.9°C | 2.7% | 0hPa | 2.5V | 00:00:00 | 02:09:42 | 00:00:00 | |
| OE3MUC-15 | 2026-09-06 00:44:08 | 48.90577 | 18.47194 | 146° | 22km/h | 31789m | 7.7m/s | -43.0°C | 2.6% | 0hPa | 2.5V | 00:00:00 | 00:00:00 | 00:00:00 | |
| OE3MUC-15 | 2026-09-06 00:44:04 | 48.90594 | 18.47194 | 192° | 13km/h | 31760m | 7.5m/s | -43.1°C | 2.7% | 0hPa | 2.5V | 00:00:00 | 00:00:00 | 00:00:00 | |
| OE3MUC-15 | 2026-09-06 00:44:00 | 48.90607 | 18.47190 | 156° | 27km/h | 31734m | 6.9m/s | -43.0°C | 2.7% | 0hPa | 2.5V | 00:00:00 | 00:00:00 | 00:00:00 | |
| DO3MHA-11 | 2026-09-06 00:43:59 | 48.90612 | 18.47186 | 156° | 29km/h | 31727m | 6.4m/s | -43.0°C | 2.7% | 0hPa | 2.6V | 00:00:00 | 02:09:32 | 00:00:00 | |
| OE5MMP-10 | 2026-09-06 00:43:58 | 48.90618 | 18.47182 | 152° | 29km/h | 31721m | 5.9m/s | -43.0°C | 2.6% | 0hPa | 2.6V | 00:00:00 | 02:09:31 | 00:00:00 | |
| POL2MAQ | 2026-09-06 00:43:57 | 48.90625 | 18.47175 | 146° | 38km/h | 31715m | 6.5m/s | -43.1°C | 0.6% | 0hPa | 2.6V | 00:00:00 | 00:00:00 | 00:00:00 | |
| PETON7-10 | 2026-09-06 00:43:56 | 48.90633 | 18.47165 | 139° | 24km/h | 31708m | 7.6m/s | -43.1°C | 2.7% | 0hPa | 2.6V | 00:00:00 | 02:09:29 | 00:00:00 | |
| OE5DRO-10 | 2026-09-06 00:43:53 | 48.90653 | 18.47129 | 124° | 20km/h | 31689m | 3.7m/s | -43.0°C | 2.6% | 0hPa | 2.6V | 00:00:00 | 00:00:00 | 00:00:00 | |
| OE3MUC-15 | 2026-09-06 00:43:52 | 48.90657 | 18.47120 | 124° | 16km/h | 31685m | 4.9m/s | -42.9°C | 2.7% | 0hPa | 2.6V | 00:00:00 | 00:00:00 | 00:00:00 | |
| DO3MHA-11 | 2026-09-06 00:43:49 | 48.90660 | 18.47116 | 295° | 24km/h | 31662m | 6.2m/s | -42.8°C | 2.6% | 0hPa | 2.6V | 00:00:00 | 02:09:22 | 00:00:00 | |
| OE5MMP-10 | 2026-09-06 00:43:48 | 48.90658 | 18.47121 | 306° | 26km/h | 31657m | 3.6m/s | -42.8°C | 2.6% | 0hPa | 2.6V | 00:00:00 | 02:09:21 | 00:00:00 | |
| OE3MUC-15 | 2026-09-06 00:43:47 | 48.90656 | 18.47124 | 325° | 16km/h | 31653m | 4.0m/s | -42.7°C | 2.6% | 0hPa | 2.6V | 00:00:00 | 00:00:00 | 00:00:00 | |
| OE5DXL-15 | 2026-09-06 00:43:45 | 48.90651 | 18.47122 | 64° | 22km/h | 31640m | 8.4m/s | -42.7°C | 2.6% | 0hPa | 2.6V | 00:00:00 | 00:00:00 | 00:00:00 | |
| OE3OSB-13 | 2026-09-06 00:43:44 | 48.90650 | 18.47114 | 84° | 27km/h | 31632m | 7.5m/s | -42.7°C | 0.6% | -1.0hPa | 2.6V | 00:00:00 | 00:00:00 | 00:00:00 | |
| OE3MUC-15 | 2026-09-06 00:43:43 | 48.90650 | 18.47102 | 93° | 37km/h | 31624m | 7.1m/s | -42.7°C | 2.5% | 0hPa | 2.6V | 00:00:00 | 00:00:00 | 00:00:00 | |
| PETON7-10 | 2026-09-06 00:43:41 | 48.90654 | 18.47074 | 110° | 20km/h | 31610m | 7.0m/s | -42.8°C | 2.6% | 0hPa | 2.6V | 00:00:00 | 00:00:00 | 00:00:00 | |
| DO3MHA-11 | 2026-09-06 00:43:39 | 48.90661 | 18.47053 | 124° | 13km/h | 31597m | 5.9m/s | -42.9°C | 2.6% | 0hPa | 2.5V | 00:00:00 | 02:09:12 | 08:30:00 | |
| OE5MMP-10 | 2026-09-06 00:43:38 | 48.90664 | 18.47046 | 121° | 13km/h | 31591m | 6.4m/s | -43.0°C | 2.6% | 0hPa | 2.5V | 00:00:00 | 02:09:11 | 00:00:00 | |
| POL2MAQ | 2026-09-06 00:43:35 | 48.90666 | 18.47036 | 85° | 9km/h | 31575m | 8.7m/s | -43.1°C | 0.6% | 0hPa | 2.5V | 00:00:00 | 00:00:00 | 00:00:00 | |
| OE5DRO-10 | 2026-09-06 00:43:34 | 48.90664 | 18.47030 | 44° | 20km/h | 31561m | 6.1m/s | -43.1°C | 2.7% | 0hPa | 2.5V | 00:00:00 | 00:00:00 | 00:00:00 | |
| DO3MHA-11 | 2026-09-06 00:43:29 | 48.90657 | 18.47008 | 60° | 27km/h | 31527m | 8.9m/s | -43.1°C | 2.7% | 0hPa | 2.5V | 00:00:00 | 02:09:02 | 00:00:00 | |
| OE5MMP-10 | 2026-09-06 00:43:28 | 48.90653 | 18.46999 | 56° | 26km/h | 31518m | 8.2m/s | -43.1°C | 2.6% | 0hPa | 2.5V | 00:00:00 | 02:09:01 | 00:00:00 | |
| PETON7-10 | 2026-09-06 00:43:26 | 48.90643 | 18.46976 | 59° | 20km/h | 31505m | 5.9m/s | -43.1°C | 2.6% | 0hPa | 2.5V | 00:00:00 | 00:00:00 | 00:00:00 | |
| SP3BTT-10 | 2026-09-06 00:43:24 | 48.90636 | 18.46954 | 69° | 22km/h | 31490m | 8.1m/s | 0°C | 0% | 0hPa | 2.5V | 00:00:00 | 00:00:00 | 00:00:00 | |
| OE3MUC-15 | 2026-09-06 00:43:20 | 48.90626 | 18.46927 | 38° | 13km/h | 31461m | 6.6m/s | -43.0°C | 2.6% | 0hPa | 2.5V | 00:00:00 | 00:00:00 | 00:00:00 | |
| DO3MHA-11 | 2026-09-06 00:43:19 | 48.90623 | 18.46923 | 35° | 18km/h | 31455m | 5.3m/s | -43.0°C | 2.6% | 0hPa | 2.5V | 00:00:00 | 02:08:52 | 00:00:00 | |
| OE5MMP-10 | 2026-09-06 00:43:18 | 48.90620 | 18.46920 | 40° | 20km/h | 31449m | 6.9m/s | -43.0°C | 2.6% | 0hPa | 2.5V | 00:00:00 | 02:08:51 | 00:00:00 | |
| PG1ADW-2 | 2026-09-06 00:43:17 | 48.90618 | 18.46917 | 56° | 20km/h | 31441m | 8.5m/s | -43.0°C | 2.6% | 0hPa | 2.5V | 00:00:00 | 00:00:00 | 00:00:00 | |
| OE5DXL-15 | 2026-09-06 00:43:15 | 48.90616 | 18.46910 | 69° | 20km/h | 31427m | 5.5m/s | -43.0°C | 2.6% | 0hPa | 2.5V | 00:00:00 | 00:00:00 | 00:00:00 | |
| POL2MAQ | 2026-09-06 00:43:14 | 48.90616 | 18.46910 | 70° | 13km/h | 31427m | 5.6m/s | -43.0°C | 0.6% | 0hPa | 2.5V | 00:00:00 | 00:00:00 | 00:00:00 | |
| OE3OSB-13 | 2026-09-06 00:43:13 | 48.90611 | 18.46898 | 51° | 22km/h | 31414m | 8.4m/s | -43.1°C | 0.6% | -1.0hPa | 2.5V | 00:00:00 | 00:00:00 | 00:00:00 | |
| PETON7-10 | 2026-09-06 00:43:11 | 48.90602 | 18.46882 | 50° | 22km/h | 31399m | 6.1m/s | -43.2°C | 2.6% | 0hPa | 2.5V | 00:00:00 | 02:08:44 | 00:00:00 | |
| OE3MUC-15 | 2026-09-06 00:43:10 | 48.90598 | 18.46873 | 56° | 20km/h | 31393m | 5.8m/s | -43.2°C | 2.6% | 0hPa | 2.5V | 00:00:00 | 00:00:00 | 00:00:00 | |
| DO3MHA-11 | 2026-09-06 00:43:09 | 48.90594 | 18.46864 | 64° | 18km/h | 31386m | 7.7m/s | -43.2°C | 2.6% | 0hPa | 2.5V | 00:00:00 | 02:08:42 | 00:00:00 | |
| OE5MMP-10 | 2026-09-06 00:43:08 | 48.90592 | 18.46855 | 74° | 18km/h | 31379m | 7.2m/s | -43.3°C | 2.6% | 0hPa | 2.5V | 00:00:00 | 02:08:41 | 00:00:00 | |
| OE3MUC-15 | 2026-09-06 00:43:02 | 48.90578 | 18.46836 | 4° | 20km/h | 31337m | 6.3m/s | -43.6°C | 2.6% | 0hPa | 2.6V | 00:00:00 | 00:00:00 | 00:00:00 | |
| DO3MHA-11 | 2026-09-06 00:42:59 | 48.90563 | 18.46827 | 46° | 22km/h | 31315m | 6.7m/s | -43.7°C | 2.7% | 0hPa | 2.6V | 00:00:00 | 02:08:32 | 00:00:00 | |
| OE3MUC-15 | 2026-09-06 00:42:58 | 48.90559 | 18.46820 | 52° | 31km/h | 31309m | 5.4m/s | -43.7°C | 2.7% | 0hPa | 2.6V | 00:00:00 | 00:00:00 | 00:00:00 | |
| PG1ADW-2 | 2026-09-06 00:42:57 | 48.90554 | 18.46811 | 52° | 22km/h | 31303m | 6.6m/s | -43.8°C | 2.7% | 0hPa | 2.6V | 00:00:00 | 02:08:30 | 00:00:00 | |
| PETON7-10 | 2026-09-06 00:42:56 | 48.90549 | 18.46802 | 50° | 20km/h | 31296m | 8.1m/s | -43.8°C | 2.7% | 0hPa | 2.6V | 00:00:00 | 00:00:00 | 00:00:00 | |
| OE3MUC-15 | 2026-09-06 00:42:54 | 48.90540 | 18.46785 | 55° | 15km/h | 31283m | 5.3m/s | -43.9°C | 2.7% | 0hPa | 2.5V | 00:00:00 | 00:00:00 | 00:00:00 | |
| POL2MAQ | 2026-09-06 00:42:53 | 48.90540 | 18.46785 | 56° | 22km/h | 31283m | 5.4m/s | -43.9°C | 0.7% | 0hPa | 2.5V | 00:00:00 | 00:00:00 | 00:00:00 | |
| SP3BTT-10 | 2026-09-06 00:42:51 | 48.90539 | 18.46771 | 150° | 18km/h | 31261m | 7.3m/s | 0°C | 0% | 0hPa | 2.5V | 00:00:00 | 00:00:00 | 00:00:00 | |
| OE3MUC-15 | 2026-09-06 00:42:49 | 48.90545 | 18.46769 | 185° | 15km/h | 31249m | 6.2m/s | -44.0°C | 2.8% | 0hPa | 2.5V | 00:00:00 | 00:00:00 | 08:30:00 | |
| OE5MMP-10 | 2026-09-06 00:42:48 | 48.90546 | 18.46769 | 194° | 24km/h | 31242m | 6.9m/s | -44.0°C | 2.8% | 0hPa | 2.5V | 00:00:00 | 02:08:21 | 00:00:00 | |
| OE3MUC-15 | 2026-09-06 00:42:45 | 48.90535 | 18.46760 | 35° | 31km/h | 31222m | 7.2m/s | -44.1°C | 2.8% | 0hPa | 2.5V | 00:00:00 | 00:00:00 | 00:00:00 | |
| OE3OSB-13 | 2026-09-06 00:42:42 | 48.90517 | 18.46737 | 40° | 31km/h | 31202m | 5.2m/s | -44.2°C | 0.7% | -1.0hPa | 2.5V | 00:00:00 | 00:00:00 | 00:00:00 | |
| OE3MUC-15 | 2026-09-06 00:42:41 | 48.90511 | 18.46730 | 35° | 26km/h | 31197m | 6.1m/s | -44.2°C | 2.8% | 0hPa | 2.5V | 00:00:00 | 00:00:00 | 00:00:00 | |
| DO3MHA-11 | 2026-09-06 00:42:39 | 48.90499 | 18.46722 | 12° | 18km/h | 31183m | 6.8m/s | -44.2°C | 2.8% | 0hPa | 2.5V | 00:00:00 | 02:08:12 | 00:00:00 | |
| OE5MMP-10 | 2026-09-06 00:42:38 | 48.90493 | 18.46721 | 3° | 18km/h | 31176m | 5.3m/s | -44.2°C | 2.8% | 0hPa | 2.5V | 00:00:00 | 02:08:11 | 08:30:00 | |
| OE5DRO-10 | 2026-09-06 00:42:37 | 48.90488 | 18.46720 | 7° | 18km/h | 31172m | 4.4m/s | -44.2°C | 2.8% | 0hPa | 2.6V | 00:00:00 | 00:00:00 | 00:00:00 | |
| OE3MUC-15 | 2026-09-06 00:42:35 | 48.90483 | 18.46716 | 63° | 16km/h | 31159m | 8.4m/s | -44.1°C | 2.8% | 0hPa | 2.5V | 00:00:00 | 00:00:00 | 00:00:00 | |
| POL2MAQ | 2026-09-06 00:42:33 | 48.90482 | 18.46703 | 89° | 22km/h | 31144m | 6.5m/s | -44.1°C | 0.7% | 0hPa | 2.5V | 00:00:00 | 00:00:00 | 00:00:00 | |
| OE3MUC-15 | 2026-09-06 00:42:31 | 48.90481 | 18.46687 | 73° | 18km/h | 31130m | 8.1m/s | -44.0°C | 2.8% | 0hPa | 2.5V | 00:00:00 | 00:00:00 | 00:00:00 | |
| DO3MHA-11 | 2026-09-06 00:42:29 | 48.90475 | 18.46676 | 34° | 18km/h | 31115m | 6.2m/s | -44.0°C | 2.8% | 0hPa | 2.5V | 00:00:00 | 02:08:02 | 00:00:00 | |
| OE5MMP-10 | 2026-09-06 00:42:28 | 48.90470 | 18.46672 | 31° | 16km/h | 31109m | 6.3m/s | -44.0°C | 2.8% | 0hPa | 2.5V | 00:00:00 | 02:08:01 | 00:00:00 | |
| OE3MUC-15 | 2026-09-06 00:42:27 | 48.90465 | 18.46666 | 35° | 26km/h | 31101m | 8.0m/s | -43.9°C | 2.8% | 0hPa | 2.5V | 00:00:00 | 00:00:00 | 00:00:00 | |
| PETON7-10 | 2026-09-06 00:42:26 | 48.90459 | 18.46660 | 40° | 15km/h | 31094m | 7.3m/s | -44.0°C | 2.8% | 0hPa | 2.5V | 00:00:00 | 02:07:59 | 00:00:00 | |
| OE3MUC-15 | 2026-09-06 00:42:23 | 48.90446 | 18.46644 | 32° | 9km/h | 31073m | 8.3m/s | -44.0°C | 2.8% | 0hPa | 2.5V | 00:00:00 | 00:00:00 | 00:00:00 | |
| SP3BTT-10 | 2026-09-06 00:42:21 | 48.90442 | 18.46640 | 74° | 16km/h | 31059m | 5.7m/s | 0°C | 0% | 0hPa | 2.6V | 00:00:00 | 00:00:00 | 00:00:00 | |
| DO3MHA-11 | 2026-09-06 00:42:19 | 48.90444 | 18.46634 | 117° | 15km/h | 31046m | 8.6m/s | -44.0°C | 2.8% | 0hPa | 2.6V | 00:00:00 | 02:07:52 | 00:00:00 | |
| OE5MMP-10 | 2026-09-06 00:42:18 | 48.90445 | 18.46628 | 113° | 15km/h | 31038m | 7.3m/s | -43.9°C | 2.8% | 0hPa | 2.6V | 00:00:00 | 02:07:51 | 00:00:00 | |
| OE3MUC-15 | 2026-09-06 00:42:15 | 48.90449 | 18.46608 | 84° | 13km/h | 31017m | 8.2m/s | -43.8°C | 2.8% | 0hPa | 2.6V | 00:00:00 | 00:00:00 | 00:00:00 | |
| PG1ADW-2 | 2026-09-06 00:42:12 | 48.90443 | 18.46598 | 38° | 20km/h | 30997m | 6.1m/s | -43.7°C | 2.7% | 0hPa | 2.6V | 00:00:00 | 00:00:00 | 00:00:00 | |
| PETON7-10 | 2026-09-06 00:42:11 | 48.90441 | 18.46595 | 52° | 15km/h | 30990m | 8.2m/s | -43.7°C | 2.7% | 0hPa | 2.6V | 00:00:00 | 00:00:00 | 08:30:00 | |
| OE3MUC-15 | 2026-09-06 00:42:10 | 48.90439 | 18.46590 | 65° | 15km/h | 30982m | 6.9m/s | -43.7°C | 2.7% | 0hPa | 2.5V | 00:00:00 | 00:00:00 | 08:30:00 | |
| DO3MHA-11 | 2026-09-06 00:42:09 | 48.90438 | 18.46585 | 74° | 15km/h | 30976m | 5.7m/s | -43.7°C | 2.7% | 0hPa | 2.5V | 00:00:00 | 02:07:42 | 08:30:00 | |
| OE5MMP-10 | 2026-09-06 00:42:08 | 48.90437 | 18.46581 | 82° | 15km/h | 30970m | 6.8m/s | -43.7°C | 2.7% | 0hPa | 2.5V | 00:00:00 | 02:07:41 | 00:00:00 | |
| OE3MUC-15 | 2026-09-06 00:42:06 | 48.90438 | 18.46574 | 119° | 9km/h | 30955m | 6.1m/s | -43.7°C | 2.7% | 0hPa | 2.5V | 00:00:00 | 00:00:00 | 00:00:00 | |
| GYPAP8-17 | 2026-09-06 00:42:05 | 48.90439 | 18.46571 | 129° | 11km/h | 30949m | 5.2m/s | -43.8°C | 0.7% | 0hPa | 2.5V | 00:00:00 | 00:00:00 | 00:00:00 | |
| OE3MUC-15 | 2026-09-06 00:42:02 | 48.90445 | 18.46554 | 108° | 18km/h | 30929m | 5.5m/s | -43.9°C | 2.7% | 0hPa | 2.5V | 00:00:00 | 00:00:00 | 00:00:00 | |
| DO3MHA-11 | 2026-09-06 00:41:59 | 48.90443 | 18.46537 | 40° | 22km/h | 30910m | 8.1m/s | -44.0°C | 2.8% | 0hPa | 2.5V | 00:00:00 | 02:07:32 | 00:00:00 | |
| OE5MMP-10 | 2026-09-06 00:41:58 | 48.90440 | 18.46535 | 14° | 22km/h | 30902m | 7.0m/s | -44.1°C | 2.8% | 0hPa | 2.5V | 00:00:00 | 02:07:31 | 00:00:00 | |
| PETON7-10 | 2026-09-06 00:41:56 | 48.90430 | 18.46531 | 21° | 20km/h | 30889m | 6.8m/s | -44.2°C | 2.8% | 0hPa | 2.5V | 00:00:00 | 00:00:00 | 00:00:00 | |
| POL2MAQ | 2026-09-06 00:41:53 | 48.90417 | 18.46514 | 55° | 26km/h | 30868m | 6.1m/s | -44.2°C | 0.7% | 0hPa | 2.5V | 00:00:00 | 00:00:00 | 00:00:00 | |
| OE3MUC-15 | 2026-09-06 00:41:50 | 48.90403 | 18.46488 | 43° | 20km/h | 30840m | 6.0m/s | -44.1°C | 2.8% | 0hPa | 2.5V | 00:00:00 | 00:00:00 | 00:00:00 | |
| DO3MHA-11 | 2026-09-06 00:41:49 | 48.90403 | 18.46488 | 43° | 16km/h | 30840m | 6.0m/s | -44.1°C | 2.8% | 0hPa | 2.5V | 00:00:00 | 02:07:22 | 00:00:00 | |
| OE5MMP-10 | 2026-09-06 00:41:48 | 48.90399 | 18.46483 | 48° | 16km/h | 30833m | 7.4m/s | -44.1°C | 2.8% | 0hPa | 2.5V | 00:00:00 | 02:07:21 | 00:00:00 | |
| OE3MUC-15 | 2026-09-06 00:41:45 | 48.90390 | 18.46466 | 43° | 15km/h | 30812m | 5.4m/s | -44.2°C | 2.9% | 0hPa | 2.5V | 00:00:00 | 00:00:00 | 00:00:00 | |
| PETON7-10 | 2026-09-06 00:41:41 | 48.90376 | 18.46461 | 13° | 20km/h | 30784m | 4.7m/s | -44.2°C | 2.9% | 0hPa | 2.6V | 00:00:00 | 02:07:14 | 00:00:00 | |
| OE3OSB-13 | 2026-09-06 00:41:40 | 48.90369 | 18.46454 | 56° | 20km/h | 30770m | 8.4m/s | -44.2°C | 0.7% | -1.0hPa | 2.6V | 00:00:00 | 00:00:00 | 00:00:00 | |
| DO3MHA-11 | 2026-09-06 00:41:39 | 48.90369 | 18.46454 | 57° | 24km/h | 30770m | 8.3m/s | -44.1°C | 2.9% | 0hPa | 2.6V | 00:00:00 | 02:07:12 | 00:00:00 | |
| OE5MMP-10 | 2026-09-06 00:41:38 | 48.90366 | 18.46445 | 64° | 26km/h | 30763m | 5.9m/s | -44.1°C | 2.9% | 0hPa | 2.6V | 00:00:00 | 02:07:11 | 00:00:00 | |
| SP3BTT-10 | 2026-09-06 00:41:37 | 48.90363 | 18.46435 | 62° | 18km/h | 30757m | 5.7m/s | 0°C | 0% | 0hPa | 2.5V | 00:00:00 | 00:00:00 | 00:00:00 | |
| PG1ADW-2 | 2026-09-06 00:41:33 | 48.90344 | 18.46398 | 50° | 18km/h | 30729m | 6.2m/s | -43.9°C | 2.8% | 0hPa | 2.5V | 00:00:00 | 00:00:00 | 00:00:00 | |
| POL2MAQ | 2026-09-06 00:41:32 | 48.90344 | 18.46398 | 50° | 26km/h | 30729m | 6.3m/s | -44.0°C | 0.7% | 0hPa | 2.5V | 00:00:00 | 00:00:00 | 00:00:00 | |
| OE5MMP-10 | 2026-09-06 00:41:28 | 48.90332 | 18.46380 | 332° | 20km/h | 30695m | 8.8m/s | -43.7°C | 2.8% | 0hPa | 2.5V | 00:00:00 | 02:07:01 | 00:00:00 | |
| PETON7-10 | 2026-09-06 00:41:26 | 48.90326 | 18.46386 | 337° | 16km/h | 30680m | 5.7m/s | -43.7°C | 2.8% | 0hPa | 2.5V | 00:00:00 | 00:00:00 | 00:00:00 | |
| OE3MUC-15 | 2026-09-06 00:41:21 | 48.90309 | 18.46365 | 60° | 27km/h | 30646m | 5.8m/s | -43.5°C | 2.7% | 0hPa | 2.5V | 00:00:00 | 00:00:00 | 00:00:00 | |
| OE5MMP-10 | 2026-09-06 00:41:18 | 48.90295 | 18.46345 | 14° | 13km/h | 30627m | 6.6m/s | -43.4°C | 2.7% | 0hPa | 2.5V | 00:00:00 | 02:06:51 | 00:00:00 | |
| OE3MUC-15 | 2026-09-06 00:41:17 | 48.90290 | 18.46345 | 346° | 16km/h | 30620m | 7.0m/s | -43.3°C | 2.7% | 0hPa | 2.5V | 00:00:00 | 02:06:50 | 00:00:00 | |
| DO3MHA-11 | 2026-09-06 00:41:15 | 48.90285 | 18.46352 | 288° | 13km/h | 30606m | 7.1m/s | -43.3°C | 2.7% | 0hPa | 2.6V | 00:00:00 | 02:06:48 | 00:00:00 | |
| PG1ADW-2 | 2026-09-06 00:41:13 | 48.90286 | 18.46358 | 223° | 11km/h | 30592m | 5.9m/s | -43.3°C | 2.7% | 0hPa | 2.6V | 00:00:00 | 00:00:00 | 08:30:00 | |
| PETON7-10 | 2026-09-06 00:41:11 | 48.90286 | 18.46358 | 41° | 11km/h | 30581m | 6.8m/s | -43.3°C | 2.7% | 0hPa | 2.6V | 00:00:00 | 00:00:00 | 00:00:00 | |
| OE3OSB-13 | 2026-09-06 00:41:09 | 48.90277 | 18.46350 | 32° | 20km/h | 30559m | 5.7m/s | -43.4°C | 0.6% | -1.0hPa | 2.6V | 00:00:00 | 00:00:00 | 00:00:00 | |
| OE5MMP-10 | 2026-09-06 00:41:08 | 48.90277 | 18.46349 | 33° | 15km/h | 30559m | 5.7m/s | -43.4°C | 2.7% | 0hPa | 2.6V | 00:00:00 | 02:06:41 | 08:30:00 | |
| SP3BTT-10 | 2026-09-06 00:41:07 | 48.90273 | 18.46345 | 41° | 18km/h | 30553m | 6.8m/s | 0°C | 0% | 0hPa | 2.6V | 00:00:00 | 00:00:00 | 00:00:00 | |
| DO3MHA-11 | 2026-09-06 00:41:05 | 48.90267 | 18.46335 | 66° | 7km/h | 30538m | 6.3m/s | -43.4°C | 2.7% | 0hPa | 2.6V | 00:00:00 | 02:06:38 | 00:00:00 | |
| OE5DRO-10 | 2026-09-06 00:41:02 | 48.90265 | 18.46328 | 351° | 7km/h | 30518m | 7.8m/s | -43.5°C | 2.7% | 0hPa | 2.6V | 00:00:00 | 00:00:00 | 00:00:00 | |
| OE5MMP-10 | 2026-09-06 00:40:58 | 48.90267 | 18.46331 | 160° | 11km/h | 30490m | 7.0m/s | -43.6°C | 2.7% | 0hPa | 2.6V | 00:00:00 | 02:06:31 | 00:00:00 | |
| PETON7-10 | 2026-09-06 00:40:56 | 48.90270 | 18.46325 | 106° | 7km/h | 30479m | 5.3m/s | -43.7°C | 2.7% | 0hPa | 2.6V | 00:00:00 | 02:06:29 | 00:00:00 | |
| DO3MHA-11 | 2026-09-06 00:40:55 | 48.90270 | 18.46321 | 79° | 9km/h | 30472m | 7.4m/s | -43.8°C | 2.7% | 0hPa | 2.6V | 00:00:00 | 02:06:28 | 00:00:00 | |
| PG1ADW-2 | 2026-09-06 00:40:53 | 48.90266 | 18.46315 | 23° | 9km/h | 30457m | 6.6m/s | -43.9°C | 2.8% | 0hPa | 2.5V | 00:00:00 | 02:06:26 | 00:00:00 | |
| POL2MAQ | 2026-09-06 00:40:51 | 48.90260 | 18.46312 | 8° | 9km/h | 30446m | 6.4m/s | -44.0°C | 0.7% | 0hPa | 2.5V | 00:00:00 | 00:00:00 | 00:00:00 | |
| DO3MHA-11 | 2026-09-06 00:40:45 | 48.90262 | 18.46312 | 286° | 9km/h | 30405m | 7.2m/s | -44.1°C | 2.8% | 0hPa | 2.5V | 00:00:00 | 02:06:18 | 00:00:00 | |
| OE5DRO-10 | 2026-09-06 00:40:43 | 48.90262 | 18.46313 | 147° | 11km/h | 30393m | 5.6m/s | -44.1°C | 2.8% | 0hPa | 2.5V | 00:00:00 | 00:00:00 | 00:00:00 | |
| PETON7-10 | 2026-09-06 00:40:41 | 48.90264 | 18.46310 | 148° | 11km/h | 30379m | 7.6m/s | -44.1°C | 2.8% | 0hPa | 2.6V | 00:00:00 | 00:00:00 | 00:00:00 | |
| OE3OSB-13 | 2026-09-06 00:40:38 | 48.90271 | 18.46294 | 89° | 13km/h | 30351m | 7.5m/s | -44.1°C | 0.7% | -1.0hPa | 2.6V | 00:00:00 | 00:00:00 | 00:00:00 | |
| DO3MHA-11 | 2026-09-06 00:40:35 | 48.90271 | 18.46285 | 92° | 11km/h | 30339m | 5.5m/s | -44.0°C | 2.7% | 0hPa | 2.6V | 00:00:00 | 02:06:08 | 00:00:00 | |
| OE5MMP-10 | 2026-09-06 00:40:34 | 48.90271 | 18.46281 | 116° | 11km/h | 30333m | 7.3m/s | -44.0°C | 2.7% | 0hPa | 2.6V | 00:00:00 | 02:06:07 | 00:00:00 | |
| PG1ADW-2 | 2026-09-06 00:40:33 | 48.90273 | 18.46279 | 156° | 9km/h | 30325m | 7.6m/s | -44.0°C | 2.7% | 0hPa | 2.6V | 00:00:00 | 00:00:00 | 00:00:00 | |
| POL2MAQ | 2026-09-06 00:40:30 | 48.90279 | 18.46280 | 204° | 15km/h | 30312m | 6.3m/s | -44.0°C | 0.7% | 0hPa | 2.6V | 00:00:00 | 00:00:00 | 00:00:00 | |
| PETON7-10 | 2026-09-06 00:40:26 | 48.90288 | 18.46293 | 195° | 9km/h | 30279m | 7.4m/s | -44.2°C | 2.7% | 0hPa | 2.6V | 00:00:00 | 00:00:00 | 00:00:00 | |
| DO3MHA-11 | 2026-09-06 00:40:25 | 48.90290 | 18.46293 | 164° | 9km/h | 30271m | 7.1m/s | -44.3°C | 2.8% | 0hPa | 2.6V | 00:00:00 | 02:05:58 | 08:30:00 | |
| OE5DRO-10 | 2026-09-06 00:40:24 | 48.90293 | 18.46291 | 145° | 11km/h | 30265m | 5.2m/s | -44.3°C | 2.8% | 0hPa | 2.5V | 00:00:00 | 00:00:00 | 00:00:00 | |
| OE5MMP-10 | 2026-09-06 00:40:21 | 48.90297 | 18.46281 | 82° | 11km/h | 30245m | 7.7m/s | -44.4°C | 2.8% | 0hPa | 2.5V | 00:00:00 | 02:05:54 | 00:00:00 | |
| OE5DXL-15 | 2026-09-06 00:40:15 | 48.90303 | 18.46272 | 171° | 16km/h | 30205m | 6.6m/s | -44.7°C | 2.8% | 0hPa | 2.6V | 00:00:00 | 00:00:00 | 00:00:00 | |
| PG1ADW-2 | 2026-09-06 00:40:13 | 48.90305 | 18.46270 | 106° | 18km/h | 30191m | 6.6m/s | -44.7°C | 2.8% | 0hPa | 2.6V | 00:00:00 | 00:00:00 | 00:00:00 | |
| PETON7-10 | 2026-09-06 00:40:11 | 48.90306 | 18.46262 | 103° | 18km/h | 30178m | 7.2m/s | -44.8°C | 2.9% | 0hPa | 2.5V | 00:00:00 | 02:05:44 | 00:00:00 | |
| POL2MAQ | 2026-09-06 00:40:10 | 48.90306 | 18.46262 | 103° | 15km/h | 30178m | 7.3m/s | -44.9°C | 0.7% | 0hPa | 2.5V | 00:00:00 | 00:00:00 | 00:00:00 | |
| OE5MMP-10 | 2026-09-06 00:40:08 | 48.90309 | 18.46241 | 93° | 18km/h | 30158m | 5.8m/s | -44.9°C | 2.9% | 0hPa | 2.5V | 00:00:00 | 02:05:41 | 00:00:00 | |
| OE3OSB-13 | 2026-09-06 00:40:07 | 48.90307 | 18.46227 | 61° | 18km/h | 30142m | 7.8m/s | -45.0°C | 0.7% | -1.0hPa | 2.5V | 00:00:00 | 00:00:00 | 00:00:00 | |
| DO3MHA-11 | 2026-09-06 00:40:05 | 48.90304 | 18.46221 | 58° | 18km/h | 30136m | 5.0m/s | -45.0°C | 2.9% | 0hPa | 2.5V | 00:00:00 | 02:05:38 | 00:00:00 | |
| OE5MMP-10 | 2026-09-06 00:39:58 | 48.90313 | 18.46178 | 113° | 16km/h | 30088m | 6.7m/s | -45.1°C | 2.9% | 0hPa | 2.5V | 00:00:00 | 02:05:31 | 00:00:00 | |
| S52SK | 2026-09-06 00:39:56 | 48.90316 | 18.46165 | 110° | 20km/h | 30075m | 7.1m/s | -45.2°C | 0.8% | 0hPa | 2.5V | 00:00:00 | 00:00:00 | 00:00:00 | |
| DO3MHA-11 | 2026-09-06 00:39:55 | 48.90318 | 18.46157 | 109° | 16km/h | 30068m | 7.8m/s | -45.1°C | 3.0% | 0hPa | 2.5V | 00:00:00 | 02:05:28 | 00:00:00 | |
| PG1ADW-2 | 2026-09-06 00:39:53 | 48.90320 | 18.46142 | 89° | 15km/h | 30055m | 5.5m/s | -45.1°C | 2.9% | 0hPa | 2.5V | 00:00:00 | 00:00:00 | 00:00:00 | |
| POL2MAQ | 2026-09-06 00:39:50 | 48.90316 | 18.46125 | 59° | 13km/h | 30034m | 5.4m/s | -45.2°C | 0.8% | 0hPa | 2.5V | 00:00:00 | 00:00:00 | 00:00:00 | |
| SP3BTT-10 | 2026-09-06 00:39:49 | 48.90315 | 18.46121 | 76° | 11km/h | 30028m | 6.2m/s | 0°C | 0% | 0hPa | 2.5V | 00:00:00 | 00:00:00 | 00:00:00 | |
| OE5MMP-10 | 2026-09-06 00:39:48 | 48.90315 | 18.46117 | 109° | 11km/h | 30021m | 8.0m/s | -45.2°C | 2.9% | 0hPa | 2.5V | 00:00:00 | 02:05:21 | 00:00:00 | |
| OE5DRO-10 | 2026-09-06 00:39:46 | 48.90320 | 18.46108 | 140° | 13km/h | 30007m | 5.7m/s | -45.2°C | 2.9% | 0hPa | 2.5V | 00:00:00 | 00:00:00 | 00:00:00 | |
| DO3MHA-11 | 2026-09-06 00:39:45 | 48.90323 | 18.46104 | 141° | 13km/h | 30001m | 7.5m/s | -45.2°C | 2.9% | 0hPa | 2.6V | 00:00:00 | 02:05:18 | 00:00:00 | |
| OE5DXL-15 | 2026-09-06 00:39:45 | 48.90323 | 18.46104 | 141° | 11km/h | 30001m | 7.5m/s | -45.2°C | 2.9% | 0hPa | 2.6V | 00:00:00 | 00:00:00 | 00:00:00 | |
| PETON7-10 | 2026-09-06 00:39:41 | 48.90327 | 18.46093 | 101° | 11km/h | 29973m | 7.8m/s | -45.4°C | 3.0% | 0hPa | 2.5V | 00:00:00 | 00:00:00 | 00:00:00 | |
| OE5MMP-10 | 2026-09-06 00:39:38 | 48.90325 | 18.46081 | 42° | 13km/h | 29954m | 6.3m/s | -45.4°C | 3.0% | 0hPa | 2.5V | 00:00:00 | 02:05:11 | 00:00:00 | |
| DO3MHA-11 | 2026-09-06 00:39:35 | 48.90310 | 18.46073 | 10° | 9km/h | 29932m | 4.9m/s | -45.4°C | 3.0% | 0hPa | 2.5V | 00:00:00 | 02:05:08 | 00:00:00 | |
| PG1ADW-2 | 2026-09-06 00:39:33 | 48.90303 | 18.46071 | 14° | 11km/h | 29920m | 7.5m/s | -45.4°C | 3.0% | 0hPa | 2.5V | 00:00:00 | 02:05:06 | 00:00:00 | |
| POL2MAQ | 2026-09-06 00:39:29 | 48.90306 | 18.46074 | 220° | 11km/h | 29900m | 6.4m/s | -45.4°C | 0.8% | 0hPa | 2.5V | 00:00:00 | 00:00:00 | 00:00:00 | |
| OE5MMP-10 | 2026-09-06 00:39:28 | 48.90309 | 18.46080 | 259° | 11km/h | 29886m | 6.1m/s | -45.3°C | 3.0% | 0hPa | 2.5V | 00:00:00 | 02:05:01 | 00:00:00 | |
| OE5DRO-10 | 2026-09-06 00:39:27 | 48.90309 | 18.46082 | 297° | 9km/h | 29880m | 5.6m/s | -45.3°C | 3.0% | 0hPa | 2.5V | 00:00:00 | 00:00:00 | 00:00:00 | |
| PETON7-10 | 2026-09-06 00:39:26 | 48.90308 | 18.46083 | 29° | 11km/h | 29874m | 6.4m/s | -45.3°C | 3.0% | 0hPa | 2.5V | 00:00:00 | 02:04:59 | 00:00:00 | |
| DO3MHA-11 | 2026-09-06 00:39:25 | 48.90307 | 18.46081 | 66° | 11km/h | 29867m | 7.8m/s | -45.3°C | 3.0% | 0hPa | 2.5V | 00:00:00 | 02:04:58 | 00:00:00 | |
| GYPAP8-17 | 2026-09-06 00:39:21 | 48.90303 | 18.46067 | 58° | 16km/h | 29849m | 5.8m/s | -45.3°C | 0.8% | 0hPa | 2.5V | 00:00:00 | 00:00:00 | 00:00:00 | |
| SP3BTT-10 | 2026-09-06 00:39:19 | 48.90295 | 18.46059 | 359° | 11km/h | 29830m | 4.8m/s | 0°C | 0% | 0hPa | 2.5V | 00:00:00 | 00:00:00 | 00:00:00 | |
| OE5MMP-10 | 2026-09-06 00:39:18 | 48.90294 | 18.46060 | 327° | 9km/h | 29826m | 4.7m/s | -45.2°C | 3.0% | 0hPa | 2.5V | 00:00:00 | 02:04:51 | 08:30:00 | |
| DO3MHA-11 | 2026-09-06 00:39:15 | 48.90300 | 18.46059 | 170° | 11km/h | 29805m | 6.3m/s | -45.2°C | 3.0% | 0hPa | 2.6V | 00:00:00 | 02:04:48 | 00:00:00 | |
| PETON7-10 | 2026-09-06 00:39:11 | 48.90312 | 18.46055 | 32° | 13km/h | 29780m | 6.7m/s | -45.1°C | 2.9% | 0hPa | 2.6V | 00:00:00 | 00:00:00 | 00:00:00 | |
| OE5MMP-10 | 2026-09-06 00:39:08 | 48.90308 | 18.46051 | 53° | 13km/h | 29759m | 7.5m/s | -45.1°C | 2.9% | 0hPa | 2.6V | 00:00:00 | 02:04:41 | 00:00:00 | |
| POL2MAQ | 2026-09-06 00:39:07 | 48.90308 | 18.46051 | 54° | 9km/h | 29759m | 7.5m/s | -45.1°C | 0.8% | 0hPa | 2.6V | 00:00:00 | 00:00:00 | 00:00:00 | |
| DO3MHA-11 | 2026-09-06 00:39:05 | 48.90303 | 18.46040 | 61° | 13km/h | 29740m | 6.8m/s | -45.1°C | 2.9% | 0hPa | 2.6V | 00:00:00 | 02:04:38 | 00:00:00 | |
| OE3OSB-13 | 2026-09-06 00:39:04 | 48.90302 | 18.46036 | 56° | 9km/h | 29733m | 7.2m/s | -45.1°C | 0.7% | -1.0hPa | 2.6V | 00:00:00 | 00:00:00 | 00:00:00 | |
| OE5MMP-10 | 2026-09-06 00:38:58 | 48.90317 | 18.46019 | 159° | 15km/h | 29695m | 3.9m/s | -45.1°C | 2.9% | 0hPa | 2.6V | 00:00:00 | 02:04:31 | 00:00:00 | |
| PETON7-10 | 2026-09-06 00:38:56 | 48.90323 | 18.46014 | 124° | 16km/h | 29684m | 7.7m/s | -45.1°C | 2.9% | 0hPa | 2.6V | 00:00:00 | 00:00:00 | 00:00:00 | |
| DO3MHA-11 | 2026-09-06 00:38:55 | 48.90323 | 18.46011 | 70° | 15km/h | 29676m | 6.9m/s | -45.1°C | 2.9% | 0hPa | 2.6V | 00:00:00 | 02:04:28 | 08:30:00 | |
| OE5DRO-10 | 2026-09-06 00:38:49 | 48.90319 | 18.45977 | 113° | 18km/h | 29639m | 7.4m/s | -45.0°C | 3.0% | 0hPa | 2.6V | 00:00:00 | 00:00:00 | 08:30:00 | |
| OE5MMP-10 | 2026-09-06 00:38:48 | 48.90320 | 18.45974 | 138° | 16km/h | 29632m | 6.8m/s | -45.0°C | 3.0% | 0hPa | 2.6V | 00:00:00 | 02:04:21 | 00:00:00 | |
| POL2MAQ | 2026-09-06 00:38:47 | 48.90320 | 18.45974 | 139° | 7km/h | 29632m | 6.8m/s | -45.1°C | 0.8% | 0hPa | 2.6V | 00:00:00 | 00:00:00 | 00:00:00 | |
| DO3MHA-11 | 2026-09-06 00:38:45 | 48.90330 | 18.45967 | 154° | 18km/h | 29612m | 8.5m/s | -45.0°C | 3.0% | 0hPa | 2.6V | 00:00:00 | 02:04:18 | 00:00:00 | |
| PETON7-10 | 2026-09-06 00:38:41 | 48.90348 | 18.45948 | 136° | 22km/h | 29586m | 7.9m/s | -45.1°C | 3.0% | 0hPa | 2.6V | 00:00:00 | 02:04:14 | 00:00:00 | |
| OE5MMP-10 | 2026-09-06 00:38:38 | 48.90352 | 18.45936 | 109° | 24km/h | 29566m | 8.0m/s | -45.1°C | 2.9% | 0hPa | 2.6V | 00:00:00 | 02:04:11 | 00:00:00 | |
| DO3MHA-11 | 2026-09-06 00:38:35 | 48.90357 | 18.45914 | 108° | 26km/h | 29547m | 6.7m/s | -45.0°C | 2.9% | 0hPa | 2.6V | 00:00:00 | 02:04:08 | 00:00:00 | |
| PG1ADW-2 | 2026-09-06 00:38:33 | 48.90361 | 18.45900 | 124° | 20km/h | 29533m | 5.5m/s | -45.1°C | 2.9% | 0hPa | 2.6V | 00:00:00 | 00:00:00 | 00:00:00 | |
| OE5DRO-10 | 2026-09-06 00:38:30 | 48.90376 | 18.45880 | 147° | 24km/h | 29513m | 7.3m/s | -45.1°C | 2.9% | 0hPa | 2.6V | 00:00:00 | 00:00:00 | 00:00:00 | |
| OE5MMP-10 | 2026-09-06 00:38:28 | 48.90391 | 18.45866 | 152° | 18km/h | 29501m | 6.1m/s | -45.1°C | 2.9% | 0hPa | 2.6V | 00:00:00 | 02:04:01 | 00:00:00 | |
| POL2MAQ | 2026-09-06 00:38:27 | 48.90391 | 18.45866 | 153° | 31km/h | 29501m | 6.1m/s | -45.2°C | 0.7% | 0hPa | 2.6V | 00:00:00 | 00:00:00 | 00:00:00 | |
| PETON7-10 | 2026-09-06 00:38:26 | 48.90401 | 18.45857 | 146° | 20km/h | 29487m | 6.2m/s | -45.1°C | 2.9% | 0hPa | 2.6V | 00:00:00 | 00:00:00 | 00:00:00 | |
| DO3MHA-11 | 2026-09-06 00:38:25 | 48.90404 | 18.45854 | 123° | 16km/h | 29481m | 5.1m/s | -45.1°C | 2.9% | 0hPa | 2.6V | 00:00:00 | 02:03:58 | 00:00:00 | |
| GYPAP8-17 | 2026-09-06 00:38:19 | 48.90409 | 18.45822 | 116° | 16km/h | 29451m | 6.0m/s | -45.0°C | 0.8% | 0hPa | 2.5V | 00:00:00 | 00:00:00 | 00:00:00 | |
| OE5MMP-10 | 2026-09-06 00:38:18 | 48.90414 | 18.45813 | 146° | 26km/h | 29438m | 6.1m/s | -45.0°C | 2.9% | 0hPa | 2.5V | 00:00:00 | 02:03:51 | 00:00:00 | |
| DO3MHA-11 | 2026-09-06 00:38:15 | 48.90428 | 18.45802 | 153° | 24km/h | 29418m | 6.9m/s | -45.1°C | 2.9% | 0hPa | 2.5V | 00:00:00 | 02:03:48 | 00:00:00 | |
| SP3BTT-10 | 2026-09-06 00:38:12 | 48.90450 | 18.45790 | 171° | 18km/h | 29399m | 7.7m/s | 0°C | 0% | 0hPa | 2.5V | 00:00:00 | 00:00:00 | 00:00:00 | |
| PETON7-10 | 2026-09-06 00:38:11 | 48.90457 | 18.45789 | 177° | 22km/h | 29392m | 5.9m/s | -45.3°C | 2.9% | 0hPa | 2.5V | 00:00:00 | 00:00:00 | 00:00:00 | |
| OE5MMP-10 | 2026-09-06 00:38:08 | 48.90473 | 18.45782 | 141° | 20km/h | 29374m | 8.2m/s | -45.4°C | 2.9% | 0hPa | 2.5V | 00:00:00 | 02:03:41 | 00:00:00 | |
| POL2MAQ | 2026-09-06 00:38:06 | 48.90476 | 18.45777 | 118° | 16km/h | 29367m | 6.3m/s | -45.4°C | 0.8% | 0hPa | 2.5V | 00:00:00 | 00:00:00 | 00:00:00 | |
| DO3MHA-11 | 2026-09-06 00:38:05 | 48.90478 | 18.45767 | 112° | 26km/h | 29355m | 7.2m/s | -45.3°C | 2.9% | 0hPa | 2.5V | 00:00:00 | 02:03:38 | 00:00:00 | |
| OE3OSB-13 | 2026-09-06 00:38:02 | 48.90488 | 18.45758 | 158° | 24km/h | 29337m | 5.6m/s | -45.4°C | 0.7% | -1.0hPa | 2.5V | 00:00:00 | 00:00:00 | 00:00:00 | |
| PETON7-10 | 2026-09-06 00:37:56 | 48.90529 | 18.45732 | 167° | 20km/h | 29298m | 5.3m/s | -45.4°C | 2.9% | 0hPa | 2.5V | 00:00:00 | 02:03:29 | 00:00:00 | |
| DO3MHA-11 | 2026-09-06 00:37:55 | 48.90534 | 18.45729 | 159° | 20km/h | 29292m | 4.9m/s | -45.4°C | 2.9% | 0hPa | 2.5V | 00:00:00 | 02:03:28 | 00:00:00 | |
| OE5DRO-10 | 2026-09-06 00:37:52 | 48.90547 | 18.45714 | 122° | 22km/h | 29273m | 5.7m/s | -45.5°C | 2.9% | 0hPa | 2.6V | 00:00:00 | 00:00:00 | 00:00:00 | |
| OE5MMP-10 | 2026-09-06 00:37:48 | 48.90555 | 18.45691 | 128° | 20km/h | 29247m | 5.5m/s | -45.8°C | 3.0% | 0hPa | 2.6V | 00:00:00 | 02:03:21 | 08:30:00 | |
| POL2MAQ | 2026-09-06 00:37:46 | 48.90561 | 18.45680 | 133° | 22km/h | 29233m | 6.8m/s | -45.9°C | 0.8% | 0hPa | 2.6V | 00:00:00 | 00:00:00 | 00:00:00 | |
| OE5DXL-15 | 2026-09-06 00:37:45 | 48.90566 | 18.45674 | 139° | 22km/h | 29227m | 5.1m/s | -45.9°C | 3.0% | 0hPa | 2.6V | 00:00:00 | 00:00:00 | 00:00:00 | |
| PG1ADW-2 | 2026-09-06 00:37:43 | 48.90575 | 18.45664 | 157° | 22km/h | 29216m | 7.0m/s | -46.0°C | 3.0% | 0hPa | 2.6V | 00:00:00 | 00:00:00 | 00:00:00 | |
| DB0DAN | 2026-09-06 00:37:40 | 48.90590 | 18.45659 | 164° | 18km/h | 29196m | 5m/s | 0°C | 0% | 0hPa | 2.6V | 00:00:00 | 00:00:00 | 00:00:00 | |
| OE5MMP-10 | 2026-09-06 00:37:38 | 48.90599 | 18.45651 | 134° | 22km/h | 29184m | 7.6m/s | -46.2°C | 3.1% | 0hPa | 2.6V | 00:00:00 | 02:03:11 | 00:00:00 | |
| DO3MHA-11 | 2026-09-06 00:37:35 | 48.90610 | 18.45625 | 120° | 22km/h | 29164m | 7.4m/s | -46.3°C | 3.1% | 0hPa | 2.6V | 00:00:00 | 02:03:08 | 00:00:00 | |
| OE5DRO-10 | 2026-09-06 00:37:33 | 48.90616 | 18.45614 | 140° | 22km/h | 29150m | 6.1m/s | -46.3°C | 3.1% | 0hPa | 2.6V | 00:00:00 | 00:00:00 | 00:00:00 | |
| OE3OSB-13 | 2026-09-06 00:37:31 | 48.90624 | 18.45606 | 150° | 20km/h | 29137m | 7.8m/s | -46.4°C | 0.8% | -1.0hPa | 2.6V | 00:00:00 | 00:00:00 | 00:00:00 | |
| OE5MMP-10 | 2026-09-06 00:37:28 | 48.90640 | 18.45598 | 175° | 24km/h | 29119m | 7.0m/s | -46.4°C | 3.1% | 0hPa | 2.6V | 00:00:00 | 02:03:01 | 00:00:00 | |
| PETON7-10 | 2026-09-06 00:37:26 | 48.90651 | 18.45598 | 184° | 20km/h | 29105m | 5.3m/s | -46.5°C | 3.1% | 0hPa | 2.6V | 00:00:00 | 00:00:00 | 00:00:00 | |
| DO3MHA-11 | 2026-09-06 00:37:25 | 48.90655 | 18.45597 | 163° | 20km/h | 29100m | 4.8m/s | -46.6°C | 3.1% | 0hPa | 2.6V | 00:00:00 | 02:02:58 | 08:30:00 | |
| PG1ADW-2 | 2026-09-06 00:37:23 | 48.90661 | 18.45588 | 113° | 18km/h | 29086m | 8.9m/s | -46.7°C | 3.1% | 0hPa | 2.6V | 00:00:00 | 02:02:56 | 08:30:00 | |
| OE5MMP-10 | 2026-09-06 00:37:18 | 48.90671 | 18.45540 | 126° | 16km/h | 29051m | 5.9m/s | -46.9°C | 3.2% | 0hPa | 2.6V | 00:00:00 | 02:02:51 | 00:00:00 | |
| OE5DXL-15 | 2026-09-06 00:37:15 | 48.90682 | 18.45527 | 166° | 20km/h | 29030m | 6.3m/s | -47.0°C | 3.2% | 0hPa | 2.5V | 00:00:00 | 00:00:00 | 00:00:00 | |
| OE5DRO-10 | 2026-09-06 00:37:14 | 48.90687 | 18.45526 | 185° | 18km/h | 29023m | 6.9m/s | -47.0°C | 3.2% | 0hPa | 2.5V | 00:00:00 | 00:00:00 | 00:00:00 | |
| PETON7-10 | 2026-09-06 00:37:11 | 48.90698 | 18.45532 | 187° | 20km/h | 29004m | 3.9m/s | -47.2°C | 3.2% | 0hPa | 2.5V | 00:00:00 | 02:02:44 | 00:00:00 | |
| OE5MMP-10 | 2026-09-06 00:37:08 | 48.90704 | 18.45518 | 102° | 26km/h | 28983m | 5.1m/s | -47.3°C | 3.2% | 0hPa | 2.5V | 00:00:00 | 02:02:41 | 00:00:00 | |
| POL2MAQ | 2026-09-06 00:37:05 | 48.90706 | 18.45496 | 100° | 27km/h | 28972m | 7.8m/s | -47.3°C | 0.8% | 0hPa | 2.5V | 00:00:00 | 00:00:00 | 00:00:00 | |
| OE3OSB-13 | 2026-09-06 00:37:00 | 48.90728 | 18.45468 | 158° | 22km/h | 28928m | 4.6m/s | -47.5°C | 0.8% | -1.0hPa | 2.5V | 00:00:00 | 00:00:00 | 00:00:00 | |
| OE5MMP-10 | 2026-09-06 00:36:58 | 48.90737 | 18.45462 | 156° | 24km/h | 28915m | 8.4m/s | -47.5°C | 3.3% | 0hPa | 2.5V | 00:00:00 | 02:02:31 | 00:00:00 | |
| PETON7-10 | 2026-09-06 00:36:56 | 48.90742 | 18.45457 | 136° | 20km/h | 28899m | 4.5m/s | -47.5°C | 3.3% | 0hPa | 2.5V | 00:00:00 | 00:00:00 | 00:00:00 | |
| OE5DRO-10 | 2026-09-06 00:36:55 | 48.90744 | 18.45453 | 128° | 22km/h | 28894m | 5.4m/s | -47.5°C | 3.3% | 0hPa | 2.5V | 00:00:00 | 00:00:00 | 00:00:00 | |
| DO3MHA-11 | 2026-09-06 00:36:51 | 48.90757 | 18.45418 | 116° | 20km/h | 28867m | 6.2m/s | -47.6°C | 3.3% | 0hPa | 2.5V | 00:00:00 | 02:02:24 | 00:00:00 | |
| GYPAP8-17 | 2026-09-06 00:36:49 | 48.90760 | 18.45408 | 117° | 27km/h | 28860m | 7.9m/s | -47.7°C | 0.9% | 0hPa | 2.5V | 00:00:00 | 00:00:00 | 00:00:00 | |
| OE5MMP-10 | 2026-09-06 00:36:47 | 48.90769 | 18.45389 | 136° | 20km/h | 28838m | 8.7m/s | -47.6°C | 3.3% | 0hPa | 2.5V | 00:00:00 | 02:02:20 | 00:00:00 | |
| OE5DXL-15 | 2026-09-06 00:36:45 | 48.90776 | 18.45381 | 149° | 22km/h | 28824m | 6.1m/s | -47.6°C | 3.3% | 0hPa | 2.5V | 00:00:00 | 00:00:00 | 08:30:00 | |
| POL2MAQ | 2026-09-06 00:36:44 | 48.90776 | 18.45381 | 149° | 16km/h | 28824m | 6.2m/s | -47.6°C | 0.9% | 0hPa | 2.5V | 00:00:00 | 00:00:00 | 00:00:00 | |
| PETON7-10 | 2026-09-06 00:36:41 | 48.90790 | 18.45373 | 162° | 24km/h | 28795m | 5.6m/s | -47.6°C | 3.3% | 0hPa | 2.5V | 00:00:00 | 00:00:00 | 00:00:00 | |
| OE5MMP-10 | 2026-09-06 00:36:37 | 48.90811 | 18.45346 | 129° | 24km/h | 28765m | 8.0m/s | -47.6°C | 3.3% | 0hPa | 2.5V | 00:00:00 | 02:02:10 | 00:00:00 | |
| OE5DRO-10 | 2026-09-06 00:36:36 | 48.90816 | 18.45336 | 127° | 22km/h | 28756m | 8.9m/s | -47.6°C | 3.4% | 0hPa | 2.5V | 00:00:00 | 00:00:00 | 00:00:00 | |
| DO3MHA-11 | 2026-09-06 00:36:31 | 48.90833 | 18.45293 | 112° | 18km/h | 28722m | 6.9m/s | -47.5°C | 3.3% | 0hPa | 2.5V | 00:00:00 | 02:02:04 | 00:00:00 | |
| GYPAP8-17 | 2026-09-06 00:36:29 | 48.90837 | 18.45283 | 133° | 11km/h | 28705m | 9.0m/s | -47.5°C | 0.9% | 0hPa | 2.5V | 00:00:00 | 00:00:00 | 00:00:00 | |
| OE5MMP-10 | 2026-09-06 00:36:27 | 48.90842 | 18.45280 | 167° | 22km/h | 28691m | 7.0m/s | -47.4°C | 3.3% | 0hPa | 2.5V | 00:00:00 | 02:02:00 | 00:00:00 | |
| PETON7-10 | 2026-09-06 00:36:26 | 48.90846 | 18.45278 | 159° | 18km/h | 28683m | 8.9m/s | -47.4°C | 3.3% | 0hPa | 2.5V | 00:00:00 | 02:01:59 | 00:00:00 | |
| POL2MAQ | 2026-09-06 00:36:23 | 48.90855 | 18.45269 | 146° | 26km/h | 28668m | 7.0m/s | -47.4°C | 0.9% | 0hPa | 2.5V | 00:00:00 | 00:00:00 | 00:00:00 | |
| DO3MHA-11 | 2026-09-06 00:36:21 | 48.90871 | 18.45251 | 143° | 15km/h | 28646m | 5.4m/s | -47.3°C | 3.3% | 0hPa | 2.5V | 00:00:00 | 02:01:54 | 00:00:00 | |
| OE5MMP-10 | 2026-09-06 00:36:17 | 48.90882 | 18.45224 | 85° | 9km/h | 28616m | 5.9m/s | -47.4°C | 3.3% | 0hPa | 2.5V | 00:00:00 | 02:01:50 | 08:30:00 | |
| OE5DXL-15 | 2026-09-06 00:36:15 | 48.90881 | 18.45214 | 80° | 13km/h | 28600m | 9.9m/s | -47.4°C | 3.3% | 0hPa | 2.5V | 00:00:00 | 00:00:00 | 00:00:00 | |
| PETON7-10 | 2026-09-06 00:36:11 | 48.90882 | 18.45213 | 211° | 11km/h | 28570m | 7.4m/s | -47.3°C | 3.3% | 0hPa | 2.5V | 00:00:00 | 00:00:00 | 00:00:00 | |
| S52SK | 2026-09-06 00:36:08 | 48.90884 | 18.45212 | 149° | 9km/h | 28557m | 7.8m/s | -47.3°C | 0.9% | 0hPa | 2.5V | 00:00:00 | 00:00:00 | 00:00:00 | |
| OE5MMP-10 | 2026-09-06 00:36:06 | 48.90893 | 18.45202 | 141° | 15km/h | 28533m | 6.2m/s | -47.2°C | 3.3% | 0hPa | 2.5V | 00:00:00 | 02:01:39 | 00:00:00 | |
| PG1ADW-2 | 2026-09-06 00:36:05 | 48.90896 | 18.45198 | 125° | 18km/h | 28526m | 8.1m/s | -47.2°C | 3.3% | 0hPa | 2.5V | 00:00:00 | 00:00:00 | 00:00:00 | |
| S52SK | 2026-09-06 00:36:03 | 48.90897 | 18.45193 | 102° | 13km/h | 28518m | 8.4m/s | -47.2°C | 0.9% | 0hPa | 2.5V | 00:00:00 | 00:00:00 | 00:00:00 | |
| DO3MHA-11 | 2026-09-06 00:36:01 | 48.90897 | 18.45177 | 92° | 15km/h | 28495m | 7.8m/s | -47.1°C | 3.2% | 0hPa | 2.5V | 00:00:00 | 02:01:34 | 00:00:00 | |
| OE5DRO-10 | 2026-09-06 00:35:58 | 48.90899 | 18.45165 | 126° | 20km/h | 28474m | 9.2m/s | -47.1°C | 3.2% | 0hPa | 2.5V | 00:00:00 | 00:00:00 | 08:30:00 | |
| PETON7-10 | 2026-09-06 00:35:56 | 48.90903 | 18.45161 | 160° | 20km/h | 28457m | 5.1m/s | -47.0°C | 3.3% | 0hPa | 2.6V | 00:00:00 | 00:00:00 | 00:00:00 | |
| OE5MMP-10 | 2026-09-06 00:35:55 | 48.90906 | 18.45160 | 172° | 20km/h | 28451m | 6.8m/s | -47.0°C | 3.3% | 0hPa | 2.6V | 00:00:00 | 02:01:28 | 00:00:00 | |
| DO3MHA-11 | 2026-09-06 00:35:51 | 48.90930 | 18.45160 | 179° | 20km/h | 28421m | 7.2m/s | -46.9°C | 3.2% | 0hPa | 2.6V | 00:00:00 | 02:01:24 | 00:00:00 | |
| OE5MMP-10 | 2026-09-06 00:35:45 | 48.90947 | 18.45132 | 119° | 26km/h | 28377m | 7.6m/s | -46.8°C | 3.2% | 0hPa | 2.6V | 00:00:00 | 02:01:18 | 00:00:00 | |
| POL2MAQ | 2026-09-06 00:35:42 | 48.90953 | 18.45119 | 127° | 22km/h | 28359m | 9.0m/s | -46.9°C | 0.9% | 0hPa | 2.5V | 00:00:00 | 00:00:00 | 00:00:00 | |
| DO3MHA-11 | 2026-09-06 00:35:41 | 48.90962 | 18.45106 | 145° | 24km/h | 28346m | 6.9m/s | -46.8°C | 3.2% | 0hPa | 2.5V | 00:00:00 | 02:01:14 | 08:30:00 | |
| OE5DRO-10 | 2026-09-06 00:35:39 | 48.90974 | 18.45096 | 160° | 22km/h | 28329m | 10.4m/s | -46.8°C | 3.2% | 0hPa | 2.7V | 00:00:00 | 00:00:00 | 00:00:00 | |
| OE5MMP-10 | 2026-09-06 00:35:35 | 48.90996 | 18.45080 | 125° | 20km/h | 28299m | 10.4m/s | -46.7°C | 3.2% | 0hPa | 2.7V | 00:00:00 | 02:01:08 | 00:00:00 | |
| DO3MHA-11 | 2026-09-06 00:35:31 | 48.91001 | 18.45054 | 123° | 22km/h | 28271m | 9.0m/s | -46.6°C | 3.1% | 0hPa | 2.7V | 00:00:00 | 02:01:04 | 00:00:00 | |
| OE3OSB-13 | 2026-09-06 00:35:27 | 48.91016 | 18.45034 | 145° | 18km/h | 28240m | 6.6m/s | -46.6°C | 0.8% | -1.0hPa | 2.7V | 00:00:00 | 00:00:00 | 00:00:00 | |
| PETON7-10 | 2026-09-06 00:35:26 | 48.91021 | 18.45030 | 154° | 20km/h | 28233m | 6.6m/s | -46.5°C | 3.1% | 0hPa | 2.7V | 00:00:00 | 00:00:00 | 08:30:00 | |
| PG1ADW-2 | 2026-09-06 00:35:25 | 48.91026 | 18.45026 | 159° | 22km/h | 28225m | 9.0m/s | -46.5°C | 3.1% | 0hPa | 2.6V | 00:00:00 | 00:00:00 | 00:00:00 | |
| OE5MMP-10 | 2026-09-06 00:35:24 | 48.91032 | 18.45023 | 164° | 18km/h | 28217m | 8.3m/s | -46.5°C | 3.1% | 0hPa | 2.5V | 00:00:00 | 02:00:57 | 00:00:00 | |
| DO3MHA-11 | 2026-09-06 00:35:21 | 48.91048 | 18.45011 | 135° | 18km/h | 28196m | 8.8m/s | -46.6°C | 3.1% | 0hPa | 2.5V | 00:00:00 | 02:00:54 | 00:00:00 | |
| OE5DRO-10 | 2026-09-06 00:35:20 | 48.91050 | 18.45005 | 117° | 20km/h | 28188m | 7.3m/s | -46.7°C | 3.1% | 0hPa | 2.5V | 00:00:00 | 00:00:00 | 00:00:00 | |
| OE5DXL-15 | 2026-09-06 00:35:15 | 48.91059 | 18.44979 | 116° | 22km/h | 28150m | 8.4m/s | -46.8°C | 3.1% | 0hPa | 2.5V | 00:00:00 | 00:00:00 | 00:00:00 | |
| OE5MMP-10 | 2026-09-06 00:35:14 | 48.91061 | 18.44973 | 117° | 26km/h | 28143m | 6.9m/s | -46.8°C | 3.1% | 0hPa | 2.6V | 00:00:00 | 02:00:47 | 00:00:00 | |
| HA6NAB-11 | 2026-09-06 00:35:12 | 48.91063 | 18.44967 | 127° | 20km/h | 28137m | 5.2m/s | -46.8°C | 0.9% | 0hPa | 2.5V | 00:00:00 | 00:00:00 | 00:00:00 | |
| PETON7-10 | 2026-09-06 00:35:11 | 48.91072 | 18.44955 | 147° | 22km/h | 28124m | 8.5m/s | -46.8°C | 3.1% | 0hPa | 2.5V | 00:00:00 | 00:00:00 | 00:00:00 | |
| HA6NAB-11 | 2026-09-06 00:35:06 | 48.91096 | 18.44929 | 128° | 27km/h | 28096m | 7.7m/s | -47.0°C | 0.9% | 0hPa | 2.5V | 00:00:00 | 00:00:00 | 00:00:00 | |
| PG1ADW-2 | 2026-09-06 00:35:05 | 48.91101 | 18.44912 | 94° | 20km/h | 28083m | 5.8m/s | -47.0°C | 3.2% | 0hPa | 2.5V | 00:00:00 | 02:00:38 | 00:00:00 | |
| DO3MHA-11 | 2026-09-06 00:35:01 | 48.91099 | 18.44890 | 81° | 24km/h | 28054m | 5.8m/s | -47.1°C | 3.2% | 0hPa | 2.5V | 00:00:00 | 02:00:34 | 00:00:00 | |
| HA6NAB-11 | 2026-09-06 00:35:00 | 48.91099 | 18.44890 | 82° | 11km/h | 28054m | 5.9m/s | -47.1°C | 0.8% | 0hPa | 2.5V | 00:00:00 | 00:00:00 | 00:00:00 | |
| GYPAP8-17 | 2026-09-06 00:34:56 | 48.91111 | 18.44863 | 154° | 29km/h | 28020m | 9.0m/s | -47.2°C | 0.9% | 0hPa | 2.5V | 00:00:00 | 00:00:00 | 00:00:00 | |
| OE5MMP-10 | 2026-09-06 00:34:54 | 48.91125 | 18.44852 | 149° | 20km/h | 28008m | 4.0m/s | -47.1°C | 3.2% | 0hPa | 2.5V | 00:00:00 | 02:00:27 | 00:00:00 | |
| HA6NAB-11 | 2026-09-06 00:34:51 | 48.91138 | 18.44829 | 102° | 22km/h | 27988m | 5.7m/s | -47.2°C | 0.8% | 0hPa | 2.5V | 00:00:00 | 00:00:00 | 00:00:00 | |
| HA6NAB-11 | 2026-09-06 00:34:45 | 48.91133 | 18.44794 | 90° | 15km/h | 27947m | 6.7m/s | -47.1°C | 0.9% | 0hPa | 2.5V | 00:00:00 | 00:00:00 | 00:00:00 | |
| OE5MMP-10 | 2026-09-06 00:34:44 | 48.91134 | 18.44789 | 111° | 15km/h | 27941m | 5.1m/s | -47.1°C | 3.2% | 0hPa | 2.5V | 00:00:00 | 02:00:17 | 08:30:00 | |
| POL2MAQ | 2026-09-06 00:34:42 | 48.91138 | 18.44782 | 154° | 11km/h | 27927m | 8.6m/s | -47.1°C | 0.9% | 0hPa | 2.5V | 00:00:00 | 00:00:00 | 00:00:00 | |
| PETON7-10 | 2026-09-06 00:34:41 | 48.91140 | 18.44780 | 168° | 13km/h | 27919m | 6.4m/s | -47.0°C | 3.2% | 0hPa | 2.5V | 00:00:00 | 00:00:00 | 00:00:00 | |
| OE5MMP-10 | 2026-09-06 00:34:34 | 48.91143 | 18.44748 | 45° | 11km/h | 27871m | 6.9m/s | -47.3°C | 3.2% | 0hPa | 2.7V | 00:00:00 | 02:00:07 | 00:00:00 | |
| DO3MHA-11 | 2026-09-06 00:34:31 | 48.91137 | 18.44738 | 68° | 11km/h | 27851m | 6.3m/s | -47.4°C | 3.3% | 0hPa | 2.7V | 00:00:00 | 02:00:04 | 00:00:00 | |
| PETON7-10 | 2026-09-06 00:34:26 | 48.91146 | 18.44738 | 198° | 9km/h | 27818m | 4.7m/s | -47.5°C | 3.2% | 0hPa | 2.7V | 00:00:00 | 00:00:00 | 00:00:00 | |
| PG1ADW-2 | 2026-09-06 00:34:25 | 48.91150 | 18.44739 | 184° | 9km/h | 27812m | 7.0m/s | -47.6°C | 3.3% | 0hPa | 2.7V | 00:00:00 | 00:00:00 | 00:00:00 | |
| OE5DRO-10 | 2026-09-06 00:34:23 | 48.91156 | 18.44735 | 130° | 7km/h | 27798m | 4.9m/s | -47.6°C | 3.3% | 0hPa | 2.5V | 00:00:00 | 00:00:00 | 00:00:00 | |
| DO3MHA-11 | 2026-09-06 00:34:21 | 48.91158 | 18.44728 | 96° | 7km/h | 27787m | 7.3m/s | -47.6°C | 3.4% | 0hPa | 2.5V | 00:00:00 | 01:59:54 | 00:00:00 | |
| OE5DXL-15 | 2026-09-06 00:34:15 | 48.91156 | 18.44720 | 197° | 11km/h | 27747m | 5.8m/s | -47.6°C | 3.3% | 0hPa | 2.5V | 00:00:00 | 00:00:00 | 00:00:00 | |
| DO3MHA-11 | 2026-09-06 00:34:11 | 48.91160 | 18.44734 | 267° | 7km/h | 27722m | 6.3m/s | -47.5°C | 3.3% | 0hPa | 2.5V | 00:00:00 | 01:59:44 | 08:30:00 | |
| PG1ADW-2 | 2026-09-06 00:34:05 | 48.91152 | 18.44745 | 303° | 11km/h | 27681m | 5.4m/s | -47.6°C | 3.3% | 0hPa | 2.5V | 00:00:00 | 00:00:00 | 00:00:00 | |
| OE5DRO-10 | 2026-09-06 00:34:04 | 48.91151 | 18.44748 | 291° | 11km/h | 27676m | 5.5m/s | -47.6°C | 3.3% | 0hPa | 2.5V | 00:00:00 | 00:00:00 | 00:00:00 | |
| OE3OSB-13 | 2026-09-06 00:33:54 | 48.91167 | 18.44779 | 200° | 9km/h | 27605m | 5.5m/s | -47.6°C | 0.9% | -1.0hPa | 2.5V | 00:00:00 | 00:00:00 | 00:00:00 | |
| OE5MMP-10 | 2026-09-06 00:33:53 | 48.91167 | 18.44779 | 201° | 13km/h | 27605m | 5.4m/s | -47.6°C | 3.3% | 0hPa | 2.5V | 00:00:00 | 01:59:26 | 00:00:00 | |
| DO3MHA-11 | 2026-09-06 00:33:51 | 48.91172 | 18.44784 | 230° | 15km/h | 27592m | 7.2m/s | -47.6°C | 3.4% | 0hPa | 2.5V | 00:00:00 | 01:59:24 | 00:00:00 | |
| PG1ADW-2 | 2026-09-06 00:33:45 | 48.91186 | 18.44805 | 229° | 22km/h | 27554m | 7.5m/s | -47.5°C | 3.3% | 0hPa | 2.5V | 00:00:00 | 01:59:18 | 00:00:00 | |
| OE5MMP-10 | 2026-09-06 00:33:43 | 48.91191 | 18.44814 | 226° | 22km/h | 27540m | 3.9m/s | -47.4°C | 3.3% | 0hPa | 2.5V | 00:00:00 | 01:59:16 | 00:00:00 | |
| POL2MAQ | 2026-09-06 00:33:41 | 48.91198 | 18.44822 | 200° | 18km/h | 27529m | 7.9m/s | -47.4°C | 0.9% | 0hPa | 2.5V | 00:00:00 | 00:00:00 | 00:00:00 | |
| OE5MMP-10 | 2026-09-06 00:33:33 | 48.91243 | 18.44830 | 182° | 26km/h | 27477m | 5.7m/s | -47.5°C | 3.3% | 0hPa | 2.5V | 00:00:00 | 01:59:06 | 00:00:00 | |
| DO3MHA-11 | 2026-09-06 00:33:31 | 48.91256 | 18.44832 | 195° | 26km/h | 27465m | 7.6m/s | -47.5°C | 3.2% | 0hPa | 2.5V | 00:00:00 | 01:59:04 | 00:00:00 | |
| PETON7-10 | 2026-09-06 00:33:26 | 48.91284 | 18.44844 | 180° | 27km/h | 27433m | 5.5m/s | -47.6°C | 3.3% | 0hPa | 2.5V | 00:00:00 | 01:58:59 | 00:00:00 | |
| PG1ADW-2 | 2026-09-06 00:33:25 | 48.91292 | 18.44844 | 180° | 27km/h | 27428m | 5.0m/s | -47.6°C | 3.3% | 0hPa | 2.5V | 00:00:00 | 00:00:00 | 08:30:00 | |
| OE5MMP-10 | 2026-09-06 00:33:23 | 48.91307 | 18.44845 | 187° | 26km/h | 27415m | 6.9m/s | -47.5°C | 3.2% | 0hPa | 2.5V | 00:00:00 | 01:58:56 | 00:00:00 | |
| DO3MHA-11 | 2026-09-06 00:33:21 | 48.91321 | 18.44846 | 175° | 26km/h | 27403m | 5.2m/s | -47.6°C | 3.2% | 0hPa | 2.5V | 00:00:00 | 01:58:54 | 00:00:00 | |
| POL2MAQ | 2026-09-06 00:33:19 | 48.91327 | 18.44844 | 165° | 26km/h | 27397m | 7.7m/s | -47.6°C | 0.9% | 0hPa | 2.5V | 00:00:00 | 00:00:00 | 00:00:00 | |
| OE5DXL-15 | 2026-09-06 00:33:15 | 48.91357 | 18.44825 | 170° | 27km/h | 27364m | 5.1m/s | -47.7°C | 3.3% | 0hPa | 2.5V | 00:00:00 | 00:00:00 | 00:00:00 | |
| OE5MMP-10 | 2026-09-06 00:33:13 | 48.91369 | 18.44820 | 164° | 29km/h | 27354m | 6.9m/s | -47.8°C | 3.3% | 0hPa | 2.5V | 00:00:00 | 01:58:46 | 08:30:00 | |
| DO3MHA-11 | 2026-09-06 00:33:11 | 48.91382 | 18.44812 | 156° | 31km/h | 27341m | 5.3m/s | -47.9°C | 3.3% | 0hPa | 2.5V | 00:00:00 | 01:58:44 | 00:00:00 | |
| OE5DRO-10 | 2026-09-06 00:33:07 | 48.91407 | 18.44798 | 160° | 29km/h | 27317m | 5.3m/s | -48.0°C | 3.4% | 0hPa | 2.5V | 00:00:00 | 00:00:00 | 08:30:00 | |
| PG1ADW-2 | 2026-09-06 00:33:05 | 48.91421 | 18.44788 | 149° | 29km/h | 27303m | 6.7m/s | -48.1°C | 3.4% | 0hPa | 2.6V | 00:00:00 | 00:00:00 | 00:00:00 | |
| OE5MMP-10 | 2026-09-06 00:33:03 | 48.91438 | 18.44773 | 150° | 27km/h | 27291m | 5.6m/s | -48.1°C | 3.4% | 0hPa | 2.6V | 00:00:00 | 01:58:36 | 00:00:00 | |
| OE3OSB-13 | 2026-09-06 00:32:52 | 48.91502 | 18.44702 | 137° | 29km/h | 27217m | 7.3m/s | -48.3°C | 0.9% | -1.0hPa | 2.6V | 00:00:00 | 00:00:00 | 00:00:00 | |
| DO3MHA-11 | 2026-09-06 00:32:51 | 48.91502 | 18.44702 | 138° | 18km/h | 27218m | 7.3m/s | -48.3°C | 3.5% | 0hPa | 2.6V | 00:00:00 | 01:58:24 | 00:00:00 | |
| OE5DRO-10 | 2026-09-06 00:32:48 | 48.91521 | 18.44677 | 143° | 16km/h | 27199m | 6.7m/s | -48.3°C | 3.4% | 0hPa | 2.6V | 00:00:00 | 00:00:00 | 00:00:00 | |
| PG1ADW-2 | 2026-09-06 00:32:45 | 48.91534 | 18.44661 | 126° | 15km/h | 27180m | 5.8m/s | -48.2°C | 3.4% | 0hPa | 2.6V | 00:00:00 | 00:00:00 | 00:00:00 | |
| OE5MMP-10 | 2026-09-06 00:32:43 | 48.91536 | 18.44651 | 88° | 16km/h | 27166m | 6.5m/s | -48.1°C | 3.4% | 0hPa | 2.6V | 00:00:00 | 01:58:16 | 00:00:00 | |
| PETON7-10 | 2026-09-06 00:32:41 | 48.91534 | 18.44640 | 70° | 15km/h | 27153m | 7.5m/s | -48.1°C | 3.4% | 0hPa | 2.5V | 00:00:00 | 01:58:14 | 00:00:00 | |
| POL2MAQ | 2026-09-06 00:32:36 | 48.91535 | 18.44621 | 115° | 18km/h | 27128m | 7.9m/s | -48.3°C | 0.9% | 0hPa | 2.5V | 00:00:00 | 00:00:00 | 00:00:00 | |
| OE5MMP-10 | 2026-09-06 00:32:33 | 48.91547 | 18.44595 | 138° | 9km/h | 27102m | 6.6m/s | -48.3°C | 3.4% | 0hPa | 2.5V | 00:00:00 | 01:58:06 | 00:00:00 | |
| HA6NAB-11 | 2026-09-06 00:32:32 | 48.91547 | 18.44595 | 139° | 16km/h | 27102m | 6.7m/s | -48.3°C | 0.9% | 0hPa | 2.5V | 00:00:00 | 00:00:00 | 00:00:00 | |
| DO3MHA-11 | 2026-09-06 00:32:29 | 48.91554 | 18.44580 | 99° | 13km/h | 27077m | 5.5m/s | -48.2°C | 3.3% | 0hPa | 2.5V | 00:00:00 | 01:58:02 | 08:30:00 | |
| PETON7-10 | 2026-09-06 00:32:26 | 48.91554 | 18.44572 | 95° | 15km/h | 27057m | 5.8m/s | -48.1°C | 3.3% | 0hPa | 2.6V | 00:00:00 | 00:00:00 | 00:00:00 | |
| PG1ADW-2 | 2026-09-06 00:32:25 | 48.91555 | 18.44570 | 130° | 15km/h | 27052m | 4.7m/s | -48.1°C | 3.3% | 0hPa | 2.7V | 00:00:00 | 01:57:58 | 00:00:00 | |
| OE5MMP-10 | 2026-09-06 00:32:23 | 48.91559 | 18.44564 | 139° | 18km/h | 27039m | 7.0m/s | -48.1°C | 3.2% | 0hPa | 2.5V | 00:00:00 | 01:57:56 | 00:00:00 | |
| HA6NAB-11 | 2026-09-06 00:32:22 | 48.91563 | 18.44559 | 148° | 24km/h | 27032m | 5.3m/s | -48.2°C | 0.9% | 0hPa | 2.5V | 00:00:00 | 00:00:00 | 00:00:00 | |
| OE3OSB-13 | 2026-09-06 00:32:21 | 48.91574 | 18.44551 | 160° | 24km/h | 27020m | 7.3m/s | -48.4°C | 0.8% | -1.0hPa | 2.5V | 00:00:00 | 00:00:00 | 00:00:00 | |
| DO3MHA-11 | 2026-09-06 00:32:19 | 48.91580 | 18.44548 | 167° | 15km/h | 27014m | 5.6m/s | -48.5°C | 3.4% | 0hPa | 2.5V | 00:00:00 | 01:57:52 | 00:00:00 | |
| OE3JTB-15 | 2026-09-06 00:32:16 | 48.91589 | 18.44540 | 102° | 13km/h | 26995m | 6.6m/s | -48.7°C | 3.4% | 0hPa | 2.5V | 00:00:00 | 01:57:49 | 00:00:00 | |
| OE5DXL-15 | 2026-09-06 00:32:15 | 48.91588 | 18.44536 | 63° | 9km/h | 26988m | 6.0m/s | -48.7°C | 3.4% | 0hPa | 2.5V | 00:00:00 | 00:00:00 | 08:30:00 | |
| OE5MMP-10 | 2026-09-06 00:32:13 | 48.91583 | 18.44529 | 21° | 15km/h | 26975m | 7.5m/s | -48.8°C | 3.4% | 0hPa | 2.6V | 00:00:00 | 01:57:46 | 00:00:00 | |
| PETON7-10 | 2026-09-06 00:32:11 | 48.91575 | 18.44526 | 18° | 11km/h | 26963m | 4.6m/s | -48.9°C | 3.5% | 0hPa | 2.6V | 00:00:00 | 00:00:00 | 00:00:00 | |
| OE5DRO-10 | 2026-09-06 00:32:10 | 48.91573 | 18.44524 | 44° | 5km/h | 26958m | 5.9m/s | -49.0°C | 3.5% | 0hPa | 2.6V | 00:00:00 | 00:00:00 | 00:00:00 | |
| DO3MHA-11 | 2026-09-06 00:32:09 | 48.91572 | 18.44521 | 85° | 13km/h | 26951m | 6.5m/s | -49.0°C | 3.5% | 0hPa | 2.7V | 00:00:00 | 01:57:42 | 00:00:00 | |
| PG1ADW-2 | 2026-09-06 00:32:05 | 48.91581 | 18.44504 | 161° | 5km/h | 26927m | 6.4m/s | -49.1°C | 3.6% | 0hPa | 2.7V | 00:00:00 | 00:00:00 | 00:00:00 | |
| HA6NAB-11 | 2026-09-06 00:32:04 | 48.91584 | 18.44502 | 162° | 15km/h | 26921m | 5.2m/s | -49.2°C | 1.0% | 0hPa | 2.7V | 00:00:00 | 00:00:00 | 00:00:00 | |
| OE5MMP-10 | 2026-09-06 00:32:03 | 48.91588 | 18.44500 | 153° | 5km/h | 26915m | 5.6m/s | -49.2°C | 3.6% | 0hPa | 2.7V | 00:00:00 | 01:57:36 | 00:00:00 | |
| DO3MHA-11 | 2026-09-06 00:31:59 | 48.91594 | 18.44492 | 150° | 4km/h | 26889m | 7.8m/s | -49.1°C | 3.5% | 0hPa | 2.7V | 00:00:00 | 01:57:32 | 00:00:00 | |
| PETON7-10 | 2026-09-06 00:31:56 | 48.91593 | 18.44494 | 351° | 4km/h | 26870m | 7.1m/s | -49.1°C | 3.5% | 0hPa | 2.5V | 00:00:00 | 01:57:29 | 00:00:00 | |
| POL2MAQ | 2026-09-06 00:31:55 | 48.91592 | 18.44493 | 55° | 4km/h | 26863m | 6.6m/s | -49.1°C | 1.0% | 0hPa | 2.5V | 00:00:00 | 00:00:00 | 00:00:00 | |
| OE5MMP-10 | 2026-09-06 00:31:53 | 48.91591 | 18.44490 | 74° | 4km/h | 26852m | 6.1m/s | -49.0°C | 3.5% | 0hPa | 2.5V | 00:00:00 | 01:57:26 | 00:00:00 | |
| DO3MHA-11 | 2026-09-06 00:31:49 | 48.91590 | 18.44488 | 80° | 5km/h | 26826m | 6.0m/s | -49.0°C | 3.5% | 0hPa | 2.5V | 00:00:00 | 01:57:22 | 00:00:00 | |
| OE5DRO-10 | 2026-09-06 00:31:48 | 48.91590 | 18.44486 | 89° | 7km/h | 26819m | 7.3m/s | -49.0°C | 3.5% | 0hPa | 2.5V | 00:00:00 | 00:00:00 | 00:00:00 | |
| OE5DXL-15 | 2026-09-06 00:31:45 | 48.91590 | 18.44479 | 73° | 11km/h | 26801m | 6.9m/s | -49.1°C | 3.6% | 0hPa | 2.5V | 00:00:00 | 00:00:00 | 00:00:00 | |
| OE5MMP-10 | 2026-09-06 00:31:43 | 48.91589 | 18.44479 | 263° | 13km/h | 26789m | 5.1m/s | -49.1°C | 3.6% | 0hPa | 2.5V | 00:00:00 | 01:57:16 | 08:30:00 | |
| PETON7-10 | 2026-09-06 00:31:41 | 48.91591 | 18.44481 | 189° | 9km/h | 26777m | 6.7m/s | -49.1°C | 3.6% | 0hPa | 2.5V | 00:00:00 | 00:00:00 | 00:00:00 | |
| DO3MHA-11 | 2026-09-06 00:31:39 | 48.91594 | 18.44479 | 135° | 9km/h | 26764m | 5.6m/s | -49.1°C | 3.6% | 0hPa | 2.5V | 00:00:00 | 01:57:12 | 00:00:00 | |
| POL2MAQ | 2026-09-06 00:31:34 | 48.91597 | 18.44473 | 202° | 2km/h | 26739m | 5.0m/s | -49.2°C | 1.0% | 0hPa | 2.5V | 00:00:00 | 00:00:00 | 00:00:00 | |
| OE3JTB-15 | 2026-09-06 00:31:30 | 48.91610 | 18.44476 | 205° | 20km/h | 26708m | 7.4m/s | -49.0°C | 3.6% | 0hPa | 2.5V | 00:00:00 | 00:00:00 | 00:00:00 | |
| DO3MHA-11 | 2026-09-06 00:31:29 | 48.91614 | 18.44479 | 215° | 13km/h | 26701m | 6.7m/s | -49.0°C | 3.6% | 0hPa | 2.5V | 00:00:00 | 01:57:02 | 00:00:00 | |
| OE5MMP-10 | 2026-09-06 00:31:26 | 48.91624 | 18.44486 | 179° | 15km/h | 26682m | 7.6m/s | -48.9°C | 3.6% | 0hPa | 2.6V | 00:00:00 | 01:56:59 | 00:00:00 | |
| PG1ADW-2 | 2026-09-06 00:31:25 | 48.91628 | 18.44485 | 163° | 16km/h | 26675m | 6.1m/s | -48.8°C | 3.5% | 0hPa | 2.6V | 00:00:00 | 00:00:00 | 00:00:00 | |
| DO3MHA-11 | 2026-09-06 00:31:19 | 48.91647 | 18.44478 | 170° | 18km/h | 26636m | 6.9m/s | -48.5°C | 3.4% | 0hPa | 2.5V | 00:00:00 | 01:56:52 | 00:00:00 | |
| OE3OSB-13 | 2026-09-06 00:31:18 | 48.91652 | 18.44477 | 175° | 22km/h | 26630m | 5.4m/s | -48.5°C | 0.9% | -1.0hPa | 2.5V | 00:00:00 | 00:00:00 | 00:00:00 | |
| OE5MMP-10 | 2026-09-06 00:31:16 | 48.91663 | 18.44478 | 194° | 18km/h | 26618m | 7.2m/s | -48.4°C | 3.4% | 0hPa | 2.5V | 00:00:00 | 01:56:49 | 00:00:00 | |
| OE5DXL-15 | 2026-09-06 00:31:15 | 48.91668 | 18.44481 | 205° | 24km/h | 26611m | 7.1m/s | -48.4°C | 3.4% | 0hPa | 2.5V | 00:00:00 | 00:00:00 | 00:00:00 | |
| POL2MAQ | 2026-09-06 00:31:14 | 48.91673 | 18.44484 | 207° | 18km/h | 26605m | 5.4m/s | -48.5°C | 0.9% | 0hPa | 2.5V | 00:00:00 | 00:00:00 | 00:00:00 | |
| PETON7-10 | 2026-09-06 00:31:11 | 48.91683 | 18.44483 | 135° | 22km/h | 26586m | 6.6m/s | -48.6°C | 3.4% | 0hPa | 2.5V | 00:00:00 | 01:56:44 | 00:00:00 | |
| OE5DRO-10 | 2026-09-06 00:31:10 | 48.91685 | 18.44477 | 118° | 26km/h | 26580m | 4.9m/s | -48.7°C | 3.5% | 0hPa | 2.5V | 00:00:00 | 00:00:00 | 00:00:00 | |
| DO3MHA-11 | 2026-09-06 00:31:09 | 48.91687 | 18.44470 | 109° | 22km/h | 26575m | 6.2m/s | -48.7°C | 3.4% | 0hPa | 2.7V | 00:00:00 | 01:56:42 | 00:00:00 | |
| OE5MMP-10 | 2026-09-06 00:31:06 | 48.91691 | 18.44452 | 125° | 24km/h | 26557m | 4.9m/s | -48.8°C | 3.5% | 0hPa | 2.7V | 00:00:00 | 01:56:39 | 00:00:00 | |
| PG1ADW-2 | 2026-09-06 00:31:05 | 48.91694 | 18.44448 | 140° | 27km/h | 26550m | 7.4m/s | -48.8°C | 3.5% | 0hPa | 2.6V | 00:00:00 | 01:56:38 | 00:00:00 | |
| OE3OSB-13 | 2026-09-06 00:30:47 | 48.91793 | 18.44354 | 157° | 24km/h | 26436m | 7.5m/s | -49.0°C | 0.9% | -1.0hPa | 2.6V | 00:00:00 | 00:00:00 | 00:00:00 | |
| OE5MMP-10 | 2026-09-06 00:30:46 | 48.91798 | 18.44350 | 149° | 31km/h | 26430m | 4.1m/s | -48.9°C | 3.5% | 0hPa | 2.6V | 00:00:00 | 01:56:19 | 00:00:00 | |
| PG1ADW-2 | 2026-09-06 00:30:45 | 48.91804 | 18.44344 | 143° | 29km/h | 26425m | 5.9m/s | -48.9°C | 3.5% | 0hPa | 2.6V | 00:00:00 | 00:00:00 | 00:00:00 | |
| PETON7-10 | 2026-09-06 00:30:41 | 48.91827 | 18.44306 | 126° | 29km/h | 26398m | 8.4m/s | -49.0°C | 3.5% | 0hPa | 2.6V | 00:00:00 | 00:00:00 | 00:00:00 | |
| DO3MHA-11 | 2026-09-06 00:30:39 | 48.91836 | 18.44286 | 121° | 29km/h | 26385m | 4.8m/s | -49.0°C | 3.6% | 0hPa | 2.6V | 00:00:00 | 01:56:12 | 00:00:00 | |
| OE5MMP-10 | 2026-09-06 00:30:36 | 48.91849 | 18.44257 | 126° | 29km/h | 26365m | 4.4m/s | -49.1°C | 3.6% | 0hPa | 2.6V | 00:00:00 | 01:56:09 | 00:00:00 | |
| OE5DRO-10 | 2026-09-06 00:30:32 | 48.91863 | 18.44223 | 125° | 26km/h | 26341m | 5.5m/s | -49.0°C | 3.5% | 0hPa | 2.5V | 00:00:00 | 00:00:00 | 00:00:00 | |
| DO3MHA-11 | 2026-09-06 00:30:29 | 48.91877 | 18.44196 | 130° | 27km/h | 26320m | 5.2m/s | -49.1°C | 3.6% | 0hPa | 2.5V | 00:00:00 | 01:56:02 | 00:00:00 | |
| PETON7-10 | 2026-09-06 00:30:26 | 48.91890 | 18.44168 | 116° | 22km/h | 26301m | 5.9m/s | -49.1°C | 3.6% | 0hPa | 2.6V | 00:00:00 | 01:55:59 | 00:00:00 | |
| PG1ADW-2 | 2026-09-06 00:30:25 | 48.91892 | 18.44159 | 111° | 22km/h | 26294m | 7.0m/s | -49.1°C | 3.6% | 0hPa | 2.6V | 00:00:00 | 00:00:00 | 08:30:00 | |
| DO3MHA-11 | 2026-09-06 00:30:19 | 48.91897 | 18.44103 | 86° | 18km/h | 26255m | 5.9m/s | -49.2°C | 3.6% | 0hPa | 2.7V | 00:00:00 | 01:55:52 | 00:00:00 | |
| OE5DXL-15 | 2026-09-06 00:30:17 | 48.91903 | 18.44073 | 134° | 15km/h | 26228m | 7.6m/s | -49.1°C | 3.5% | 0hPa | 2.7V | 00:00:00 | 00:00:00 | 00:00:00 | |
| POL2MAQ | 2026-09-06 00:30:13 | 48.91910 | 18.44065 | 138° | 15km/h | 26215m | 5.5m/s | -49.2°C | 1.0% | 0hPa | 2.7V | 00:00:00 | 00:00:00 | 00:00:00 | |
| HA6NAB-11 | 2026-09-06 00:30:12 | 48.91912 | 18.44060 | 127° | 16km/h | 26209m | 6.3m/s | -49.2°C | 1.0% | 0hPa | 2.7V | 00:00:00 | 00:00:00 | 00:00:00 | |
| PETON7-10 | 2026-09-06 00:30:11 | 48.91914 | 18.44055 | 116° | 16km/h | 26202m | 7.2m/s | -49.1°C | 3.6% | 0hPa | 2.7V | 00:00:00 | 00:00:00 | 00:00:00 | |
| DO3MHA-11 | 2026-09-06 00:30:09 | 48.91916 | 18.44040 | 85° | 16km/h | 26191m | 4.8m/s | -49.1°C | 3.6% | 0hPa | 2.6V | 00:00:00 | 01:55:42 | 00:00:00 | |
| OE5MMP-10 | 2026-09-06 00:30:06 | 48.91910 | 18.44023 | 39° | 15km/h | 26171m | 5.4m/s | -49.1°C | 3.5% | 0hPa | 2.6V | 00:00:00 | 01:55:39 | 08:30:00 | |
| PG1ADW-2 | 2026-09-06 00:30:05 | 48.91906 | 18.44019 | 41° | 13km/h | 26166m | 4.5m/s | -49.1°C | 3.6% | 0hPa | 2.7V | 00:00:00 | 00:00:00 | 00:00:00 | |
| HA6NAB-11 | 2026-09-06 00:30:00 | 48.91903 | 18.43991 | 91° | 15km/h | 26136m | 6.3m/s | -49.2°C | 1.0% | 0hPa | 2.7V | 00:00:00 | 00:00:00 | 00:00:00 | |
| DO3MHA-11 | 2026-09-06 00:29:59 | 48.91902 | 18.43986 | 73° | 15km/h | 26130m | 6.9m/s | -49.2°C | 3.6% | 0hPa | 2.7V | 00:00:00 | 01:55:32 | 00:00:00 | |
| GYPAP8-17 | 2026-09-06 00:29:58 | 48.91902 | 18.43986 | 73° | 13km/h | 26130m | 6.9m/s | -49.2°C | 1.0% | 0hPa | 2.5V | 00:00:00 | 00:00:00 | 00:00:00 | |
| PETON7-10 | 2026-09-06 00:29:56 | 48.91895 | 18.43973 | 54° | 11km/h | 26112m | 5.3m/s | -49.3°C | 3.6% | 0hPa | 2.5V | 00:00:00 | 00:00:00 | 00:00:00 | |
| OE5DRO-10 | 2026-09-06 00:29:54 | 48.91892 | 18.43961 | 91° | 11km/h | 26100m | 5.6m/s | -49.3°C | 3.6% | 0hPa | 2.5V | 00:00:00 | 00:00:00 | 00:00:00 | |
| POL2MAQ | 2026-09-06 00:29:51 | 48.91895 | 18.43951 | 136° | 13km/h | 26087m | 7.7m/s | -49.5°C | 1.0% | 0hPa | 2.5V | 00:00:00 | 00:00:00 | 00:00:00 | |
| DO3MHA-11 | 2026-09-06 00:29:49 | 48.91903 | 18.43947 | 172° | 7km/h | 26067m | 6.5m/s | -49.3°C | 3.7% | 0hPa | 2.5V | 00:00:00 | 01:55:22 | 00:00:00 | |
| HA6NAB-11 | 2026-09-06 00:29:48 | 48.91903 | 18.43947 | 172° | 11km/h | 26067m | 6.5m/s | -49.4°C | 1.0% | 0hPa | 2.5V | 00:00:00 | 00:00:00 | 00:00:00 | |
| OE5MMP-10 | 2026-09-06 00:29:46 | 48.91910 | 18.43942 | 143° | 9km/h | 26049m | 5.5m/s | -49.2°C | 3.6% | 0hPa | 2.5V | 00:00:00 | 01:55:19 | 00:00:00 | |
| OE5DXL-15 | 2026-09-06 00:29:45 | 48.91911 | 18.43941 | 177° | 15km/h | 26042m | 7.2m/s | -49.1°C | 3.6% | 0hPa | 2.5V | 00:00:00 | 00:00:00 | 00:00:00 | |
| HA6NAB-11 | 2026-09-06 00:29:42 | 48.91912 | 18.43942 | 214° | 2km/h | 26030m | 4.7m/s | -49.1°C | 1.0% | 0hPa | 2.5V | 00:00:00 | 00:00:00 | 00:00:00 | |
| PETON7-10 | 2026-09-06 00:29:41 | 48.91914 | 18.43940 | 125° | 11km/h | 26018m | 7.9m/s | -49.0°C | 3.5% | 0hPa | 2.5V | 00:00:00 | 01:55:14 | 00:00:00 | |
| DO3MHA-11 | 2026-09-06 00:29:39 | 48.91917 | 18.43930 | 118° | 13km/h | 26005m | 5.6m/s | -48.9°C | 3.6% | 0hPa | 2.5V | 00:00:00 | 01:55:12 | 00:00:00 | |
| GYPAP8-17 | 2026-09-06 00:29:38 | 48.91917 | 18.43930 | 118° | 18km/h | 26005m | 5.7m/s | -48.9°C | 1.0% | 0hPa | 2.5V | 00:00:00 | 00:00:00 | 00:00:00 | |
| OE5MMP-10 | 2026-09-06 00:29:36 | 48.91922 | 18.43914 | 113° | 9km/h | 25986m | 5.4m/s | -48.8°C | 3.5% | 0hPa | 2.5V | 00:00:00 | 01:55:09 | 00:00:00 | |
| OE5DRO-10 | 2026-09-06 00:29:35 | 48.91923 | 18.43910 | 105° | 16km/h | 25980m | 6.3m/s | -48.8°C | 3.4% | 0hPa | 2.5V | 00:00:00 | 00:00:00 | 00:00:00 | |
| POL2MAQ | 2026-09-06 00:29:31 | 48.91925 | 18.43895 | 100° | 9km/h | 25960m | 6.4m/s | -49.0°C | 1.0% | 0hPa | 2.5V | 00:00:00 | 00:00:00 | 00:00:00 | |
| DO3MHA-11 | 2026-09-06 00:29:29 | 48.91927 | 18.43892 | 179° | 18km/h | 25942m | 2.9m/s | -49.0°C | 3.5% | 0hPa | 2.5V | 00:00:00 | 01:55:02 | 08:30:00 | |
| OE5MMP-10 | 2026-09-06 00:29:26 | 48.91933 | 18.43883 | 110° | 22km/h | 25924m | 6.7m/s | -49.1°C | 3.5% | 0hPa | 2.6V | 00:00:00 | 01:54:59 | 00:00:00 | |
| PG1ADW-2 | 2026-09-06 00:29:23 | 48.91936 | 18.43856 | 95° | 24km/h | 25905m | 6.5m/s | -49.2°C | 3.5% | 0hPa | 2.6V | 00:00:00 | 00:00:00 | 00:00:00 | |
| DO3MHA-11 | 2026-09-06 00:29:19 | 48.91937 | 18.43819 | 95° | 27km/h | 25880m | 6.1m/s | -49.4°C | 3.5% | 0hPa | 2.6V | 00:00:00 | 01:54:52 | 00:00:00 | |
| OE5MMP-10 | 2026-09-06 00:29:16 | 48.91939 | 18.43800 | 103° | 22km/h | 25861m | 5.3m/s | -49.6°C | 3.5% | 0hPa | 2.6V | 00:00:00 | 01:54:49 | 00:00:00 | |
| OE5DXL-15 | 2026-09-06 00:29:15 | 48.91940 | 18.43797 | 112° | 26km/h | 25856m | 3.8m/s | -49.7°C | 3.5% | 0hPa | 2.6V | 00:00:00 | 00:00:00 | 00:00:00 | |
| OE3OSB-13 | 2026-09-06 00:29:14 | 48.91941 | 18.43793 | 115° | 11km/h | 25851m | 6.4m/s | -49.8°C | 0.9% | -1.0hPa | 2.5V | 00:00:00 | 00:00:00 | 00:00:00 | |
| DO3MHA-11 | 2026-09-06 00:29:06 | 48.91952 | 18.43712 | 96° | 26km/h | 25800m | 6.1m/s | -50.2°C | 3.6% | 0hPa | 2.5V | 00:00:00 | 01:54:39 | 00:00:00 | |
| DO3MHA-11 | 2026-09-06 00:28:56 | 48.91953 | 18.43617 | 70° | 18km/h | 25740m | 6.9m/s | -50.5°C | 3.7% | 0hPa | 2.5V | 00:00:00 | 01:54:29 | 00:00:00 | |
| OE5DRO-10 | 2026-09-06 00:28:54 | 48.91949 | 18.43597 | 78° | 26km/h | 25728m | 5.6m/s | -50.7°C | 3.7% | 0hPa | 2.5V | 00:00:00 | 00:00:00 | 00:00:00 | |
| POL2MAQ | 2026-09-06 00:28:49 | 48.91947 | 18.43547 | 85° | 29km/h | 25703m | 7.2m/s | -51.1°C | 1.1% | 0hPa | 2.5V | 00:00:00 | 00:00:00 | 00:00:00 | |
| OE5MMP-10 | 2026-09-06 00:28:46 | 48.91943 | 18.43515 | 84° | 29km/h | 25678m | 8.1m/s | -51.0°C | 3.8% | 0hPa | 2.5V | 00:00:00 | 01:54:19 | 00:00:00 | |
| OE5DXL-15 | 2026-09-06 00:28:45 | 48.91942 | 18.43507 | 75° | 26km/h | 25672m | 3.5m/s | -51.0°C | 3.9% | 0hPa | 2.5V | 00:00:00 | 00:00:00 | 00:00:00 | |
| OE3OSB-13 | 2026-09-06 00:28:43 | 48.91937 | 18.43491 | 52° | 24km/h | 25661m | 8.2m/s | -51.1°C | 1.0% | -1.0hPa | 2.5V | 00:00:00 | 00:00:00 | 00:00:00 | |
| PETON7-10 | 2026-09-06 00:28:41 | 48.91927 | 18.43476 | 44° | 29km/h | 25648m | 3.9m/s | -51.2°C | 3.8% | 0hPa | 2.5V | 00:00:00 | 00:00:00 | 08:30:00 | |
| OE5MMP-10 | 2026-09-06 00:28:36 | 48.91903 | 18.43415 | 65° | 26km/h | 25618m | 7.7m/s | -51.3°C | 3.9% | 0hPa | 2.5V | 00:00:00 | 01:54:09 | 08:30:00 | |
| POL2MAQ | 2026-09-06 00:28:28 | 48.91878 | 18.43358 | 11° | 20km/h | 25576m | 6.7m/s | -51.4°C | 1.1% | 0hPa | 2.6V | 00:00:00 | 00:00:00 | 00:00:00 | |
| PG1ADW-2 | 2026-09-06 00:28:21 | 48.91846 | 18.43324 | 62° | 18km/h | 25527m | 5.5m/s | -51.2°C | 3.8% | 0hPa | 2.6V | 00:00:00 | 00:00:00 | 00:00:00 | |
| OE5MMP-10 | 2026-09-06 00:28:16 | 48.91834 | 18.43298 | 4° | 16km/h | 25497m | 7.5m/s | -51.4°C | 3.9% | 0hPa | 2.6V | 00:00:00 | 01:53:49 | 00:00:00 | |
| OE5DXL-15 | 2026-09-06 00:28:15 | 48.91830 | 18.43298 | 350° | 11km/h | 25490m | 5.2m/s | -51.4°C | 4.0% | 0hPa | 2.6V | 00:00:00 | 00:00:00 | 00:00:00 | |
| OE3OSB-13 | 2026-09-06 00:28:12 | 48.91818 | 18.43303 | 349° | 11km/h | 25472m | 6.7m/s | -51.6°C | 1.1% | -1.0hPa | 2.6V | 00:00:00 | 00:00:00 | 00:00:00 | |
| PETON7-10 | 2026-09-06 00:28:11 | 48.91815 | 18.43303 | 8° | 11km/h | 25466m | 5.4m/s | -51.5°C | 3.9% | 0hPa | 2.6V | 00:00:00 | 01:53:44 | 00:00:00 | |
| POL2MAQ | 2026-09-06 00:28:09 | 48.91808 | 18.43300 | 23° | 18km/h | 25453m | 6.7m/s | -51.5°C | 1.1% | 0hPa | 2.6V | 00:00:00 | 00:00:00 | 00:00:00 | |
| OE5MMP-10 | 2026-09-06 00:28:06 | 48.91797 | 18.43289 | 45° | 9km/h | 25435m | 7.6m/s | -51.4°C | 3.9% | 0hPa | 2.6V | 00:00:00 | 01:53:39 | 00:00:00 | |
| GYPAP8-17 | 2026-09-06 00:28:04 | 48.91795 | 18.43286 | 43° | 11km/h | 25429m | 5.5m/s | -51.4°C | 1.1% | 0hPa | 2.6V | 00:00:00 | 00:00:00 | 00:00:00 | |
| PG1ADW-2 | 2026-09-06 00:28:00 | 48.91781 | 18.43285 | 330° | 9km/h | 25398m | 7.2m/s | -51.3°C | 3.8% | 0hPa | 2.6V | 00:00:00 | 01:53:33 | 00:00:00 | |
| OE5MMP-10 | 2026-09-06 00:27:56 | 48.91776 | 18.43288 | 24° | 7km/h | 25372m | 6.5m/s | -51.3°C | 3.8% | 0hPa | 2.5V | 00:00:00 | 01:53:29 | 00:00:00 | |
| DO3MHA-11 | 2026-09-06 00:27:55 | 48.91775 | 18.43286 | 36° | 9km/h | 25366m | 4.7m/s | -51.3°C | 3.8% | 0hPa | 2.5V | 00:00:00 | 01:53:28 | 00:00:00 | |
| POL2MAQ | 2026-09-06 00:27:48 | 48.91763 | 18.43284 | 323° | 11km/h | 25325m | 4.0m/s | -51.8°C | 1.1% | 0hPa | 2.5V | 00:00:00 | 00:00:00 | 00:00:00 | |
| OE5MMP-10 | 2026-09-06 00:27:46 | 48.91761 | 18.43290 | 251° | 11km/h | 25313m | 7.2m/s | -51.8°C | 3.9% | 0hPa | 2.5V | 00:00:00 | 01:53:19 | 00:00:00 | |
| OE5DXL-15 | 2026-09-06 00:27:45 | 48.91763 | 18.43293 | 216° | 13km/h | 25307m | 6.1m/s | -51.8°C | 4.0% | 0hPa | 2.5V | 00:00:00 | 00:00:00 | 08:30:00 | |
| PETON7-10 | 2026-09-06 00:27:41 | 48.91772 | 18.43294 | 135° | 9km/h | 25282m | 4.9m/s | -51.8°C | 3.9% | 0hPa | 2.5V | 00:00:00 | 00:00:00 | 00:00:00 | |
| PG1ADW-2 | 2026-09-06 00:27:40 | 48.91774 | 18.43291 | 127° | 13km/h | 25277m | 5.9m/s | -51.8°C | 3.9% | 0hPa | 2.5V | 00:00:00 | 00:00:00 | 00:00:00 | |
| OE5DRO-10 | 2026-09-06 00:27:39 | 48.91776 | 18.43287 | 126° | 11km/h | 25270m | 7.3m/s | -51.8°C | 3.9% | 0hPa | 2.5V | 00:00:00 | 00:00:00 | 00:00:00 | |
| HA6NAB-11 | 2026-09-06 00:27:38 | 48.91776 | 18.43287 | 126° | 15km/h | 25270m | 7.4m/s | -51.9°C | 1.1% | 0hPa | 2.5V | 00:00:00 | 00:00:00 | 00:00:00 | |
| OE5MMP-10 | 2026-09-06 00:27:36 | 48.91780 | 18.43273 | 90° | 9km/h | 25252m | 7.3m/s | -51.8°C | 3.9% | 0hPa | 2.5V | 00:00:00 | 01:53:09 | 00:00:00 | |
| DO3MHA-11 | 2026-09-06 00:27:35 | 48.91780 | 18.43270 | 48° | 9km/h | 25245m | 6.4m/s | -51.8°C | 3.9% | 0hPa | 2.6V | 00:00:00 | 01:53:08 | 00:00:00 | |
| HA6NAB-11 | 2026-09-06 00:27:31 | 48.91773 | 18.43264 | 68° | 4km/h | 25221m | 5.5m/s | -52.0°C | 1.1% | 0hPa | 2.5V | 00:00:00 | 00:00:00 | 00:00:00 | |
| POL2MAQ | 2026-09-06 00:27:27 | 48.91771 | 18.43256 | 60° | 13km/h | 25204m | 5.9m/s | -52.1°C | 1.1% | 0hPa | 2.5V | 00:00:00 | 00:00:00 | 00:00:00 | |
| OE5MMP-10 | 2026-09-06 00:27:26 | 48.91768 | 18.43247 | 82° | 20km/h | 25193m | 6.0m/s | -52.2°C | 3.9% | 0hPa | 2.5V | 00:00:00 | 01:52:59 | 00:00:00 | |
| DO3MHA-11 | 2026-09-06 00:27:25 | 48.91768 | 18.43243 | 99° | 20km/h | 25187m | 7.1m/s | -52.3°C | 4.0% | 0hPa | 2.5V | 00:00:00 | 01:52:58 | 00:00:00 | |
| HA6NAB-11 | 2026-09-06 00:27:20 | 48.91771 | 18.43201 | 91° | 26km/h | 25155m | 5.2m/s | -52.8°C | 1.2% | 0hPa | 2.5V | 00:00:00 | 00:00:00 | 00:00:00 | |
| DO3MHA-11 | 2026-09-06 00:27:15 | 48.91768 | 18.43166 | 54° | 20km/h | 25125m | 7.2m/s | -53.0°C | 4.1% | 0hPa | 2.5V | 00:00:00 | 01:52:48 | 00:00:00 | |
| PETON7-10 | 2026-09-06 00:27:11 | 48.91760 | 18.43146 | 91° | 16km/h | 25101m | 6.0m/s | -53.0°C | 4.2% | 0hPa | 2.5V | 00:00:00 | 00:00:00 | 00:00:00 | |
| OE3OSB-13 | 2026-09-06 00:27:10 | 48.91762 | 18.43132 | 101° | 20km/h | 25091m | 5.5m/s | -53.1°C | 1.1% | -1.0hPa | 2.7V | 00:00:00 | 00:00:00 | 00:00:00 | |
| POL2MAQ | 2026-09-06 00:27:07 | 48.91762 | 18.43114 | 87° | 26km/h | 25079m | 6.4m/s | -53.2°C | 1.2% | 0hPa | 2.7V | 00:00:00 | 00:00:00 | 00:00:00 | |
| OE5MMP-10 | 2026-09-06 00:27:06 | 48.91762 | 18.43104 | 84° | 15km/h | 25073m | 4.5m/s | -53.1°C | 4.3% | 0hPa | 2.7V | 00:00:00 | 01:52:39 | 08:30:00 | |
| DO3MHA-11 | 2026-09-06 00:27:05 | 48.91761 | 18.43095 | 87° | 20km/h | 25069m | 4.5m/s | -53.1°C | 4.2% | 0hPa | 2.5V | 00:00:00 | 01:52:38 | 08:30:00 | |
| PG1ADW-2 | 2026-09-06 00:27:00 | 48.91762 | 18.43067 | 80° | 11km/h | 25038m | 6.2m/s | -53.0°C | 4.2% | 0hPa | 2.7V | 00:00:00 | 00:00:00 | 08:30:00 | |
| PETON7-10 | 2026-09-06 00:26:56 | 48.91757 | 18.43053 | 49° | 11km/h | 25013m | 4.8m/s | -53.0°C | 4.2% | 0hPa | 2.5V | 00:00:00 | 00:00:00 | 00:00:00 | |
| OE5MMP-10 | 2026-09-06 00:26:46 | 48.91738 | 18.43017 | 30° | 15km/h | 24951m | 4.5m/s | -52.9°C | 4.1% | 0hPa | 2.5V | 00:00:00 | 01:52:19 | 00:00:00 | |
| OE5DXL-15 | 2026-09-06 00:26:45 | 48.91736 | 18.43016 | 7° | 15km/h | 24945m | 6.8m/s | -52.9°C | 4.1% | 0hPa | 2.5V | 00:00:00 | 00:00:00 | 00:00:00 | |
| PETON7-10 | 2026-09-06 00:26:41 | 48.91727 | 18.43011 | 41° | 15km/h | 24919m | 7.3m/s | -52.9°C | 4.0% | 0hPa | 2.5V | 00:00:00 | 01:52:14 | 00:00:00 | |
| PG1ADW-2 | 2026-09-06 00:26:40 | 48.91723 | 18.43006 | 45° | 15km/h | 24913m | 4.7m/s | -52.9°C | 4.1% | 0hPa | 2.5V | 00:00:00 | 01:52:13 | 00:00:00 | |
| OE3OSB-13 | 2026-09-06 00:26:39 | 48.91715 | 18.42994 | 43° | 20km/h | 24901m | 7.3m/s | -53.1°C | 1.1% | -1.0hPa | 2.5V | 00:00:00 | 00:00:00 | 00:00:00 | |
| OE5MMP-10 | 2026-09-06 00:26:36 | 48.91708 | 18.42983 | 48° | 11km/h | 24890m | 4.7m/s | -53.2°C | 4.1% | 0hPa | 2.5V | 00:00:00 | 01:52:09 | 00:00:00 | |
| PETON7-10 | 2026-09-06 00:26:26 | 48.91699 | 18.42945 | 89° | 16km/h | 24829m | 6.4m/s | -53.9°C | 4.4% | 0hPa | 2.5V | 00:00:00 | 00:00:00 | 08:30:00 | |
| POL2MAQ | 2026-09-06 00:26:25 | 48.91699 | 18.42945 | 90° | 20km/h | 24829m | 6.5m/s | -53.9°C | 1.3% | 0hPa | 2.5V | 00:00:00 | 00:00:00 | 00:00:00 | |
| PG1ADW-2 | 2026-09-06 00:26:19 | 48.91684 | 18.42902 | 42° | 9km/h | 24785m | 6.9m/s | -54.0°C | 4.4% | 0hPa | 2.5V | 00:00:00 | 00:00:00 | 00:00:00 | |
| OE5MMP-10 | 2026-09-06 00:26:16 | 48.91673 | 18.42892 | 16° | 7km/h | 24764m | 6.5m/s | -53.9°C | 4.5% | 0hPa | 2.5V | 00:00:00 | 01:51:49 | 00:00:00 | |
| OE5DXL-15 | 2026-09-06 00:26:15 | 48.91670 | 18.42891 | 17° | 7km/h | 24759m | 4.2m/s | -53.9°C | 4.5% | 0hPa | 2.5V | 00:00:00 | 00:00:00 | 00:00:00 | |
| PETON7-10 | 2026-09-06 00:26:11 | 48.91666 | 18.42880 | 85° | 5km/h | 24735m | 5.3m/s | -53.9°C | 4.5% | 0hPa | 2.7V | 00:00:00 | 00:00:00 | 00:00:00 | |
| OE3OSB-13 | 2026-09-06 00:26:08 | 48.91664 | 18.42877 | 349° | 5km/h | 24708m | 7.5m/s | -53.8°C | 1.2% | -1.0hPa | 2.7V | 00:00:00 | 00:00:00 | 00:00:00 | |
| OE5MMP-10 | 2026-09-06 00:26:06 | 48.91662 | 18.42877 | 360° | 7km/h | 24701m | 6.2m/s | -53.7°C | 4.4% | 0hPa | 2.7V | 00:00:00 | 01:51:39 | 00:00:00 | |
| POL2MAQ | 2026-09-06 00:26:05 | 48.91662 | 18.42877 | 360° | 7km/h | 24701m | 6.3m/s | -53.8°C | 1.3% | 0hPa | 2.5V | 00:00:00 | 00:00:00 | 00:00:00 | |
| PG1ADW-2 | 2026-09-06 00:25:59 | 48.91657 | 18.42877 | 95° | 9km/h | 24659m | 6.2m/s | -53.5°C | 4.4% | 0hPa | 2.5V | 00:00:00 | 00:00:00 | 00:00:00 | |
| PETON7-10 | 2026-09-06 00:25:56 | 48.91655 | 18.42870 | 2° | 7km/h | 24639m | 6.3m/s | -53.5°C | 4.4% | 0hPa | 2.7V | 00:00:00 | 01:51:29 | 00:00:00 | |
| OE5MMP-10 | 2026-09-06 00:25:46 | 48.91648 | 18.42900 | 282° | 9km/h | 24580m | 7.3m/s | -53.3°C | 4.4% | 0hPa | 2.7V | 00:00:00 | 01:51:19 | 00:00:00 | |
| OE5DXL-15 | 2026-09-06 00:25:45 | 48.91648 | 18.42903 | 302° | 9km/h | 24573m | 5.5m/s | -53.3°C | 4.4% | 0hPa | 2.7V | 00:00:00 | 00:00:00 | 00:00:00 | |
| PETON7-10 | 2026-09-06 00:25:41 | 48.91647 | 18.42907 | 267° | 13km/h | 24549m | 5.8m/s | -53.2°C | 4.4% | 0hPa | 2.7V | 00:00:00 | 00:00:00 | 00:00:00 | |
| PG1ADW-2 | 2026-09-06 00:25:39 | 48.91646 | 18.42912 | 292° | 11km/h | 24535m | 6.1m/s | -53.1°C | 4.4% | 0hPa | 2.6V | 00:00:00 | 00:00:00 | 00:00:00 | |
| OE3OSB-13 | 2026-09-06 00:25:38 | 48.91644 | 18.42932 | 260° | 18km/h | 24517m | 7.2m/s | -53.1°C | 1.2% | -1.0hPa | 2.6V | 00:00:00 | 00:00:00 | 00:00:00 | |
| OE5MMP-10 | 2026-09-06 00:25:36 | 48.91644 | 18.42932 | 261° | 13km/h | 24517m | 7.2m/s | -53.0°C | 4.3% | 0hPa | 2.6V | 00:00:00 | 01:51:09 | 08:30:00 | |
| HA6NAB-11 | 2026-09-06 00:25:33 | 48.91647 | 18.42946 | 244° | 18km/h | 24505m | 5.0m/s | -53.0°C | 1.3% | 0hPa | 2.5V | 00:00:00 | 00:00:00 | 00:00:00 | |
| HA6NAB-11 | 2026-09-06 00:25:30 | 48.91646 | 18.42970 | 286° | 9km/h | 24467m | 6.2m/s | -52.8°C | 1.2% | 0hPa | 2.5V | 00:00:00 | 00:00:00 | 00:00:00 | |
| OE5MMP-10 | 2026-09-06 00:25:26 | 48.91645 | 18.42975 | 268° | 9km/h | 24456m | 6.2m/s | -52.7°C | 4.2% | 0hPa | 2.5V | 00:00:00 | 01:50:59 | 00:00:00 | |
| POL2MAQ | 2026-09-06 00:25:24 | 48.91646 | 18.42977 | 278° | 2km/h | 24449m | 7.2m/s | -52.7°C | 1.2% | 0hPa | 2.5V | 00:00:00 | 00:00:00 | 00:00:00 | |
| OE3MUC-15 | 2026-09-06 00:25:18 | 48.91655 | 18.43000 | 240° | 13km/h | 24404m | 7.3m/s | -52.5°C | 4.2% | 0hPa | 2.5V | 00:00:00 | 00:00:00 | 00:00:00 | |
| OE5MMP-10 | 2026-09-06 00:25:16 | 48.91656 | 18.43006 | 259° | 7km/h | 24392m | 6.0m/s | -52.5°C | 4.2% | 0hPa | 2.5V | 00:00:00 | 01:50:49 | 00:00:00 | |
| PG1ADW-2 | 2026-09-06 00:25:15 | 48.91656 | 18.43008 | 261° | 11km/h | 24385m | 7.7m/s | -52.4°C | 4.2% | 0hPa | 2.5V | 00:00:00 | 01:50:48 | 00:00:00 | |
| PETON7-10 | 2026-09-06 00:25:11 | 48.91658 | 18.43010 | 111° | 11km/h | 24360m | 6.6m/s | -52.3°C | 4.2% | 0hPa | 2.5V | 00:00:00 | 01:50:44 | 00:00:00 | |
| HA6NAB-11 | 2026-09-06 00:25:10 | 48.91658 | 18.43010 | 111° | 7km/h | 24360m | 6.6m/s | -52.4°C | 1.2% | 0hPa | 2.5V | 00:00:00 | 00:00:00 | 00:00:00 | |
| OE5MMP-10 | 2026-09-06 00:25:06 | 48.91669 | 18.43010 | 217° | 11km/h | 24328m | 6.7m/s | -52.1°C | 4.2% | 0hPa | 2.5V | 00:00:00 | 01:50:39 | 00:00:00 | |
| OE3MUC-15 | 2026-09-06 00:25:05 | 48.91672 | 18.43013 | 225° | 7km/h | 24321m | 7.1m/s | -52.1°C | 4.1% | 0hPa | 2.5V | 00:00:00 | 00:00:00 | 00:00:00 | |
| HA6NAB-11 | 2026-09-06 00:25:04 | 48.91672 | 18.43013 | 225° | 11km/h | 24321m | 7.2m/s | -52.2°C | 1.2% | 0hPa | 2.5V | 00:00:00 | 00:00:00 | 00:00:00 | |
| POL2MAQ | 2026-09-06 00:25:03 | 48.91673 | 18.43016 | 236° | 11km/h | 24315m | 6.0m/s | -52.1°C | 1.2% | 0hPa | 2.5V | 00:00:00 | 00:00:00 | 00:00:00 | |
| OE3MUC-15 | 2026-09-06 00:24:58 | 48.91681 | 18.43019 | 102° | 16km/h | 24275m | 6.2m/s | -52.2°C | 4.2% | 0hPa | 2.5V | 00:00:00 | 00:00:00 | 00:00:00 | |
| PETON7-10 | 2026-09-06 00:24:56 | 48.91684 | 18.43008 | 126° | 11km/h | 24263m | 7.5m/s | -52.2°C | 4.1% | 0hPa | 2.5V | 00:00:00 | 00:00:00 | 00:00:00 | |
| PG1ADW-2 | 2026-09-06 00:24:55 | 48.91688 | 18.43003 | 149° | 9km/h | 24257m | 5.5m/s | -52.1°C | 4.2% | 0hPa | 2.6V | 00:00:00 | 00:00:00 | 00:00:00 | |
| OE3MUC-15 | 2026-09-06 00:24:54 | 48.91691 | 18.43001 | 166° | 13km/h | 24251m | 5.6m/s | -52.1°C | 4.1% | 0hPa | 2.6V | 00:00:00 | 00:00:00 | 08:30:00 | |
| OE3MUC-15 | 2026-09-06 00:24:49 | 48.91698 | 18.43011 | 262° | 7km/h | 24218m | 6.7m/s | -51.9°C | 4.1% | 0hPa | 2.6V | 00:00:00 | 00:00:00 | 00:00:00 | |
| OE5MMP-10 | 2026-09-06 00:24:46 | 48.91697 | 18.43014 | 44° | 9km/h | 24198m | 7.1m/s | -51.7°C | 4.1% | 0hPa | 2.6V | 00:00:00 | 01:50:19 | 00:00:00 | |
| OE5DXL-15 | 2026-09-06 00:24:45 | 48.91695 | 18.43011 | 60° | 13km/h | 24192m | 5.1m/s | -51.7°C | 4.0% | 0hPa | 2.6V | 00:00:00 | 00:00:00 | 00:00:00 | |
| POL2MAQ | 2026-09-06 00:24:43 | 48.91693 | 18.43006 | 73° | 16km/h | 24186m | 5.4m/s | -51.7°C | 1.2% | 0hPa | 2.5V | 00:00:00 | 00:00:00 | 00:00:00 | |
| PETON7-10 | 2026-09-06 00:24:41 | 48.91693 | 18.42990 | 106° | 13km/h | 24168m | 5.2m/s | -51.5°C | 4.0% | 0hPa | 2.5V | 00:00:00 | 00:00:00 | 00:00:00 | |
| OE3MUC-15 | 2026-09-06 00:24:36 | 48.91693 | 18.42989 | 246° | 18km/h | 24134m | 6.9m/s | -51.5°C | 4.0% | 0hPa | 2.5V | 00:00:00 | 00:00:00 | 00:00:00 | |
| OE5DRO-10 | 2026-09-06 00:24:35 | 48.91694 | 18.42990 | 225° | 16km/h | 24129m | 4.6m/s | -51.6°C | 4.0% | 0hPa | 2.5V | 00:00:00 | 00:00:00 | 00:00:00 | |
| OE3OSB-13 | 2026-09-06 00:24:34 | 48.91695 | 18.42991 | 137° | 2km/h | 24123m | 6.2m/s | -51.7°C | 1.1% | -1.0hPa | 2.6V | 00:00:00 | 00:00:00 | 00:00:00 | |
| OE3MUC-15 | 2026-09-06 00:24:28 | 48.91695 | 18.42951 | 93° | 16km/h | 24086m | 5.4m/s | -51.8°C | 4.0% | 0hPa | 2.6V | 00:00:00 | 00:00:00 | 00:00:00 | |
| OE5MMP-10 | 2026-09-06 00:24:26 | 48.91694 | 18.42934 | 74° | 13km/h | 24072m | 6.4m/s | -51.8°C | 4.0% | 0hPa | 2.7V | 00:00:00 | 01:49:59 | 00:00:00 | |
| POL2MAQ | 2026-09-06 00:24:23 | 48.91691 | 18.42923 | 55° | 11km/h | 24059m | 7.6m/s | -51.8°C | 1.2% | 0hPa | 2.7V | 00:00:00 | 00:00:00 | 00:00:00 | |
| OE3MUC-15 | 2026-09-06 00:24:19 | 48.91680 | 18.42917 | 36° | 11km/h | 24028m | 4.6m/s | -51.7°C | 4.1% | 0hPa | 2.7V | 00:00:00 | 00:00:00 | 00:00:00 | |
| OE5MMP-10 | 2026-09-06 00:24:16 | 48.91675 | 18.42901 | 89° | 11km/h | 24010m | 6.2m/s | -51.6°C | 4.0% | 0hPa | 2.7V | 00:00:00 | 01:49:49 | 00:00:00 | |
| OE5DXL-15 | 2026-09-06 00:24:15 | 48.91675 | 18.42894 | 94° | 9km/h | 24004m | 5.4m/s | -51.6°C | 4.1% | 0hPa | 2.7V | 00:00:00 | 00:00:00 | 00:00:00 | |
| OE5DRO-10 | 2026-09-06 00:24:13 | 48.91675 | 18.42881 | 85° | 7km/h | 23991m | 5.7m/s | -51.5°C | 4.1% | 0hPa | 2.7V | 00:00:00 | 00:00:00 | 00:00:00 | |
| OE5MMP-10 | 2026-09-06 00:24:06 | 48.91669 | 18.42864 | 8° | 13km/h | 23949m | 5.2m/s | -51.4°C | 4.1% | 0hPa | 2.7V | 00:00:00 | 01:49:39 | 08:30:00 | |
| OE3MUC-15 | 2026-09-06 00:24:05 | 48.91667 | 18.42863 | 9° | 9km/h | 23944m | 5.7m/s | -51.4°C | 4.0% | 0hPa | 2.7V | 00:00:00 | 00:00:00 | 00:00:00 | |
| OE3OSB-13 | 2026-09-06 00:24:03 | 48.91663 | 18.42861 | 34° | 4km/h | 23931m | 5.0m/s | -51.4°C | 1.1% | -1.0hPa | 2.7V | 00:00:00 | 00:00:00 | 00:00:00 | |
| POL2MAQ | 2026-09-06 00:24:02 | 48.91662 | 18.42861 | 35° | 5km/h | 23931m | 5.0m/s | -51.4°C | 1.2% | 0hPa | 2.7V | 00:00:00 | 00:00:00 | 00:00:00 | |
| OE3MUC-15 | 2026-09-06 00:24:00 | 48.91659 | 18.42856 | 56° | 7km/h | 23913m | 5.7m/s | -51.3°C | 3.9% | 0hPa | 2.7V | 00:00:00 | 00:00:00 | 00:00:00 | |
| PETON7-10 | 2026-09-06 00:23:56 | 48.91661 | 18.42849 | 166° | 7km/h | 23889m | 5.2m/s | -51.3°C | 3.9% | 0hPa | 2.7V | 00:00:00 | 00:00:00 | 00:00:00 | |
| PG1ADW-2 | 2026-09-06 00:23:55 | 48.91662 | 18.42849 | 180° | 9km/h | 23883m | 7.1m/s | -51.3°C | 3.9% | 0hPa | 2.7V | 00:00:00 | 01:49:28 | 08:30:00 | |
| OE5MMP-10 | 2026-09-06 00:23:53 | 48.91661 | 18.42851 | 302° | 9km/h | 23870m | 5.0m/s | -51.3°C | 3.9% | 0hPa | 2.5V | 00:00:00 | 01:49:26 | 00:00:00 | |
| OE5DRO-10 | 2026-09-06 00:23:51 | 48.91660 | 18.42858 | 285° | 11km/h | 23857m | 6.3m/s | -51.3°C | 3.9% | 0hPa | 2.5V | 00:00:00 | 00:00:00 | 00:00:00 | |
| OE3MUC-15 | 2026-09-06 00:23:49 | 48.91657 | 18.42866 | 307° | 11km/h | 23846m | 7.0m/s | -51.3°C | 3.9% | 0hPa | 2.5V | 00:00:00 | 00:00:00 | 00:00:00 | |
| GYPAP8-17 | 2026-09-06 00:23:48 | 48.91657 | 18.42866 | 308° | 11km/h | 23846m | 7.0m/s | -51.3°C | 1.2% | 0hPa | 2.5V | 00:00:00 | 00:00:00 | 00:00:00 | |
| OE5DXL-15 | 2026-09-06 00:23:45 | 48.91650 | 18.42873 | 312° | 9km/h | 23821m | 6.6m/s | -51.4°C | 4.0% | 0hPa | 2.5V | 00:00:00 | 00:00:00 | 00:00:00 | |
| OE5MMP-10 | 2026-09-06 00:23:43 | 48.91649 | 18.42874 | 332° | 13km/h | 23811m | 5.3m/s | -51.4°C | 3.9% | 0hPa | 2.5V | 00:00:00 | 01:49:16 | 00:00:00 | |
| POL2MAQ | 2026-09-06 00:23:42 | 48.91649 | 18.42874 | 332° | 2km/h | 23811m | 5.4m/s | -51.4°C | 1.2% | 0hPa | 2.5V | 00:00:00 | 00:00:00 | 00:00:00 | |
| PETON7-10 | 2026-09-06 00:23:41 | 48.91648 | 18.42876 | 311° | 13km/h | 23799m | 4.9m/s | -51.4°C | 3.9% | 0hPa | 2.5V | 00:00:00 | 01:49:14 | 00:00:00 | |
| PG1ADW-2 | 2026-09-06 00:23:35 | 48.91647 | 18.42911 | 276° | 9km/h | 23764m | 5.0m/s | -51.9°C | 4.1% | 0hPa | 2.5V | 00:00:00 | 00:00:00 | 00:00:00 | |
| OE5MMP-10 | 2026-09-06 00:23:33 | 48.91647 | 18.42919 | 232° | 9km/h | 23752m | 7.0m/s | -51.9°C | 4.1% | 0hPa | 2.5V | 00:00:00 | 01:49:06 | 00:00:00 | |
| OE5DRO-10 | 2026-09-06 00:23:32 | 48.91649 | 18.42920 | 177° | 9km/h | 23745m | 6.8m/s | -51.9°C | 4.1% | 0hPa | 2.5V | 00:00:00 | 00:00:00 | 08:30:00 | |
| PETON7-10 | 2026-09-06 00:23:26 | 48.91661 | 18.42906 | 170° | 11km/h | 23710m | 6.9m/s | -51.8°C | 4.0% | 0hPa | 2.5V | 00:00:00 | 00:00:00 | 00:00:00 | |
| OE5MMP-10 | 2026-09-06 00:23:23 | 48.91668 | 18.42908 | 219° | 9km/h | 23693m | 6.6m/s | -51.8°C | 4.0% | 0hPa | 2.7V | 00:00:00 | 01:48:56 | 00:00:00 | |
| POL2MAQ | 2026-09-06 00:23:21 | 48.91669 | 18.42910 | 263° | 4km/h | 23687m | 5.5m/s | -51.9°C | 1.2% | 0hPa | 2.7V | 00:00:00 | 00:00:00 | 00:00:00 | |
| OE3MUC-15 | 2026-09-06 00:23:19 | 48.91669 | 18.42908 | 119° | 15km/h | 23671m | 6.0m/s | -52.0°C | 4.1% | 0hPa | 2.7V | 00:00:00 | 00:00:00 | 00:00:00 | |
| PG1ADW-2 | 2026-09-06 00:23:15 | 48.91671 | 18.42890 | 87° | 13km/h | 23647m | 5.8m/s | -51.9°C | 4.0% | 0hPa | 2.7V | 00:00:00 | 00:00:00 | 00:00:00 | |
| OE5MMP-10 | 2026-09-06 00:23:13 | 48.91671 | 18.42877 | 95° | 13km/h | 23635m | 6.8m/s | -51.8°C | 4.0% | 0hPa | 2.7V | 00:00:00 | 01:48:46 | 00:00:00 | |
| PETON7-10 | 2026-09-06 00:23:11 | 48.91672 | 18.42864 | 90° | 13km/h | 23624m | 5.1m/s | -51.8°C | 4.0% | 0hPa | 2.7V | 00:00:00 | 00:00:00 | 00:00:00 | |
| OE5MMP-10 | 2026-09-06 00:23:03 | 48.91667 | 18.42835 | 96° | 11km/h | 23576m | 5.9m/s | -51.9°C | 4.0% | 0hPa | 2.7V | 00:00:00 | 01:48:36 | 00:00:00 | |
| OE3OSB-13 | 2026-09-06 00:23:01 | 48.91669 | 18.42823 | 115° | 16km/h | 23564m | 6.8m/s | -52.0°C | 1.1% | -1.0hPa | 2.5V | 00:00:00 | 00:00:00 | 00:00:00 | |
| POL2MAQ | 2026-09-06 00:23:00 | 48.91669 | 18.42823 | 116° | 18km/h | 23564m | 6.8m/s | -52.0°C | 1.2% | 0hPa | 2.5V | 00:00:00 | 00:00:00 | 00:00:00 | |
| PETON7-10 | 2026-09-06 00:22:56 | 48.91677 | 18.42801 | 85° | 9km/h | 23535m | 5.2m/s | -52.2°C | 4.0% | 0hPa | 2.5V | 00:00:00 | 01:48:29 | 00:00:00 | |
| PG1ADW-2 | 2026-09-06 00:22:55 | 48.91677 | 18.42799 | 91° | 9km/h | 23530m | 6.0m/s | -52.3°C | 4.0% | 0hPa | 2.5V | 00:00:00 | 00:00:00 | 00:00:00 | |
| OE5DRO-10 | 2026-09-06 00:22:54 | 48.91677 | 18.42799 | 198° | 11km/h | 23524m | 6.4m/s | -52.4°C | 4.1% | 0hPa | 2.7V | 00:00:00 | 00:00:00 | 00:00:00 | |
| OE5MMP-10 | 2026-09-06 00:22:53 | 48.91677 | 18.42799 | 217° | 11km/h | 23517m | 5.2m/s | -52.4°C | 4.1% | 0hPa | 2.7V | 00:00:00 | 01:48:26 | 00:00:00 | |
| GYPAP8-17 | 2026-09-06 00:22:49 | 48.91678 | 18.42800 | 85° | 4km/h | 23500m | 4.6m/s | -52.5°C | 1.2% | 0hPa | 2.7V | 00:00:00 | 00:00:00 | 00:00:00 | |
| OE5DXL-15 | 2026-09-06 00:22:45 | 48.91691 | 18.42782 | 142° | 13km/h | 23474m | 5.2m/s | -52.6°C | 4.1% | 0hPa | 2.7V | 00:00:00 | 00:00:00 | 00:00:00 | |
| OE5MMP-10 | 2026-09-06 00:22:43 | 48.91697 | 18.42772 | 127° | 11km/h | 23462m | 5.9m/s | -52.7°C | 4.2% | 0hPa | 2.7V | 00:00:00 | 01:48:16 | 00:00:00 | |
| PETON7-10 | 2026-09-06 00:22:41 | 48.91701 | 18.42762 | 117° | 15km/h | 23449m | 7.1m/s | -52.7°C | 4.2% | 0hPa | 2.7V | 00:00:00 | 00:00:00 | 00:00:00 | |
| POL2MAQ | 2026-09-06 00:22:40 | 48.91701 | 18.42762 | 118° | 15km/h | 23449m | 7.1m/s | -52.8°C | 1.2% | 0hPa | 2.5V | 00:00:00 | 00:00:00 | 00:00:00 | |
| PG1ADW-2 | 2026-09-06 00:22:35 | 48.91703 | 18.42743 | 136° | 13km/h | 23417m | 5.8m/s | -52.9°C | 4.2% | 0hPa | 2.5V | 00:00:00 | 01:48:08 | 00:00:00 | |
| OE5MMP-10 | 2026-09-06 00:22:33 | 48.91708 | 18.42737 | 152° | 18km/h | 23404m | 5.8m/s | -52.9°C | 4.2% | 0hPa | 2.5V | 00:00:00 | 01:48:06 | 08:30:00 | |
| OE3OSB-13 | 2026-09-06 00:22:30 | 48.91722 | 18.42728 | 155° | 18km/h | 23386m | 4.9m/s | -53.2°C | 1.2% | -1.0hPa | 2.5V | 00:00:00 | 00:00:00 | 00:00:00 | |
| PETON7-10 | 2026-09-06 00:22:26 | 48.91740 | 18.42716 | 165° | 9km/h | 23364m | 4.7m/s | -53.3°C | 4.3% | 0hPa | 2.5V | 00:00:00 | 00:00:00 | 00:00:00 | |
| OE5MMP-10 | 2026-09-06 00:22:23 | 48.91750 | 18.42716 | 224° | 7km/h | 23345m | 5.4m/s | -53.2°C | 4.3% | 0hPa | 2.5V | 00:00:00 | 01:47:56 | 00:00:00 | |
| POL2MAQ | 2026-09-06 00:22:20 | 48.91752 | 18.42719 | 204° | 5km/h | 23333m | 7.3m/s | -53.2°C | 1.3% | 0hPa | 2.5V | 00:00:00 | 00:00:00 | 00:00:00 | |
| OE5DRO-10 | 2026-09-06 00:22:16 | 48.91758 | 18.42714 | 121° | 15km/h | 23303m | 5.1m/s | -53.2°C | 4.3% | 0hPa | 2.5V | 00:00:00 | 00:00:00 | 00:00:00 | |
| OE5DXL-15 | 2026-09-06 00:22:15 | 48.91760 | 18.42711 | 127° | 18km/h | 23298m | 6.5m/s | -53.2°C | 4.4% | 0hPa | 2.5V | 00:00:00 | 00:00:00 | 00:00:00 | |
| OE5MMP-10 | 2026-09-06 00:22:13 | 48.91765 | 18.42704 | 150° | 13km/h | 23285m | 5.3m/s | -53.3°C | 4.4% | 0hPa | 2.5V | 00:00:00 | 01:47:46 | 00:00:00 | |
| PETON7-10 | 2026-09-06 00:22:10 | 48.91773 | 18.42703 | 207° | 16km/h | 23267m | 5.2m/s | -53.3°C | 4.4% | 0hPa | 2.5V | 00:00:00 | 01:47:43 | 00:00:00 | |
| OE5MMP-10 | 2026-09-06 00:22:03 | 48.91793 | 18.42709 | 198° | 22km/h | 23225m | 4.7m/s | -53.2°C | 4.3% | 0hPa | 2.5V | 00:00:00 | 01:47:36 | 00:00:00 | |
| OE3OSB-13 | 2026-09-06 00:21:59 | 48.91813 | 18.42709 | 175° | 22km/h | 23201m | 6.8m/s | -53.2°C | 1.2% | -1.0hPa | 2.7V | 00:00:00 | 00:00:00 | 00:00:00 | |
| OE5DRO-10 | 2026-09-06 00:21:57 | 48.91824 | 18.42708 | 171° | 26km/h | 23189m | 4.9m/s | -53.1°C | 4.3% | 0hPa | 2.7V | 00:00:00 | 00:00:00 | 00:00:00 | |
| PG1ADW-2 | 2026-09-06 00:21:55 | 48.91836 | 18.42703 | 165° | 26km/h | 23177m | 6.8m/s | -53.0°C | 4.3% | 0hPa | 2.7V | 00:00:00 | 00:00:00 | 00:00:00 | |
| OE5MMP-10 | 2026-09-06 00:21:53 | 48.91848 | 18.42698 | 163° | 24km/h | 23165m | 6.3m/s | -53.0°C | 4.3% | 0hPa | 2.5V | 00:00:00 | 01:47:26 | 00:00:00 | |
| DO3MHA-11 | 2026-09-06 00:21:46 | 48.91888 | 18.42686 | 168° | 29km/h | 23125m | 5.5m/s | -52.8°C | 4.3% | 0hPa | 2.5V | 00:00:00 | 01:47:19 | 00:00:00 | |
| OE5DXL-15 | 2026-09-06 00:21:45 | 48.91895 | 18.42683 | 167° | 31km/h | 23118m | 7.2m/s | -52.8°C | 4.3% | 0hPa | 2.5V | 00:00:00 | 00:00:00 | 00:00:00 | |
| OE5MMP-10 | 2026-09-06 00:21:43 | 48.91908 | 18.42678 | 164° | 29km/h | 23107m | 4.5m/s | -52.8°C | 4.3% | 0hPa | 2.7V | 00:00:00 | 01:47:16 | 00:00:00 | |
| PETON7-10 | 2026-09-06 00:21:40 | 48.91929 | 18.42668 | 164° | 33km/h | 23089m | 5.7m/s | -52.7°C | 4.2% | 0hPa | 2.7V | 00:00:00 | 00:00:00 | 00:00:00 | |
| OE5DRO-10 | 2026-09-06 00:21:38 | 48.91943 | 18.42662 | 166° | 33km/h | 23075m | 6.4m/s | -52.7°C | 4.2% | 0hPa | 2.7V | 00:00:00 | 00:00:00 | 00:00:00 | |
| GYPAP8-17 | 2026-09-06 00:21:37 | 48.91943 | 18.42662 | 166° | 26km/h | 23075m | 6.4m/s | -52.7°C | 1.3% | 0hPa | 2.7V | 00:00:00 | 00:00:00 | 00:00:00 | |
| DO3MHA-11 | 2026-09-06 00:21:36 | 48.91957 | 18.42657 | 170° | 35km/h | 23063m | 6.9m/s | -52.7°C | 4.2% | 0hPa | 2.7V | 00:00:00 | 01:47:09 | 00:00:00 | |
| PG1ADW-2 | 2026-09-06 00:21:35 | 48.91965 | 18.42655 | 173° | 33km/h | 23056m | 6.3m/s | -52.7°C | 4.2% | 0hPa | 2.7V | 00:00:00 | 00:00:00 | 00:00:00 | |
| OE5MMP-10 | 2026-09-06 00:21:33 | 48.91982 | 18.42653 | 176° | 37km/h | 23045m | 6.3m/s | -52.7°C | 4.2% | 0hPa | 2.7V | 00:00:00 | 01:47:06 | 00:00:00 | |
| OE3OSB-13 | 2026-09-06 00:21:28 | 48.92022 | 18.42634 | 153° | 40km/h | 23013m | 6.7m/s | -52.8°C | 1.2% | -1.0hPa | 2.7V | 00:00:00 | 00:00:00 | 00:00:00 | |
| DO3MHA-11 | 2026-09-06 00:21:26 | 48.92041 | 18.42618 | 150° | 33km/h | 23002m | 5.9m/s | -52.7°C | 4.1% | 0hPa | 2.7V | 00:00:00 | 01:46:59 | 00:00:00 | |
| PETON7-10 | 2026-09-06 00:21:25 | 48.92049 | 18.42611 | 149° | 33km/h | 22995m | 6.9m/s | -52.7°C | 4.2% | 0hPa | 2.5V | 00:00:00 | 01:46:58 | 00:00:00 | |
| OE5MMP-10 | 2026-09-06 00:21:23 | 48.92063 | 18.42598 | 150° | 31km/h | 22983m | 5.4m/s | -52.6°C | 4.1% | 0hPa | 2.5V | 00:00:00 | 01:46:56 | 00:00:00 | |
| OE5DRO-10 | 2026-09-06 00:21:19 | 48.92089 | 18.42577 | 148° | 31km/h | 22958m | 6.6m/s | -52.7°C | 4.2% | 0hPa | 2.5V | 00:00:00 | 00:00:00 | 00:00:00 | |
| POL2MAQ | 2026-09-06 00:21:17 | 48.92094 | 18.42571 | 141° | 26km/h | 22951m | 6.9m/s | -52.7°C | 1.2% | 0hPa | 2.5V | 00:00:00 | 00:00:00 | 00:00:00 | |
| DO3MHA-11 | 2026-09-06 00:21:16 | 48.92105 | 18.42556 | 134° | 31km/h | 22939m | 6.0m/s | -52.7°C | 4.2% | 0hPa | 2.5V | 00:00:00 | 01:46:49 | 00:00:00 | |
| PG1ADW-2 | 2026-09-06 00:21:15 | 48.92110 | 18.42546 | 135° | 31km/h | 22932m | 7.0m/s | -52.7°C | 4.2% | 0hPa | 2.5V | 00:00:00 | 01:46:48 | 00:00:00 | |
| OE5MMP-10 | 2026-09-06 00:21:13 | 48.92124 | 18.42525 | 132° | 29km/h | 22920m | 5.7m/s | -52.7°C | 4.2% | 0hPa | 2.5V | 00:00:00 | 01:46:46 | 00:00:00 | |
| PETON7-10 | 2026-09-06 00:21:10 | 48.92140 | 18.42494 | 131° | 29km/h | 22901m | 5.7m/s | -52.7°C | 4.2% | 0hPa | 2.5V | 00:00:00 | 00:00:00 | 00:00:00 | |
| HA6NAB-11 | 2026-09-06 00:21:08 | 48.92146 | 18.42485 | 137° | 31km/h | 22895m | 7.2m/s | -52.8°C | 1.3% | 0hPa | 2.7V | 00:00:00 | 00:00:00 | 00:00:00 | |
| OE5MMP-10 | 2026-09-06 00:21:03 | 48.92173 | 18.42442 | 116° | 29km/h | 22858m | 6.0m/s | -53.1°C | 4.3% | 0hPa | 2.7V | 00:00:00 | 01:46:36 | 08:30:00 | |
| OE3OSB-13 | 2026-09-06 00:20:57 | 48.92193 | 18.42379 | 116° | 27km/h | 22819m | 5.0m/s | -53.1°C | 1.2% | -1.0hPa | 2.7V | 00:00:00 | 00:00:00 | 00:00:00 | |
| POL2MAQ | 2026-09-06 00:20:56 | 48.92193 | 18.42379 | 118° | 29km/h | 22820m | 5.0m/s | -53.1°C | 1.3% | 0hPa | 2.7V | 00:00:00 | 00:00:00 | 00:00:00 | |
| PETON7-10 | 2026-09-06 00:20:55 | 48.92201 | 18.42360 | 127° | 22km/h | 22808m | 6.6m/s | -53.0°C | 4.3% | 0hPa | 2.7V | 00:00:00 | 00:00:00 | 00:00:00 | |
| OE5MMP-10 | 2026-09-06 00:20:53 | 48.92209 | 18.42345 | 125° | 22km/h | 22795m | 6.4m/s | -52.9°C | 4.3% | 0hPa | 2.7V | 00:00:00 | 01:46:26 | 00:00:00 | |
| HA6NAB-11 | 2026-09-06 00:20:48 | 48.92214 | 18.42321 | 108° | 16km/h | 22771m | 7.2m/s | -52.8°C | 1.3% | 0hPa | 2.7V | 00:00:00 | 00:00:00 | 00:00:00 | |
| OE5DXL-15 | 2026-09-06 00:20:45 | 48.92224 | 18.42287 | 109° | 15km/h | 22746m | 6.9m/s | -52.6°C | 4.2% | 0hPa | 2.7V | 00:00:00 | 00:00:00 | 00:00:00 | |
| OE5MMP-10 | 2026-09-06 00:20:43 | 48.92227 | 18.42267 | 102° | 18km/h | 22734m | 5.3m/s | -52.6°C | 4.3% | 0hPa | 2.7V | 00:00:00 | 01:46:16 | 00:00:00 | |
| OE5DRO-10 | 2026-09-06 00:20:42 | 48.92231 | 18.42249 | 119° | 15km/h | 22722m | 7.2m/s | -52.6°C | 4.3% | 0hPa | 2.7V | 00:00:00 | 00:00:00 | 08:30:00 | |
| PETON7-10 | 2026-09-06 00:20:40 | 48.92234 | 18.42242 | 133° | 15km/h | 22716m | 6.2m/s | -52.6°C | 4.2% | 0hPa | 2.7V | 00:00:00 | 01:46:13 | 00:00:00 | |
| POL2MAQ | 2026-09-06 00:20:36 | 48.92243 | 18.42231 | 146° | 11km/h | 22697m | 5.7m/s | -52.5°C | 1.3% | 0hPa | 2.7V | 00:00:00 | 00:00:00 | 00:00:00 | |
| PG1ADW-2 | 2026-09-06 00:20:35 | 48.92249 | 18.42226 | 147° | 13km/h | 22684m | 7.3m/s | -52.5°C | 4.2% | 0hPa | 2.7V | 00:00:00 | 00:00:00 | 00:00:00 | |
| GYPAP8-17 | 2026-09-06 00:20:34 | 48.92249 | 18.42226 | 148° | 15km/h | 22684m | 7.3m/s | -52.5°C | 1.3% | 0hPa | 2.7V | 00:00:00 | 00:00:00 | 00:00:00 | |
| OE5MMP-10 | 2026-09-06 00:20:33 | 48.92255 | 18.42218 | 130° | 15km/h | 22673m | 5.0m/s | -52.4°C | 4.2% | 0hPa | 2.7V | 00:00:00 | 01:46:06 | 00:00:00 | |
| OE3OSB-13 | 2026-09-06 00:20:26 | 48.92265 | 18.42180 | 113° | 9km/h | 22630m | 7.4m/s | -52.3°C | 1.2% | -1.0hPa | 2.5V | 00:00:00 | 00:00:00 | 00:00:00 | |
| PETON7-10 | 2026-09-06 00:20:25 | 48.92266 | 18.42176 | 110° | 11km/h | 22623m | 6.1m/s | -52.2°C | 4.1% | 0hPa | 2.5V | 00:00:00 | 00:00:00 | 00:00:00 | |
| OE5MMP-10 | 2026-09-06 00:20:23 | 48.92269 | 18.42172 | 149° | 11km/h | 22611m | 7.3m/s | -52.2°C | 4.1% | 0hPa | 2.7V | 00:00:00 | 01:45:56 | 00:00:00 | |
| OE5DRO-10 | 2026-09-06 00:20:22 | 48.92271 | 18.42170 | 157° | 13km/h | 22605m | 5.4m/s | -52.2°C | 4.1% | 0hPa | 2.7V | 00:00:00 | 00:00:00 | 00:00:00 | |
| OE5DXL-15 | 2026-09-06 00:20:15 | 48.92286 | 18.42152 | 127° | 18km/h | 22564m | 4.7m/s | -52.3°C | 4.1% | 0hPa | 2.7V | 00:00:00 | 00:00:00 | 00:00:00 | |
| OE5MMP-10 | 2026-09-06 00:20:13 | 48.92287 | 18.42144 | 97° | 16km/h | 22552m | 5.2m/s | 0°C | 0% | 0hPa | 2.7V | 00:00:00 | 01:45:46 | 00:00:00 | |
| PETON7-10 | 2026-09-06 00:20:10 | 48.92291 | 18.42129 | 129° | 16km/h | 22536m | 5.8m/s | -52.3°C | 4.2% | 0hPa | 2.7V | 00:00:00 | 00:00:00 | 00:00:00 | |
| OE5MMP-10 | 2026-09-06 00:20:03 | 48.92317 | 18.42111 | 168° | 26km/h | 22494m | 5.5m/s | -52.4°C | 4.2% | 0hPa | 2.7V | 00:00:00 | 01:45:36 | 00:00:00 | |
| PETON7-10 | 2026-09-06 00:19:55 | 48.92345 | 18.42079 | 128° | 24km/h | 22446m | 5.5m/s | -52.3°C | 4.1% | 0hPa | 2.7V | 00:00:00 | 01:45:28 | 00:00:00 | |
| OE5MMP-10 | 2026-09-06 00:19:45 | 48.92395 | 18.42027 | 139° | 27km/h | 22392m | 5.0m/s | -52.3°C | 4.0% | 0hPa | 2.7V | 00:00:00 | 01:45:18 | 00:00:00 | |
| OE5DRO-10 | 2026-09-06 00:19:44 | 48.92399 | 18.42020 | 131° | 27km/h | 22386m | 6.3m/s | -52.3°C | 4.0% | 0hPa | 2.7V | 00:00:00 | 00:00:00 | 00:00:00 | |
| PG1ADW-2 | 2026-09-06 00:19:35 | 48.92432 | 18.41940 | 126° | 26km/h | 22335m | 6.4m/s | -52.6°C | 4.1% | 0hPa | 2.5V | 00:00:00 | 00:00:00 | 00:00:00 | |
| GYPAP8-17 | 2026-09-06 00:19:27 | 48.92453 | 18.41875 | 115° | 29km/h | 22298m | 5.5m/s | -52.7°C | 1.3% | 0hPa | 2.5V | 00:00:00 | 00:00:00 | 00:00:00 | |
| OE5MMP-10 | 2026-09-06 00:19:25 | 48.92461 | 18.41843 | 103° | 24km/h | 22282m | 6.9m/s | -52.7°C | 4.0% | 0hPa | 2.5V | 00:00:00 | 01:44:58 | 08:30:00 | |
| OE3OSB-13 | 2026-09-06 00:19:24 | 48.92462 | 18.41833 | 95° | 26km/h | 22276m | 5.2m/s | -52.8°C | 1.2% | -1.0hPa | 2.7V | 00:00:00 | 00:00:00 | 00:00:00 | |
| OE5MMP-10 | 2026-09-06 00:19:15 | 48.92471 | 18.41757 | 106° | 33km/h | 22227m | 6.5m/s | -53.1°C | 4.2% | 0hPa | 2.7V | 00:00:00 | 01:44:48 | 00:00:00 | |
| PETON7-10 | 2026-09-06 00:19:10 | 48.92476 | 18.41692 | 84° | 29km/h | 22202m | 5.1m/s | -53.2°C | 4.1% | 0hPa | 2.7V | 00:00:00 | 01:44:43 | 00:00:00 | |
| DO3MHA-11 | 2026-09-06 00:19:07 | 48.92473 | 18.41654 | 78° | 24km/h | 22185m | 4.5m/s | -53.7°C | 4.4% | 0hPa | 2.7V | 00:00:00 | 01:44:40 | 00:00:00 | |
| OE5DRO-10 | 2026-09-06 00:19:06 | 48.92471 | 18.41643 | 72° | 29km/h | 22180m | 6.2m/s | -53.7°C | 4.4% | 0hPa | 2.7V | 00:00:00 | 00:00:00 | 00:00:00 | |
| OE5MMP-10 | 2026-09-06 00:19:05 | 48.92468 | 18.41634 | 66° | 27km/h | 22174m | 5.5m/s | -53.7°C | 4.4% | 0hPa | 2.7V | 00:00:00 | 01:44:38 | 00:00:00 | |
| OE3OSB-13 | 2026-09-06 00:18:53 | 48.92456 | 18.41489 | 71° | 35km/h | 22107m | 5.4m/s | -54.2°C | 1.3% | -1.0hPa | 2.7V | 00:00:00 | 00:00:00 | 00:00:00 | |
| OE5DRO-10 | 2026-09-06 00:18:47 | 48.92448 | 18.41433 | 85° | 24km/h | 22081m | 6.2m/s | -54.2°C | 4.7% | 0hPa | 2.7V | 00:00:00 | 00:00:00 | 00:00:00 | |
| DO3MHA-11 | 2026-09-06 00:18:45 | 48.92447 | 18.41415 | 87° | 26km/h | 22069m | 5.5m/s | -54.1°C | 4.6% | 0hPa | 2.6V | 00:00:00 | 01:44:18 | 00:00:00 | |
| PETON7-10 | 2026-09-06 00:18:40 | 48.92446 | 18.41375 | 65° | 24km/h | 22042m | 6.1m/s | -53.9°C | 4.6% | 0hPa | 2.6V | 00:00:00 | 00:00:00 | 00:00:00 | |
| OE5MMP-10 | 2026-09-06 00:18:35 | 48.92431 | 18.41326 | 80° | 22km/h | 22015m | 5.0m/s | -53.6°C | 4.5% | 0hPa | 2.6V | 00:00:00 | 01:44:08 | 00:00:00 | |
| POL2MAQ | 2026-09-06 00:18:33 | 48.92430 | 18.41316 | 84° | 27km/h | 22010m | 5.2m/s | -53.6°C | 1.4% | 0hPa | 2.6V | 00:00:00 | 00:00:00 | 00:00:00 | |
| OE5DRO-10 | 2026-09-06 00:18:28 | 48.92426 | 18.41267 | 97° | 26km/h | 21976m | 5.4m/s | -53.5°C | 4.4% | 0hPa | 2.6V | 00:00:00 | 00:00:00 | 00:00:00 | |
| HA6NAB-11 | 2026-09-06 00:18:27 | 48.92426 | 18.41266 | 98° | 22km/h | 21976m | 5.5m/s | -53.6°C | 1.4% | 0hPa | 2.6V | 00:00:00 | 00:00:00 | 00:00:00 | |
| DO3MHA-11 | 2026-09-06 00:18:25 | 48.92426 | 18.41242 | 79° | 24km/h | 21957m | 5.7m/s | -53.4°C | 4.3% | 0hPa | 2.6V | 00:00:00 | 01:43:58 | 08:30:00 | |
| OE3OSB-13 | 2026-09-06 00:18:22 | 48.92423 | 18.41205 | 82° | 26km/h | 21933m | 5.2m/s | -53.4°C | 1.2% | -1.0hPa | 2.7V | 00:00:00 | 00:00:00 | 00:00:00 | |
| HA6NAB-11 | 2026-09-06 00:18:17 | 48.92420 | 18.41177 | 84° | 26km/h | 21917m | 4.7m/s | -53.3°C | 1.3% | 0hPa | 2.7V | 00:00:00 | 00:00:00 | 00:00:00 | |
| DO3MHA-11 | 2026-09-06 00:18:15 | 48.92420 | 18.41145 | 98° | 26km/h | 21899m | 5.3m/s | -53.4°C | 4.3% | 0hPa | 2.7V | 00:00:00 | 01:43:48 | 00:00:00 | |
| POL2MAQ | 2026-09-06 00:18:13 | 48.92421 | 18.41134 | 101° | 27km/h | 21893m | 6.6m/s | -53.5°C | 1.3% | 0hPa | 2.7V | 00:00:00 | 00:00:00 | 00:00:00 | |
| OE3MUC-15 | 2026-09-06 00:18:12 | 48.92423 | 18.41116 | 105° | 26km/h | 21881m | 5.3m/s | -53.4°C | 4.2% | 0hPa | 2.7V | 00:00:00 | 00:00:00 | 00:00:00 | |
| HA6NAB-11 | 2026-09-06 00:18:11 | 48.92423 | 18.41116 | 106° | 24km/h | 21881m | 5.3m/s | -53.5°C | 1.3% | 0hPa | 2.5V | 00:00:00 | 00:00:00 | 00:00:00 | |
| PETON7-10 | 2026-09-06 00:18:10 | 48.92427 | 18.41097 | 107° | 27km/h | 21869m | 5.5m/s | -53.5°C | 4.3% | 0hPa | 2.5V | 00:00:00 | 00:00:00 | 00:00:00 | |
| OE5DRO-10 | 2026-09-06 00:18:09 | 48.92429 | 18.41087 | 104° | 26km/h | 21865m | 3.9m/s | -53.7°C | 4.3% | 0hPa | 2.5V | 00:00:00 | 00:00:00 | 00:00:00 | |
| OE3MUC-15 | 2026-09-06 00:18:08 | 48.92430 | 18.41078 | 100° | 24km/h | 21860m | 5.3m/s | -53.8°C | 4.3% | 0hPa | 2.5V | 00:00:00 | 00:00:00 | 00:00:00 | |
| HA6NAB-11 | 2026-09-06 00:18:06 | 48.92430 | 18.41069 | 93° | 20km/h | 21854m | 6.8m/s | -54.0°C | 1.4% | 0hPa | 2.5V | 00:00:00 | 00:00:00 | 00:00:00 | |
| OE5MMP-10 | 2026-09-06 00:18:05 | 48.92428 | 18.41053 | 70° | 29km/h | 21843m | 4.9m/s | -54.0°C | 4.4% | 0hPa | 2.5V | 00:00:00 | 01:43:38 | 00:00:00 | |
| OE3OSB-13 | 2026-09-06 00:17:51 | 48.92405 | 18.40905 | 75° | 24km/h | 21757m | 4.7m/s | -54.0°C | 1.3% | -1.0hPa | 2.5V | 00:00:00 | 00:00:00 | 00:00:00 | |
| OE5DRO-10 | 2026-09-06 00:17:50 | 48.92405 | 18.40905 | 76° | 20km/h | 21757m | 4.6m/s | -54.0°C | 4.5% | 0hPa | 2.5V | 00:00:00 | 00:00:00 | 08:30:00 | |
| OE5MMP-10 | 2026-09-06 00:17:45 | 48.92390 | 18.40865 | 65° | 20km/h | 21727m | 6.2m/s | -54.0°C | 4.6% | 0hPa | 2.6V | 00:00:00 | 01:43:18 | 00:00:00 | |
| PETON7-10 | 2026-09-06 00:17:40 | 48.92384 | 18.40830 | 93° | 16km/h | 21698m | 6.0m/s | -53.9°C | 4.5% | 0hPa | 2.6V | 00:00:00 | 01:43:13 | 00:00:00 | |
| OE5MMP-10 | 2026-09-06 00:17:35 | 48.92381 | 18.40795 | 53° | 18km/h | 21669m | 6.1m/s | -53.7°C | 4.4% | 0hPa | 2.6V | 00:00:00 | 01:43:08 | 00:00:00 | |
| POL2MAQ | 2026-09-06 00:17:32 | 48.92375 | 18.40784 | 48° | 20km/h | 21657m | 6.7m/s | -53.7°C | 1.4% | 0hPa | 2.6V | 00:00:00 | 00:00:00 | 00:00:00 | |
| OE5DRO-10 | 2026-09-06 00:17:31 | 48.92369 | 18.40775 | 44° | 13km/h | 21646m | 4.9m/s | -53.6°C | 4.4% | 0hPa | 2.6V | 00:00:00 | 00:00:00 | 00:00:00 | |
| GYPAP8-17 | 2026-09-06 00:17:26 | 48.92361 | 18.40762 | 74° | 11km/h | 21622m | 7.5m/s | -53.5°C | 1.3% | 0hPa | 2.6V | 00:00:00 | 00:00:00 | 00:00:00 | |
| DO3MHA-11 | 2026-09-06 00:17:25 | 48.92359 | 18.40751 | 77° | 16km/h | 21610m | 5.4m/s | -53.4°C | 4.2% | 0hPa | 2.6V | 00:00:00 | 01:42:58 | 00:00:00 | |
| OE3OSB-13 | 2026-09-06 00:17:20 | 48.92348 | 18.40715 | 42° | 11km/h | 21575m | 6.0m/s | -53.8°C | 1.2% | -1.0hPa | 2.6V | 00:00:00 | 00:00:00 | 00:00:00 | |
| DO3MHA-11 | 2026-09-06 00:17:15 | 48.92339 | 18.40714 | 358° | 11km/h | 21553m | 6.4m/s | -53.7°C | 4.3% | 0hPa | 2.6V | 00:00:00 | 01:42:48 | 00:00:00 | |
| OE5DRO-10 | 2026-09-06 00:17:12 | 48.92338 | 18.40707 | 107° | 9km/h | 21534m | 6.3m/s | -53.7°C | 4.4% | 0hPa | 2.6V | 00:00:00 | 00:00:00 | 00:00:00 | |
| POL2MAQ | 2026-09-06 00:17:11 | 48.92337 | 18.40707 | 107° | 11km/h | 21534m | 6.3m/s | -53.7°C | 1.4% | 0hPa | 2.6V | 00:00:00 | 00:00:00 | 00:00:00 | |
| PETON7-10 | 2026-09-06 00:17:10 | 48.92340 | 18.40700 | 125° | 9km/h | 21521m | 5.8m/s | -53.8°C | 4.4% | 0hPa | 2.6V | 00:00:00 | 00:00:00 | 00:00:00 | |
| DO3MHA-11 | 2026-09-06 00:17:05 | 48.92345 | 18.40677 | 123° | 7km/h | 21495m | 5.6m/s | -54.0°C | 4.5% | 0hPa | 2.6V | 00:00:00 | 01:42:38 | 00:00:00 | |
| OE3OSB-13 | 2026-09-06 00:16:49 | 48.92369 | 18.40668 | 144° | 7km/h | 21396m | 5.4m/s | -53.7°C | 1.3% | -1.0hPa | 2.6V | 00:00:00 | 00:00:00 | 00:00:00 | |
| HA6NAB-11 | 2026-09-06 00:16:48 | 48.92367 | 18.40670 | 149° | 7km/h | 21402m | 6.5m/s | -53.8°C | 1.4% | 0hPa | 2.6V | 00:00:00 | 00:00:00 | 00:00:00 | |
| OE5DXL-15 | 2026-09-06 00:16:45 | 48.92376 | 18.40663 | 157° | 18km/h | 21378m | 5.1m/s | -53.5°C | 4.4% | 0hPa | 2.6V | 00:00:00 | 00:00:00 | 00:00:00 | |
| DO3MHA-11 | 2026-09-06 00:16:43 | 48.92382 | 18.40657 | 133° | 15km/h | 21366m | 6.9m/s | -53.5°C | 4.4% | 0hPa | 2.6V | 00:00:00 | 01:42:16 | 00:00:00 | |
| HA6NAB-11 | 2026-09-06 00:16:42 | 48.92382 | 18.40657 | 134° | 15km/h | 21366m | 7.0m/s | -53.5°C | 1.4% | 0hPa | 2.6V | 00:00:00 | 00:00:00 | 00:00:00 | |
| PETON7-10 | 2026-09-06 00:16:40 | 48.92389 | 18.40643 | 138° | 18km/h | 21348m | 7.2m/s | -53.4°C | 4.4% | 0hPa | 2.6V | 00:00:00 | 00:00:00 | 00:00:00 | |
| HA6NAB-11 | 2026-09-06 00:16:37 | 48.92395 | 18.40636 | 137° | 13km/h | 21337m | 5.8m/s | -53.3°C | 1.4% | 0hPa | 2.6V | 00:00:00 | 00:00:00 | 00:00:00 | |
| PG1ADW-2 | 2026-09-06 00:16:35 | 48.92401 | 18.40625 | 136° | 20km/h | 21320m | 5.3m/s | -53.2°C | 4.3% | 0hPa | 2.6V | 00:00:00 | 00:00:00 | 00:00:00 | |
| OE5DRO-10 | 2026-09-06 00:16:34 | 48.92404 | 18.40621 | 146° | 22km/h | 21314m | 7.1m/s | -53.1°C | 4.3% | 0hPa | 2.6V | 00:00:00 | 00:00:00 | 00:00:00 | |
| DO3MHA-11 | 2026-09-06 00:16:33 | 48.92407 | 18.40618 | 153° | 22km/h | 21308m | 5.5m/s | -53.1°C | 4.3% | 0hPa | 2.6V | 00:00:00 | 01:42:06 | 00:00:00 | |
| HA6NAB-11 | 2026-09-06 00:16:32 | 48.92407 | 18.40618 | 154° | 16km/h | 21308m | 5.6m/s | -53.1°C | 1.4% | 0hPa | 2.6V | 00:00:00 | 00:00:00 | 00:00:00 | |
| POL2MAQ | 2026-09-06 00:16:30 | 48.92415 | 18.40611 | 144° | 18km/h | 21296m | 6.8m/s | -53.0°C | 1.4% | 0hPa | 2.6V | 00:00:00 | 00:00:00 | 00:00:00 | |
| HA6NAB-11 | 2026-09-06 00:16:26 | 48.92428 | 18.40584 | 130° | 27km/h | 21273m | 6.1m/s | -53.0°C | 1.3% | 0hPa | 2.6V | 00:00:00 | 00:00:00 | 00:00:00 | |
| OE5MMP-10 | 2026-09-06 00:16:25 | 48.92438 | 18.40570 | 144° | 22km/h | 21262m | 4.4m/s | -53.0°C | 4.1% | 0hPa | 2.6V | 00:00:00 | 01:41:58 | 00:00:00 | |
| DO3MHA-11 | 2026-09-06 00:16:23 | 48.92447 | 18.40559 | 138° | 20km/h | 21252m | 6.2m/s | -52.9°C | 4.0% | 0hPa | 2.7V | 00:00:00 | 01:41:56 | 00:00:00 | |
| OE3MUC-15 | 2026-09-06 00:16:21 | 48.92452 | 18.40547 | 115° | 24km/h | 21240m | 5.5m/s | -52.9°C | 4.0% | 0hPa | 2.7V | 00:00:00 | 00:00:00 | 00:00:00 | |
| HA6NAB-11 | 2026-09-06 00:16:20 | 48.92453 | 18.40547 | 115° | 20km/h | 21240m | 5.5m/s | -52.9°C | 1.3% | 0hPa | 2.7V | 00:00:00 | 00:00:00 | 00:00:00 | |
| OE3OSB-13 | 2026-09-06 00:16:17 | 48.92464 | 18.40520 | 138° | 22km/h | 21219m | 4.4m/s | -53.1°C | 1.2% | -1.0hPa | 2.7V | 00:00:00 | 00:00:00 | 00:00:00 | |
| OE5MMP-10 | 2026-09-06 00:16:15 | 48.92472 | 18.40509 | 138° | 29km/h | 21208m | 6.5m/s | -53.1°C | 3.9% | 0hPa | 2.7V | 00:00:00 | 01:41:48 | 00:00:00 | |
| DO3MHA-11 | 2026-09-06 00:16:13 | 48.92480 | 18.40498 | 132° | 29km/h | 21198m | 4.0m/s | -53.2°C | 3.9% | 0hPa | 2.7V | 00:00:00 | 01:41:46 | 00:00:00 | |
| PETON7-10 | 2026-09-06 00:16:10 | 48.92496 | 18.40473 | 139° | 38km/h | 21182m | 4.6m/s | -53.8°C | 4.1% | 0hPa | 2.7V | 00:00:00 | 01:41:43 | 00:00:00 | |
| OE5MMP-10 | 2026-09-06 00:16:05 | 48.92526 | 18.40435 | 134° | 40km/h | 21155m | 6.6m/s | -55.5°C | 4.8% | 0hPa | 2.7V | 00:00:00 | 01:41:38 | 00:00:00 | |
| OE3MUC-15 | 2026-09-06 00:16:04 | 48.92531 | 18.40425 | 122° | 108km/h | 21149m | 5.3m/s | -55.6°C | 4.9% | 0hPa | 2.7V | 00:00:00 | 00:00:00 | 00:00:00 | |
| DO3MHA-11 | 2026-09-06 00:16:03 | 48.92535 | 18.40414 | 108° | 42km/h | 21144m | 5.2m/s | -55.6°C | 5.0% | 0hPa | 2.7V | 00:00:00 | 01:41:36 | 00:00:00 | |
| OE3OSB-13 | 2026-09-06 00:15:46 | 48.92569 | 18.40167 | 90° | 29km/h | 21046m | 6.6m/s | -55.1°C | 1.4% | -1.0hPa | 2.7V | 00:00:00 | 00:00:00 | 00:00:00 | |
| OE5MMP-10 | 2026-09-06 00:15:45 | 48.92569 | 18.40156 | 96° | 31km/h | 21041m | 4.2m/s | -55.0°C | 4.8% | 0hPa | 2.7V | 00:00:00 | 01:41:18 | 00:00:00 | |
| DO3MHA-11 | 2026-09-06 00:15:43 | 48.92572 | 18.40133 | 106° | 29km/h | 21031m | 6.0m/s | -55.0°C | 4.7% | 0hPa | 2.7V | 00:00:00 | 01:41:16 | 00:00:00 | |
| PETON7-10 | 2026-09-06 00:15:40 | 48.92579 | 18.40100 | 105° | 26km/h | 21014m | 6.6m/s | -54.9°C | 4.7% | 0hPa | 2.7V | 00:00:00 | 00:00:00 | 00:00:00 | |
| OE5DRO-10 | 2026-09-06 00:15:37 | 48.92582 | 18.40062 | 94° | 24km/h | 20998m | 6.3m/s | -54.8°C | 4.7% | 0hPa | 2.7V | 00:00:00 | 00:00:00 | 00:00:00 | |
| OE5MMP-10 | 2026-09-06 00:15:35 | 48.92582 | 18.40041 | 91° | 22km/h | 20987m | 4.0m/s | -54.7°C | 4.7% | 0hPa | 2.7V | 00:00:00 | 01:41:08 | 00:00:00 | |
| DO3MHA-11 | 2026-09-06 00:15:33 | 48.92600 | 18.40023 | 98° | 22km/h | 20976m | 6.5m/s | -54.6°C | 4.6% | 0hPa | 2.7V | 00:00:00 | 01:41:06 | 00:00:00 | |
| POL2MAQ | 2026-09-06 00:15:29 | 48.92588 | 18.39996 | 114° | 22km/h | 20960m | 7.0m/s | -54.6°C | 1.5% | 0hPa | 2.7V | 00:00:00 | 00:00:00 | 00:00:00 | |
| OE5MMP-10 | 2026-09-06 00:15:25 | 48.92599 | 18.39960 | 104° | 22km/h | 20931m | 4.9m/s | -54.6°C | 4.6% | 0hPa | 2.7V | 00:00:00 | 01:40:58 | 00:00:00 | |
| DO3MHA-11 | 2026-09-06 00:15:22 | 48.92600 | 18.39935 | 90° | 22km/h | 20914m | 5.0m/s | -54.5°C | 4.5% | 0hPa | 2.6V | 00:00:00 | 01:40:55 | 08:30:00 | |
| OE5DRO-10 | 2026-09-06 00:15:18 | 48.92602 | 18.39897 | 97° | 22km/h | 20892m | 6.5m/s | -54.6°C | 4.5% | 0hPa | 2.7V | 00:00:00 | 00:00:00 | 00:00:00 | |
| OE3OSB-13 | 2026-09-06 00:15:17 | 48.92604 | 18.39877 | 106° | 18km/h | 20874m | 6.6m/s | -54.7°C | 1.3% | -1.0hPa | 2.7V | 00:00:00 | 00:00:00 | 00:00:00 | |
| PG1ADW-2 | 2026-09-06 00:15:15 | 48.92604 | 18.39877 | 107° | 22km/h | 20875m | 6.5m/s | -54.6°C | 4.5% | 0hPa | 2.7V | 00:00:00 | 00:00:00 | 00:00:00 | |
| PETON7-10 | 2026-09-06 00:15:10 | 48.92605 | 18.39836 | 73° | 22km/h | 20846m | 5.0m/s | -54.6°C | 4.6% | 0hPa | 2.7V | 00:00:00 | 00:00:00 | 08:30:00 | |
| GYPAP8-17 | 2026-09-06 00:15:08 | 48.92603 | 18.39827 | 75° | 26km/h | 20840m | 6.7m/s | -54.6°C | 1.5% | 0hPa | 2.7V | 00:00:00 | 00:00:00 | 00:00:00 | |
| OE5MMP-10 | 2026-09-06 00:15:05 | 48.92594 | 18.39790 | 64° | 20km/h | 20818m | 5.6m/s | 0°C | 0% | 0hPa | 2.7V | 00:00:00 | 01:40:38 | 00:00:00 | |
| DO3MHA-11 | 2026-09-06 00:15:00 | 48.92590 | 18.39752 | 93° | 22km/h | 20790m | 6.2m/s | -54.6°C | 4.7% | 0hPa | 2.7V | 00:00:00 | 01:40:33 | 00:00:00 | |
| OE5DRO-10 | 2026-09-06 00:14:59 | 48.92590 | 18.39745 | 84° | 20km/h | 20784m | 6.2m/s | -54.6°C | 4.7% | 0hPa | 2.7V | 00:00:00 | 00:00:00 | 08:30:00 | |
| OE5MMP-10 | 2026-09-06 00:14:55 | 48.92582 | 18.39716 | 55° | 24km/h | 20761m | 5.3m/s | 0°C | 0% | 0hPa | 2.5V | 00:00:00 | 01:40:28 | 00:00:00 | |
| DO3MHA-11 | 2026-09-06 00:14:50 | 48.92565 | 18.39678 | 77° | 18km/h | 20731m | 4.7m/s | -54.4°C | 4.7% | 0hPa | 2.5V | 00:00:00 | 01:40:23 | 00:00:00 | |
| POL2MAQ | 2026-09-06 00:14:48 | 48.92564 | 18.39670 | 85° | 20km/h | 20726m | 6.1m/s | -54.4°C | 1.5% | 0hPa | 2.6V | 00:00:00 | 00:00:00 | 00:00:00 | |
| OE5MMP-10 | 2026-09-06 00:14:45 | 48.92565 | 18.39643 | 95° | 18km/h | 20701m | 4.8m/s | 0°C | 0% | 0hPa | 2.6V | 00:00:00 | 01:40:18 | 00:00:00 | |
| OE3OSB-13 | 2026-09-06 00:14:44 | 48.92565 | 18.39637 | 82° | 15km/h | 20696m | 5.0m/s | -54.2°C | 1.4% | -1.0hPa | 2.6V | 00:00:00 | 00:00:00 | 00:00:00 | |
| DO3MHA-11 | 2026-09-06 00:14:40 | 48.92556 | 18.39619 | 46° | 22km/h | 20672m | 6.9m/s | -53.9°C | 4.5% | 0hPa | 2.6V | 00:00:00 | 01:40:13 | 00:00:00 | |
| PG1ADW-2 | 2026-09-06 00:14:35 | 48.92538 | 18.39584 | 70° | 15km/h | 20643m | 6.2m/s | -53.6°C | 4.6% | 0hPa | 2.6V | 00:00:00 | 01:40:08 | 00:00:00 | |
| DO3MHA-11 | 2026-09-06 00:14:30 | 48.92539 | 18.39551 | 103° | 13km/h | 20614m | 5.2m/s | -53.3°C | 4.5% | 0hPa | 2.6V | 00:00:00 | 01:40:03 | 00:00:00 | |
| POL2MAQ | 2026-09-06 00:14:28 | 48.92540 | 18.39548 | 86° | 5km/h | 20608m | 5.3m/s | -53.3°C | 1.4% | 0hPa | 2.6V | 00:00:00 | 00:00:00 | 00:00:00 | |
| PETON7-10 | 2026-09-06 00:14:25 | 48.92534 | 18.39535 | 41° | 15km/h | 20584m | 6.6m/s | -53.1°C | 4.5% | 0hPa | 2.6V | 00:00:00 | 00:00:00 | 00:00:00 | |
| OE5DRO-10 | 2026-09-06 00:14:21 | 48.92527 | 18.39513 | 85° | 13km/h | 20561m | 4.7m/s | -52.8°C | 4.4% | 0hPa | 2.6V | 00:00:00 | 00:00:00 | 00:00:00 | |
| DO3MHA-11 | 2026-09-06 00:14:20 | 48.92526 | 18.39505 | 85° | 15km/h | 20556m | 5.7m/s | -52.8°C | 4.4% | 0hPa | 2.6V | 00:00:00 | 01:39:53 | 00:00:00 | |
| OE5MMP-10 | 2026-09-06 00:14:15 | 48.92526 | 18.39476 | 105° | 11km/h | 20526m | 5.5m/s | 0°C | 0% | 0hPa | 2.6V | 00:00:00 | 01:39:48 | 00:00:00 | |
| OE3OSB-13 | 2026-09-06 00:14:13 | 48.92526 | 18.39469 | 59° | 7km/h | 20514m | 6.8m/s | -52.5°C | 1.3% | -1.0hPa | 2.6V | 00:00:00 | 00:00:00 | 00:00:00 | |
| PETON7-10 | 2026-09-06 00:14:10 | 48.92520 | 18.39462 | 49° | 13km/h | 20498m | 6.7m/s | -52.3°C | 4.2% | 0hPa | 2.6V | 00:00:00 | 00:00:00 | 00:00:00 | |
| DO3MHA-11 | 2026-09-06 00:14:08 | 48.92518 | 18.39455 | 77° | 11km/h | 20487m | 4.7m/s | -52.2°C | 4.2% | 0hPa | 2.6V | 00:00:00 | 01:39:41 | 00:00:00 | |
| POL2MAQ | 2026-09-06 00:14:07 | 48.92518 | 18.39455 | 78° | 9km/h | 20487m | 4.7m/s | -52.2°C | 1.4% | 0hPa | 2.6V | 00:00:00 | 00:00:00 | 00:00:00 | |
| OE5MMP-10 | 2026-09-06 00:14:03 | 48.92516 | 18.39434 | 105° | 15km/h | 20457m | 7.0m/s | 0°C | 0% | 0hPa | 2.6V | 00:00:00 | 01:39:36 | 00:00:00 | |
| OE5DRO-10 | 2026-09-06 00:14:02 | 48.92517 | 18.39429 | 113° | 15km/h | 20451m | 5.3m/s | -51.9°C | 4.1% | 0hPa | 2.6V | 00:00:00 | 00:00:00 | 00:00:00 | |
| HA6NAB-11 | 2026-09-06 00:13:56 | 48.92520 | 18.39406 | 83° | 13km/h | 20423m | 7.0m/s | -51.8°C | 1.3% | 0hPa | 2.7V | 00:00:00 | 00:00:00 | 00:00:00 | |
| DO3MHA-11 | 2026-09-06 00:13:55 | 48.92519 | 18.39393 | 84° | 15km/h | 20410m | 4.7m/s | -51.7°C | 4.0% | 0hPa | 2.7V | 00:00:00 | 01:39:28 | 00:00:00 | |
| OE5MMP-10 | 2026-09-06 00:13:53 | 48.92518 | 18.39382 | 83° | 13km/h | 20398m | 5.9m/s | 0°C | 0% | 0hPa | 2.7V | 00:00:00 | 01:39:26 | 00:00:00 | |
| HA6NAB-11 | 2026-09-06 00:13:50 | 48.92519 | 18.39373 | 109° | 13km/h | 20386m | 7.1m/s | -51.7°C | 1.3% | 0hPa | 2.7V | 00:00:00 | 00:00:00 | 00:00:00 | |
| POL2MAQ | 2026-09-06 00:13:46 | 48.92525 | 18.39356 | 129° | 11km/h | 20364m | 4.3m/s | -51.7°C | 1.2% | 0hPa | 2.7V | 00:00:00 | 00:00:00 | 00:00:00 | |
| OE5DXL-15 | 2026-09-06 00:13:45 | 48.92529 | 18.39347 | 114° | 22km/h | 20354m | 6.4m/s | -51.6°C | 3.7% | 0hPa | 2.7V | 00:00:00 | 00:00:00 | 00:00:00 | |
| HA6NAB-11 | 2026-09-06 00:13:44 | 48.92529 | 18.39347 | 115° | 16km/h | 20354m | 6.4m/s | -51.6°C | 1.2% | 0hPa | 2.7V | 00:00:00 | 00:00:00 | 00:00:00 | |
| OE5DRO-10 | 2026-09-06 00:13:43 | 48.92531 | 18.39333 | 95° | 18km/h | 20343m | 5.1m/s | -51.7°C | 3.7% | 0hPa | 2.7V | 00:00:00 | 00:00:00 | 00:00:00 | |
| OE5MMP-10 | 2026-09-06 00:13:42 | 48.92531 | 18.39325 | 88° | 16km/h | 20337m | 6.4m/s | 0°C | 0% | 0hPa | 2.7V | 00:00:00 | 01:39:15 | 00:00:00 | |
| PETON7-10 | 2026-09-06 00:13:40 | 48.92530 | 18.39308 | 86° | 18km/h | 20327m | 3.7m/s | -52.0°C | 3.7% | 0hPa | 2.7V | 00:00:00 | 00:00:00 | 00:00:00 | |
| HA6NAB-11 | 2026-09-06 00:13:39 | 48.92530 | 18.39308 | 87° | 22km/h | 20327m | 3.7m/s | -52.0°C | 1.2% | 0hPa | 2.7V | 00:00:00 | 00:00:00 | 00:00:00 | |
| GYPAP8-17 | 2026-09-06 00:13:37 | 48.92531 | 18.39291 | 101° | 24km/h | 20316m | 5.8m/s | -52.2°C | 1.2% | 0hPa | 2.7V | 00:00:00 | 00:00:00 | 00:00:00 | |
| PG1ADW-2 | 2026-09-06 00:13:35 | 48.92535 | 18.39267 | 108° | 22km/h | 20300m | 6.7m/s | -52.4°C | 3.8% | 0hPa | 2.7V | 00:00:00 | 00:00:00 | 00:00:00 | |
| HA6NAB-11 | 2026-09-06 00:13:33 | 48.92536 | 18.39261 | 116° | 15km/h | 20294m | 4.4m/s | -52.6°C | 1.3% | 0hPa | 2.7V | 00:00:00 | 00:00:00 | 00:00:00 | |
| OE5MMP-10 | 2026-09-06 00:13:29 | 48.92546 | 18.39237 | 110° | 24km/h | 20268m | 6.0m/s | 0°C | 0% | 0hPa | 2.7V | 00:00:00 | 01:39:02 | 00:00:00 | |
| HA6NAB-11 | 2026-09-06 00:13:27 | 48.92547 | 18.39232 | 101° | 15km/h | 20262m | 4.2m/s | -54.4°C | 1.5% | 0hPa | 2.7V | 00:00:00 | 00:00:00 | 00:00:00 | |
| PETON7-10 | 2026-09-06 00:13:25 | 48.92551 | 18.39210 | 115° | 29km/h | 20247m | 6.6m/s | -54.5°C | 4.6% | 0hPa | 2.7V | 00:00:00 | 00:00:00 | 00:00:00 | |
| OE5DRO-10 | 2026-09-06 00:13:24 | 48.92554 | 18.39201 | 116° | 31km/h | 20241m | 4.4m/s | -54.5°C | 4.6% | 0hPa | 2.7V | 00:00:00 | 00:00:00 | 00:00:00 | |
| HA6NAB-11 | 2026-09-06 00:13:22 | 48.92558 | 18.39191 | 113° | 29km/h | 20236m | 6.5m/s | -54.6°C | 1.5% | 0hPa | 2.7V | 00:00:00 | 00:00:00 | 00:00:00 | |
| OE5MMP-10 | 2026-09-06 00:13:19 | 48.92567 | 18.39151 | 114° | 29km/h | 20214m | 4.7m/s | 0°C | 0% | 0hPa | 2.7V | 00:00:00 | 01:38:52 | 00:00:00 | |
| HA6NAB-11 | 2026-09-06 00:13:16 | 48.92572 | 18.39130 | 107° | 27km/h | 20203m | 6.2m/s | -54.5°C | 1.5% | 0hPa | 2.7V | 00:00:00 | 00:00:00 | 00:00:00 | |
| PG1ADW-2 | 2026-09-06 00:13:15 | 48.92576 | 18.39108 | 105° | 29km/h | 20193m | 4.9m/s | -54.4°C | 4.6% | 0hPa | 2.7V | 00:00:00 | 01:38:48 | 00:00:00 | |
| OE3OSB-13 | 2026-09-06 00:13:11 | 48.92588 | 18.39065 | 114° | 29km/h | 20171m | 6.0m/s | -54.4°C | 1.4% | -1.0hPa | 2.7V | 00:00:00 | 00:00:00 | 00:00:00 | |
| PETON7-10 | 2026-09-06 00:13:10 | 48.92591 | 18.39054 | 116° | 29km/h | 20166m | 4.8m/s | -54.3°C | 4.6% | 0hPa | 2.7V | 00:00:00 | 01:38:43 | 00:00:00 | |
| HA6NAB-11 | 2026-09-06 00:13:09 | 48.92591 | 18.39054 | 117° | 31km/h | 20166m | 4.9m/s | -54.3°C | 1.5% | 0hPa | 2.7V | 00:00:00 | 00:00:00 | 00:00:00 | |
| OE5DRO-10 | 2026-09-06 00:13:05 | 48.92612 | 18.38997 | 112° | 27km/h | 20140m | 5.8m/s | -54.3°C | 4.6% | 0hPa | 2.7V | 00:00:00 | 00:00:00 | 00:00:00 | |
| OE5MMP-10 | 2026-09-06 00:13:03 | 48.92617 | 18.38977 | 115° | 26km/h | 20131m | 5.4m/s | 0°C | 0% | 0hPa | 2.7V | 00:00:00 | 01:38:36 | 00:00:00 | |
| HA6NAB-11 | 2026-09-06 00:12:57 | 48.92633 | 18.38936 | 126° | 26km/h | 20103m | 4.6m/s | -54.1°C | 1.5% | 0hPa | 2.7V | 00:00:00 | 00:00:00 | 00:00:00 | |
| PETON7-10 | 2026-09-06 00:12:55 | 48.92646 | 18.38913 | 134° | 29km/h | 20088m | 4.4m/s | -54.0°C | 4.5% | 0hPa | 2.7V | 00:00:00 | 00:00:00 | 08:30:00 | |
| OE5MMP-10 | 2026-09-06 00:12:53 | 48.92655 | 18.38897 | 122° | 29km/h | 20076m | 5.6m/s | 0°C | 0% | 0hPa | 2.6V | 00:00:00 | 01:38:26 | 00:00:00 | |
| HA6NAB-11 | 2026-09-06 00:12:52 | 48.92654 | 18.38897 | 123° | 26km/h | 20076m | 5.7m/s | -54.1°C | 1.4% | 0hPa | 2.6V | 00:00:00 | 00:00:00 | 00:00:00 | |
| DO3MHA-11 | 2026-09-06 00:12:47 | 48.92682 | 18.38845 | 128° | 31km/h | 20044m | 5.5m/s | -54.1°C | 4.5% | 0hPa | 2.6V | 00:00:00 | 01:38:20 | 08:30:00 | |
| OE5DRO-10 | 2026-09-06 00:12:46 | 48.92686 | 18.38836 | 131° | 27km/h | 20038m | 4.8m/s | -54.1°C | 4.5% | 0hPa | 2.7V | 00:00:00 | 00:00:00 | 00:00:00 | |
| OE5DXL-15 | 2026-09-06 00:12:45 | 48.92691 | 18.38829 | 136° | 27km/h | 20033m | 6.5m/s | -54.1°C | 4.5% | 0hPa | 2.7V | 00:00:00 | 00:00:00 | 00:00:00 | |
| POL2MAQ | 2026-09-06 00:12:44 | 48.92691 | 18.38829 | 137° | 27km/h | 20033m | 6.6m/s | -54.2°C | 1.5% | 0hPa | 2.6V | 00:00:00 | 00:00:00 | 00:00:00 | |
| OE5MMP-10 | 2026-09-06 00:12:43 | 48.92702 | 18.38814 | 136° | 31km/h | 20021m | 5.8m/s | 0°C | 0% | 0hPa | 2.6V | 00:00:00 | 01:38:16 | 00:00:00 | |
| HA6NAB-11 | 2026-09-06 00:12:41 | 48.92707 | 18.38806 | 130° | 29km/h | 20015m | 6.9m/s | -54.2°C | 1.5% | 0hPa | 2.6V | 00:00:00 | 00:00:00 | 00:00:00 | |
| PETON7-10 | 2026-09-06 00:12:40 | 48.92716 | 18.38786 | 126° | 27km/h | 20004m | 5.7m/s | -54.1°C | 4.5% | 0hPa | 2.6V | 00:00:00 | 00:00:00 | 00:00:00 | |
| DO3MHA-11 | 2026-09-06 00:12:36 | 48.92736 | 18.38742 | 121° | 24km/h | 19980m | 5.4m/s | -54.0°C | 4.5% | 0hPa | 2.6V | 00:00:00 | 01:38:09 | 00:00:00 | |
| PG1ADW-2 | 2026-09-06 00:12:35 | 48.92740 | 18.38731 | 122° | 26km/h | 19975m | 4.0m/s | -54.0°C | 4.5% | 0hPa | 2.6V | 00:00:00 | 00:00:00 | 00:00:00 | |
| HA6NAB-11 | 2026-09-06 00:12:34 | 48.92740 | 18.38731 | 123° | 31km/h | 19975m | 4.1m/s | -54.0°C | 1.5% | 0hPa | 2.6V | 00:00:00 | 00:00:00 | 00:00:00 | |
| OE5DRO-10 | 2026-09-06 00:12:27 | 48.92767 | 18.38675 | 113° | 29km/h | 19932m | 5.9m/s | -53.8°C | 4.3% | 0hPa | 2.6V | 00:00:00 | 00:00:00 | 00:00:00 | |
| PETON7-10 | 2026-09-06 00:12:25 | 48.92774 | 18.38656 | 122° | 27km/h | 19921m | 4.8m/s | -53.7°C | 4.3% | 0hPa | 2.6V | 00:00:00 | 01:37:58 | 00:00:00 | |
| DO3MHA-11 | 2026-09-06 00:12:24 | 48.92778 | 18.38646 | 121° | 27km/h | 19915m | 5.6m/s | -53.7°C | 4.3% | 0hPa | 2.6V | 00:00:00 | 01:37:57 | 00:00:00 | |
| OE5DXL-15 | 2026-09-06 00:12:15 | 48.92804 | 18.38562 | 97° | 29km/h | 19862m | 6.6m/s | -53.9°C | 4.4% | 0hPa | 2.6V | 00:00:00 | 00:00:00 | 00:00:00 | |
| DO3MHA-11 | 2026-09-06 00:12:14 | 48.92805 | 18.38551 | 98° | 31km/h | 19856m | 6.3m/s | -53.8°C | 4.4% | 0hPa | 2.6V | 00:00:00 | 01:37:47 | 00:00:00 | |
| PETON7-10 | 2026-09-06 00:12:10 | 48.92808 | 18.38506 | 96° | 27km/h | 19833m | 5.2m/s | -53.8°C | 4.4% | 0hPa | 2.6V | 00:00:00 | 00:00:00 | 00:00:00 | |
| OE3OSB-13 | 2026-09-06 00:12:09 | 48.92810 | 18.38480 | 100° | 35km/h | 19820m | 5.5m/s | -53.9°C | 1.3% | -1.0hPa | 2.6V | 00:00:00 | 00:00:00 | 00:00:00 | |
| OE5DRO-10 | 2026-09-06 00:12:08 | 48.92810 | 18.38480 | 101° | 27km/h | 19820m | 5.5m/s | -53.9°C | 4.4% | 0hPa | 2.6V | 00:00:00 | 00:00:00 | 08:30:00 | |
| DO3MHA-11 | 2026-09-06 00:12:04 | 48.92817 | 18.38435 | 103° | 24km/h | 19797m | 5.3m/s | -53.8°C | 4.4% | 0hPa | 2.7V | 00:00:00 | 01:37:37 | 00:00:00 | |
| PETON7-10 | 2026-09-06 00:11:55 | 48.92824 | 18.38352 | 109° | 35km/h | 19743m | 6.4m/s | -54.1°C | 4.5% | 0hPa | 2.7V | 00:00:00 | 00:00:00 | 00:00:00 | |
| DO3MHA-11 | 2026-09-06 00:11:54 | 48.92827 | 18.38341 | 110° | 35km/h | 19737m | 6.2m/s | -54.1°C | 4.5% | 0hPa | 2.7V | 00:00:00 | 01:37:27 | 00:00:00 | |
| OE5DRO-10 | 2026-09-06 00:11:49 | 48.92836 | 18.38280 | 93° | 35km/h | 19704m | 6.0m/s | -54.1°C | 4.5% | 0hPa | 2.7V | 00:00:00 | 00:00:00 | 00:00:00 | |
| OE5DXL-15 | 2026-09-06 00:11:45 | 48.92834 | 18.38222 | 85° | 29km/h | 19677m | 6.8m/s | -54.1°C | 4.5% | 0hPa | 2.7V | 00:00:00 | 00:00:00 | 00:00:00 | |
| DO3MHA-11 | 2026-09-06 00:11:44 | 48.92833 | 18.38207 | 90° | 33km/h | 19670m | 6.3m/s | -54.1°C | 4.5% | 0hPa | 2.7V | 00:00:00 | 01:37:17 | 00:00:00 | |
| POL2MAQ | 2026-09-06 00:11:43 | 48.92833 | 18.38207 | 90° | 38km/h | 19670m | 6.3m/s | -54.1°C | 1.5% | 0hPa | 2.7V | 00:00:00 | 00:00:00 | 00:00:00 | |
| PETON7-10 | 2026-09-06 00:11:40 | 48.92838 | 18.38156 | 110° | 31km/h | 19644m | 6.4m/s | -54.0°C | 4.5% | 0hPa | 2.7V | 00:00:00 | 01:37:13 | 00:00:00 | |
| OE3OSB-13 | 2026-09-06 00:11:38 | 48.92845 | 18.38121 | 97° | 31km/h | 19626m | 4.9m/s | -54.0°C | 1.4% | -1.0hPa | 2.7V | 00:00:00 | 00:00:00 | 00:00:00 | |
| PG1ADW-2 | 2026-09-06 00:11:35 | 48.92845 | 18.38099 | 76° | 27km/h | 19613m | 5.9m/s | -54.0°C | 4.5% | 0hPa | 2.7V | 00:00:00 | 00:00:00 | 00:00:00 | |
| OE5DRO-10 | 2026-09-06 00:11:30 | 48.92832 | 18.38040 | 72° | 27km/h | 19582m | 7.0m/s | -53.9°C | 4.6% | 0hPa | 2.7V | 00:00:00 | 00:00:00 | 00:00:00 | |
| PETON7-10 | 2026-09-06 00:11:25 | 48.92830 | 18.37980 | 103° | 26km/h | 19553m | 5.7m/s | -53.7°C | 4.6% | 0hPa | 2.7V | 00:00:00 | 00:00:00 | 00:00:00 | |
| DO3MHA-11 | 2026-09-06 00:11:24 | 48.92832 | 18.37970 | 103° | 24km/h | 19546m | 7.0m/s | -53.6°C | 4.5% | 0hPa | 2.6V | 00:00:00 | 01:36:57 | 00:00:00 | |
| POL2MAQ | 2026-09-06 00:11:22 | 48.92833 | 18.37960 | 97° | 22km/h | 19540m | 6.0m/s | -53.6°C | 1.5% | 0hPa | 2.6V | 00:00:00 | 00:00:00 | 00:00:00 | |
| PG1ADW-2 | 2026-09-06 00:11:15 | 48.92829 | 18.37889 | 93° | 26km/h | 19492m | 5.7m/s | -53.2°C | 4.4% | 0hPa | 2.6V | 00:00:00 | 00:00:00 | 00:00:00 | |
| DO3MHA-11 | 2026-09-06 00:11:14 | 48.92830 | 18.37879 | 98° | 27km/h | 19485m | 7.4m/s | -53.1°C | 4.4% | 0hPa | 2.6V | 00:00:00 | 01:36:47 | 08:30:00 | |
| OE5DRO-10 | 2026-09-06 00:11:11 | 48.92836 | 18.37844 | 109° | 26km/h | 19468m | 7.1m/s | -53.0°C | 4.3% | 0hPa | 2.7V | 00:00:00 | 00:00:00 | 00:00:00 | |
| PETON7-10 | 2026-09-06 00:11:10 | 48.92838 | 18.37834 | 110° | 24km/h | 19461m | 6.3m/s | -52.9°C | 4.4% | 0hPa | 2.6V | 00:00:00 | 00:00:00 | 00:00:00 | |
| OE3OSB-13 | 2026-09-06 00:11:07 | 48.92844 | 18.37798 | 94° | 26km/h | 19437m | 5.9m/s | -52.8°C | 1.3% | -1.0hPa | 2.6V | 00:00:00 | 00:00:00 | 00:00:00 | |
| DO3MHA-11 | 2026-09-06 00:11:04 | 48.92844 | 18.37779 | 89° | 24km/h | 19425m | 7.5m/s | 0°C | 0% | 0hPa | 2.6V | 00:00:00 | 01:36:37 | 00:00:00 | |
| POL2MAQ | 2026-09-06 00:11:01 | 48.92844 | 18.37762 | 94° | 22km/h | 19412m | 6.7m/s | -52.6°C | 1.4% | 0hPa | 2.6V | 00:00:00 | 00:00:00 | 00:00:00 | |
| HA6NAB-11 | 2026-09-06 00:11:00 | 48.92845 | 18.37753 | 100° | 26km/h | 19406m | 6.2m/s | -52.6°C | 1.4% | 0hPa | 2.6V | 00:00:00 | 00:00:00 | 00:00:00 | |
| PETON7-10 | 2026-09-06 00:10:55 | 48.92854 | 18.37701 | 116° | 27km/h | 19370m | 8.8m/s | -52.3°C | 4.2% | 0hPa | 2.6V | 00:00:00 | 01:36:28 | 00:00:00 | |
| DO3MHA-11 | 2026-09-06 00:10:54 | 48.92857 | 18.37691 | 117° | 27km/h | 19363m | 4.8m/s | 0°C | 0% | 0hPa | 2.6V | 00:00:00 | 01:36:27 | 00:00:00 | |
| OE5DRO-10 | 2026-09-06 00:10:52 | 48.92862 | 18.37671 | 109° | 29km/h | 19350m | 8.0m/s | -52.2°C | 4.1% | 0hPa | 2.6V | 00:00:00 | 00:00:00 | 00:00:00 | |
| HA6NAB-11 | 2026-09-06 00:10:49 | 48.92866 | 18.37650 | 104° | 27km/h | 19336m | 5.7m/s | -52.2°C | 1.4% | 0hPa | 2.6V | 00:00:00 | 00:00:00 | 00:00:00 | |
| OE5DXL-15 | 2026-09-06 00:10:45 | 48.92879 | 18.37606 | 125° | 38km/h | 19303m | 7.0m/s | -52.0°C | 4.2% | 0hPa | 2.6V | 00:00:00 | 00:00:00 | 00:00:00 | |
| DO3MHA-11 | 2026-09-06 00:10:44 | 48.92882 | 18.37599 | 133° | 33km/h | 19298m | 3.7m/s | 0°C | 0% | 0hPa | 2.6V | 00:00:00 | 01:36:17 | 00:00:00 | |
| POL2MAQ | 2026-09-06 00:10:42 | 48.92892 | 18.37584 | 138° | 35km/h | 19284m | 8.7m/s | -51.9°C | 1.4% | 0hPa | 2.6V | 00:00:00 | 00:00:00 | 00:00:00 | |
| PETON7-10 | 2026-09-06 00:10:40 | 48.92906 | 18.37562 | 133° | 37km/h | 19270m | 6.6m/s | -51.9°C | 4.1% | 0hPa | 2.6V | 00:00:00 | 00:00:00 | 08:30:00 | |
| HA6NAB-11 | 2026-09-06 00:10:38 | 48.92913 | 18.37551 | 135° | 38km/h | 19263m | 7.4m/s | -51.9°C | 1.4% | 0hPa | 2.7V | 00:00:00 | 00:00:00 | 00:00:00 | |
| OE3OSB-13 | 2026-09-06 00:10:36 | 48.92937 | 18.37519 | 137° | 29km/h | 19236m | 8.1m/s | -51.9°C | 1.2% | -1.0hPa | 2.7V | 00:00:00 | 00:00:00 | 00:00:00 | |
| PG1ADW-2 | 2026-09-06 00:10:35 | 48.92936 | 18.37519 | 138° | 42km/h | 19236m | 8.0m/s | -51.8°C | 4.0% | 0hPa | 2.7V | 00:00:00 | 01:36:08 | 00:00:00 | |
| DO3MHA-11 | 2026-09-06 00:10:34 | 48.92942 | 18.37510 | 134° | 38km/h | 19229m | 6.5m/s | 0°C | 0% | 0hPa | 2.7V | 00:00:00 | 01:36:07 | 00:00:00 | |
| OE5DRO-10 | 2026-09-06 00:10:33 | 48.92948 | 18.37501 | 129° | 44km/h | 19222m | 6.9m/s | -51.8°C | 4.0% | 0hPa | 2.7V | 00:00:00 | 00:00:00 | 00:00:00 | |
| HA6NAB-11 | 2026-09-06 00:10:26 | 48.92988 | 18.37440 | 142° | 44km/h | 19179m | 7.0m/s | -51.8°C | 1.3% | 0hPa | 2.7V | 00:00:00 | 00:00:00 | 00:00:00 | |
| PETON7-10 | 2026-09-06 00:10:25 | 48.93005 | 18.37419 | 142° | 47km/h | 19166m | 5.4m/s | -51.7°C | 3.9% | 0hPa | 2.7V | 00:00:00 | 00:00:00 | 00:00:00 | |
| DO3MHA-11 | 2026-09-06 00:10:24 | 48.93013 | 18.37410 | 145° | 49km/h | 19160m | 6.2m/s | 0°C | 0% | 0hPa | 2.7V | 00:00:00 | 01:35:57 | 00:00:00 | |
| OE3JTB-15 | 2026-09-06 00:10:23 | 48.93022 | 18.37401 | 149° | 57km/h | 19152m | 7.9m/s | -51.7°C | 3.9% | 0hPa | 2.7V | 00:00:00 | 00:00:00 | 00:00:00 | |
| POL2MAQ | 2026-09-06 00:10:20 | 48.93042 | 18.37382 | 147° | 49km/h | 19140m | 6.5m/s | -51.8°C | 1.3% | 0hPa | 2.7V | 00:00:00 | 00:00:00 | 00:00:00 | |
| OE5DXL-15 | 2026-09-06 00:10:15 | 48.93101 | 18.37306 | 141° | 55km/h | 19106m | 6.4m/s | -52.2°C | 3.9% | 0hPa | 2.7V | 00:00:00 | 00:00:00 | 00:00:00 | |
| OE5DRO-10 | 2026-09-06 00:10:14 | 48.93111 | 18.37294 | 141° | 57km/h | 19099m | 6.2m/s | -52.4°C | 4.0% | 0hPa | 2.7V | 00:00:00 | 00:00:00 | 00:00:00 | |
| HA6NAB-11 | 2026-09-06 00:10:13 | 48.93111 | 18.37294 | 142° | 47km/h | 19099m | 6.3m/s | -52.5°C | 1.4% | 0hPa | 2.6V | 00:00:00 | 00:00:00 | 00:00:00 | |
| PETON7-10 | 2026-09-06 00:10:10 | 48.93151 | 18.37251 | 146° | 58km/h | 19077m | 5.0m/s | -52.9°C | 4.2% | 0hPa | 2.6V | 00:00:00 | 01:35:43 | 00:00:00 | |
| HA6NAB-11 | 2026-09-06 00:10:08 | 48.93173 | 18.37225 | 141° | 57km/h | 19066m | 5.6m/s | -53.0°C | 1.4% | 0hPa | 2.6V | 00:00:00 | 00:00:00 | 00:00:00 | |
| OE3OSB-13 | 2026-09-06 00:10:04 | 48.93219 | 18.37159 | 133° | 64km/h | 19043m | 5.0m/s | -53.0°C | 1.3% | -1.0hPa | 2.6V | 00:00:00 | 00:00:00 | 00:00:00 | |
| GYPAP8-17 | 2026-09-06 00:10:01 | 48.93240 | 18.37124 | 131° | 58km/h | 19032m | 5.3m/s | -53.0°C | 1.4% | 0hPa | 2.6V | 00:00:00 | 00:00:00 | 00:00:00 | |
| POL2MAQ | 2026-09-06 00:09:59 | 48.93259 | 18.37091 | 134° | 58km/h | 19021m | 6.6m/s | -53.1°C | 1.4% | 0hPa | 2.6V | 00:00:00 | 00:00:00 | 00:00:00 | |
| HA6NAB-11 | 2026-09-06 00:09:56 | 48.93288 | 18.37045 | 135° | 53km/h | 19005m | 7.1m/s | -53.1°C | 1.4% | 0hPa | 2.6V | 00:00:00 | 00:00:00 | 00:00:00 | |
| PG1ADW-2 | 2026-09-06 00:09:55 | 48.93307 | 18.37017 | 138° | 46km/h | 18995m | 5.0m/s | -53.0°C | 4.2% | 0hPa | 2.6V | 00:00:00 | 00:00:00 | 00:00:00 | |
| OE3JTB-15 | 2026-09-06 00:09:54 | 48.93317 | 18.37004 | 140° | 49km/h | 18989m | 6.0m/s | -53.0°C | 4.2% | 0hPa | 2.6V | 00:00:00 | 01:35:27 | 00:00:00 | |
| HA6NAB-11 | 2026-09-06 00:09:49 | 48.93356 | 18.36950 | 137° | 51km/h | 18968m | 4.1m/s | -53.2°C | 1.4% | 0hPa | 2.6V | 00:00:00 | 00:00:00 | 00:00:00 | |
| OE5DXL-15 | 2026-09-06 00:09:45 | 48.93403 | 18.36886 | 137° | 53km/h | 18941m | 5.5m/s | -53.5°C | 4.3% | 0hPa | 2.6V | 00:00:00 | 00:00:00 | 08:30:00 | |
| HA6NAB-11 | 2026-09-06 00:09:43 | 48.93411 | 18.36875 | 138° | 42km/h | 18935m | 4.4m/s | -53.6°C | 1.5% | 0hPa | 2.6V | 00:00:00 | 00:00:00 | 00:00:00 | |
| PETON7-10 | 2026-09-06 00:09:40 | 48.93440 | 18.36836 | 136° | 49km/h | 18914m | 5.7m/s | -53.7°C | 4.3% | 0hPa | 2.6V | 00:00:00 | 00:00:00 | 00:00:00 | |
| POL2MAQ | 2026-09-06 00:09:39 | 48.93440 | 18.36836 | 137° | 37km/h | 18914m | 5.8m/s | -53.8°C | 1.5% | 0hPa | 2.6V | 00:00:00 | 00:00:00 | 00:00:00 | |
| OE5DRO-10 | 2026-09-06 00:09:36 | 48.93471 | 18.36795 | 143° | 58km/h | 18895m | 4.6m/s | -53.9°C | 4.4% | 0hPa | 2.6V | 00:00:00 | 00:00:00 | 00:00:00 | |
| PG1ADW-2 | 2026-09-06 00:09:35 | 48.93482 | 18.36783 | 143° | 60km/h | 18890m | 4.2m/s | -53.9°C | 4.3% | 0hPa | 2.6V | 00:00:00 | 00:00:00 | 00:00:00 | |
| OE3OSB-13 | 2026-09-06 00:09:34 | 48.93501 | 18.36758 | 136° | 49km/h | 18879m | 5.8m/s | -54.1°C | 1.3% | -1.0hPa | 2.6V | 00:00:00 | 00:00:00 | 00:00:00 | |
| SQ9EZE-14 | 2026-09-06 00:09:30 | 48.93518 | 18.36729 | 130° | 51km/h | 18870m | 4.0m/s | 0°C | 0% | 0hPa | 2.6V | 00:00:00 | 00:00:00 | 00:00:00 | |
| PETON7-10 | 2026-09-06 00:09:25 | 48.93569 | 18.36630 | 119° | 68km/h | 18835m | 4.8m/s | -55.3°C | 4.9% | 0hPa | 2.6V | 00:00:00 | 01:34:58 | 00:00:00 | |
| POL2MAQ | 2026-09-06 00:09:19 | 48.93607 | 18.36515 | 115° | 71km/h | 18804m | 5.7m/s | -55.1°C | 1.6% | 0hPa | 2.6V | 00:00:00 | 00:00:00 | 00:00:00 | |
| OE5DRO-10 | 2026-09-06 00:09:17 | 48.93631 | 18.36443 | 121° | 64km/h | 18789m | 3.5m/s | -54.9°C | 4.7% | 0hPa | 2.6V | 00:00:00 | 00:00:00 | 08:30:00 | |
| PG1ADW-2 | 2026-09-06 00:09:15 | 48.93648 | 18.36398 | 118° | 64km/h | 18780m | 5.1m/s | -54.8°C | 4.7% | 0hPa | 2.6V | 00:00:00 | 01:34:48 | 00:00:00 | |
| PETON7-10 | 2026-09-06 00:09:10 | 48.93685 | 18.36286 | 113° | 62km/h | 18755m | 5.8m/s | -54.7°C | 4.6% | 0hPa | 2.6V | 00:00:00 | 00:00:00 | 00:00:00 | |
| OE3OSB-13 | 2026-09-06 00:09:02 | 48.93743 | 18.36119 | 120° | 58km/h | 18718m | 4.9m/s | -54.7°C | 1.4% | -1.0hPa | 2.7V | 00:00:00 | 00:00:00 | 00:00:00 | |
| GYPAP8-17 | 2026-09-06 00:08:59 | 48.93759 | 18.36079 | 122° | 66km/h | 18708m | 3.5m/s | -54.8°C | 1.5% | 0hPa | 2.7V | 00:00:00 | 00:00:00 | 00:00:00 | |
| OE5DRO-10 | 2026-09-06 00:08:58 | 48.93775 | 18.36034 | 115° | 55km/h | 18699m | 6.2m/s | -54.8°C | 4.4% | 0hPa | 2.7V | 00:00:00 | 00:00:00 | 00:00:00 | |
| PETON7-10 | 2026-09-06 00:08:55 | 48.93792 | 18.35964 | 111° | 49km/h | 18686m | 4.5m/s | -54.9°C | 4.5% | 0hPa | 2.7V | 00:00:00 | 00:00:00 | 00:00:00 | |
| OE3JTB-15 | 2026-09-06 00:08:49 | 48.93833 | 18.35849 | 125° | 51km/h | 18658m | 3.8m/s | -55.5°C | 4.8% | 0hPa | 2.7V | 00:00:00 | 00:00:00 | 00:00:00 | |
| OE5DXL-15 | 2026-09-06 00:08:45 | 48.93866 | 18.35788 | 128° | 53km/h | 18639m | 5.0m/s | -55.5°C | 4.7% | 0hPa | 2.7V | 00:00:00 | 00:00:00 | 00:00:00 | |
| OE5DRO-10 | 2026-09-06 00:08:39 | 48.93900 | 18.35697 | 117° | 51km/h | 18610m | 3.9m/s | -55.8°C | 4.7% | 0hPa | 2.7V | 00:00:00 | 00:00:00 | 00:00:00 | |
| POL2MAQ | 2026-09-06 00:08:37 | 48.93905 | 18.35683 | 115° | 40km/h | 18605m | 6.3m/s | -55.9°C | 1.6% | 0hPa | 2.7V | 00:00:00 | 00:00:00 | 00:00:00 | |
| PG1ADW-2 | 2026-09-06 00:08:35 | 48.93920 | 18.35640 | 126° | 57km/h | 18591m | 5.6m/s | -55.9°C | 4.7% | 0hPa | 2.7V | 00:00:00 | 00:00:00 | 00:00:00 | |
| OE3OSB-13 | 2026-09-06 00:08:31 | 48.93951 | 18.35582 | 123° | 53km/h | 18571m | 7.0m/s | -56.1°C | 1.5% | -1.0hPa | 2.7V | 00:00:00 | 00:00:00 | 00:00:00 | |
| PETON7-10 | 2026-09-06 00:08:23 | 48.93994 | 18.35425 | 112° | 68km/h | 18524m | 7.1m/s | -56.5°C | 4.9% | 0hPa | 2.7V | 00:00:00 | 00:00:00 | 08:30:00 | |
| OE5DRO-10 | 2026-09-06 00:08:20 | 48.94008 | 18.35363 | 108° | 71km/h | 18507m | 7.7m/s | -56.5°C | 4.9% | 0hPa | 2.6V | 00:00:00 | 00:00:00 | 00:00:00 | |
| POL2MAQ | 2026-09-06 00:08:17 | 48.94017 | 18.35317 | 106° | 66km/h | 18493m | 5.7m/s | -56.6°C | 1.7% | 0hPa | 2.6V | 00:00:00 | 00:00:00 | 00:00:00 | |
| PG1ADW-2 | 2026-09-06 00:08:15 | 48.94027 | 18.35239 | 101° | 69km/h | 18475m | 6.1m/s | -56.8°C | 5.0% | 0hPa | 2.6V | 00:00:00 | 00:00:00 | 00:00:00 | |
| PETON7-10 | 2026-09-06 00:08:08 | 48.94052 | 18.35047 | 104° | 68km/h | 18433m | 5.0m/s | -57.1°C | 5.2% | 0hPa | 2.6V | 00:00:00 | 00:00:00 | 00:00:00 | |
| OE3OSB-13 | 2026-09-06 00:08:00 | 48.94145 | 18.34487 | 104° | 66km/h | 18311m | 3.1m/s | -57.6°C | 1.7% | -1.0hPa | 2.6V | 00:00:00 | 00:00:00 | 00:00:00 | |
| POL2MAQ | 2026-09-06 00:07:56 | 48.94100 | 18.34765 | 111° | 66km/h | 18372m | 4.5m/s | -57.4°C | 1.8% | 0hPa | 2.6V | 00:00:00 | 00:00:00 | 00:00:00 | |
| PG1ADW-2 | 2026-09-06 00:07:55 | 48.94110 | 18.34719 | 107° | 64km/h | 18362m | 6.6m/s | -57.4°C | 5.2% | 0hPa | 2.6V | 00:00:00 | 01:33:28 | 00:00:00 | |
| GYPAP8-17 | 2026-09-06 00:07:54 | 48.94110 | 18.34719 | 107° | 60km/h | 18362m | 6.6m/s | -57.5°C | 1.8% | 0hPa | 2.6V | 00:00:00 | 00:00:00 | 00:00:00 | |
| PETON7-10 | 2026-09-06 00:07:53 | 48.94117 | 18.34674 | 103° | 64km/h | 18351m | 5.1m/s | -57.4°C | 5.3% | 0hPa | 2.6V | 00:00:00 | 01:33:26 | 00:00:00 | |
| OE3JTB-15 | 2026-09-06 00:07:51 | 48.94124 | 18.34628 | 103° | 64km/h | 18341m | 4.7m/s | -57.5°C | 5.3% | 0hPa | 2.6V | 00:00:00 | 00:00:00 | 00:00:00 | |
| OE5DXL-15 | 2026-09-06 00:07:45 | 48.94145 | 18.34487 | 105° | 62km/h | 18311m | 3.1m/s | -57.6°C | 5.4% | 0hPa | 2.7V | 00:00:00 | 00:00:00 | 00:00:00 | |
| OE5DRO-10 | 2026-09-06 00:07:42 | 48.94153 | 18.34413 | 96° | 64km/h | 18296m | 4.6m/s | -57.5°C | 5.4% | 0hPa | 2.7V | 00:00:00 | 00:00:00 | 00:00:00 | |
| PETON7-10 | 2026-09-06 00:07:38 | 48.94160 | 18.34312 | 98° | 62km/h | 18277m | 6.3m/s | -57.4°C | 5.3% | 0hPa | 2.7V | 00:00:00 | 00:00:00 | 00:00:00 | |
| PG1ADW-2 | 2026-09-06 00:07:35 | 48.94169 | 18.34244 | 103° | 60km/h | 18261m | 5.6m/s | -57.3°C | 5.3% | 0hPa | 2.6V | 00:00:00 | 00:00:00 | 00:00:00 | |
| OE3OSB-13 | 2026-09-06 00:07:29 | 48.94184 | 18.34102 | 91° | 66km/h | 18230m | 6.2m/s | -57.2°C | 1.7% | -1.0hPa | 2.6V | 00:00:00 | 00:00:00 | 00:00:00 | |
| DO3MHA-11 | 2026-09-06 00:07:24 | 48.94186 | 18.33982 | 95° | 58km/h | 18204m | 5.9m/s | 0°C | 0% | 0hPa | 2.6V | 00:00:00 | 01:32:57 | 00:00:00 | |
| PETON7-10 | 2026-09-06 00:07:23 | 48.94188 | 18.33958 | 97° | 58km/h | 18198m | 5.1m/s | -56.9°C | 5.2% | 0hPa | 2.6V | 00:00:00 | 00:00:00 | 00:00:00 | |
| OE3JTB-15 | 2026-09-06 00:07:22 | 48.94190 | 18.33936 | 98° | 58km/h | 18193m | 5.2m/s | -56.9°C | 5.2% | 0hPa | 2.6V | 00:00:00 | 00:00:00 | 00:00:00 | |
| PG1ADW-2 | 2026-09-06 00:07:15 | 48.94198 | 18.33781 | 89° | 58km/h | 18153m | 5.3m/s | -56.6°C | 5.1% | 0hPa | 2.6V | 00:00:00 | 00:00:00 | 00:00:00 | |
| POL2MAQ | 2026-09-06 00:07:14 | 48.94198 | 18.33781 | 89° | 57km/h | 18153m | 5.3m/s | -56.6°C | 1.7% | 0hPa | 2.6V | 00:00:00 | 00:00:00 | 00:00:00 | |
| PETON7-10 | 2026-09-06 00:07:08 | 48.94198 | 18.33628 | 93° | 60km/h | 18115m | 6.8m/s | -56.3°C | 5.1% | 0hPa | 2.6V | 00:00:00 | 01:32:41 | 00:00:00 | |
| HA6NAB-11 | 2026-09-06 00:07:05 | 48.94200 | 18.33586 | 94° | 55km/h | 18104m | 4.7m/s | -56.3°C | 1.8% | 0hPa | 2.6V | 00:00:00 | 00:00:00 | 00:00:00 | |
| OE5DRO-10 | 2026-09-06 00:07:04 | 48.94201 | 18.33543 | 91° | 60km/h | 18093m | 5.0m/s | -56.2°C | 5.1% | 0hPa | 2.6V | 00:00:00 | 00:00:00 | 00:00:00 | |
| OE3OSB-13 | 2026-09-06 00:06:58 | 48.94184 | 18.33244 | 86° | 55km/h | 18022m | 5.6m/s | -55.8°C | 1.6% | -1.0hPa | 2.6V | 00:00:00 | 00:00:00 | 00:00:00 | |
| SQ9EZE-14 | 2026-09-06 00:06:57 | 48.94195 | 18.33401 | 84° | 62km/h | 18058m | 4.2m/s | 0°C | 0% | 0hPa | 2.6V | 00:00:00 | 00:00:00 | 00:00:00 | |
| DO3MHA-11 | 2026-09-06 00:06:56 | 48.94191 | 18.33353 | 84° | 58km/h | 18047m | 5.5m/s | 0°C | 0% | 0hPa | 2.6V | 00:00:00 | 01:32:29 | 00:00:00 | |
| PG1ADW-2 | 2026-09-06 00:06:55 | 48.94189 | 18.33330 | 85° | 60km/h | 18042m | 4.6m/s | -55.8°C | 5.0% | 0hPa | 2.6V | 00:00:00 | 00:00:00 | 00:00:00 | |
| POL2MAQ | 2026-09-06 00:06:54 | 48.94189 | 18.33330 | 85° | 60km/h | 18042m | 4.6m/s | -55.9°C | 1.7% | 0hPa | 2.7V | 00:00:00 | 00:00:00 | 00:00:00 | |
| PETON7-10 | 2026-09-06 00:06:53 | 48.94186 | 18.33286 | 85° | 60km/h | 18031m | 5.7m/s | -55.8°C | 5.0% | 0hPa | 2.7V | 00:00:00 | 00:00:00 | 00:00:00 | |
| GYPAP8-17 | 2026-09-06 00:06:47 | 48.94181 | 18.33176 | 84° | 62km/h | 18006m | 4.6m/s | -55.6°C | 1.7% | 0hPa | 2.6V | 00:00:00 | 00:00:00 | 00:00:00 | |
| OE5DRO-10 | 2026-09-06 00:06:45 | 48.94175 | 18.33106 | 84° | 62km/h | 17990m | 5.3m/s | -55.4°C | 4.9% | 0hPa | 2.6V | 00:00:00 | 00:00:00 | 00:00:00 | |
| PETON7-10 | 2026-09-06 00:06:38 | 48.94163 | 18.32943 | 78° | 62km/h | 17950m | 5.2m/s | -55.1°C | 4.9% | 0hPa | 2.6V | 00:00:00 | 00:00:00 | 00:00:00 | |
| PG1ADW-2 | 2026-09-06 00:06:35 | 48.94150 | 18.32879 | 72° | 58km/h | 17934m | 5.0m/s | -55.0°C | 4.9% | 0hPa | 2.6V | 00:00:00 | 01:32:08 | 00:00:00 | |
| POL2MAQ | 2026-09-06 00:06:34 | 48.94150 | 18.32879 | 73° | 57km/h | 17934m | 5.0m/s | -55.0°C | 1.7% | 0hPa | 2.6V | 00:00:00 | 00:00:00 | 00:00:00 | |
| OE3OSB-13 | 2026-09-06 00:06:27 | 48.94136 | 18.32680 | 86° | 57km/h | 17894m | 4.3m/s | -54.6°C | 1.5% | -1.0hPa | 2.6V | 00:00:00 | 00:00:00 | 00:00:00 | |
| OE5DRO-10 | 2026-09-06 00:06:26 | 48.94135 | 18.32658 | 85° | 57km/h | 17889m | 5.6m/s | -54.5°C | 4.7% | 0hPa | 2.6V | 00:00:00 | 00:00:00 | 08:30:00 | |
| OE3JTB-15 | 2026-09-06 00:06:24 | 48.94131 | 18.32616 | 81° | 55km/h | 17876m | 5.7m/s | -54.4°C | 4.7% | 0hPa | 2.7V | 00:00:00 | 00:00:00 | 00:00:00 | |
| PETON7-10 | 2026-09-06 00:06:23 | 48.94129 | 18.32595 | 84° | 58km/h | 17870m | 6.0m/s | -54.3°C | 4.7% | 0hPa | 2.7V | 00:00:00 | 01:31:56 | 00:00:00 | |
| PG1ADW-2 | 2026-09-06 00:06:15 | 48.94117 | 18.32427 | 85° | 57km/h | 17823m | 4.1m/s | -53.9°C | 4.5% | 0hPa | 2.7V | 00:00:00 | 00:00:00 | 00:00:00 | |
| POL2MAQ | 2026-09-06 00:06:13 | 48.94115 | 18.32402 | 85° | 66km/h | 17818m | 5.1m/s | -53.9°C | 1.6% | 0hPa | 2.7V | 00:00:00 | 00:00:00 | 00:00:00 | |
| PETON7-10 | 2026-09-06 00:06:10 | 48.94097 | 18.32267 | 78° | 53km/h | 17782m | 5.7m/s | -53.6°C | 4.4% | 0hPa | 2.7V | 00:00:00 | 00:00:00 | 08:30:00 | |
| OE5DRO-10 | 2026-09-06 00:06:08 | 48.94095 | 18.32248 | 76° | 53km/h | 17776m | 7.0m/s | -53.5°C | 4.4% | 0hPa | 2.6V | 00:00:00 | 00:00:00 | 00:00:00 | |
| OE3OSB-13 | 2026-09-06 00:05:57 | 48.94081 | 18.32025 | 83° | 49km/h | 17703m | 6.7m/s | -53.5°C | 1.3% | -1.0hPa | 2.6V | 00:00:00 | 00:00:00 | 00:00:00 | |
| PG1ADW-2 | 2026-09-06 00:05:55 | 48.94079 | 18.32006 | 85° | 57km/h | 17696m | 7.7m/s | -53.4°C | 4.3% | 0hPa | 2.6V | 00:00:00 | 00:00:00 | 08:30:00 | |
| PETON7-10 | 2026-09-06 00:05:53 | 48.94078 | 18.31967 | 91° | 57km/h | 17681m | 5.8m/s | -53.6°C | 4.5% | 0hPa | 2.7V | 00:00:00 | 00:00:00 | 00:00:00 | |
| POL2MAQ | 2026-09-06 00:05:52 | 48.94078 | 18.31967 | 92° | 53km/h | 17681m | 5.9m/s | -53.7°C | 1.6% | 0hPa | 2.7V | 00:00:00 | 00:00:00 | 00:00:00 | |
| OE5DRO-10 | 2026-09-06 00:05:49 | 48.94086 | 18.31861 | 95° | 60km/h | 17648m | 5.8m/s | -54.2°C | 4.7% | 0hPa | 2.7V | 00:00:00 | 00:00:00 | 00:00:00 | |
| GYPAP8-17 | 2026-09-06 00:05:45 | 48.94086 | 18.31787 | 86° | 64km/h | 17624m | 8.1m/s | -54.1°C | 1.6% | 0hPa | 2.7V | 00:00:00 | 00:00:00 | 00:00:00 | |
| PETON7-10 | 2026-09-06 00:05:38 | 48.94075 | 18.31639 | 98° | 58km/h | 17578m | 6.6m/s | -53.6°C | 4.6% | 0hPa | 2.7V | 00:00:00 | 01:31:11 | 00:00:00 | |
| PG1ADW-2 | 2026-09-06 00:05:35 | 48.94082 | 18.31574 | 99° | 64km/h | 17556m | 6.4m/s | -53.4°C | 4.6% | 0hPa | 2.7V | 00:00:00 | 00:00:00 | 00:00:00 | |
| POL2MAQ | 2026-09-06 00:05:31 | 48.94088 | 18.31506 | 96° | 62km/h | 17536m | 6.0m/s | -53.3°C | 1.6% | 0hPa | 2.7V | 00:00:00 | 00:00:00 | 00:00:00 | |
| OE5DRO-10 | 2026-09-06 00:05:29 | 48.94089 | 18.31431 | 90° | 62km/h | 17517m | 4.4m/s | -53.1°C | 4.5% | 0hPa | 2.7V | 00:00:00 | 00:00:00 | 00:00:00 | |
| OE3OSB-13 | 2026-09-06 00:05:26 | 48.94093 | 18.31329 | 103° | 47km/h | 17484m | 7.7m/s | -52.8°C | 1.4% | -1.0hPa | 2.7V | 00:00:00 | 00:00:00 | 00:00:00 | |
| PETON7-10 | 2026-09-06 00:05:24 | 48.94096 | 18.31310 | 111° | 66km/h | 17477m | 6.1m/s | -52.7°C | 4.2% | 0hPa | 2.7V | 00:00:00 | 00:00:00 | 00:00:00 | |
| OE5DXL-15 | 2026-09-06 00:05:15 | 48.94123 | 18.31097 | 98° | 62km/h | 17417m | 6.1m/s | -52.3°C | 4.0% | 0hPa | 2.6V | 00:00:00 | 01:30:48 | 08:30:00 | |
| POL2MAQ | 2026-09-06 00:05:12 | 48.94132 | 18.31030 | 110° | 55km/h | 17393m | 8.0m/s | -52.7°C | 1.5% | 0hPa | 2.7V | 00:00:00 | 00:00:00 | 00:00:00 | |
| OE5DRO-10 | 2026-09-06 00:05:10 | 48.94142 | 18.30990 | 112° | 62km/h | 17379m | 7.5m/s | -53.4°C | 4.3% | 0hPa | 2.7V | 00:00:00 | 00:00:00 | 00:00:00 | |
| PETON7-10 | 2026-09-06 00:05:08 | 48.94153 | 18.30948 | 113° | 64km/h | 17365m | 4.2m/s | -53.7°C | 4.4% | 0hPa | 2.7V | 00:00:00 | 00:00:00 | 00:00:00 | |
| OE3OSB-13 | 2026-09-06 00:04:54 | 48.94227 | 18.30603 | 103° | 62km/h | 17273m | 4.4m/s | -54.1°C | 1.4% | -1.0hPa | 2.7V | 00:00:00 | 00:00:00 | 00:00:00 | |
| PETON7-10 | 2026-09-06 00:04:53 | 48.94227 | 18.30603 | 104° | 60km/h | 17273m | 4.3m/s | -54.0°C | 4.3% | 0hPa | 2.7V | 00:00:00 | 01:30:26 | 00:00:00 | |
| OE5DRO-10 | 2026-09-06 00:04:51 | 48.94234 | 18.30556 | 103° | 60km/h | 17261m | 5.5m/s | -54.3°C | 4.4% | 0hPa | 2.7V | 00:00:00 | 00:00:00 | 00:00:00 | |
| POL2MAQ | 2026-09-06 00:04:50 | 48.94234 | 18.30556 | 104° | 62km/h | 17261m | 5.6m/s | -54.3°C | 1.6% | 0hPa | 2.7V | 00:00:00 | 00:00:00 | 00:00:00 | |
| OE5DXL-15 | 2026-09-06 00:04:46 | 48.94262 | 18.30418 | 110° | 60km/h | 17224m | 5.0m/s | -55.3°C | 4.9% | 0hPa | 2.7V | 00:00:00 | 00:00:00 | 00:00:00 | |
| OM5KV | 2026-09-06 00:04:41 | 48.94278 | 18.30353 | 113° | 58km/h | 17208m | 5.7m/s | -55.5°C | 1.8% | 0hPa | 2.7V | 00:00:00 | 00:00:00 | 00:00:00 | |
| OM5KV | 2026-09-06 00:04:40 | 48.94288 | 18.30313 | 108° | 53km/h | 17195m | 4.8m/s | -55.5°C | 1.8% | 0hPa | 2.7V | 00:00:00 | 00:00:00 | 00:00:00 | |
| PETON7-10 | 2026-09-06 00:04:39 | 48.94295 | 18.30273 | 105° | 60km/h | 17183m | 6.1m/s | -55.4°C | 4.8% | 0hPa | 2.7V | 00:00:00 | 00:00:00 | 00:00:00 | |
| PG1ADW-2 | 2026-09-06 00:04:35 | 48.94304 | 18.30208 | 101° | 62km/h | 17164m | 5.0m/s | -55.4°C | 4.7% | 0hPa | 2.6V | 00:00:00 | 00:00:00 | 00:00:00 | |
| OM5KV | 2026-09-06 00:04:32 | 48.94315 | 18.30136 | 108° | 66km/h | 17146m | 5.7m/s | -55.4°C | 1.8% | 0hPa | 2.6V | 00:00:00 | 00:00:00 | 00:00:00 | |
| POL2MAQ | 2026-09-06 00:04:30 | 48.94325 | 18.30089 | 111° | 64km/h | 17136m | 6.1m/s | -55.4°C | 1.7% | 0hPa | 2.6V | 00:00:00 | 00:00:00 | 00:00:00 | |
| OE3JTB-15 | 2026-09-06 00:04:29 | 48.94338 | 18.30044 | 116° | 62km/h | 17122m | 6.9m/s | -55.4°C | 4.8% | 0hPa | 2.6V | 00:00:00 | 00:00:00 | 00:00:00 | |
| OM5KV | 2026-09-06 00:04:24 | 48.94364 | 18.29966 | 116° | 53km/h | 17098m | 5.7m/s | -55.5°C | 1.7% | 0hPa | 2.6V | 00:00:00 | 00:00:00 | 00:00:00 | |
| PETON7-10 | 2026-09-06 00:04:23 | 48.94370 | 18.29947 | 115° | 66km/h | 17093m | 5.0m/s | -55.4°C | 4.8% | 0hPa | 2.6V | 00:00:00 | 00:00:00 | 00:00:00 | |
| OM5KV | 2026-09-06 00:04:21 | 48.94376 | 18.29927 | 113° | 57km/h | 17087m | 6.6m/s | -55.6°C | 1.7% | 0hPa | 2.6V | 00:00:00 | 00:00:00 | 00:00:00 | |
| PG1ADW-2 | 2026-09-06 00:04:16 | 48.94419 | 18.29763 | 118° | 60km/h | 17044m | 5.0m/s | -56.2°C | 5.0% | 0hPa | 2.6V | 00:00:00 | 00:00:00 | 00:00:00 | |
| OE5DRO-10 | 2026-09-06 00:04:13 | 48.94437 | 18.29717 | 126° | 60km/h | 17032m | 5.2m/s | -56.2°C | 5.0% | 0hPa | 2.6V | 00:00:00 | 00:00:00 | 00:00:00 | |
| POL2MAQ | 2026-09-06 00:04:09 | 48.94468 | 18.29656 | 127° | 60km/h | 17015m | 4.7m/s | -56.2°C | 1.8% | 0hPa | 2.6V | 00:00:00 | 00:00:00 | 00:00:00 | |
| PETON7-10 | 2026-09-06 00:04:08 | 48.94484 | 18.29619 | 123° | 58km/h | 17003m | 7.3m/s | -56.2°C | 5.0% | 0hPa | 2.6V | 00:00:00 | 01:29:41 | 00:00:00 | |
| OM5KV | 2026-09-06 00:04:06 | 48.94499 | 18.29582 | 121° | 57km/h | 16993m | 5.4m/s | -56.3°C | 1.8% | 0hPa | 2.6V | 00:00:00 | 00:00:00 | 00:00:00 | |
| OE3OSB-13 | 2026-09-06 00:03:52 | 48.94615 | 18.29299 | 124° | 58km/h | 16904m | 6.5m/s | -57.0°C | 1.7% | -1.0hPa | 2.6V | 00:00:00 | 00:00:00 | 00:00:00 | |
| OM5KV | 2026-09-06 00:03:49 | 48.94623 | 18.29280 | 123° | 60km/h | 16897m | 7.2m/s | -57.0°C | 1.9% | 0hPa | 2.6V | 00:00:00 | 00:00:00 | 00:00:00 | |
| OM5KV | 2026-09-06 00:03:48 | 48.94632 | 18.29260 | 121° | 62km/h | 16890m | 6.0m/s | -57.0°C | 1.9% | 0hPa | 2.6V | 00:00:00 | 00:00:00 | 00:00:00 | |
| OE5DXL-15 | 2026-09-06 00:03:45 | 48.94665 | 18.29171 | 120° | 64km/h | 16865m | 8.8m/s | -57.0°C | 5.3% | 0hPa | 2.6V | 00:00:00 | 00:00:00 | 00:00:00 | |
| OM5KV | 2026-09-06 00:03:41 | 48.94699 | 18.29096 | 131° | 57km/h | 16842m | 6.6m/s | -57.0°C | 2.0% | 0hPa | 2.6V | 00:00:00 | 00:00:00 | 00:00:00 | |
| PETON7-10 | 2026-09-06 00:03:39 | 48.94727 | 18.29043 | 130° | 66km/h | 16824m | 7.0m/s | -56.9°C | 5.4% | 0hPa | 2.6V | 00:00:00 | 00:00:00 | 00:00:00 | |
| PG1ADW-2 | 2026-09-06 00:03:36 | 48.94754 | 18.28986 | 120° | 66km/h | 16806m | 5.5m/s | -56.8°C | 5.3% | 0hPa | 2.6V | 00:00:00 | 00:00:00 | 00:00:00 | |
| OE5DRO-10 | 2026-09-06 00:03:35 | 48.94754 | 18.28986 | 120° | 66km/h | 16806m | 5.5m/s | -56.8°C | 5.3% | 0hPa | 2.6V | 00:00:00 | 00:00:00 | 08:30:00 | |
| OM5KV | 2026-09-06 00:03:32 | 48.94769 | 18.28943 | 119° | 66km/h | 16794m | 3.6m/s | -56.8°C | 2.0% | 0hPa | 2.6V | 00:00:00 | 00:00:00 | 00:00:00 | |
| OE3JTB-15 | 2026-09-06 00:03:30 | 48.94793 | 18.28874 | 119° | 64km/h | 16775m | 4.4m/s | -56.6°C | 5.3% | 0hPa | 2.6V | 00:00:00 | 00:00:00 | 00:00:00 | |
| OM5KV | 2026-09-06 00:03:28 | 48.94802 | 18.28852 | 122° | 68km/h | 16770m | 6.4m/s | -56.6°C | 1.9% | 0hPa | 2.6V | 00:00:00 | 00:00:00 | 00:00:00 | |
| POL2MAQ | 2026-09-06 00:03:27 | 48.94811 | 18.28830 | 125° | 69km/h | 16762m | 8.5m/s | -56.6°C | 1.9% | 0hPa | 2.6V | 00:00:00 | 00:00:00 | 00:00:00 | |
| PETON7-10 | 2026-09-06 00:03:25 | 48.94862 | 18.28727 | 121° | 62km/h | 16734m | 2.2m/s | -56.4°C | 5.2% | 0hPa | 2.6V | 00:00:00 | 01:28:56 | 00:00:00 | |
| OE3OSB-13 | 2026-09-06 00:03:23 | 48.94885 | 18.28665 | 117° | 57km/h | 16711m | 6.5m/s | -56.4°C | 1.7% | -1.0hPa | 2.6V | 00:00:00 | 00:00:00 | 00:00:00 | |
| OM5KV | 2026-09-06 00:03:21 | 48.94898 | 18.28623 | 114° | 62km/h | 16698m | 4.7m/s | -56.3°C | 1.9% | 0hPa | 2.6V | 00:00:00 | 00:00:00 | 00:00:00 | |
| OM5KV | 2026-09-06 00:03:19 | 48.94910 | 18.28579 | 114° | 62km/h | 16686m | 7.8m/s | -56.3°C | 1.9% | 0hPa | 2.6V | 00:00:00 | 00:00:00 | 00:00:00 | |
| OE5DXL-15 | 2026-09-06 00:03:18 | 48.94917 | 18.28556 | 115° | 68km/h | 16680m | 4.9m/s | -56.3°C | 5.2% | 0hPa | 2.6V | 00:00:00 | 00:00:00 | 00:00:00 | |
| OM5KV | 2026-09-06 00:03:16 | 48.94945 | 18.28471 | 122° | 62km/h | 16657m | 5.8m/s | -56.4°C | 1.9% | 0hPa | 2.6V | 00:00:00 | 00:00:00 | 00:00:00 | |
| POL2MAQ | 2026-09-06 00:03:14 | 48.94975 | 18.28387 | 116° | 64km/h | 16634m | 3.3m/s | -56.2°C | 1.9% | 0hPa | 2.6V | 00:00:00 | 00:00:00 | 00:00:00 | |
| OE3JTB-15 | 2026-09-06 00:03:09 | 48.95018 | 18.28261 | 118° | 73km/h | 16594m | 5.1m/s | -55.9°C | 5.1% | 0hPa | 2.6V | 00:00:00 | 00:00:00 | 00:00:00 | |
| OM5KV | 2026-09-06 00:03:08 | 48.95018 | 18.28261 | 119° | 62km/h | 16594m | 5.2m/s | -56.0°C | 1.9% | 0hPa | 2.6V | 00:00:00 | 00:00:00 | 00:00:00 | |
| OM5KV | 2026-09-06 00:03:07 | 48.95032 | 18.28214 | 111° | 75km/h | 16580m | 5.4m/s | -56.1°C | 1.9% | 0hPa | 2.6V | 00:00:00 | 00:00:00 | 00:00:00 | |
| OE5DRO-10 | 2026-09-06 00:03:05 | 48.95045 | 18.28158 | 110° | 75km/h | 16566m | 6.7m/s | -56.1°C | 5.0% | 0hPa | 2.6V | 00:00:00 | 00:00:00 | 00:00:00 | |
| PG1ADW-2 | 2026-09-06 00:03:03 | 48.95058 | 18.28103 | 111° | 73km/h | 16547m | 8.3m/s | -56.2°C | 5.1% | 0hPa | 2.6V | 00:00:00 | 00:00:00 | 08:30:00 | |
| OM5KV | 2026-09-06 00:03:01 | 48.95065 | 18.28077 | 114° | 73km/h | 16536m | 12.4m/s | -56.3°C | 1.9% | 0hPa | 2.6V | 00:00:00 | 00:00:00 | 00:00:00 | |
| PETON7-10 | 2026-09-06 00:03:00 | 48.95072 | 18.28051 | 114° | 75km/h | 16527m | 6.0m/s | -56.3°C | 5.2% | 0hPa | 2.6V | 00:00:00 | 00:00:00 | 00:00:00 | |
| OE3OSB-13 | 2026-09-06 00:02:58 | 48.95096 | 18.27947 | 106° | 71km/h | 16500m | 3.5m/s | -56.2°C | 1.8% | -1.0hPa | 2.6V | 00:00:00 | 00:00:00 | 00:00:00 | |
| OM5KV | 2026-09-06 00:02:56 | 48.95101 | 18.27921 | 108° | 71km/h | 16496m | 6.3m/s | -56.1°C | 1.9% | 0hPa | 2.6V | 00:00:00 | 00:00:00 | 00:00:00 | |
| OE5DXL-15 | 2026-09-06 00:02:54 | 48.95119 | 18.27837 | 110° | 73km/h | 16476m | 6.5m/s | -55.9°C | 5.1% | 0hPa | 2.6V | 00:00:00 | 00:00:00 | 00:00:00 | |
| OM5KV | 2026-09-06 00:02:50 | 48.95149 | 18.27692 | 108° | 73km/h | 16442m | 6.8m/s | -55.8°C | 1.9% | 0hPa | 2.6V | 00:00:00 | 00:00:00 | 00:00:00 | |
| OE5DRO-10 | 2026-09-06 00:02:48 | 48.95158 | 18.27640 | 102° | 71km/h | 16428m | 5.0m/s | -55.7°C | 5.0% | 0hPa | 2.6V | 00:00:00 | 00:00:00 | 00:00:00 | |
| PETON7-10 | 2026-09-06 00:02:47 | 48.95158 | 18.27640 | 102° | 71km/h | 16428m | 5.0m/s | -55.7°C | 5.0% | 0hPa | 2.6V | 00:00:00 | 01:28:11 | 00:00:00 | |
| GYPAP8-17 | 2026-09-06 00:02:43 | 48.95161 | 18.27614 | 102° | 68km/h | 16422m | 7.5m/s | -55.8°C | 0% | 0hPa | 2.6V | 00:00:00 | 00:00:00 | 00:00:00 | |
| OM5KV | 2026-09-06 00:02:42 | 48.95165 | 18.27589 | 103° | 69km/h | 16415m | 5.7m/s | -55.8°C | 1.9% | 0hPa | 2.6V | 00:00:00 | 00:00:00 | 00:00:00 | |
| PG1ADW-2 | 2026-09-06 00:02:39 | 48.95169 | 18.27563 | 103° | 71km/h | 16408m | 7.4m/s | -55.7°C | 5.1% | 0hPa | 2.6V | 00:00:00 | 00:00:00 | 00:00:00 | |
| OE3JTB-15 | 2026-09-06 00:02:36 | 48.95188 | 18.27460 | 112° | 68km/h | 16381m | 7.1m/s | -55.5°C | 5.0% | 0hPa | 2.6V | 00:00:00 | 01:28:04 | 00:00:00 | |
| OM5KV | 2026-09-06 00:02:32 | 48.95195 | 18.27434 | 112° | 73km/h | 16375m | 5.4m/s | -55.5°C | 2.0% | 0hPa | 2.6V | 00:00:00 | 00:00:00 | 00:00:00 | |
| OM5KV | 2026-09-06 00:02:31 | 48.95208 | 18.27380 | 110° | 77km/h | 16364m | 6.2m/s | -55.4°C | 1.9% | 0hPa | 2.6V | 00:00:00 | 00:00:00 | 00:00:00 | |
| POL2MAQ | 2026-09-06 00:02:26 | 48.95227 | 18.27297 | 109° | 73km/h | 16343m | 6.8m/s | -55.3°C | 1.9% | 0hPa | 2.6V | 00:00:00 | 00:00:00 | 00:00:00 | |
| PETON7-10 | 2026-09-06 00:02:24 | 48.95236 | 18.27245 | 104° | 68km/h | 16332m | 6.5m/s | -55.2°C | 4.9% | 0hPa | 2.6V | 00:00:00 | 00:00:00 | 00:00:00 | |
| OM5KV | 2026-09-06 00:02:21 | 48.95246 | 18.27195 | 108° | 68km/h | 16318m | 5.1m/s | -55.2°C | 1.9% | 0hPa | 2.6V | 00:00:00 | 00:00:00 | 00:00:00 | |
| OE5DRO-10 | 2026-09-06 00:02:19 | 48.95256 | 18.27145 | 108° | 64km/h | 16305m | 6.2m/s | -55.2°C | 4.9% | 0hPa | 2.6V | 00:00:00 | 00:00:00 | 00:00:00 | |
| OE3OSB-13 | 2026-09-06 00:02:18 | 48.95261 | 18.27120 | 106° | 69km/h | 16299m | 5.6m/s | -55.3°C | 1.7% | -1.0hPa | 2.6V | 00:00:00 | 00:00:00 | 00:00:00 | |
| OM5KV | 2026-09-06 00:02:16 | 48.95279 | 18.27046 | 113° | 68km/h | 16280m | 6.9m/s | -55.1°C | 1.8% | 0hPa | 2.6V | 00:00:00 | 00:00:00 | 00:00:00 | |
| OM5KV | 2026-09-06 00:02:10 | 48.95308 | 18.26929 | 114° | 62km/h | 16247m | 6.7m/s | -54.9°C | 1.8% | 0hPa | 2.6V | 00:00:00 | 00:00:00 | 00:00:00 | |
| PETON7-10 | 2026-09-06 00:02:08 | 48.95319 | 18.26885 | 112° | 64km/h | 16233m | 3.9m/s | -54.8°C | 4.8% | 0hPa | 2.6V | 00:00:00 | 00:00:00 | 00:00:00 | |
| OM5KV | 2026-09-06 00:02:04 | 48.95346 | 18.26803 | 119° | 64km/h | 16211m | 5.6m/s | -55.0°C | 1.8% | 0hPa | 2.6V | 00:00:00 | 00:00:00 | 00:00:00 | |
| OE5DRO-10 | 2026-09-06 00:02:01 | 48.95376 | 18.26713 | 115° | 64km/h | 16184m | 6.5m/s | -55.0°C | 4.8% | 0hPa | 2.6V | 00:00:00 | 00:00:00 | 00:00:00 | |
| OM5KV | 2026-09-06 00:01:59 | 48.95388 | 18.26666 | 109° | 66km/h | 16172m | 5.4m/s | -55.1°C | 1.8% | 0hPa | 2.6V | 00:00:00 | 00:00:00 | 00:00:00 | |
| PG1ADW-2 | 2026-09-06 00:01:57 | 48.95404 | 18.26597 | 110° | 69km/h | 16153m | 6.3m/s | -55.1°C | 4.8% | 0hPa | 2.6V | 00:00:00 | 00:00:00 | 00:00:00 | |
| OM5KV | 2026-09-06 00:01:56 | 48.95421 | 18.26529 | 116° | 62km/h | 16134m | 7.9m/s | -55.1°C | 1.8% | 0hPa | 2.6V | 00:00:00 | 00:00:00 | 00:00:00 | |
| OE3OSB-13 | 2026-09-06 00:01:53 | 48.95457 | 18.26425 | 116° | 58km/h | 16100m | 4.7m/s | -55.3°C | 1.7% | -1.0hPa | 2.6V | 00:00:00 | 00:00:00 | 00:00:00 | |
| OM5KV | 2026-09-06 00:01:50 | 48.95457 | 18.26425 | 118° | 58km/h | 16100m | 4.7m/s | -55.3°C | 1.9% | 0hPa | 2.6V | 00:00:00 | 00:00:00 | 00:00:00 | |
| OE5DXL-15 | 2026-09-06 00:01:49 | 48.95470 | 18.26383 | 118° | 77km/h | 16088m | 5.6m/s | -55.7°C | 5.1% | 0hPa | 2.6V | 00:00:00 | 00:00:00 | 00:00:00 | |
| POL2MAQ | 2026-09-06 00:01:47 | 48.95478 | 18.26361 | 117° | 66km/h | 16082m | 6.1m/s | -55.8°C | 2.0% | 0hPa | 2.6V | 00:00:00 | 00:00:00 | 00:00:00 | |
| PETON7-10 | 2026-09-06 00:01:42 | 48.95526 | 18.26205 | 113° | 78km/h | 16039m | 5.8m/s | -55.6°C | 5.1% | 0hPa | 2.6V | 00:00:00 | 00:00:00 | 08:30:00 | |
| PG1ADW-2 | 2026-09-06 00:01:36 | 48.95551 | 18.26116 | 117° | 77km/h | 16022m | 7.7m/s | -55.5°C | 5.0% | 0hPa | 2.6V | 00:00:00 | 00:00:00 | 00:00:00 | |
| OE3JTB-15 | 2026-09-06 00:01:35 | 48.95571 | 18.26060 | 120° | 73km/h | 16010m | 7.4m/s | -55.4°C | 5.0% | 0hPa | 2.6V | 00:00:00 | 00:00:00 | 00:00:00 | |
| POL2MAQ | 2026-09-06 00:01:26 | 48.95647 | 18.25793 | 109° | 80km/h | 15948m | 7.1m/s | -55.3°C | 1.8% | 0hPa | 2.6V | 00:00:00 | 00:00:00 | 00:00:00 | |
| OE5DRO-10 | 2026-09-06 00:01:25 | 48.95654 | 18.25763 | 111° | 73km/h | 15943m | 3.3m/s | -55.3°C | 4.9% | 0hPa | 2.6V | 00:00:00 | 00:00:00 | 00:00:00 | |
| OM5KV | 2026-09-06 00:01:24 | 48.95661 | 18.25733 | 111° | 84km/h | 15938m | 6.4m/s | -55.4°C | 1.9% | 0hPa | 2.6V | 00:00:00 | 00:00:00 | 00:00:00 | |
| OM5KV | 2026-09-06 00:01:22 | 48.95681 | 18.25648 | 114° | 73km/h | 15917m | 7.0m/s | -55.4°C | 1.9% | 0hPa | 2.6V | 00:00:00 | 00:00:00 | 00:00:00 | |
| OE3OSB-13 | 2026-09-06 00:01:19 | 48.95696 | 18.25599 | 115° | 68km/h | 15905m | 8.1m/s | -55.5°C | 1.8% | -1.0hPa | 2.6V | 00:00:00 | 00:00:00 | 00:00:00 | |
| PG1ADW-2 | 2026-09-06 00:01:18 | 48.95703 | 18.25576 | 116° | 69km/h | 15898m | 5.6m/s | -55.5°C | 5.0% | 0hPa | 2.6V | 00:00:00 | 01:26:48 | 00:00:00 | |
| OM5KV | 2026-09-06 00:01:15 | 48.95724 | 18.25506 | 115° | 68km/h | 15879m | 6.3m/s | -55.6°C | 2.0% | 0hPa | 2.6V | 00:00:00 | 00:00:00 | 00:00:00 | |
| OE3JTB-15 | 2026-09-06 00:01:07 | 48.95784 | 18.25308 | 118° | 75km/h | 15826m | 8.8m/s | -55.9°C | 5.2% | 0hPa | 2.6V | 00:00:00 | 01:26:37 | 00:00:00 | |
| OE5DRO-10 | 2026-09-06 00:01:04 | 48.95793 | 18.25283 | 121° | 75km/h | 15820m | 4.8m/s | -55.9°C | 5.2% | 0hPa | 2.6V | 00:00:00 | 00:00:00 | 00:00:00 | |
| OM5KV | 2026-09-06 00:01:01 | 48.95821 | 18.25214 | 123° | 68km/h | 15801m | 6.9m/s | -55.9°C | 2.0% | 0hPa | 2.6V | 00:00:00 | 00:00:00 | 00:00:00 | |
| PG1ADW-2 | 2026-09-06 00:00:55 | 48.95866 | 18.25096 | 124° | 77km/h | 15770m | 6.7m/s | -55.7°C | 5.2% | 0hPa | 2.6V | 00:00:00 | 00:00:00 | 00:00:00 | |
| OM5KV | 2026-09-06 00:00:54 | 48.95866 | 18.25097 | 124° | 75km/h | 15770m | 6.8m/s | -55.8°C | 2.1% | 0hPa | 2.6V | 00:00:00 | 00:00:00 | 00:00:00 | |
| PETON7-10 | 2026-09-06 00:00:53 | 48.95887 | 18.25047 | 123° | 78km/h | 15756m | 4.4m/s | -55.7°C | 5.2% | 0hPa | 2.6V | 00:00:00 | 00:00:00 | 00:00:00 | |
| OM5KV | 2026-09-06 00:00:48 | 48.95942 | 18.24922 | 123° | 77km/h | 15726m | 6.6m/s | -55.5°C | 2.0% | 0hPa | 2.7V | 00:00:00 | 00:00:00 | 00:00:00 | |
| OE5DXL-15 | 2026-09-06 00:00:47 | 48.95974 | 18.24845 | 121° | 75km/h | 15704m | 7.2m/s | -55.3°C | 5.1% | 0hPa | 2.7V | 00:00:00 | 00:00:00 | 08:30:00 | |
| POL2MAQ | 2026-09-06 00:00:46 | 48.96014 | 18.24738 | 123° | 80km/h | 15678m | 5.7m/s | -55.2°C | 2.0% | 0hPa | 2.7V | 00:00:00 | 00:00:00 | 00:00:00 | |
| OM5KV | 2026-09-06 00:00:45 | 48.96014 | 18.24738 | 123° | 80km/h | 15678m | 5.7m/s | -55.2°C | 2.0% | 0hPa | 2.7V | 00:00:00 | 00:00:00 | 00:00:00 | |
| PETON7-10 | 2026-09-06 00:00:43 | 48.96045 | 18.24664 | 122° | 71km/h | 15660m | 6.6m/s | -55.1°C | 5.1% | 0hPa | 2.7V | 00:00:00 | 00:00:00 | 00:00:00 | |
| OM5KV | 2026-09-06 00:00:39 | 48.96064 | 18.24618 | 125° | 71km/h | 15644m | 6.0m/s | -55.0°C | 2.0% | 0hPa | 2.7V | 00:00:00 | 00:00:00 | 00:00:00 | |
| OE3JTB-15 | 2026-09-06 00:00:38 | 48.96092 | 18.24548 | 119° | 106km/h | 15627m | 6.3m/s | -54.9°C | 5.0% | 0hPa | 2.7V | 00:00:00 | 00:00:00 | 08:30:00 | |
| PG1ADW-2 | 2026-09-06 00:00:37 | 48.96074 | 18.24595 | 123° | 75km/h | 15638m | 7.3m/s | -54.9°C | 5.1% | 0hPa | 2.7V | 00:00:00 | 00:00:00 | 00:00:00 | |
| OM5KV | 2026-09-06 00:00:33 | 48.96092 | 18.24548 | 120° | 71km/h | 15627m | 6.3m/s | -54.9°C | 2.0% | 0hPa | 2.7V | 00:00:00 | 00:00:00 | 00:00:00 | |
| OM5KV | 2026-09-06 00:00:30 | 48.96118 | 18.24476 | 119° | 71km/h | 15605m | 7.4m/s | -55.0°C | 2.1% | 0hPa | 2.7V | 00:00:00 | 00:00:00 | 00:00:00 | |
| GYPAP8-17 | 2026-09-06 00:00:27 | 48.96144 | 18.24403 | 124° | 73km/h | 15586m | 7.3m/s | -55.1°C | 0% | 0hPa | 2.7V | 00:00:00 | 00:00:00 | 00:00:00 | |
| OE5DRO-10 | 2026-09-06 00:00:25 | 48.96166 | 18.24358 | 127° | 80km/h | 15571m | 8.0m/s | -55.0°C | 5.0% | 0hPa | 2.7V | 00:00:00 | 00:00:00 | 00:00:00 | |
| PETON7-10 | 2026-09-06 00:00:24 | 48.96188 | 18.24314 | 128° | 80km/h | 15559m | 6.5m/s | -55.0°C | 5.0% | 0hPa | 2.7V | 00:00:00 | 01:25:56 | 00:00:00 | |
| POL2MAQ | 2026-09-06 00:00:21 | 48.96212 | 18.24268 | 130° | 78km/h | 15547m | 6.1m/s | -55.0°C | 2.1% | 0hPa | 2.7V | 00:00:00 | 00:00:00 | 00:00:00 | |
| OM5KV | 2026-09-06 00:00:20 | 48.96235 | 18.24219 | 123° | 80km/h | 15533m | 4.9m/s | -55.0°C | 2.1% | 0hPa | 2.7V | 00:00:00 | 00:00:00 | 00:00:00 | |
| OE5DXL-15 | 2026-09-06 00:00:19 | 48.96276 | 18.24110 | 118° | 93km/h | 15507m | 5.9m/s | -54.9°C | 5.0% | 0hPa | 2.7V | 00:00:00 | 00:00:00 | 00:00:00 | |
| OE3OSB-13 | 2026-09-06 00:00:17 | 48.96286 | 18.24083 | 118° | 78km/h | 15500m | 6.0m/s | -55.0°C | 1.9% | -1.0hPa | 2.7V | 00:00:00 | 00:00:00 | 00:00:00 | |
| PETON7-10 | 2026-09-06 00:00:10 | 48.96358 | 18.23929 | 126° | 95km/h | 15463m | 6.2m/s | -55.4°C | 5.1% | 0hPa | 2.7V | 00:00:00 | 00:00:00 | 00:00:00 | |
| OM5KV | 2026-09-06 00:00:09 | 48.96371 | 18.23900 | 125° | 93km/h | 15456m | 6.5m/s | -55.5°C | 2.1% | 0hPa | 2.7V | 00:00:00 | 00:00:00 | 00:00:00 | |
| OE5DRO-10 | 2026-09-06 00:00:07 | 48.96384 | 18.23869 | 123° | 95km/h | 15449m | 8.7m/s | -55.5°C | 5.0% | 0hPa | 2.7V | 00:00:00 | 00:00:00 | 00:00:00 | |
| POL2MAQ | 2026-09-06 00:00:00 | 48.96445 | 18.23698 | 119° | 97km/h | 15417m | 5.8m/s | -55.4°C | 2.1% | 0hPa | 2.7V | 00:00:00 | 00:00:00 | 00:00:00 | |
| OM5KV | 2026-09-05 23:59:58 | 48.96479 | 18.23605 | 121° | 88km/h | 15396m | 5.3m/s | -55.6°C | 2.1% | 0hPa | 2.7V | 00:00:00 | 00:00:00 | 00:00:00 | |
| OM5KV | 2026-09-05 23:59:55 | 48.96514 | 18.23516 | 123° | 93km/h | 15378m | 7.7m/s | -55.5°C | 2.1% | 0hPa | 2.7V | 00:00:00 | 00:00:00 | 00:00:00 | |
| PETON7-10 | 2026-09-05 23:59:53 | 48.96539 | 18.23454 | 121° | 95km/h | 15365m | 6.2m/s | -55.6°C | 5.0% | 0hPa | 2.7V | 00:00:00 | 00:00:00 | 00:00:00 | |
| OM5KV | 2026-09-05 23:59:50 | 48.96565 | 18.23388 | 121° | 102km/h | 15353m | 5.6m/s | -55.9°C | 2.1% | 0hPa | 2.7V | 00:00:00 | 00:00:00 | 00:00:00 | |
| OE5DXL-15 | 2026-09-05 23:59:45 | 48.96639 | 18.23202 | 121° | 99km/h | 15315m | 5.6m/s | -56.6°C | 5.4% | 0hPa | 2.7V | 00:00:00 | 00:00:00 | 00:00:00 | |
| OM5KV | 2026-09-05 23:59:44 | 48.96650 | 18.23172 | 119° | 89km/h | 15309m | 5.6m/s | -56.7°C | 2.2% | 0hPa | 2.7V | 00:00:00 | 00:00:00 | 00:00:00 | |
| OE3OSB-13 | 2026-09-05 23:59:43 | 48.96661 | 18.23142 | 118° | 89km/h | 15302m | 7.5m/s | -56.7°C | 2.1% | -1.0hPa | 2.7V | 00:00:00 | 00:00:00 | 00:00:00 | |
| OM5KV | 2026-09-05 23:59:42 | 48.96661 | 18.23142 | 119° | 89km/h | 15302m | 7.5m/s | -56.7°C | 2.3% | 0hPa | 2.7V | 00:00:00 | 00:00:00 | 00:00:00 | |
| OM5KV | 2026-09-05 23:59:39 | 48.96693 | 18.23044 | 115° | 100km/h | 15285m | 4.7m/s | -56.9°C | 2.4% | 0hPa | 2.7V | 00:00:00 | 00:00:00 | 00:00:00 | |
| PETON7-10 | 2026-09-05 23:59:38 | 48.96715 | 18.22973 | 116° | 97km/h | 15274m | 5.1m/s | -56.8°C | 5.7% | 0hPa | 2.7V | 00:00:00 | 01:25:11 | 00:00:00 | |
| OM5KV | 2026-09-05 23:59:36 | 48.96726 | 18.22938 | 117° | 104km/h | 15269m | 5.6m/s | -56.9°C | 2.4% | 0hPa | 2.7V | 00:00:00 | 00:00:00 | 00:00:00 | |
| PG1ADW-2 | 2026-09-05 23:59:35 | 48.96749 | 18.22868 | 118° | 100km/h | 15258m | 4.9m/s | -57.1°C | 5.9% | 0hPa | 2.7V | 00:00:00 | 00:00:00 | 00:00:00 | |
| OM5KV | 2026-09-05 23:59:33 | 48.96773 | 18.22804 | 124° | 93km/h | 15246m | 5.4m/s | -57.1°C | 2.5% | 0hPa | 2.7V | 00:00:00 | 00:00:00 | 00:00:00 | |
| OM5KV | 2026-09-05 23:59:32 | 48.96786 | 18.22774 | 125° | 91km/h | 15242m | 4.3m/s | -57.1°C | 2.4% | 0hPa | 2.7V | 00:00:00 | 00:00:00 | 00:00:00 | |
| OE5DRO-10 | 2026-09-05 23:59:25 | 48.96866 | 18.22556 | 115° | 108km/h | 15198m | 6.5m/s | -56.8°C | 5.6% | 0hPa | 2.7V | 00:00:00 | 00:00:00 | 00:00:00 | |
| PETON7-10 | 2026-09-05 23:59:23 | 48.96888 | 18.22486 | 118° | 106km/h | 15185m | 6.3m/s | -56.7°C | 5.6% | 0hPa | 2.7V | 00:00:00 | 00:00:00 | 08:30:00 | |
| POL2MAQ | 2026-09-05 23:59:19 | 48.96943 | 18.22341 | 123° | 113km/h | 15161m | 5.2m/s | -56.6°C | 2.3% | 0hPa | 2.7V | 00:00:00 | 00:00:00 | 00:00:00 | |
| OM5KV | 2026-09-05 23:59:15 | 48.97001 | 18.22201 | 124° | 102km/h | 15139m | 4.9m/s | -56.4°C | 2.3% | 0hPa | 2.7V | 00:00:00 | 00:00:00 | 00:00:00 | |
| OM5KV | 2026-09-05 23:59:13 | 48.97014 | 18.22167 | 122° | 104km/h | 15133m | 6.6m/s | -56.4°C | 2.3% | 0hPa | 2.7V | 00:00:00 | 00:00:00 | 00:00:00 | |
| OE3OSB-13 | 2026-09-05 23:59:12 | 48.97039 | 18.22097 | 115° | 102km/h | 15121m | 5.8m/s | -56.4°C | 2.1% | -1.0hPa | 2.7V | 00:00:00 | 00:00:00 | 00:00:00 | |
| PETON7-10 | 2026-09-05 23:59:08 | 48.97085 | 18.21948 | 121° | 113km/h | 15103m | 4.6m/s | -56.5°C | 5.6% | 0hPa | 2.7V | 00:00:00 | 00:00:00 | 00:00:00 | |
| OM5KV | 2026-09-05 23:59:07 | 48.97086 | 18.21948 | 121° | 113km/h | 15103m | 4.6m/s | -56.5°C | 2.4% | 0hPa | 2.7V | 00:00:00 | 00:00:00 | 00:00:00 | |
| OE5DRO-10 | 2026-09-05 23:59:06 | 48.97116 | 18.21873 | 124° | 119km/h | 15093m | 5.1m/s | -56.5°C | 5.5% | 0hPa | 2.7V | 00:00:00 | 00:00:00 | 00:00:00 | |
| OM5KV | 2026-09-05 23:59:02 | 48.97177 | 18.21722 | 120° | 113km/h | 15073m | 4.8m/s | -56.6°C | 2.3% | 0hPa | 2.7V | 00:00:00 | 00:00:00 | 00:00:00 | |
| GYPAP8-17 | 2026-09-05 23:59:01 | 48.97177 | 18.21722 | 120° | 113km/h | 15073m | 4.8m/s | -56.6°C | 0% | 0hPa | 2.7V | 00:00:00 | 00:00:00 | 00:00:00 | |
| POL2MAQ | 2026-09-05 23:58:57 | 48.97231 | 18.21577 | 119° | 106km/h | 15053m | 3.7m/s | -56.8°C | 2.3% | 0hPa | 2.7V | 00:00:00 | 00:00:00 | 00:00:00 | |
| PG1ADW-2 | 2026-09-05 23:58:55 | 48.97267 | 18.21460 | 113° | 124km/h | 15038m | 4.3m/s | -56.8°C | 5.7% | 0hPa | 2.7V | 00:00:00 | 00:00:00 | 00:00:00 | |
| PETON7-10 | 2026-09-05 23:58:53 | 48.97292 | 18.21372 | 115° | 124km/h | 15029m | 4.0m/s | -56.9°C | 5.8% | 0hPa | 2.6V | 00:00:00 | 01:24:26 | 00:00:00 | |
| OM5KV | 2026-09-05 23:58:49 | 48.97332 | 18.21237 | 115° | 128km/h | 15016m | 4.7m/s | -56.8°C | 2.5% | 0hPa | 2.6V | 00:00:00 | 00:00:00 | 00:00:00 | |
| OE5DRO-10 | 2026-09-05 23:58:47 | 48.97372 | 18.21105 | 116° | 122km/h | 15003m | 4.8m/s | -56.7°C | 5.8% | 0hPa | 2.6V | 00:00:00 | 00:00:00 | 00:00:00 | |
| OE5DXL-15 | 2026-09-05 23:58:45 | 48.97399 | 18.21019 | 116° | 120km/h | 14995m | 4.9m/s | -56.7°C | 5.7% | 0hPa | 2.6V | 00:00:00 | 00:00:00 | 00:00:00 | |
| OM5KV | 2026-09-05 23:58:44 | 48.97399 | 18.21019 | 117° | 122km/h | 14995m | 4.9m/s | -56.7°C | 2.4% | 0hPa | 2.6V | 00:00:00 | 00:00:00 | 00:00:00 | |
| OE3OSB-13 | 2026-09-05 23:58:41 | 48.97452 | 18.20850 | 115° | 122km/h | 14978m | 4.0m/s | -56.7°C | 2.3% | -1.0hPa | 2.6V | 00:00:00 | 00:00:00 | 00:00:00 | |
| OM5KV | 2026-09-05 23:58:39 | 48.97466 | 18.20807 | 116° | 122km/h | 14974m | 3.6m/s | -56.6°C | 2.5% | 0hPa | 2.6V | 00:00:00 | 00:00:00 | 00:00:00 | |
| PETON7-10 | 2026-09-05 23:58:38 | 48.97491 | 18.20722 | 114° | 120km/h | 14965m | 3.7m/s | -56.5°C | 5.8% | 0hPa | 2.6V | 00:00:00 | 00:00:00 | 00:00:00 | |
| OM5KV | 2026-09-05 23:58:37 | 48.97491 | 18.20722 | 115° | 120km/h | 14965m | 3.8m/s | -56.6°C | 2.5% | 0hPa | 2.6V | 00:00:00 | 00:00:00 | 00:00:00 | |
| POL2MAQ | 2026-09-05 23:58:36 | 48.97503 | 18.20680 | 115° | 122km/h | 14961m | 3.4m/s | -56.5°C | 2.5% | 0hPa | 2.6V | 00:00:00 | 00:00:00 | 00:00:00 | |
| PG1ADW-2 | 2026-09-05 23:58:35 | 48.97529 | 18.20594 | 116° | 120km/h | 14953m | 3.6m/s | -56.4°C | 5.8% | 0hPa | 2.6V | 00:00:00 | 01:24:08 | 00:00:00 | |
| OM5KV | 2026-09-05 23:58:31 | 48.97567 | 18.20465 | 115° | 120km/h | 14941m | 3.5m/s | -56.4°C | 2.5% | 0hPa | 2.6V | 00:00:00 | 00:00:00 | 00:00:00 | |
| OE5DRO-10 | 2026-09-05 23:58:28 | 48.97618 | 18.20300 | 116° | 119km/h | 14923m | 5.3m/s | -56.1°C | 5.7% | 0hPa | 2.6V | 00:00:00 | 00:00:00 | 00:00:00 | |
| OM5KV | 2026-09-05 23:58:26 | 48.97643 | 18.20216 | 116° | 120km/h | 14914m | 4.5m/s | -56.1°C | 2.5% | 0hPa | 2.6V | 00:00:00 | 00:00:00 | 00:00:00 | |
| PETON7-10 | 2026-09-05 23:58:23 | 48.97683 | 18.20090 | 116° | 117km/h | 14900m | 3.4m/s | -56.0°C | 5.7% | 0hPa | 2.6V | 00:00:00 | 00:00:00 | 00:00:00 | |
| OM5KV | 2026-09-05 23:58:22 | 48.97683 | 18.20090 | 116° | 120km/h | 14900m | 3.5m/s | -56.0°C | 2.5% | 0hPa | 2.6V | 00:00:00 | 00:00:00 | 00:00:00 | |
| POL2MAQ | 2026-09-05 23:58:16 | 48.97770 | 18.19796 | 114° | 119km/h | 14869m | 3.8m/s | -55.9°C | 2.5% | 0hPa | 2.6V | 00:00:00 | 00:00:00 | 00:00:00 | |
| OE5DXL-15 | 2026-09-05 23:58:15 | 48.97782 | 18.19754 | 114° | 110km/h | 14865m | 4.1m/s | -55.9°C | 5.5% | 0hPa | 2.6V | 00:00:00 | 00:00:00 | 00:00:00 | |
| OM5KV | 2026-09-05 23:58:14 | 48.97782 | 18.19754 | 115° | 117km/h | 14865m | 4.2m/s | -55.9°C | 2.4% | 0hPa | 2.6V | 00:00:00 | 00:00:00 | 00:00:00 | |
| OE3OSB-13 | 2026-09-05 23:58:10 | 48.97845 | 18.19557 | 115° | 113km/h | 14841m | 3.7m/s | -56.0°C | 2.3% | -1.0hPa | 2.6V | 00:00:00 | 00:00:00 | 00:00:00 | |
| OE5DRO-10 | 2026-09-05 23:58:09 | 48.97856 | 18.19517 | 116° | 111km/h | 14837m | 4.1m/s | -55.9°C | 5.5% | 0hPa | 2.6V | 00:00:00 | 00:00:00 | 00:00:00 | |
| PETON7-10 | 2026-09-05 23:58:08 | 48.97869 | 18.19478 | 116° | 111km/h | 14832m | 5.5m/s | -55.9°C | 5.5% | 0hPa | 2.6V | 00:00:00 | 01:23:41 | 00:00:00 | |
| OM5KV | 2026-09-05 23:58:07 | 48.97869 | 18.19478 | 117° | 111km/h | 14832m | 5.5m/s | -56.0°C | 2.4% | 0hPa | 2.6V | 00:00:00 | 00:00:00 | 00:00:00 | |
| OM5KV | 2026-09-05 23:57:57 | 48.97982 | 18.19084 | 115° | 115km/h | 14790m | 4.3m/s | -56.3°C | 2.5% | 0hPa | 2.6V | 00:00:00 | 00:00:00 | 00:00:00 | |
| OM5KV | 2026-09-05 23:57:56 | 48.97994 | 18.19044 | 117° | 113km/h | 14786m | 4.5m/s | -56.3°C | 2.5% | 0hPa | 2.6V | 00:00:00 | 00:00:00 | 00:00:00 | |
| PG1ADW-2 | 2026-09-05 23:57:55 | 48.98019 | 18.18968 | 116° | 102km/h | 14777m | 4.6m/s | -56.3°C | 5.6% | 0hPa | 2.6V | 00:00:00 | 00:00:00 | 00:00:00 | |
| POL2MAQ | 2026-09-05 23:57:54 | 48.98019 | 18.18968 | 117° | 110km/h | 14777m | 4.7m/s | -56.4°C | 2.5% | 0hPa | 2.7V | 00:00:00 | 00:00:00 | 00:00:00 | |
| PETON7-10 | 2026-09-05 23:57:53 | 48.98042 | 18.18892 | 116° | 102km/h | 14770m | 3.5m/s | -56.5°C | 5.7% | 0hPa | 2.7V | 00:00:00 | 00:00:00 | 00:00:00 | |
| OM5KV | 2026-09-05 23:57:50 | 48.98077 | 18.18782 | 115° | 102km/h | 14758m | 3.5m/s | -56.9°C | 2.7% | 0hPa | 2.7V | 00:00:00 | 00:00:00 | 00:00:00 | |
| OE5DXL-15 | 2026-09-05 23:57:45 | 48.98124 | 18.18599 | 112° | 100km/h | 14738m | 3.3m/s | -57.1°C | 6.0% | 0hPa | 2.7V | 00:00:00 | 00:00:00 | 00:00:00 | |
| OM5KV | 2026-09-05 23:57:44 | 48.98124 | 18.18599 | 112° | 100km/h | 14738m | 3.4m/s | -57.2°C | 2.7% | 0hPa | 2.6V | 00:00:00 | 00:00:00 | 00:00:00 | |
| OM5KV | 2026-09-05 23:57:43 | 48.98133 | 18.18563 | 112° | 100km/h | 14734m | 4.8m/s | -57.2°C | 2.7% | 0hPa | 2.6V | 00:00:00 | 00:00:00 | 00:00:00 | |
| OE3OSB-13 | 2026-09-05 23:57:39 | 48.98192 | 18.18352 | 114° | 100km/h | 14707m | 3.6m/s | -57.1°C | 2.5% | -1.0hPa | 2.6V | 00:00:00 | 00:00:00 | 00:00:00 | |
| PETON7-10 | 2026-09-05 23:57:38 | 48.98192 | 18.18352 | 115° | 102km/h | 14708m | 3.6m/s | -57.0°C | 6.0% | 0hPa | 2.6V | 00:00:00 | 00:00:00 | 00:00:00 | |
| PG1ADW-2 | 2026-09-05 23:57:35 | 48.98225 | 18.18246 | 117° | 100km/h | 14694m | 5.2m/s | -56.9°C | 5.9% | 0hPa | 2.6V | 00:00:00 | 00:00:00 | 00:00:00 | |
| HA6NAB-11 | 2026-09-05 23:57:34 | 48.98237 | 18.18210 | 118° | 108km/h | 14689m | 3.7m/s | -56.9°C | 2.6% | 0hPa | 2.6V | 00:00:00 | 00:00:00 | 00:00:00 | |
| OE5DRO-10 | 2026-09-05 23:57:31 | 48.98274 | 18.18102 | 119° | 100km/h | 14677m | 4.3m/s | -56.9°C | 5.9% | 0hPa | 2.6V | 00:00:00 | 00:00:00 | 00:00:00 | |
| OM5KV | 2026-09-05 23:57:27 | 48.98323 | 18.17964 | 118° | 99km/h | 14659m | 5.2m/s | -57.1°C | 2.7% | 0hPa | 2.6V | 00:00:00 | 00:00:00 | 00:00:00 | |
| PETON7-10 | 2026-09-05 23:57:23 | 48.98366 | 18.17832 | 117° | 102km/h | 14642m | 3.5m/s | -57.4°C | 6.0% | 0hPa | 2.6V | 00:00:00 | 01:22:56 | 00:00:00 | |
| HA6NAB-11 | 2026-09-05 23:57:22 | 48.98366 | 18.17832 | 117° | 99km/h | 14642m | 3.6m/s | -57.4°C | 2.7% | 0hPa | 2.6V | 00:00:00 | 00:00:00 | 00:00:00 | |
| HA6NAB-11 | 2026-09-05 23:57:16 | 48.98442 | 18.17632 | 125° | 106km/h | 14617m | 4.7m/s | -57.5°C | 2.7% | 0hPa | 2.6V | 00:00:00 | 00:00:00 | 00:00:00 | |
| OE5DXL-15 | 2026-09-05 23:57:15 | 48.98472 | 18.17566 | 125° | 102km/h | 14608m | 3.0m/s | -57.4°C | 6.0% | 0hPa | 2.6V | 00:00:00 | 00:00:00 | 00:00:00 | |
| POL2MAQ | 2026-09-05 23:57:14 | 48.98472 | 18.17566 | 126° | 106km/h | 14608m | 3.1m/s | -57.5°C | 2.7% | 0hPa | 2.6V | 00:00:00 | 00:00:00 | 00:00:00 | |
| OE5DRO-10 | 2026-09-05 23:57:12 | 48.98516 | 18.17463 | 121° | 102km/h | 14596m | 3.9m/s | -57.5°C | 6.0% | 0hPa | 2.6V | 00:00:00 | 00:00:00 | 00:00:00 | |
| OM5KV | 2026-09-05 23:57:11 | 48.98529 | 18.17429 | 120° | 104km/h | 14591m | 4.8m/s | -57.6°C | 2.7% | 0hPa | 2.6V | 00:00:00 | 00:00:00 | 00:00:00 | |
| HA6NAB-11 | 2026-09-05 23:57:10 | 48.98529 | 18.17429 | 120° | 104km/h | 14591m | 4.8m/s | -57.6°C | 2.7% | 0hPa | 2.6V | 00:00:00 | 00:00:00 | 00:00:00 | |
| OM5KV | 2026-09-05 23:57:09 | 48.98542 | 18.17394 | 119° | 102km/h | 14587m | 3.9m/s | -57.6°C | 2.7% | 0hPa | 2.6V | 00:00:00 | 00:00:00 | 00:00:00 | |
| OE3OSB-13 | 2026-09-05 23:57:08 | 48.98578 | 18.17289 | 118° | 102km/h | 14574m | 3.2m/s | -57.6°C | 2.5% | -1.0hPa | 2.6V | 00:00:00 | 00:00:00 | 00:00:00 | |
| OM5KV | 2026-09-05 23:57:06 | 48.98590 | 18.17255 | 119° | 100km/h | 14570m | 5.3m/s | -57.7°C | 2.7% | 0hPa | 2.6V | 00:00:00 | 00:00:00 | 00:00:00 | |
| HA6NAB-11 | 2026-09-05 23:57:05 | 48.98602 | 18.17221 | 120° | 99km/h | 14565m | 3.7m/s | -57.7°C | 2.8% | 0hPa | 2.6V | 00:00:00 | 00:00:00 | 00:00:00 | |
| HA6NAB-11 | 2026-09-05 23:56:58 | 48.98678 | 18.17016 | 118° | 104km/h | 14539m | 4.9m/s | -57.7°C | 2.8% | 0hPa | 2.6V | 00:00:00 | 00:00:00 | 00:00:00 | |
| OM5KV | 2026-09-05 23:56:56 | 48.98701 | 18.16945 | 117° | 102km/h | 14531m | 3.5m/s | -57.7°C | 2.8% | 0hPa | 2.6V | 00:00:00 | 00:00:00 | 00:00:00 | |
| PG1ADW-2 | 2026-09-05 23:56:55 | 48.98724 | 18.16876 | 119° | 104km/h | 14522m | 2.7m/s | -57.8°C | 6.4% | 0hPa | 2.6V | 00:00:00 | 00:00:00 | 08:30:00 | |
| POL2MAQ | 2026-09-05 23:56:54 | 48.98736 | 18.16843 | 120° | 99km/h | 14518m | 5.4m/s | -57.9°C | 2.9% | 0hPa | 2.6V | 00:00:00 | 00:00:00 | 00:00:00 | |
| PETON7-10 | 2026-09-05 23:56:53 | 48.98749 | 18.16810 | 121° | 104km/h | 14513m | 3.7m/s | -57.9°C | 6.4% | 0hPa | 2.6V | 00:00:00 | 00:00:00 | 00:00:00 | |
| HA6NAB-11 | 2026-09-05 23:56:52 | 48.98748 | 18.16810 | 122° | 99km/h | 14513m | 3.8m/s | -57.9°C | 2.9% | 0hPa | 2.6V | 00:00:00 | 00:00:00 | 00:00:00 | |
| HA6NAB-11 | 2026-09-05 23:56:48 | 48.98817 | 18.16655 | 126° | 99km/h | 14490m | 5.7m/s | -58.0°C | 3.0% | 0hPa | 2.6V | 00:00:00 | 00:00:00 | 00:00:00 | |
| OE5DXL-15 | 2026-09-05 23:56:45 | 48.98858 | 18.16551 | 118° | 113km/h | 14476m | 5.5m/s | -58.1°C | 6.5% | 0hPa | 2.6V | 00:00:00 | 00:00:00 | 00:00:00 | |
| OM5KV | 2026-09-05 23:56:43 | 48.98883 | 18.16473 | 116° | 111km/h | 14463m | 7.1m/s | -58.1°C | 2.9% | 0hPa | 2.6V | 00:00:00 | 00:00:00 | 00:00:00 | |
| HA6NAB-11 | 2026-09-05 23:56:40 | 48.98917 | 18.16356 | 116° | 110km/h | 14443m | 5.0m/s | -58.1°C | 3.0% | 0hPa | 2.6V | 00:00:00 | 00:00:00 | 00:00:00 | |
| OM5KV | 2026-09-05 23:56:39 | 48.98917 | 18.16356 | 116° | 110km/h | 14443m | 5.0m/s | -58.1°C | 3.0% | 0hPa | 2.6V | 00:00:00 | 00:00:00 | 00:00:00 | |
| PETON7-10 | 2026-09-05 23:56:38 | 48.98941 | 18.16280 | 116° | 111km/h | 14432m | 3.8m/s | -58.0°C | 6.5% | 0hPa | 2.6V | 00:00:00 | 01:22:11 | 00:00:00 | |
| OE3OSB-13 | 2026-09-05 23:56:37 | 48.98965 | 18.16205 | 118° | 106km/h | 14421m | 6.5m/s | -58.1°C | 2.9% | -1.0hPa | 2.6V | 00:00:00 | 00:00:00 | 00:00:00 | |
| PG1ADW-2 | 2026-09-05 23:56:35 | 48.98979 | 18.16169 | 121° | 113km/h | 14416m | 4.6m/s | -58.1°C | 6.4% | 0hPa | 2.6V | 00:00:00 | 00:00:00 | 00:00:00 | |
| POL2MAQ | 2026-09-05 23:56:34 | 48.98993 | 18.16134 | 122° | 110km/h | 14411m | 4.9m/s | -58.2°C | 3.1% | 0hPa | 2.6V | 00:00:00 | 00:00:00 | 00:00:00 | |
| OM5KV | 2026-09-05 23:56:29 | 48.99063 | 18.15946 | 120° | 115km/h | 14379m | 3.4m/s | -58.3°C | 3.1% | 0hPa | 2.6V | 00:00:00 | 00:00:00 | 00:00:00 | |
| OM5KV | 2026-09-05 23:56:25 | 48.99103 | 18.15832 | 120° | 111km/h | 14363m | 5.4m/s | -58.3°C | 3.2% | 0hPa | 2.6V | 00:00:00 | 00:00:00 | 00:00:00 | |
| OM5KV | 2026-09-05 23:56:23 | 48.99159 | 18.15675 | 119° | 119km/h | 14344m | 4.4m/s | -58.6°C | 3.2% | 0hPa | 2.6V | 00:00:00 | 00:00:00 | 00:00:00 | |
| OM5KV | 2026-09-05 23:56:19 | 48.99188 | 18.15596 | 121° | 117km/h | 14334m | 5.0m/s | -58.6°C | 3.2% | 0hPa | 2.6V | 00:00:00 | 00:00:00 | 00:00:00 | |
| OM5KV | 2026-09-05 23:56:18 | 48.99203 | 18.15558 | 122° | 113km/h | 14328m | 7.1m/s | -58.6°C | 3.2% | 0hPa | 2.6V | 00:00:00 | 00:00:00 | 00:00:00 | |
| GYPAP8-17 | 2026-09-05 23:56:17 | 48.99218 | 18.15521 | 123° | 111km/h | 14323m | 3.5m/s | 0°C | 0% | 0hPa | 2.6V | 00:00:00 | 00:00:00 | 00:00:00 | |
| OE5DXL-15 | 2026-09-05 23:56:15 | 48.99260 | 18.15410 | 119° | 122km/h | 14308m | 4.8m/s | -58.7°C | 6.9% | 0hPa | 2.6V | 00:00:00 | 00:00:00 | 08:30:00 | |
| POL2MAQ | 2026-09-05 23:56:13 | 48.99288 | 18.15334 | 121° | 115km/h | 14299m | 5.8m/s | -58.9°C | 3.4% | 0hPa | 2.7V | 00:00:00 | 00:00:00 | 00:00:00 | |
| HA6NAB-11 | 2026-09-05 23:56:12 | 48.99288 | 18.15334 | 121° | 115km/h | 14299m | 5.8m/s | -58.9°C | 3.4% | 0hPa | 2.7V | 00:00:00 | 00:00:00 | 00:00:00 | |
| PETON7-10 | 2026-09-05 23:56:08 | 48.99361 | 18.15131 | 119° | 120km/h | 14275m | 3.9m/s | -58.9°C | 7.2% | 0hPa | 2.7V | 00:00:00 | 00:00:00 | 00:00:00 | |
| HA6NAB-11 | 2026-09-05 23:56:07 | 48.99361 | 18.15131 | 120° | 120km/h | 14275m | 3.9m/s | -58.9°C | 3.4% | 0hPa | 2.7V | 00:00:00 | 00:00:00 | 00:00:00 | |
| OM5KV | 2026-09-05 23:56:06 | 48.99375 | 18.15091 | 119° | 119km/h | 14271m | 5.4m/s | -58.9°C | 3.5% | 0hPa | 2.7V | 00:00:00 | 00:00:00 | 00:00:00 | |
| OE3OSB-13 | 2026-09-05 23:56:05 | 48.99402 | 18.15011 | 115° | 115km/h | 14262m | 2.5m/s | -58.9°C | 3.3% | -1.0hPa | 2.7V | 00:00:00 | 00:00:00 | 00:00:00 | |
| HA6NAB-11 | 2026-09-05 23:56:01 | 48.99442 | 18.14888 | 118° | 120km/h | 14248m | 4.7m/s | -58.9°C | 3.6% | 0hPa | 2.7V | 00:00:00 | 00:00:00 | 00:00:00 | |
| OM5KV | 2026-09-05 23:55:58 | 48.99484 | 18.14762 | 118° | 122km/h | 14234m | 4.3m/s | -58.8°C | 3.5% | 0hPa | 2.7V | 00:00:00 | 00:00:00 | 00:00:00 | |
| OM5KV | 2026-09-05 23:55:56 | 48.99529 | 18.14637 | 121° | 126km/h | 14219m | 4.8m/s | -58.8°C | 3.5% | 0hPa | 2.7V | 00:00:00 | 00:00:00 | 00:00:00 | |
| PG1ADW-2 | 2026-09-05 23:55:55 | 48.99545 | 18.14595 | 121° | 126km/h | 14214m | 4.7m/s | -58.7°C | 7.2% | 0hPa | 2.7V | 00:00:00 | 01:21:28 | 00:00:00 | |
| PETON7-10 | 2026-09-05 23:55:53 | 48.99578 | 18.14515 | 123° | 128km/h | 14204m | 5.2m/s | -58.7°C | 7.1% | 0hPa | 2.7V | 00:00:00 | 01:21:26 | 00:00:00 | |
| POL2MAQ | 2026-09-05 23:55:52 | 48.99578 | 18.14515 | 123° | 120km/h | 14204m | 5.3m/s | -58.8°C | 3.5% | 0hPa | 2.7V | 00:00:00 | 00:00:00 | 00:00:00 | |
| OE3JTB-15 | 2026-09-05 23:55:51 | 48.99653 | 18.14307 | 116° | 128km/h | 14177m | 5.9m/s | -58.7°C | 7.0% | 0hPa | 2.7V | 00:00:00 | 00:00:00 | 00:00:00 | |
| OE5DXL-15 | 2026-09-05 23:55:45 | 48.99697 | 18.14168 | 117° | 128km/h | 14159m | 5.4m/s | -58.7°C | 7.1% | 0hPa | 2.7V | 00:00:00 | 00:00:00 | 00:00:00 | |
| OM5KV | 2026-09-05 23:55:44 | 48.99697 | 18.14168 | 117° | 135km/h | 14159m | 5.4m/s | -58.8°C | 3.5% | 0hPa | 2.7V | 00:00:00 | 00:00:00 | 00:00:00 | |
| PETON7-10 | 2026-09-05 23:55:38 | 48.99796 | 18.13860 | 118° | 128km/h | 14127m | 3.4m/s | -58.9°C | 7.2% | 0hPa | 2.7V | 00:00:00 | 00:00:00 | 00:00:00 | |
| OE5DRO-10 | 2026-09-05 23:55:37 | 48.99810 | 18.13818 | 116° | 128km/h | 14124m | 4.5m/s | -58.9°C | 7.3% | 0hPa | 2.7V | 00:00:00 | 00:00:00 | 00:00:00 | |
| OE3OSB-13 | 2026-09-05 23:55:35 | 48.99845 | 18.13684 | 108° | 130km/h | 14109m | 4.4m/s | -59.0°C | 3.3% | -1.0hPa | 2.7V | 00:00:00 | 00:00:00 | 00:00:00 | |
| OM5KV | 2026-09-05 23:55:32 | 48.99855 | 18.13636 | 109° | 133km/h | 14104m | 5.6m/s | -59.0°C | 3.6% | 0hPa | 2.7V | 00:00:00 | 00:00:00 | 00:00:00 | |
| POL2MAQ | 2026-09-05 23:55:31 | 48.99866 | 18.13587 | 111° | 135km/h | 14099m | 5.1m/s | -59.1°C | 3.6% | 0hPa | 2.7V | 00:00:00 | 00:00:00 | 00:00:00 | |
| OM5KV | 2026-09-05 23:55:27 | 48.99917 | 18.13399 | 114° | 128km/h | 14081m | 4.2m/s | -59.0°C | 3.6% | 0hPa | 2.7V | 00:00:00 | 00:00:00 | 00:00:00 | |
| OM5KV | 2026-09-05 23:55:26 | 48.99929 | 18.13354 | 112° | 126km/h | 14076m | 5.8m/s | -59.0°C | 3.7% | 0hPa | 2.7V | 00:00:00 | 00:00:00 | 00:00:00 | |
| PETON7-10 | 2026-09-05 23:55:23 | 48.99973 | 18.13175 | 110° | 130km/h | 14058m | 2.7m/s | -59.0°C | 7.5% | 0hPa | 2.7V | 00:00:00 | 00:00:00 | 00:00:00 | |
| OM5KV | 2026-09-05 23:55:20 | 49.00004 | 18.13039 | 109° | 128km/h | 14045m | 3.9m/s | -59.3°C | 3.8% | 0hPa | 2.7V | 00:00:00 | 00:00:00 | 00:00:00 | |
| OE5DRO-10 | 2026-09-05 23:55:18 | 49.00025 | 18.12945 | 110° | 135km/h | 14035m | 5.4m/s | -59.3°C | 7.5% | 0hPa | 2.7V | 00:00:00 | 00:00:00 | 00:00:00 | |
| OM5KV | 2026-09-05 23:55:12 | 49.00082 | 18.12710 | 108° | 133km/h | 14010m | 5.3m/s | -59.3°C | 3.8% | 0hPa | 2.7V | 00:00:00 | 00:00:00 | 00:00:00 | |
| POL2MAQ | 2026-09-05 23:55:10 | 49.00101 | 18.12611 | 107° | 135km/h | 14001m | 3.6m/s | -59.3°C | 3.8% | 0hPa | 2.7V | 00:00:00 | 00:00:00 | 00:00:00 | |
| PETON7-10 | 2026-09-05 23:55:08 | 49.00129 | 18.12462 | 106° | 137km/h | 13988m | 4.8m/s | -59.3°C | 7.7% | 0hPa | 2.7V | 00:00:00 | 01:20:41 | 00:00:00 | |
| OE3OSB-13 | 2026-09-05 23:55:03 | 49.00175 | 18.12209 | 106° | 135km/h | 13966m | 3.5m/s | -59.3°C | 3.6% | -1.0hPa | 2.7V | 00:00:00 | 00:00:00 | 00:00:00 | |
| OM5KV | 2026-09-05 23:55:02 | 49.00175 | 18.12209 | 107° | 135km/h | 13966m | 3.5m/s | -59.3°C | 3.9% | 0hPa | 2.7V | 00:00:00 | 00:00:00 | 00:00:00 | |
| OE5DRO-10 | 2026-09-05 23:54:59 | 49.00216 | 18.12007 | 108° | 139km/h | 13948m | 4.5m/s | -59.2°C | 7.9% | 0hPa | 2.7V | 00:00:00 | 00:00:00 | 08:30:00 | |
| PG1ADW-2 | 2026-09-05 23:54:55 | 49.00255 | 18.11804 | 106° | 139km/h | 13931m | 4.8m/s | -59.1°C | 7.8% | 0hPa | 2.7V | 00:00:00 | 00:00:00 | 00:00:00 | |
| PETON7-10 | 2026-09-05 23:54:53 | 49.00273 | 18.11703 | 106° | 139km/h | 13922m | 3.7m/s | -59.1°C | 7.8% | 0hPa | 2.7V | 00:00:00 | 00:00:00 | 08:30:00 | |
| OM5KV | 2026-09-05 23:54:52 | 49.00273 | 18.11703 | 106° | 137km/h | 13922m | 3.8m/s | -59.1°C | 4.0% | 0hPa | 2.7V | 00:00:00 | 00:00:00 | 00:00:00 | |
| POL2MAQ | 2026-09-05 23:54:51 | 49.00291 | 18.11599 | 105° | 141km/h | 13912m | 4.0m/s | -59.1°C | 4.0% | 0hPa | 2.7V | 00:00:00 | 00:00:00 | 00:00:00 | |
| OM5KV | 2026-09-05 23:54:49 | 49.00300 | 18.11547 | 106° | 141km/h | 13909m | 2.5m/s | -59.1°C | 4.0% | 0hPa | 2.7V | 00:00:00 | 00:00:00 | 00:00:00 | |
| GYPAP8-17 | 2026-09-05 23:54:48 | 49.00320 | 18.11444 | 109° | 141km/h | 13900m | 4.3m/s | 0°C | 0% | 0hPa | 2.7V | 00:00:00 | 00:00:00 | 00:00:00 | |
| OE5DXL-15 | 2026-09-05 23:54:45 | 49.00352 | 18.11289 | 108° | 139km/h | 13886m | 3.2m/s | -59.1°C | 7.9% | 0hPa | 2.7V | 00:00:00 | 00:00:00 | 00:00:00 | |
| OM5KV | 2026-09-05 23:54:43 | 49.00363 | 18.11238 | 108° | 139km/h | 13882m | 5.7m/s | -59.2°C | 4.1% | 0hPa | 2.7V | 00:00:00 | 00:00:00 | 00:00:00 | |
| HA6NAB-11 | 2026-09-05 23:54:42 | 49.00373 | 18.11186 | 108° | 137km/h | 13877m | 4.6m/s | -59.2°C | 4.2% | 0hPa | 2.7V | 00:00:00 | 00:00:00 | 00:00:00 | |
| OM5KV | 2026-09-05 23:54:41 | 49.00392 | 18.11086 | 106° | 135km/h | 13867m | 5.2m/s | -59.2°C | 4.1% | 0hPa | 2.7V | 00:00:00 | 00:00:00 | 00:00:00 | |
| OE5DRO-10 | 2026-09-05 23:54:40 | 49.00401 | 18.11035 | 106° | 139km/h | 13862m | 3.8m/s | -59.1°C | 7.9% | 0hPa | 2.7V | 00:00:00 | 00:00:00 | 00:00:00 | |
| OE3JTB-15 | 2026-09-05 23:54:39 | 49.00410 | 18.10985 | 107° | 135km/h | 13857m | 5.6m/s | -59.1°C | 7.9% | 0hPa | 2.7V | 00:00:00 | 00:00:00 | 00:00:00 | |
| PETON7-10 | 2026-09-05 23:54:38 | 49.00421 | 18.10934 | 109° | 141km/h | 13852m | 4.6m/s | -59.1°C | 7.9% | 0hPa | 2.7V | 00:00:00 | 00:00:00 | 00:00:00 | |
| OM5KV | 2026-09-05 23:54:37 | 49.00421 | 18.10934 | 109° | 137km/h | 13852m | 4.7m/s | -59.1°C | 4.1% | 0hPa | 2.7V | 00:00:00 | 00:00:00 | 00:00:00 | |
| PG1ADW-2 | 2026-09-05 23:54:35 | 49.00455 | 18.10781 | 109° | 139km/h | 13839m | 4.5m/s | -59.0°C | 8.0% | 0hPa | 2.7V | 00:00:00 | 01:20:08 | 00:00:00 | |
| OM5KV | 2026-09-05 23:54:34 | 49.00455 | 18.10781 | 110° | 142km/h | 13839m | 4.5m/s | -59.0°C | 4.1% | 0hPa | 2.7V | 00:00:00 | 00:00:00 | 00:00:00 | |
| OE3OSB-13 | 2026-09-05 23:54:32 | 49.00491 | 18.10626 | 109° | 142km/h | 13825m | 3.3m/s | -58.9°C | 3.9% | -1.0hPa | 2.7V | 00:00:00 | 00:00:00 | 00:00:00 | |
| OM5KV | 2026-09-05 23:54:28 | 49.00524 | 18.10469 | 107° | 141km/h | 13813m | 3.1m/s | -58.8°C | 4.2% | 0hPa | 2.7V | 00:00:00 | 00:00:00 | 00:00:00 | |
| OM5KV | 2026-09-05 23:54:24 | 49.00563 | 18.10267 | 108° | 137km/h | 13795m | 5.6m/s | -58.7°C | 4.2% | 0hPa | 2.7V | 00:00:00 | 00:00:00 | 00:00:00 | |
| PETON7-10 | 2026-09-05 23:54:23 | 49.00583 | 18.10166 | 107° | 135km/h | 13786m | 4.7m/s | -58.6°C | 8.0% | 0hPa | 2.7V | 00:00:00 | 01:19:56 | 00:00:00 | |
| OE5DRO-10 | 2026-09-05 23:54:21 | 49.00604 | 18.10065 | 108° | 135km/h | 13777m | 3.5m/s | -58.6°C | 8.1% | 0hPa | 2.7V | 00:00:00 | 00:00:00 | 00:00:00 | |
| OM5KV | 2026-09-05 23:54:19 | 49.00624 | 18.09962 | 108° | 141km/h | 13768m | 4.2m/s | -58.6°C | 4.3% | 0hPa | 2.7V | 00:00:00 | 00:00:00 | 00:00:00 | |
| OM5KV | 2026-09-05 23:54:17 | 49.00645 | 18.09859 | 108° | 139km/h | 13758m | 5.2m/s | -58.6°C | 4.4% | 0hPa | 2.7V | 00:00:00 | 00:00:00 | 00:00:00 | |
| OE5DXL-15 | 2026-09-05 23:54:15 | 49.00664 | 18.09758 | 106° | 135km/h | 13749m | 5.8m/s | -58.4°C | 8.1% | 0hPa | 2.7V | 00:00:00 | 00:00:00 | 00:00:00 | |
| PG1ADW-2 | 2026-09-05 23:54:13 | 49.00683 | 18.09659 | 107° | 135km/h | 13739m | 5.4m/s | -58.4°C | 8.1% | 0hPa | 2.7V | 00:00:00 | 00:00:00 | 00:00:00 | |
| OM5KV | 2026-09-05 23:54:12 | 49.00683 | 18.09659 | 108° | 131km/h | 13739m | 5.4m/s | -58.5°C | 4.3% | 0hPa | 2.7V | 00:00:00 | 00:00:00 | 00:00:00 | |
| OE3JTB-15 | 2026-09-05 23:54:10 | 49.00713 | 18.09516 | 109° | 139km/h | 13725m | 5.3m/s | -58.5°C | 8.2% | 0hPa | 2.7V | 00:00:00 | 00:00:00 | 00:00:00 | |
| PETON7-10 | 2026-09-05 23:54:08 | 49.00734 | 18.09418 | 107° | 135km/h | 13717m | 3.7m/s | -58.6°C | 8.1% | 0hPa | 2.7V | 00:00:00 | 00:00:00 | 00:00:00 | |
| OM5KV | 2026-09-05 23:54:07 | 49.00734 | 18.09418 | 108° | 133km/h | 13717m | 3.8m/s | -58.6°C | 4.3% | 0hPa | 2.7V | 00:00:00 | 00:00:00 | 00:00:00 | |
| OE3OSB-13 | 2026-09-05 23:54:01 | 49.00796 | 18.09070 | 105° | 135km/h | 13683m | 4.1m/s | -58.7°C | 4.3% | -1.0hPa | 2.7V | 00:00:00 | 00:00:00 | 00:00:00 | |
| OM5KV | 2026-09-05 23:53:58 | 49.00814 | 18.08969 | 107° | 139km/h | 13674m | 4.1m/s | -58.6°C | 4.6% | 0hPa | 2.7V | 00:00:00 | 00:00:00 | 00:00:00 | |
| OM5KV | 2026-09-05 23:53:56 | 49.00832 | 18.08866 | 104° | 137km/h | 13666m | 5.3m/s | -58.6°C | 4.6% | 0hPa | 2.7V | 00:00:00 | 00:00:00 | 00:00:00 | |
| PETON7-10 | 2026-09-05 23:53:53 | 49.00860 | 18.08660 | 102° | 135km/h | 13648m | 3.7m/s | -58.5°C | 8.7% | 0hPa | 2.7V | 00:00:00 | 00:00:00 | 00:00:00 | |
| OM5KV | 2026-09-05 23:53:51 | 49.00867 | 18.08609 | 102° | 135km/h | 13644m | 4.4m/s | -58.6°C | 4.7% | 0hPa | 2.7V | 00:00:00 | 00:00:00 | 00:00:00 | |
| OM5KV | 2026-09-05 23:53:50 | 49.00881 | 18.08509 | 104° | 131km/h | 13634m | 4.4m/s | -58.7°C | 4.8% | 0hPa | 2.7V | 00:00:00 | 00:00:00 | 00:00:00 | |
| POL2MAQ | 2026-09-05 23:53:48 | 49.00889 | 18.08459 | 105° | 133km/h | 13630m | 4.0m/s | -58.7°C | 4.9% | 0hPa | 2.7V | 00:00:00 | 00:00:00 | 00:00:00 | |
| OM5KV | 2026-09-05 23:53:47 | 49.00896 | 18.08409 | 104° | 135km/h | 13626m | 4.4m/s | -58.7°C | 5.0% | 0hPa | 2.7V | 00:00:00 | 00:00:00 | 00:00:00 | |
| OE5DXL-15 | 2026-09-05 23:53:45 | 49.00918 | 18.08255 | 101° | 135km/h | 13613m | 4.5m/s | -58.6°C | 9.0% | 0hPa | 2.7V | 00:00:00 | 00:00:00 | 00:00:00 | |
| OE5DRO-10 | 2026-09-05 23:53:43 | 49.00931 | 18.08153 | 102° | 135km/h | 13604m | 4.5m/s | -58.6°C | 9.0% | 0hPa | 2.7V | 00:00:00 | 00:00:00 | 00:00:00 | |
| OM5KV | 2026-09-05 23:53:40 | 49.00946 | 18.08051 | 103° | 139km/h | 13595m | 3.8m/s | -58.6°C | 5.0% | 0hPa | 2.7V | 00:00:00 | 00:00:00 | 00:00:00 | |
| PETON7-10 | 2026-09-05 23:53:38 | 49.00966 | 18.07897 | 101° | 135km/h | 13581m | 5.1m/s | -58.6°C | 9.2% | 0hPa | 2.7V | 00:00:00 | 01:19:11 | 00:00:00 | |
| OM5KV | 2026-09-05 23:53:36 | 49.00973 | 18.07847 | 102° | 133km/h | 13577m | 3.6m/s | -58.6°C | 5.2% | 0hPa | 2.7V | 00:00:00 | 00:00:00 | 00:00:00 | |
| OM5KV | 2026-09-05 23:53:35 | 49.00979 | 18.07797 | 102° | 133km/h | 13573m | 5.4m/s | -58.6°C | 5.2% | 0hPa | 2.7V | 00:00:00 | 00:00:00 | 00:00:00 | |
| PG1ADW-2 | 2026-09-05 23:53:33 | 49.00999 | 18.07645 | 102° | 135km/h | 13558m | 5.1m/s | -58.4°C | 9.3% | 0hPa | 2.7V | 00:00:00 | 00:00:00 | 00:00:00 | |
| HA6NAB-11 | 2026-09-05 23:53:32 | 49.01000 | 18.07645 | 102° | 135km/h | 13558m | 5.2m/s | -58.4°C | 5.3% | 0hPa | 2.7V | 00:00:00 | 00:00:00 | 00:00:00 | |
| OE3OSB-13 | 2026-09-05 23:53:30 | 49.01017 | 18.07492 | 97° | 135km/h | 13546m | 5.5m/s | -58.3°C | 5.0% | -1.0hPa | 2.7V | 00:00:00 | 00:00:00 | 00:00:00 | |
| OM5KV | 2026-09-05 23:53:29 | 49.01017 | 18.07492 | 99° | 137km/h | 13546m | 5.5m/s | -58.3°C | 5.2% | 0hPa | 2.7V | 00:00:00 | 00:00:00 | 00:00:00 | |
| OM5KV | 2026-09-05 23:53:28 | 49.01021 | 18.07439 | 98° | 137km/h | 13541m | 4.3m/s | -58.3°C | 5.2% | 0hPa | 2.7V | 00:00:00 | 00:00:00 | 00:00:00 | |
| POL2MAQ | 2026-09-05 23:53:27 | 49.01025 | 18.07387 | 97° | 137km/h | 13536m | 4.1m/s | -58.3°C | 5.2% | 0hPa | 2.7V | 00:00:00 | 00:00:00 | 00:00:00 | |
| HA6NAB-11 | 2026-09-05 23:53:26 | 49.01029 | 18.07335 | 97° | 135km/h | 13532m | 5.6m/s | -58.2°C | 5.2% | 0hPa | 2.7V | 00:00:00 | 00:00:00 | 00:00:00 | |
| OE5DRO-10 | 2026-09-05 23:53:24 | 49.01041 | 18.07179 | 97° | 133km/h | 13518m | 4.9m/s | -58.1°C | 9.4% | 0hPa | 2.7V | 00:00:00 | 00:00:00 | 00:00:00 | |
| PETON7-10 | 2026-09-05 23:53:23 | 49.01045 | 18.07127 | 99° | 133km/h | 13513m | 3.8m/s | -58.0°C | 9.4% | 0hPa | 2.7V | 00:00:00 | 00:00:00 | 00:00:00 | |
| OM5KV | 2026-09-05 23:53:22 | 49.01050 | 18.07076 | 99° | 133km/h | 13509m | 5.3m/s | -58.1°C | 5.4% | 0hPa | 2.7V | 00:00:00 | 00:00:00 | 00:00:00 | |
| HA6NAB-11 | 2026-09-05 23:53:19 | 49.01060 | 18.06975 | 100° | 131km/h | 13499m | 4.5m/s | -58.0°C | 5.6% | 0hPa | 2.7V | 00:00:00 | 00:00:00 | 00:00:00 | |
| OM5KV | 2026-09-05 23:53:17 | 49.01077 | 18.06823 | 101° | 133km/h | 13485m | 5.1m/s | -57.9°C | 5.8% | 0hPa | 2.7V | 00:00:00 | 00:00:00 | 00:00:00 | |
| OE5DXL-15 | 2026-09-05 23:53:15 | 49.01090 | 18.06723 | 101° | 130km/h | 13475m | 4.4m/s | -57.7°C | 10.1% | 0hPa | 2.7V | 00:00:00 | 00:00:00 | 00:00:00 | |
| HA6NAB-11 | 2026-09-05 23:53:14 | 49.01095 | 18.06672 | 101° | 135km/h | 13471m | 4.6m/s | -57.8°C | 5.9% | 0hPa | 2.7V | 00:00:00 | 00:00:00 | 00:00:00 | |
| PG1ADW-2 | 2026-09-05 23:53:13 | 49.01101 | 18.06621 | 100° | 131km/h | 13466m | 4.8m/s | -57.7°C | 10.1% | 0hPa | 2.7V | 00:00:00 | 01:18:46 | 00:00:00 | |
| OM5KV | 2026-09-05 23:53:09 | 49.01116 | 18.06466 | 97° | 131km/h | 13453m | 5.1m/s | -57.8°C | 6.2% | 0hPa | 2.7V | 00:00:00 | 00:00:00 | 00:00:00 | |
| POL2MAQ | 2026-09-05 23:53:08 | 49.01123 | 18.06367 | 97° | 128km/h | 13443m | 5.7m/s | -57.7°C | 6.2% | 0hPa | 2.7V | 00:00:00 | 00:00:00 | 00:00:00 | |
| OM5KV | 2026-09-05 23:53:06 | 49.01126 | 18.06318 | 97° | 128km/h | 13438m | 4.1m/s | -57.7°C | 6.3% | 0hPa | 2.7V | 00:00:00 | 00:00:00 | 00:00:00 | |
| OE3OSB-13 | 2026-09-05 23:52:59 | 49.01169 | 18.05916 | 102° | 133km/h | 13396m | 4.5m/s | -57.6°C | 6.8% | -1.0hPa | 2.7V | 00:00:00 | 00:00:00 | 00:00:00 | |
| S52SK | 2026-09-05 23:52:58 | 49.01169 | 18.05916 | 103° | 133km/h | 13396m | 4.5m/s | -57.6°C | 7.0% | 0hPa | 2.7V | 00:00:00 | 00:00:00 | 00:00:00 | |
| HA6NAB-11 | 2026-09-05 23:52:54 | 49.01195 | 18.05719 | 101° | 130km/h | 13374m | 5.8m/s | -57.6°C | 7.6% | 0hPa | 2.7V | 00:00:00 | 00:00:00 | 00:00:00 | |
| PETON7-10 | 2026-09-05 23:52:53 | 49.01206 | 18.05623 | 101° | 128km/h | 13364m | 2.8m/s | -57.6°C | 12.3% | 0hPa | 2.7V | 00:00:00 | 01:18:26 | 00:00:00 | |
| S52SK | 2026-09-05 23:52:51 | 49.01211 | 18.05576 | 102° | 120km/h | 13361m | 4.7m/s | -57.7°C | 7.9% | 0hPa | 2.7V | 00:00:00 | 00:00:00 | 00:00:00 | |
| OM5KV | 2026-09-05 23:52:50 | 49.01223 | 18.05488 | 102° | 113km/h | 13349m | 5.6m/s | -57.8°C | 7.9% | 0hPa | 2.7V | 00:00:00 | 00:00:00 | 00:00:00 | |
| POL2MAQ | 2026-09-05 23:52:48 | 49.01233 | 18.05401 | 99° | 117km/h | 13339m | 5.6m/s | -57.8°C | 8.0% | 0hPa | 2.7V | 00:00:00 | 00:00:00 | 00:00:00 | |
| OM5KV | 2026-09-05 23:52:46 | 49.01242 | 18.05307 | 100° | 130km/h | 13331m | 4.7m/s | -57.9°C | 8.2% | 0hPa | 2.7V | 00:00:00 | 00:00:00 | 00:00:00 | |
| OE5DXL-15 | 2026-09-05 23:52:45 | 49.01247 | 18.05257 | 102° | 131km/h | 13325m | 6.9m/s | -57.9°C | 12.9% | 0hPa | 2.7V | 00:00:00 | 00:00:00 | 00:00:00 | |
| HA6NAB-11 | 2026-09-05 23:52:43 | 49.01255 | 18.05207 | 106° | 137km/h | 13319m | 5.6m/s | -57.9°C | 8.6% | 0hPa | 2.7V | 00:00:00 | 00:00:00 | 00:00:00 | |
| OM5KV | 2026-09-05 23:52:39 | 49.01299 | 18.05009 | 110° | 131km/h | 13299m | 5.8m/s | -58.1°C | 9.3% | 0hPa | 2.7V | 00:00:00 | 00:00:00 | 00:00:00 | |
| PETON7-10 | 2026-09-05 23:52:38 | 49.01320 | 18.04913 | 109° | 126km/h | 13287m | 4.7m/s | -58.0°C | 14.7% | 0hPa | 2.7V | 00:00:00 | 00:00:00 | 08:30:00 | |
| PG1ADW-2 | 2026-09-05 23:52:33 | 49.01386 | 18.04681 | 119° | 130km/h | 13255m | 4.3m/s | -58.2°C | 15.9% | 0hPa | 2.7V | 00:00:00 | 00:00:00 | 00:00:00 | |
| HA6NAB-11 | 2026-09-05 23:52:32 | 49.01386 | 18.04681 | 120° | 133km/h | 13255m | 4.3m/s | -58.3°C | 10.7% | 0hPa | 2.7V | 00:00:00 | 00:00:00 | 00:00:00 | |
| OM5KV | 2026-09-05 23:52:30 | 49.01416 | 18.04591 | 114° | 128km/h | 13243m | 6.5m/s | -58.4°C | 10.6% | 0hPa | 2.7V | 00:00:00 | 00:00:00 | 00:00:00 | |
| OM5KV | 2026-09-05 23:52:29 | 49.01436 | 18.04500 | 105° | 122km/h | 13233m | 4.8m/s | -58.3°C | 10.2% | 0hPa | 2.7V | 00:00:00 | 00:00:00 | 00:00:00 | |
| OE3OSB-13 | 2026-09-05 23:52:28 | 49.01443 | 18.04454 | 101° | 122km/h | 13227m | 7.9m/s | -58.3°C | 9.9% | -1.0hPa | 2.7V | 00:00:00 | 00:00:00 | 00:00:00 | |
| OE5DRO-10 | 2026-09-05 23:52:27 | 49.01449 | 18.04409 | 101° | 130km/h | 13219m | 8.5m/s | -58.3°C | 15.5% | 0hPa | 2.7V | 00:00:00 | 00:00:00 | 00:00:00 | |
| POL2MAQ | 2026-09-05 23:52:26 | 49.01449 | 18.04409 | 102° | 115km/h | 13219m | 8.6m/s | -58.3°C | 10.4% | 0hPa | 2.7V | 00:00:00 | 00:00:00 | 00:00:00 | |
| HA6NAB-11 | 2026-09-05 23:52:25 | 49.01456 | 18.04366 | 107° | 111km/h | 13210m | 9.4m/s | -58.3°C | 0% | 0hPa | 2.7V | 00:00:00 | 00:00:00 | 00:00:00 | |
| OM5KV | 2026-09-05 23:52:24 | 49.01466 | 18.04326 | 116° | 111km/h | 13202m | 8.0m/s | -58.3°C | 10.8% | 0hPa | 2.7V | 00:00:00 | 00:00:00 | 00:00:00 | |
| PETON7-10 | 2026-09-05 23:52:23 | 49.01500 | 18.04249 | 129° | 133km/h | 13185m | 9.2m/s | -58.1°C | 16.0% | 0hPa | 2.7V | 00:00:00 | 00:00:00 | 00:00:00 | |
| OM5KV | 2026-09-05 23:52:20 | 49.01544 | 18.04164 | 127° | 146km/h | 13168m | 7.1m/s | -58.1°C | 11.3% | 0hPa | 2.7V | 00:00:00 | 00:00:00 | 00:00:00 | |
| HA6NAB-11 | 2026-09-05 23:52:18 | 49.01583 | 18.04067 | 119° | 151km/h | 13158m | 4.3m/s | -58.1°C | 0% | 0hPa | 2.7V | 00:00:00 | 00:00:00 | 00:00:00 | |
| OM5KV | 2026-09-05 23:52:17 | 49.01599 | 18.04015 | 115° | 146km/h | 13153m | 5.5m/s | -58.0°C | 10.8% | 0hPa | 2.7V | 00:00:00 | 00:00:00 | 00:00:00 | |
| OE5DXL-15 | 2026-09-05 23:52:15 | 49.01637 | 18.03868 | 112° | 131km/h | 13128m | 8.3m/s | -57.9°C | 16.3% | 0hPa | 2.7V | 00:00:00 | 00:00:00 | 00:00:00 | |
| PG1ADW-2 | 2026-09-05 23:52:13 | 49.01661 | 18.03786 | 120° | 133km/h | 13110m | 8.1m/s | -58.0°C | 16.9% | 0hPa | 2.7V | 00:00:00 | 00:00:00 | 00:00:00 | |
| OM5KV | 2026-09-05 23:52:12 | 49.01678 | 18.03749 | 127° | 119km/h | 13102m | 8.3m/s | -58.0°C | 11.8% | 0hPa | 2.7V | 00:00:00 | 00:00:00 | 00:00:00 | |
| PETON7-10 | 2026-09-05 23:52:08 | 49.01762 | 18.03604 | 132° | 137km/h | 13076m | 7.6m/s | -57.7°C | 17.3% | 0hPa | 2.7V | 00:00:00 | 01:17:41 | 00:00:00 | |
| POL2MAQ | 2026-09-05 23:52:06 | 49.01782 | 18.03567 | 129° | 122km/h | 13068m | 7.7m/s | -57.7°C | 12.0% | 0hPa | 2.7V | 00:00:00 | 00:00:00 | 00:00:00 | |
| OM5KV | 2026-09-05 23:52:05 | 49.01800 | 18.03529 | 124° | 120km/h | 13062m | 6.3m/s | -57.6°C | 11.8% | 0hPa | 2.7V | 00:00:00 | 00:00:00 | 00:00:00 | |
| OM5KV | 2026-09-05 23:52:02 | 49.01840 | 18.03403 | 112° | 124km/h | 13042m | 10.0m/s | -57.4°C | 11.4% | 0hPa | 2.7V | 00:00:00 | 00:00:00 | 00:00:00 | |
| OE3OSB-13 | 2026-09-05 23:51:57 | 49.01955 | 18.03106 | 128° | 157km/h | 12999m | 7.8m/s | -57.1°C | 12.0% | -1.0hPa | 2.7V | 00:00:00 | 00:00:00 | 00:00:00 | |
| OM5KV | 2026-09-05 23:51:56 | 49.01955 | 18.03106 | 130° | 159km/h | 12999m | 7.8m/s | -57.1°C | 12.2% | 0hPa | 2.7V | 00:00:00 | 00:00:00 | 00:00:00 | |
| OM5KV | 2026-09-05 23:51:54 | 49.02023 | 18.02980 | 131° | 128km/h | 12979m | 6.7m/s | -57.0°C | 12.1% | 0hPa | 2.7V | 00:00:00 | 00:00:00 | 00:00:00 | |
| PG1ADW-2 | 2026-09-05 23:51:53 | 49.02043 | 18.02943 | 128° | 142km/h | 12972m | 8.1m/s | -56.9°C | 17.2% | 0hPa | 2.7V | 00:00:00 | 01:17:26 | 00:00:00 | |
| OM5KV | 2026-09-05 23:51:51 | 49.02061 | 18.02906 | 126° | 119km/h | 12963m | 8.3m/s | -56.9°C | 12.1% | 0hPa | 2.7V | 00:00:00 | 00:00:00 | 00:00:00 | |
| OE5DRO-10 | 2026-09-05 23:51:49 | 49.02109 | 18.02777 | 116° | 142km/h | 12946m | 5.4m/s | -56.7°C | 17.6% | 0hPa | 2.7V | 00:00:00 | 00:00:00 | 00:00:00 | |
| OM5KV | 2026-09-05 23:51:48 | 49.02110 | 18.02777 | 116° | 137km/h | 12946m | 5.4m/s | -56.8°C | 12.4% | 0hPa | 2.7V | 00:00:00 | 00:00:00 | 00:00:00 | |
| OM5KV | 2026-09-05 23:51:47 | 49.02125 | 18.02728 | 116° | 142km/h | 12941m | 6.4m/s | -56.7°C | 12.6% | 0hPa | 2.7V | 00:00:00 | 00:00:00 | 00:00:00 | |
| OE5DXL-15 | 2026-09-05 23:51:45 | 49.02175 | 18.02587 | 126° | 148km/h | 12920m | 8.5m/s | -56.6°C | 18.7% | 0hPa | 2.7V | 00:00:00 | 00:00:00 | 08:30:00 | |
| OM5KV | 2026-09-05 23:51:43 | 49.02197 | 18.02548 | 133° | 131km/h | 12913m | 7.9m/s | -56.6°C | 13.5% | 0hPa | 2.7V | 00:00:00 | 00:00:00 | 00:00:00 | |
| OM5KV | 2026-09-05 23:51:41 | 49.02245 | 18.02476 | 137° | 137km/h | 12896m | 9.3m/s | -56.7°C | 13.8% | 0hPa | 2.7V | 00:00:00 | 00:00:00 | 00:00:00 | |
| OM5KV | 2026-09-05 23:51:40 | 49.02271 | 18.02437 | 137° | 150km/h | 12886m | 9.7m/s | -56.7°C | 14.0% | 0hPa | 2.7V | 00:00:00 | 00:00:00 | 00:00:00 | |
| PETON7-10 | 2026-09-05 23:51:38 | 49.02349 | 18.02295 | 126° | 142km/h | 12864m | 6.6m/s | -56.5°C | 19.5% | 0hPa | 2.7V | 00:00:00 | 00:00:00 | 00:00:00 | |
| OM5KV | 2026-09-05 23:51:37 | 49.02349 | 18.02295 | 126° | 164km/h | 12864m | 6.7m/s | -56.6°C | 14.1% | 0hPa | 2.7V | 00:00:00 | 00:00:00 | 00:00:00 | |
| OM5KV | 2026-09-05 23:51:35 | 49.02416 | 18.02145 | 125° | 148km/h | 12842m | 6.3m/s | -56.5°C | 15.0% | 0hPa | 2.7V | 00:00:00 | 00:00:00 | 00:00:00 | |
| PG1ADW-2 | 2026-09-05 23:51:33 | 49.02457 | 18.02058 | 129° | 150km/h | 12827m | 8.2m/s | -56.4°C | 21.3% | 0hPa | 2.7V | 00:00:00 | 00:00:00 | 00:00:00 | |
| OE5DRO-10 | 2026-09-05 23:51:30 | 49.02521 | 18.01948 | 132° | 153km/h | 12811m | 4.5m/s | -56.3°C | 21.7% | 0hPa | 2.7V | 00:00:00 | 00:00:00 | 00:00:00 | |
| OM5KV | 2026-09-05 23:51:28 | 49.02542 | 18.01912 | 132° | 128km/h | 12806m | 5.8m/s | -56.4°C | 16.1% | 0hPa | 2.7V | 00:00:00 | 00:00:00 | 00:00:00 | |
| OM5KV | 2026-09-05 23:51:25 | 49.02605 | 18.01788 | 127° | 148km/h | 12784m | 6.9m/s | -56.9°C | 17.1% | 0hPa | 2.7V | 00:00:00 | 00:00:00 | 00:00:00 | |
| POL2MAQ | 2026-09-05 23:51:24 | 49.02627 | 18.01740 | 127° | 153km/h | 12777m | 5.7m/s | -56.9°C | 17.4% | 0hPa | 2.7V | 00:00:00 | 00:00:00 | 00:00:00 | |
| PETON7-10 | 2026-09-05 23:51:23 | 49.02675 | 18.01643 | 128° | 164km/h | 12766m | 5.9m/s | -56.9°C | 23.8% | 0hPa | 2.7V | 00:00:00 | 01:16:56 | 00:00:00 | |
| OE3JTB-15 | 2026-09-05 23:51:22 | 49.02700 | 18.01595 | 130° | 173km/h | 12759m | 7.6m/s | -56.8°C | 23.5% | 0hPa | 2.7V | 00:00:00 | 01:16:55 | 00:00:00 | |
| OM5KV | 2026-09-05 23:51:20 | 49.02727 | 18.01548 | 133° | 161km/h | 12751m | 8.6m/s | -56.8°C | 17.5% | 0hPa | 2.7V | 00:00:00 | 00:00:00 | 00:00:00 | |
| GYPAP8-17 | 2026-09-05 23:51:19 | 49.02754 | 18.01502 | 134° | 161km/h | 12742m | 10.5m/s | 0°C | 0% | 0hPa | 2.7V | 00:00:00 | 00:00:00 | 00:00:00 | |
| S52SK | 2026-09-05 23:51:17 | 49.02811 | 18.01414 | 137° | 162km/h | 12721m | 9.3m/s | -56.6°C | 18.0% | 0hPa | 2.7V | 00:00:00 | 00:00:00 | 00:00:00 | |
| OE5DXL-15 | 2026-09-05 23:51:15 | 49.02901 | 18.01282 | 136° | 175km/h | 12701m | 5.8m/s | -56.4°C | 24.4% | 0hPa | 2.7V | 00:00:00 | 00:00:00 | 00:00:00 | |
| PG1ADW-2 | 2026-09-05 23:51:13 | 49.02959 | 18.01193 | 134° | 175km/h | 12690m | 4.3m/s | -56.3°C | 24.9% | 0hPa | 2.7V | 00:00:00 | 00:00:00 | 00:00:00 | |
| OE5DRO-10 | 2026-09-05 23:51:11 | 49.03016 | 18.01103 | 134° | 177km/h | 12681m | 6.8m/s | -56.3°C | 25.6% | 0hPa | 2.7V | 00:00:00 | 00:00:00 | 00:00:00 | |
| OM5KV | 2026-09-05 23:51:10 | 49.03045 | 18.01057 | 136° | 172km/h | 12674m | 5.1m/s | -56.4°C | 19.6% | 0hPa | 2.7V | 00:00:00 | 00:00:00 | 00:00:00 | |
| PETON7-10 | 2026-09-05 23:51:08 | 49.03108 | 18.00962 | 136° | 177km/h | 12663m | 6.6m/s | -56.3°C | 26.3% | 0hPa | 2.7V | 00:00:00 | 00:00:00 | 00:00:00 | |
| OM5KV | 2026-09-05 23:51:07 | 49.03108 | 18.00962 | 137° | 177km/h | 12663m | 6.7m/s | -56.4°C | 19.9% | 0hPa | 2.7V | 00:00:00 | 00:00:00 | 00:00:00 | |
| OM5KV | 2026-09-05 23:51:06 | 49.03140 | 18.00916 | 138° | 175km/h | 12656m | 8.1m/s | -56.4°C | 19.8% | 0hPa | 2.7V | 00:00:00 | 00:00:00 | 00:00:00 | |
| POL2MAQ | 2026-09-05 23:51:04 | 49.03205 | 18.00826 | 140° | 170km/h | 12644m | 5.0m/s | -56.3°C | 20.0% | 0hPa | 2.7V | 00:00:00 | 00:00:00 | 00:00:00 | |
| OE3OSB-13 | 2026-09-05 23:50:55 | 49.03539 | 18.00371 | 136° | 184km/h | 12580m | 6.3m/s | -56.5°C | 21.6% | -1.0hPa | 2.7V | 00:00:00 | 00:00:00 | 00:00:00 | |
| PG1ADW-2 | 2026-09-05 23:50:53 | 49.03608 | 18.00273 | 137° | 186km/h | 12565m | 5.7m/s | -56.3°C | 28.7% | 0hPa | 2.7V | 00:00:00 | 00:00:00 | 08:30:00 | |
| OE5DRO-10 | 2026-09-05 23:50:52 | 49.03642 | 18.00224 | 137° | 184km/h | 12559m | 6.1m/s | -56.3°C | 28.8% | 0hPa | 2.7V | 00:00:00 | 00:00:00 | 00:00:00 | |
| OM5KV | 2026-09-05 23:50:50 | 49.03677 | 18.00174 | 137° | 186km/h | 12553m | 6.6m/s | -56.3°C | 22.0% | 0hPa | 2.7V | 00:00:00 | 00:00:00 | 00:00:00 | |
| OM5KV | 2026-09-05 23:50:49 | 49.03710 | 18.00124 | 135° | 183km/h | 12547m | 5.7m/s | -56.3°C | 21.9% | 0hPa | 2.7V | 00:00:00 | 00:00:00 | 00:00:00 | |
| OE5DXL-15 | 2026-09-05 23:50:45 | 49.03862 | 17.99868 | 133° | 197km/h | 12512m | 7.2m/s | -56.2°C | 29.4% | 0hPa | 2.7V | 00:00:00 | 00:00:00 | 00:00:00 | |
| POL2MAQ | 2026-09-05 23:50:43 | 49.03893 | 17.99816 | 134° | 188km/h | 12506m | 4.8m/s | -56.3°C | 22.8% | 0hPa | 2.7V | 00:00:00 | 00:00:00 | 00:00:00 | |
| OM5KV | 2026-09-05 23:50:38 | 49.04096 | 17.99507 | 134° | 184km/h | 12471m | 4.3m/s | -56.4°C | 23.5% | 0hPa | 2.7V | 00:00:00 | 00:00:00 | 00:00:00 | |
| OM5KV | 2026-09-05 23:50:35 | 49.04158 | 17.99401 | 133° | 186km/h | 12458m | 7.4m/s | -56.5°C | 23.8% | 0hPa | 2.7V | 00:00:00 | 00:00:00 | 00:00:00 | |
| OE5DRO-10 | 2026-09-05 23:50:33 | 49.04255 | 17.99241 | 134° | 204km/h | 12439m | 7.5m/s | -56.8°C | 32.6% | 0hPa | 2.7V | 00:00:00 | 00:00:00 | 00:00:00 | |
| OM5KV | 2026-09-05 23:50:32 | 49.04255 | 17.99241 | 135° | 192km/h | 12439m | 7.5m/s | -56.9°C | 25.4% | 0hPa | 2.7V | 00:00:00 | 00:00:00 | 00:00:00 | |
| OM5KV | 2026-09-05 23:50:29 | 49.04356 | 17.99074 | 132° | 203km/h | 12422m | 6.0m/s | -57.0°C | 26.9% | 0hPa | 2.7V | 00:00:00 | 00:00:00 | 00:00:00 | |
| OE3JTB-15 | 2026-09-05 23:50:24 | 49.04565 | 17.98711 | 132° | 212km/h | 12388m | 8.4m/s | -57.0°C | 34.6% | 0hPa | 2.7V | 00:00:00 | 00:00:00 | 00:00:00 | |
| PETON7-10 | 2026-09-05 23:50:23 | 49.04599 | 17.98651 | 131° | 204km/h | 12381m | 5.8m/s | -57.0°C | 34.7% | 0hPa | 2.7V | 00:00:00 | 00:00:00 | 08:30:00 | |
| HA6NAB-11 | 2026-09-05 23:50:22 | 49.04599 | 17.98651 | 131° | 203km/h | 12381m | 5.9m/s | -57.1°C | 0% | 0hPa | 2.7V | 00:00:00 | 00:00:00 | 00:00:00 | |
| OM5KV | 2026-09-05 23:50:21 | 49.04631 | 17.98592 | 130° | 199km/h | 12374m | 7.1m/s | -57.1°C | 27.2% | 0hPa | 2.7V | 00:00:00 | 00:00:00 | 00:00:00 | |
| HA6NAB-11 | 2026-09-05 23:50:17 | 49.04757 | 17.98355 | 130° | 204km/h | 12347m | 5.9m/s | -57.0°C | 0% | 0hPa | 2.7V | 00:00:00 | 00:00:00 | 00:00:00 | |
| OM5KV | 2026-09-05 23:50:16 | 49.04790 | 17.98293 | 130° | 210km/h | 12341m | 4.6m/s | -57.0°C | 27.9% | 0hPa | 2.7V | 00:00:00 | 00:00:00 | 00:00:00 | |
| OE5DXL-15 | 2026-09-05 23:50:15 | 49.04858 | 17.98167 | 129° | 204km/h | 12328m | 7.2m/s | -56.9°C | 35.3% | 0hPa | 2.7V | 00:00:00 | 00:00:00 | 00:00:00 | |
| OE5DRO-10 | 2026-09-05 23:50:14 | 49.04891 | 17.98103 | 129° | 206km/h | 12322m | 5.1m/s | -56.9°C | 35.7% | 0hPa | 2.7V | 00:00:00 | 00:00:00 | 00:00:00 | |
| PG1ADW-2 | 2026-09-05 23:50:13 | 49.04925 | 17.98040 | 129° | 206km/h | 12316m | 6.6m/s | -56.9°C | 35.6% | 0hPa | 2.7V | 00:00:00 | 00:00:00 | 00:00:00 | |
| OM5KV | 2026-09-05 23:50:11 | 49.04958 | 17.97977 | 129° | 210km/h | 12309m | 8.1m/s | -56.9°C | 27.7% | 0hPa | 2.7V | 00:00:00 | 00:00:00 | 00:00:00 | |
| OM5KV | 2026-09-05 23:50:10 | 49.04990 | 17.97913 | 129° | 210km/h | 12302m | 5.0m/s | -56.9°C | 27.6% | 0hPa | 2.7V | 00:00:00 | 00:00:00 | 00:00:00 | |
| PETON7-10 | 2026-09-05 23:50:08 | 49.05085 | 17.97723 | 127° | 204km/h | 12282m | 4.8m/s | -56.8°C | 34.9% | 0hPa | 2.7V | 00:00:00 | 00:00:00 | 00:00:00 | |
| OM5KV | 2026-09-05 23:50:07 | 49.05115 | 17.97660 | 127° | 203km/h | 12276m | 7.4m/s | -56.8°C | 27.2% | 0hPa | 2.7V | 00:00:00 | 00:00:00 | 00:00:00 | |
| OM5KV | 2026-09-05 23:50:04 | 49.05175 | 17.97531 | 126° | 204km/h | 12263m | 4.3m/s | -56.7°C | 27.2% | 0hPa | 2.7V | 00:00:00 | 00:00:00 | 00:00:00 | |
| OE3MUC-15 | 2026-09-05 23:50:03 | 49.05234 | 17.97402 | 125° | 203km/h | 12250m | 5.1m/s | -56.6°C | 34.6% | 0hPa | 2.7V | 00:00:00 | 00:00:00 | 00:00:00 | |
| OM5KV | 2026-09-05 23:50:01 | 49.05263 | 17.97338 | 126° | 201km/h | 12246m | 3.9m/s | -56.6°C | 27.0% | 0hPa | 2.7V | 00:00:00 | 00:00:00 | 00:00:00 | |
| OM5KV | 2026-09-05 23:50:00 | 49.05292 | 17.97275 | 126° | 203km/h | 12240m | 6.1m/s | -56.6°C | 26.8% | 0hPa | 2.7V | 00:00:00 | 00:00:00 | 00:00:00 | |
| OE5DRO-10 | 2026-09-05 23:49:55 | 49.05473 | 17.96883 | 125° | 203km/h | 12209m | 4.6m/s | -56.4°C | 35.2% | 0hPa | 2.7V | 00:00:00 | 00:00:00 | 00:00:00 | |
| OM5KV | 2026-09-05 23:49:54 | 49.05473 | 17.96883 | 126° | 203km/h | 12209m | 4.7m/s | -56.5°C | 27.6% | 0hPa | 2.7V | 00:00:00 | 00:00:00 | 00:00:00 | |
| PETON7-10 | 2026-09-05 23:49:53 | 49.05532 | 17.96756 | 125° | 203km/h | 12200m | 4.4m/s | -56.4°C | 35.2% | 0hPa | 2.7V | 00:00:00 | 01:15:26 | 00:00:00 | |
| OM5KV | 2026-09-05 23:49:48 | 49.05650 | 17.96503 | 127° | 199km/h | 12183m | 5.3m/s | -56.3°C | 27.3% | 0hPa | 2.7V | 00:00:00 | 00:00:00 | 00:00:00 | |
| OM5KV | 2026-09-05 23:49:47 | 49.05679 | 17.96441 | 127° | 197km/h | 12178m | 4.4m/s | -56.3°C | 27.7% | 0hPa | 2.7V | 00:00:00 | 00:00:00 | 00:00:00 | |
| OE5DXL-15 | 2026-09-05 23:49:45 | 49.05766 | 17.96253 | 125° | 204km/h | 12166m | 4.4m/s | -56.2°C | 34.8% | 0hPa | 2.7V | 00:00:00 | 00:00:00 | 00:00:00 | |
| OM5KV | 2026-09-05 23:49:43 | 49.05795 | 17.96188 | 126° | 206km/h | 12162m | 3.5m/s | -56.2°C | 27.0% | 0hPa | 2.7V | 00:00:00 | 00:00:00 | 00:00:00 | |
| POL2MAQ | 2026-09-05 23:49:41 | 49.05855 | 17.96058 | 125° | 206km/h | 12153m | 4.9m/s | -56.1°C | 26.8% | 0hPa | 2.7V | 00:00:00 | 00:00:00 | 00:00:00 | |
| PETON7-10 | 2026-09-05 23:49:38 | 49.05971 | 17.95791 | 124° | 203km/h | 12134m | 5.7m/s | -55.9°C | 33.4% | 0hPa | 2.7V | 00:00:00 | 00:00:00 | 00:00:00 | |
| OM5KV | 2026-09-05 23:49:37 | 49.05971 | 17.95791 | 124° | 206km/h | 12134m | 5.7m/s | -56.0°C | 26.2% | 0hPa | 2.7V | 00:00:00 | 00:00:00 | 00:00:00 | |
| OE5DRO-10 | 2026-09-05 23:49:36 | 49.06027 | 17.95660 | 124° | 203km/h | 12126m | 3.7m/s | -55.8°C | 33.2% | 0hPa | 2.7V | 00:00:00 | 00:00:00 | 00:00:00 | |
| PG1ADW-2 | 2026-09-05 23:49:33 | 49.06110 | 17.95465 | 123° | 203km/h | 12111m | 5.2m/s | 0°C | 0% | 0hPa | 2.7V | 00:00:00 | 00:00:00 | 00:00:00 | |
| OM5KV | 2026-09-05 23:49:32 | 49.06110 | 17.95465 | 124° | 201km/h | 12111m | 5.3m/s | -55.8°C | 25.9% | 0hPa | 2.7V | 00:00:00 | 00:00:00 | 00:00:00 | |
| OM5KV | 2026-09-05 23:49:26 | 49.06277 | 17.95072 | 125° | 204km/h | 12084m | 4.2m/s | -55.5°C | 25.8% | 0hPa | 2.7V | 00:00:00 | 00:00:00 | 00:00:00 | |
| OM5KV | 2026-09-05 23:49:24 | 49.06334 | 17.94940 | 124° | 206km/h | 12075m | 5.4m/s | -55.4°C | 25.9% | 0hPa | 2.7V | 00:00:00 | 00:00:00 | 00:00:00 | |
| PETON7-10 | 2026-09-05 23:49:23 | 49.06391 | 17.94808 | 124° | 203km/h | 12066m | 5.4m/s | -55.3°C | 33.3% | 0hPa | 2.7V | 00:00:00 | 00:00:00 | 00:00:00 | |
| OE3OSB-13 | 2026-09-05 23:49:22 | 49.06446 | 17.94679 | 122° | 197km/h | 12057m | 3.4m/s | -55.3°C | 26.2% | -1.0hPa | 2.7V | 00:00:00 | 00:00:00 | 00:00:00 | |
| POL2MAQ | 2026-09-05 23:49:20 | 49.06446 | 17.94679 | 124° | 199km/h | 12057m | 3.4m/s | -55.3°C | 26.5% | 0hPa | 2.7V | 00:00:00 | 00:00:00 | 00:00:00 | |
| OM5KV | 2026-09-05 23:49:19 | 49.06473 | 17.94614 | 123° | 201km/h | 12053m | 5.5m/s | -55.2°C | 26.2% | 0hPa | 2.7V | 00:00:00 | 00:00:00 | 00:00:00 | |
| OE3MUC-15 | 2026-09-05 23:49:17 | 49.06556 | 17.94417 | 124° | 199km/h | 12040m | 4.3m/s | -55.1°C | 32.7% | 0hPa | 2.7V | 00:00:00 | 00:00:00 | 00:00:00 | |
| OE5DXL-15 | 2026-09-05 23:49:15 | 49.06613 | 17.94289 | 126° | 201km/h | 12031m | 5.0m/s | -55.0°C | 32.3% | 0hPa | 2.7V | 00:00:00 | 00:00:00 | 00:00:00 | |
| OM5KV | 2026-09-05 23:49:14 | 49.06613 | 17.94289 | 126° | 197km/h | 12031m | 5.0m/s | -55.0°C | 25.5% | 0hPa | 2.7V | 00:00:00 | 00:00:00 | 00:00:00 | |
| OE3MUC-15 | 2026-09-05 23:49:13 | 49.06671 | 17.94166 | 126° | 201km/h | 12022m | 4.1m/s | -54.9°C | 32.1% | 0hPa | 2.7V | 00:00:00 | 00:00:00 | 00:00:00 | |
| OM5KV | 2026-09-05 23:49:12 | 49.06671 | 17.94166 | 127° | 197km/h | 12022m | 4.2m/s | -55.0°C | 25.3% | 0hPa | 2.7V | 00:00:00 | 00:00:00 | 00:00:00 | |
| OE3MUC-15 | 2026-09-05 23:49:09 | 49.06787 | 17.93906 | 123° | 199km/h | 12005m | 4.8m/s | -54.8°C | 32.0% | 0hPa | 2.7V | 00:00:00 | 00:00:00 | 08:30:00 | |
| PETON7-10 | 2026-09-05 23:49:08 | 49.06815 | 17.93838 | 122° | 199km/h | 12000m | 3.8m/s | -54.7°C | 32.4% | 0hPa | 2.7V | 00:00:00 | 01:14:41 | 00:00:00 | |
| S52SK | 2026-09-05 23:49:07 | 49.06815 | 17.93838 | 123° | 208km/h | 12000m | 3.8m/s | -54.8°C | 0% | 0hPa | 2.7V | 00:00:00 | 00:00:00 | 00:00:00 | |
| OE3OSB-13 | 2026-09-05 23:48:51 | 49.07316 | 17.92665 | 128° | 204km/h | 11898m | 6.7m/s | -54.3°C | 28.0% | -1.0hPa | 2.7V | 00:00:00 | 00:00:00 | 00:00:00 | |
| OM5KV | 2026-09-05 23:48:50 | 49.07283 | 17.92729 | 128° | 215km/h | 11906m | 8.5m/s | -54.3°C | 27.8% | 0hPa | 2.7V | 00:00:00 | 00:00:00 | 00:00:00 | |
| OM5KV | 2026-09-05 23:48:49 | 49.07316 | 17.92665 | 130° | 204km/h | 11898m | 6.7m/s | -54.3°C | 28.3% | 0hPa | 2.7V | 00:00:00 | 00:00:00 | 00:00:00 | |
| HA6NAB-11 | 2026-09-05 23:48:46 | 49.07409 | 17.92494 | 130° | 184km/h | 11878m | 8.6m/s | -54.2°C | 0% | 0hPa | 2.7V | 00:00:00 | 00:00:00 | 00:00:00 | |
| OE5DXL-15 | 2026-09-05 23:48:45 | 49.07465 | 17.92380 | 125° | 204km/h | 11865m | 4.5m/s | -54.3°C | 36.5% | 0hPa | 2.7V | 00:00:00 | 00:00:00 | 00:00:00 | |
| OM5KV | 2026-09-05 23:48:44 | 49.07465 | 17.92380 | 126° | 188km/h | 11865m | 4.5m/s | -54.3°C | 29.4% | 0hPa | 2.7V | 00:00:00 | 00:00:00 | 00:00:00 | |
| OM5KV | 2026-09-05 23:48:43 | 49.07492 | 17.92319 | 124° | 192km/h | 11860m | 4.7m/s | -54.5°C | 29.5% | 0hPa | 2.7V | 00:00:00 | 00:00:00 | 00:00:00 | |
| OM5KV | 2026-09-05 23:48:41 | 49.07543 | 17.92195 | 124° | 190km/h | 11848m | 5.4m/s | -54.6°C | 29.6% | 0hPa | 2.7V | 00:00:00 | 00:00:00 | 00:00:00 | |
| OE5DRO-10 | 2026-09-05 23:48:39 | 49.07625 | 17.92019 | 130° | 208km/h | 11834m | 5.0m/s | -55.2°C | 38.1% | 0hPa | 2.7V | 00:00:00 | 00:00:00 | 00:00:00 | |
| PETON7-10 | 2026-09-05 23:48:38 | 49.07656 | 17.91964 | 132° | 210km/h | 11828m | 6.8m/s | -55.4°C | 38.4% | 0hPa | 2.7V | 00:00:00 | 00:00:00 | 00:00:00 | |
| OM5KV | 2026-09-05 23:48:37 | 49.07656 | 17.91964 | 132° | 188km/h | 11828m | 6.8m/s | -55.5°C | 30.8% | 0hPa | 2.7V | 00:00:00 | 00:00:00 | 00:00:00 | |
| HA6NAB-11 | 2026-09-05 23:48:35 | 49.07722 | 17.91854 | 134° | 199km/h | 11814m | 7.9m/s | -55.8°C | 0% | 0hPa | 2.7V | 00:00:00 | 00:00:00 | 00:00:00 | |
| PG1ADW-2 | 2026-09-05 23:48:33 | 49.07825 | 17.91675 | 130° | 214km/h | 11791m | 7.8m/s | -55.8°C | 39.3% | 0hPa | 2.7V | 00:00:00 | 00:00:00 | 00:00:00 | |
| OM5KV | 2026-09-05 23:48:30 | 49.07892 | 17.91548 | 129° | 214km/h | 11777m | 6.4m/s | -55.8°C | 31.4% | 0hPa | 2.7V | 00:00:00 | 00:00:00 | 00:00:00 | |
| OM5KV | 2026-09-05 23:48:29 | 49.07926 | 17.91483 | 129° | 217km/h | 11770m | 7.3m/s | -55.7°C | 31.3% | 0hPa | 2.7V | 00:00:00 | 00:00:00 | 00:00:00 | |
| OM5KV | 2026-09-05 23:48:25 | 49.08062 | 17.91217 | 130° | 214km/h | 11749m | 5.0m/s | -55.6°C | 32.0% | 0hPa | 2.7V | 00:00:00 | 00:00:00 | 00:00:00 | |
| PETON7-10 | 2026-09-05 23:48:23 | 49.08165 | 17.91029 | 131° | 217km/h | 11734m | 4.6m/s | -55.5°C | 41.8% | 0hPa | 2.7V | 00:00:00 | 01:13:56 | 00:00:00 | |
| OE5DRO-10 | 2026-09-05 23:48:20 | 49.08264 | 17.90844 | 128° | 215km/h | 11720m | 4.2m/s | -55.5°C | 43.7% | 0hPa | 2.7V | 00:00:00 | 00:00:00 | 00:00:00 | |
| OM5KV | 2026-09-05 23:48:19 | 49.08263 | 17.90844 | 129° | 208km/h | 11720m | 4.3m/s | -55.5°C | 35.3% | 0hPa | 2.7V | 00:00:00 | 00:00:00 | 00:00:00 | |
| POL2MAQ | 2026-09-05 23:48:17 | 49.08328 | 17.90715 | 128° | 214km/h | 11710m | 5.3m/s | -55.5°C | 35.8% | 0hPa | 2.7V | 00:00:00 | 00:00:00 | 00:00:00 | |
| OE5DXL-15 | 2026-09-05 23:48:15 | 49.08428 | 17.90517 | 129° | 212km/h | 11695m | 6.0m/s | -55.3°C | 43.3% | 0hPa | 2.7V | 00:00:00 | 00:00:00 | 00:00:00 | |
| OM5KV | 2026-09-05 23:48:14 | 49.08428 | 17.90517 | 130° | 219km/h | 11695m | 6.0m/s | -55.3°C | 35.0% | 0hPa | 2.7V | 00:00:00 | 00:00:00 | 00:00:00 | |
| PG1ADW-2 | 2026-09-05 23:48:13 | 49.08499 | 17.90388 | 131° | 214km/h | 11686m | 3.7m/s | -55.2°C | 41.8% | 0hPa | 2.7V | 00:00:00 | 00:00:00 | 00:00:00 | |
| OM5KV | 2026-09-05 23:48:12 | 49.08499 | 17.90388 | 132° | 221km/h | 11686m | 3.8m/s | -55.3°C | 33.8% | 0hPa | 2.7V | 00:00:00 | 00:00:00 | 00:00:00 | |
| PETON7-10 | 2026-09-05 23:48:08 | 49.08679 | 17.90045 | 126° | 208km/h | 11657m | 5.7m/s | -55.1°C | 43.5% | 0hPa | 2.7V | 00:00:00 | 00:00:00 | 08:30:00 | |
| OM5KV | 2026-09-05 23:48:05 | 49.08744 | 17.89904 | 127° | 217km/h | 11644m | 7.1m/s | -55.0°C | 35.8% | 0hPa | 2.7V | 00:00:00 | 00:00:00 | 00:00:00 | |
| OE3OSB-13 | 2026-09-05 23:47:48 | 49.09308 | 17.88767 | 125° | 206km/h | 11529m | 3.9m/s | -54.5°C | 37.7% | -1.0hPa | 2.7V | 00:00:00 | 00:00:00 | 00:00:00 | |
| OM5KV | 2026-09-05 23:47:46 | 49.09338 | 17.88703 | 126° | 204km/h | 11524m | 6.9m/s | -54.4°C | 37.9% | 0hPa | 2.7V | 00:00:00 | 00:00:00 | 00:00:00 | |
| OE5DXL-15 | 2026-09-05 23:47:45 | 49.09398 | 17.88574 | 125° | 201km/h | 11511m | 5.2m/s | -54.3°C | 46.4% | 0hPa | 2.7V | 00:00:00 | 00:00:00 | 00:00:00 | |
| HA6NAB-11 | 2026-09-05 23:47:44 | 49.09398 | 17.88574 | 126° | 204km/h | 11511m | 5.2m/s | -54.3°C | 0% | 0hPa | 2.7V | 00:00:00 | 00:00:00 | 00:00:00 | |
| OE5DRO-10 | 2026-09-05 23:47:42 | 49.09485 | 17.88378 | 124° | 204km/h | 11490m | 7.0m/s | -54.2°C | 46.7% | 0hPa | 2.7V | 00:00:00 | 00:00:00 | 00:00:00 | |
| OM5KV | 2026-09-05 23:47:41 | 49.09485 | 17.88378 | 125° | 203km/h | 11490m | 7.1m/s | -54.2°C | 38.4% | 0hPa | 2.7V | 00:00:00 | 00:00:00 | 00:00:00 | |
| OM5KV | 2026-09-05 23:47:40 | 49.09514 | 17.88313 | 125° | 203km/h | 11483m | 5.5m/s | -54.2°C | 38.8% | 0hPa | 2.7V | 00:00:00 | 00:00:00 | 00:00:00 | |
| PETON7-10 | 2026-09-05 23:47:38 | 49.09602 | 17.88119 | 125° | 204km/h | 11465m | 4.6m/s | -54.1°C | 47.5% | 0hPa | 2.7V | 00:00:00 | 01:13:11 | 00:00:00 | |
| HA6NAB-11 | 2026-09-05 23:47:37 | 49.09602 | 17.88119 | 125° | 206km/h | 11465m | 4.6m/s | -54.1°C | 0% | 0hPa | 2.7V | 00:00:00 | 00:00:00 | 00:00:00 | |
| POL2MAQ | 2026-09-05 23:47:35 | 49.09661 | 17.87986 | 125° | 208km/h | 11454m | 4.8m/s | -54.0°C | 38.9% | 0hPa | 2.7V | 00:00:00 | 00:00:00 | 00:00:00 | |
| PG1ADW-2 | 2026-09-05 23:47:33 | 49.09753 | 17.87789 | 127° | 201km/h | 11437m | 5.4m/s | -53.9°C | 46.9% | 0hPa | 2.7V | 00:00:00 | 00:00:00 | 00:00:00 | |
| OM5KV | 2026-09-05 23:47:32 | 49.09753 | 17.87789 | 128° | 212km/h | 11437m | 5.4m/s | -53.9°C | 38.6% | 0hPa | 2.7V | 00:00:00 | 00:00:00 | 00:00:00 | |
| OM5KV | 2026-09-05 23:47:27 | 49.09903 | 17.87468 | 125° | 193km/h | 11410m | 6.0m/s | -53.7°C | 36.2% | 0hPa | 2.7V | 00:00:00 | 00:00:00 | 00:00:00 | |
| OM5KV | 2026-09-05 23:47:26 | 49.09930 | 17.87407 | 126° | 193km/h | 11404m | 6.2m/s | -53.7°C | 36.6% | 0hPa | 2.7V | 00:00:00 | 00:00:00 | 00:00:00 | |
| OE5DRO-10 | 2026-09-05 23:47:23 | 49.10050 | 17.87161 | 128° | 199km/h | 11380m | 4.8m/s | -53.5°C | 46.1% | 0hPa | 2.7V | 00:00:00 | 00:00:00 | 00:00:00 | |
| OE3JTB-15 | 2026-09-05 23:47:21 | 49.10113 | 17.87038 | 128° | 199km/h | 11370m | 5.1m/s | -53.4°C | 47.2% | 0hPa | 2.7V | 00:00:00 | 00:00:00 | 08:30:00 | |
| OE3OSB-13 | 2026-09-05 23:47:17 | 49.10230 | 17.86804 | 126° | 190km/h | 11352m | 2.4m/s | -53.3°C | 40.1% | -1.0hPa | 2.7V | 00:00:00 | 00:00:00 | 00:00:00 | |
| OE5DXL-15 | 2026-09-05 23:47:15 | 49.10289 | 17.86680 | 127° | 201km/h | 11343m | 5.7m/s | -53.2°C | 47.3% | 0hPa | 2.7V | 00:00:00 | 00:00:00 | 08:30:00 | |
| POL2MAQ | 2026-09-05 23:47:14 | 49.10289 | 17.86680 | 127° | 208km/h | 11343m | 5.8m/s | -53.2°C | 39.1% | 0hPa | 2.7V | 00:00:00 | 00:00:00 | 00:00:00 | |
| PG1ADW-2 | 2026-09-05 23:47:13 | 49.10354 | 17.86547 | 127° | 199km/h | 11332m | 6.3m/s | -53.1°C | 45.3% | 0hPa | 2.7V | 00:00:00 | 00:00:00 | 00:00:00 | |
| S52SK | 2026-09-05 23:47:10 | 49.10420 | 17.86408 | 127° | 215km/h | 11316m | 7.8m/s | -53.1°C | 0% | 0hPa | 2.7V | 00:00:00 | 00:00:00 | 00:00:00 | |
| OM5KV | 2026-09-05 23:47:09 | 49.10451 | 17.86343 | 127° | 204km/h | 11308m | 7.0m/s | -53.2°C | 37.6% | 0hPa | 2.7V | 00:00:00 | 00:00:00 | 00:00:00 | |
| PETON7-10 | 2026-09-05 23:47:08 | 49.10509 | 17.86221 | 127° | 195km/h | 11294m | 6.6m/s | -53.0°C | 44.1% | 0hPa | 2.7V | 00:00:00 | 00:00:00 | 00:00:00 | |
| OE5DRO-10 | 2026-09-05 23:47:04 | 49.10624 | 17.85991 | 129° | 199km/h | 11268m | 4.8m/s | -52.8°C | 44.4% | 0hPa | 2.7V | 00:00:00 | 00:00:00 | 00:00:00 | |
| OM5KV | 2026-09-05 23:47:03 | 49.10624 | 17.85991 | 130° | 190km/h | 11268m | 4.8m/s | -52.9°C | 36.6% | 0hPa | 2.7V | 00:00:00 | 00:00:00 | 00:00:00 | |
| OM5KV | 2026-09-05 23:47:02 | 49.10654 | 17.85934 | 130° | 192km/h | 11261m | 7.5m/s | -52.8°C | 36.3% | 0hPa | 2.7V | 00:00:00 | 00:00:00 | 00:00:00 | |
| OE3OSB-13 | 2026-09-05 23:46:46 | 49.11211 | 17.84935 | 132° | 197km/h | 11167m | 6.4m/s | -52.0°C | 32.2% | -1.0hPa | 2.7V | 00:00:00 | 00:00:00 | 00:00:00 | |
| OE5DRO-10 | 2026-09-05 23:46:45 | 49.11245 | 17.84879 | 133° | 199km/h | 11160m | 7.9m/s | -51.9°C | 39.4% | 0hPa | 2.7V | 00:00:00 | 00:00:00 | 00:00:00 | |
| PETON7-10 | 2026-09-05 23:46:38 | 49.11475 | 17.84473 | 131° | 195km/h | 11119m | 6.1m/s | -51.5°C | 38.3% | 0hPa | 2.7V | 00:00:00 | 00:00:00 | 00:00:00 | |
| OM5KV | 2026-09-05 23:46:36 | 49.11508 | 17.84415 | 132° | 201km/h | 11114m | 5.2m/s | -51.5°C | 31.5% | 0hPa | 2.7V | 00:00:00 | 00:00:00 | 00:00:00 | |
| PG1ADW-2 | 2026-09-05 23:46:33 | 49.11642 | 17.84179 | 130° | 195km/h | 11095m | 5.4m/s | -51.3°C | 38.2% | 0hPa | 2.7V | 00:00:00 | 01:12:06 | 00:00:00 | |
| HA6NAB-11 | 2026-09-05 23:46:32 | 49.11642 | 17.84179 | 131° | 206km/h | 11095m | 5.5m/s | -51.3°C | 0% | 0hPa | 2.7V | 00:00:00 | 00:00:00 | 00:00:00 | |
| OM5KV | 2026-09-05 23:46:29 | 49.11738 | 17.83995 | 129° | 195km/h | 11080m | 7.1m/s | -51.2°C | 31.3% | 0hPa | 2.7V | 00:00:00 | 00:00:00 | 00:00:00 | |
| OM5KV | 2026-09-05 23:46:28 | 49.11767 | 17.83937 | 128° | 186km/h | 11074m | 4.1m/s | -51.1°C | 31.4% | 0hPa | 2.7V | 00:00:00 | 00:00:00 | 00:00:00 | |
| OE5DRO-10 | 2026-09-05 23:46:26 | 49.11850 | 17.83770 | 128° | 193km/h | 11060m | 6.3m/s | -50.9°C | 37.9% | 0hPa | 2.7V | 00:00:00 | 00:00:00 | 08:30:00 | |
| HA6NAB-11 | 2026-09-05 23:46:25 | 49.11879 | 17.83714 | 130° | 190km/h | 11053m | 6.2m/s | -50.9°C | 0% | 0hPa | 2.7V | 00:00:00 | 00:00:00 | 00:00:00 | |
| PETON7-10 | 2026-09-05 23:46:23 | 49.11942 | 17.83596 | 130° | 193km/h | 11042m | 5.0m/s | -50.8°C | 36.6% | 0hPa | 2.7V | 00:00:00 | 00:00:00 | 00:00:00 | |
| OM5KV | 2026-09-05 23:46:22 | 49.11942 | 17.83596 | 131° | 204km/h | 11042m | 5.1m/s | -50.8°C | 30.1% | 0hPa | 2.7V | 00:00:00 | 00:00:00 | 00:00:00 | |
| OM5KV | 2026-09-05 23:46:21 | 49.11975 | 17.83535 | 131° | 208km/h | 11036m | 5.7m/s | -50.8°C | 29.8% | 0hPa | 2.7V | 00:00:00 | 00:00:00 | 00:00:00 | |
| OM5KV | 2026-09-05 23:46:19 | 49.12044 | 17.83412 | 132° | 210km/h | 11023m | 6.9m/s | -50.7°C | 29.7% | 0hPa | 2.7V | 00:00:00 | 00:00:00 | 00:00:00 | |
| HA6NAB-11 | 2026-09-05 23:46:17 | 49.12114 | 17.83293 | 133° | 204km/h | 11010m | 7.2m/s | -50.6°C | 0% | 0hPa | 2.7V | 00:00:00 | 00:00:00 | 00:00:00 | |
| OE5DXL-15 | 2026-09-05 23:46:15 | 49.12212 | 17.83124 | 132° | 183km/h | 10991m | 6.8m/s | -50.4°C | 36.1% | 0hPa | 2.7V | 00:00:00 | 00:00:00 | 00:00:00 | |
| OM5KV | 2026-09-05 23:46:14 | 49.12212 | 17.83124 | 132° | 186km/h | 10991m | 6.9m/s | -50.4°C | 29.8% | 0hPa | 2.7V | 00:00:00 | 00:00:00 | 00:00:00 | |
| HA6NAB-11 | 2026-09-05 23:46:13 | 49.12270 | 17.83017 | 129° | 179km/h | 10978m | 4.6m/s | -50.3°C | 0% | 0hPa | 2.7V | 00:00:00 | 00:00:00 | 00:00:00 | |
| OM5KV | 2026-09-05 23:46:10 | 49.12325 | 17.82907 | 128° | 181km/h | 10966m | 6.3m/s | -50.2°C | 28.5% | 0hPa | 2.7V | 00:00:00 | 00:00:00 | 00:00:00 | |
| OE5DRO-10 | 2026-09-05 23:46:07 | 49.12436 | 17.82680 | 127° | 183km/h | 10936m | 6.3m/s | -49.9°C | 34.1% | 0hPa | 2.7V | 00:00:00 | 00:00:00 | 00:00:00 | |
| OM5KV | 2026-09-05 23:46:03 | 49.12522 | 17.82507 | 130° | 186km/h | 10918m | 6.5m/s | -49.9°C | 28.3% | 0hPa | 2.7V | 00:00:00 | 00:00:00 | 00:00:00 | |
| OM5KV | 2026-09-05 23:46:01 | 49.12583 | 17.82399 | 133° | 183km/h | 10906m | 7.3m/s | -49.8°C | 27.7% | 0hPa | 2.7V | 00:00:00 | 00:00:00 | 00:00:00 | |
| OM5KV | 2026-09-05 23:45:54 | 49.12799 | 17.82040 | 132° | 184km/h | 10856m | 5.5m/s | -49.7°C | 29.5% | 0hPa | 2.7V | 00:00:00 | 00:00:00 | 00:00:00 | |
| PG1ADW-2 | 2026-09-05 23:45:53 | 49.12859 | 17.81929 | 128° | 183km/h | 10842m | 8.3m/s | -49.7°C | 37.3% | 0hPa | 2.7V | 00:00:00 | 00:00:00 | 00:00:00 | |
| POL2MAQ | 2026-09-05 23:45:52 | 49.12859 | 17.81929 | 129° | 188km/h | 10842m | 8.3m/s | -49.7°C | 31.0% | 0hPa | 2.7V | 00:00:00 | 00:00:00 | 00:00:00 | |
| OE5DRO-10 | 2026-09-05 23:45:48 | 49.13001 | 17.81652 | 130° | 181km/h | 10808m | 5.3m/s | -49.7°C | 40.4% | 0hPa | 2.7V | 00:00:00 | 00:00:00 | 00:00:00 | |
| OE3JTB-15 | 2026-09-05 23:45:45 | 49.13084 | 17.81496 | 128° | 181km/h | 10790m | 7.7m/s | -49.6°C | 41.3% | 0hPa | 2.7V | 00:00:00 | 01:11:18 | 00:00:00 | |
| OE3OSB-13 | 2026-09-05 23:45:44 | 49.13112 | 17.81440 | 127° | 188km/h | 10784m | 6.0m/s | -49.6°C | 34.5% | -1.0hPa | 2.7V | 00:00:00 | 00:00:00 | 00:00:00 | |
| OM5KV | 2026-09-05 23:45:42 | 49.13142 | 17.81381 | 128° | 193km/h | 10778m | 5.2m/s | -49.6°C | 35.2% | 0hPa | 2.7V | 00:00:00 | 00:00:00 | 00:00:00 | |
| OM5KV | 2026-09-05 23:45:41 | 49.13172 | 17.81321 | 129° | 197km/h | 10773m | 5.1m/s | -49.5°C | 36.0% | 0hPa | 2.7V | 00:00:00 | 00:00:00 | 00:00:00 | |
| PETON7-10 | 2026-09-05 23:45:38 | 49.13297 | 17.81098 | 133° | 181km/h | 10747m | 7.5m/s | -49.3°C | 44.6% | 0hPa | 2.7V | 00:00:00 | 00:00:00 | 00:00:00 | |
| OM5KV | 2026-09-05 23:45:36 | 49.13327 | 17.81047 | 134° | 175km/h | 10740m | 6.7m/s | -49.3°C | 38.4% | 0hPa | 2.7V | 00:00:00 | 00:00:00 | 00:00:00 | |
| OM5KV | 2026-09-05 23:45:35 | 49.13358 | 17.80999 | 134° | 173km/h | 10733m | 8.2m/s | -49.3°C | 39.3% | 0hPa | 2.7V | 00:00:00 | 00:00:00 | 00:00:00 | |
| PG1ADW-2 | 2026-09-05 23:45:33 | 49.13448 | 17.80854 | 134° | 183km/h | 10714m | 4.6m/s | -49.3°C | 50.3% | 0hPa | 2.7V | 00:00:00 | 00:00:00 | 00:00:00 | |
| POL2MAQ | 2026-09-05 23:45:31 | 49.13478 | 17.80806 | 135° | 173km/h | 10708m | 8.0m/s | -49.3°C | 43.2% | 0hPa | 2.7V | 00:00:00 | 00:00:00 | 00:00:00 | |
| OM5KV | 2026-09-05 23:45:30 | 49.13540 | 17.80707 | 136° | 181km/h | 10693m | 6.8m/s | -49.2°C | 44.3% | 0hPa | 2.7V | 00:00:00 | 00:00:00 | 00:00:00 | |
| OE5DRO-10 | 2026-09-05 23:45:29 | 49.13573 | 17.80657 | 136° | 183km/h | 10688m | 4.2m/s | -49.1°C | 53.1% | 0hPa | 2.7V | 00:00:00 | 00:00:00 | 00:00:00 | |
| OM5KV | 2026-09-05 23:45:24 | 49.13738 | 17.80392 | 129° | 188km/h | 10657m | 5.5m/s | -49.0°C | 48.0% | 0hPa | 2.7V | 00:00:00 | 00:00:00 | 00:00:00 | |
| PETON7-10 | 2026-09-05 23:45:23 | 49.13767 | 17.80334 | 128° | 177km/h | 10651m | 6.7m/s | -48.9°C | 56.5% | 0hPa | 2.7V | 00:00:00 | 01:10:56 | 00:00:00 | |
| OM5KV | 2026-09-05 23:45:22 | 49.13768 | 17.80334 | 128° | 192km/h | 10651m | 6.8m/s | -49.0°C | 48.3% | 0hPa | 2.7V | 00:00:00 | 00:00:00 | 00:00:00 | |
| S52SK | 2026-09-05 23:45:19 | 49.13853 | 17.80158 | 129° | 184km/h | 10636m | 4.4m/s | -48.9°C | 0% | 0hPa | 2.7V | 00:00:00 | 00:00:00 | 00:00:00 | |
| OM5KV | 2026-09-05 23:45:17 | 49.13942 | 17.80003 | 134° | 175km/h | 10619m | 10.3m/s | -48.7°C | 46.4% | 0hPa | 2.7V | 00:00:00 | 00:00:00 | 00:00:00 | |
| OE5DXL-15 | 2026-09-05 23:45:15 | 49.14003 | 17.79906 | 136° | 190km/h | 10599m | 9.4m/s | -48.4°C | 53.8% | 0hPa | 2.7V | 00:00:00 | 00:00:00 | 00:00:00 | |
| PG1ADW-2 | 2026-09-05 23:45:13 | 49.14069 | 17.79813 | 137° | 190km/h | 10583m | 5.3m/s | -48.3°C | 54.0% | 0hPa | 2.7V | 00:00:00 | 01:10:46 | 00:00:00 | |
| OE3JTB-15 | 2026-09-05 23:45:12 | 49.14101 | 17.79767 | 137° | 192km/h | 10579m | 3.8m/s | -48.3°C | 53.8% | 0hPa | 2.7V | 00:00:00 | 00:00:00 | 00:00:00 | |
| POL2MAQ | 2026-09-05 23:45:11 | 49.14101 | 17.79767 | 138° | 173km/h | 10579m | 3.8m/s | -48.3°C | 46.1% | 0hPa | 2.7V | 00:00:00 | 00:00:00 | 00:00:00 | |
| OE5DRO-10 | 2026-09-05 23:45:10 | 49.14163 | 17.79675 | 134° | 193km/h | 10569m | 5.4m/s | -48.2°C | 54.1% | 0hPa | 2.7V | 00:00:00 | 00:00:00 | 00:00:00 | |
| PETON7-10 | 2026-09-05 23:45:07 | 49.14251 | 17.79519 | 130° | 197km/h | 10549m | 8.7m/s | -48.0°C | 54.0% | 0hPa | 2.7V | 00:00:00 | 00:00:00 | 00:00:00 | |
| OM5KV | 2026-09-05 23:45:05 | 49.14282 | 17.79463 | 131° | 192km/h | 10541m | 8.2m/s | -48.0°C | 46.3% | 0hPa | 2.7V | 00:00:00 | 00:00:00 | 00:00:00 | |
| OM5KV | 2026-09-05 23:45:01 | 49.14414 | 17.79230 | 131° | 203km/h | 10518m | 5.3m/s | -47.8°C | 45.9% | 0hPa | 2.7V | 00:00:00 | 00:00:00 | 00:00:00 | |
| OM5KV | 2026-09-05 23:45:00 | 49.14447 | 17.79171 | 130° | 199km/h | 10512m | 6.5m/s | -47.7°C | 45.8% | 0hPa | 2.7V | 00:00:00 | 00:00:00 | 00:00:00 | |
| HA6NAB-11 | 2026-09-05 23:44:55 | 49.14594 | 17.78872 | 129° | 193km/h | 10484m | 6.4m/s | -47.5°C | 0% | 0hPa | 2.7V | 00:00:00 | 00:00:00 | 00:00:00 | |
| PG1ADW-2 | 2026-09-05 23:44:53 | 49.14693 | 17.78698 | 133° | 192km/h | 10465m | 6.2m/s | -47.2°C | 52.3% | 0hPa | 2.7V | 00:00:00 | 00:00:00 | 08:30:00 | |
| PETON7-10 | 2026-09-05 23:44:52 | 49.14729 | 17.78638 | 133° | 192km/h | 10458m | 7.2m/s | -47.1°C | 52.8% | 0hPa | 2.9V | 00:00:00 | 00:00:00 | 00:00:00 | |
| OE5DRO-10 | 2026-09-05 23:44:51 | 49.14764 | 17.78578 | 132° | 195km/h | 10451m | 6.4m/s | -47.1°C | 53.7% | 0hPa | 2.9V | 00:00:00 | 00:00:00 | 00:00:00 | |
| POL2MAQ | 2026-09-05 23:44:50 | 49.14765 | 17.78578 | 132° | 210km/h | 10451m | 6.5m/s | -47.1°C | 46.2% | 0hPa | 2.9V | 00:00:00 | 00:00:00 | 00:00:00 | |
| OM5KV | 2026-09-05 23:44:49 | 49.14799 | 17.78518 | 131° | 203km/h | 10445m | 5.2m/s | -47.1°C | 46.9% | 0hPa | 2.9V | 00:00:00 | 00:00:00 | 00:00:00 | |
| OM5KV | 2026-09-05 23:44:48 | 49.14830 | 17.78459 | 130° | 193km/h | 10440m | 4.9m/s | -47.0°C | 46.6% | 0hPa | 2.9V | 00:00:00 | 00:00:00 | 00:00:00 | |
| OE5DXL-15 | 2026-09-05 23:44:45 | 49.14955 | 17.78246 | 136° | 186km/h | 10401m | 11.1m/s | -46.6°C | 49.5% | 0hPa | 2.9V | 00:00:00 | 00:00:00 | 00:00:00 | |
| OE3JTB-15 | 2026-09-05 23:44:43 | 49.15021 | 17.78150 | 137° | 184km/h | 10380m | 9.0m/s | -46.4°C | 49.8% | 0hPa | 2.9V | 00:00:00 | 00:00:00 | 00:00:00 | |
| OE3OSB-13 | 2026-09-05 23:44:42 | 49.15055 | 17.78099 | 134° | 190km/h | 10372m | 6.5m/s | -46.4°C | 42.9% | -1.0hPa | 2.9V | 00:00:00 | 00:00:00 | 00:00:00 | |
| OM5KV | 2026-09-05 23:44:37 | 49.15193 | 17.77877 | 133° | 197km/h | 10347m | 8.0m/s | -46.2°C | 43.7% | 0hPa | 2.9V | 00:00:00 | 00:00:00 | 00:00:00 | |
| PETON7-10 | 2026-09-05 23:44:36 | 49.15257 | 17.77768 | 131° | 184km/h | 10335m | 6.3m/s | -46.0°C | 50.6% | 0hPa | 2.9V | 00:00:00 | 01:10:09 | 00:00:00 | |
| PG1ADW-2 | 2026-09-05 23:44:33 | 49.15349 | 17.77607 | 132° | 184km/h | 10314m | 5.3m/s | -45.8°C | 51.2% | 0hPa | 2.9V | 00:00:00 | 00:00:00 | 00:00:00 | |
| OE5DRO-10 | 2026-09-05 23:44:31 | 49.15410 | 17.77501 | 132° | 188km/h | 10302m | 6.6m/s | -45.7°C | 51.3% | 0hPa | 2.9V | 00:00:00 | 00:00:00 | 00:00:00 | |
| OM5KV | 2026-09-05 23:44:30 | 49.15410 | 17.77501 | 133° | 181km/h | 10302m | 6.7m/s | -45.8°C | 44.3% | 0hPa | 2.7V | 00:00:00 | 00:00:00 | 00:00:00 | |
| OM5KV | 2026-09-05 23:44:25 | 49.15564 | 17.77234 | 131° | 195km/h | 10274m | 4.0m/s | -45.5°C | 47.0% | 0hPa | 2.7V | 00:00:00 | 00:00:00 | 00:00:00 | |
| PETON7-10 | 2026-09-05 23:44:21 | 49.15721 | 17.76966 | 135° | 184km/h | 10241m | 7.9m/s | -45.1°C | 49.9% | 0hPa | 2.7V | 00:00:00 | 00:00:00 | 00:00:00 | |
| OM5KV | 2026-09-05 23:44:20 | 49.15721 | 17.76966 | 136° | 173km/h | 10241m | 8.0m/s | -45.2°C | 43.3% | 0hPa | 2.7V | 00:00:00 | 00:00:00 | 00:00:00 | |
| OM5KV | 2026-09-05 23:44:18 | 49.15786 | 17.76870 | 136° | 183km/h | 10224m | 6.6m/s | -45.0°C | 44.0% | 0hPa | 2.7V | 00:00:00 | 00:00:00 | 00:00:00 | |
| OE5DXL-15 | 2026-09-05 23:44:15 | 49.15910 | 17.76653 | 128° | 183km/h | 10197m | 8.8m/s | -44.7°C | 48.4% | 0hPa | 2.7V | 00:00:00 | 00:00:00 | 00:00:00 | |
| PG1ADW-2 | 2026-09-05 23:44:13 | 49.15968 | 17.76542 | 130° | 192km/h | 10180m | 8.7m/s | -44.6°C | 49.1% | 0hPa | 2.7V | 00:00:00 | 00:00:00 | 00:00:00 | |
| OM5KV | 2026-09-05 23:44:12 | 49.15968 | 17.76542 | 130° | 183km/h | 10180m | 8.8m/s | -44.6°C | 42.6% | 0hPa | 2.7V | 00:00:00 | 00:00:00 | 00:00:00 | |
| OE3OSB-13 | 2026-09-05 23:44:11 | 49.16028 | 17.76435 | 131° | 184km/h | 10166m | 5.5m/s | -44.5°C | 43.0% | -1.0hPa | 2.7V | 00:00:00 | 00:00:00 | 00:00:00 | |
| POL2MAQ | 2026-09-05 23:44:10 | 49.16028 | 17.76435 | 133° | 186km/h | 10166m | 5.5m/s | -44.5°C | 43.2% | 0hPa | 2.7V | 00:00:00 | 00:00:00 | 00:00:00 | |
| OE3JTB-15 | 2026-09-05 23:44:09 | 49.16092 | 17.76326 | 132° | 190km/h | 10155m | 6.2m/s | -44.3°C | 49.2% | 0hPa | 2.7V | 00:00:00 | 01:09:42 | 00:00:00 | |
| OM5KV | 2026-09-05 23:44:07 | 49.16123 | 17.76271 | 132° | 190km/h | 10149m | 6.7m/s | -44.3°C | 42.5% | 0hPa | 2.7V | 00:00:00 | 00:00:00 | 00:00:00 | |
| PETON7-10 | 2026-09-05 23:44:06 | 49.16187 | 17.76157 | 130° | 193km/h | 10137m | 5.4m/s | -44.1°C | 47.4% | 0hPa | 2.7V | 00:00:00 | 00:00:00 | 00:00:00 | |
| OE5DRO-10 | 2026-09-05 23:44:03 | 49.16284 | 17.75975 | 129° | 192km/h | 10121m | 6.0m/s | -44.0°C | 46.2% | 0hPa | 2.7V | 00:00:00 | 00:00:00 | 00:00:00 | |
| OM5KV | 2026-09-05 23:44:00 | 49.16348 | 17.75857 | 131° | 190km/h | 10110m | 5.1m/s | -43.9°C | 39.6% | 0hPa | 2.7V | 00:00:00 | 00:00:00 | 00:00:00 | |
| OM5KV | 2026-09-05 23:43:59 | 49.16379 | 17.75801 | 131° | 186km/h | 10104m | 7.9m/s | -43.9°C | 38.9% | 0hPa | 2.7V | 00:00:00 | 00:00:00 | 00:00:00 | |
| OM5KV | 2026-09-05 23:43:57 | 49.16440 | 17.75694 | 132° | 183km/h | 10089m | 5.7m/s | -43.7°C | 39.4% | 0hPa | 2.7V | 00:00:00 | 00:00:00 | 00:00:00 | |
| OM5KV | 2026-09-05 23:43:55 | 49.16500 | 17.75584 | 130° | 188km/h | 10078m | 5.5m/s | -43.6°C | 39.3% | 0hPa | 2.7V | 00:00:00 | 00:00:00 | 00:00:00 | |
| PG1ADW-2 | 2026-09-05 23:43:53 | 49.16591 | 17.75411 | 130° | 188km/h | 10061m | 7.0m/s | -43.4°C | 45.3% | 0hPa | 2.7V | 00:00:00 | 01:09:26 | 00:00:00 | |
| OM5KV | 2026-09-05 23:43:52 | 49.16591 | 17.75411 | 130° | 192km/h | 10061m | 7.1m/s | -43.5°C | 39.3% | 0hPa | 2.7V | 00:00:00 | 00:00:00 | 00:00:00 | |
| PETON7-10 | 2026-09-05 23:43:51 | 49.16654 | 17.75300 | 132° | 186km/h | 10051m | 5.1m/s | -43.3°C | 45.1% | 0hPa | 2.7V | 00:00:00 | 01:09:24 | 00:00:00 | |
| POL2MAQ | 2026-09-05 23:43:49 | 49.16686 | 17.75245 | 133° | 192km/h | 10044m | 7.8m/s | -43.3°C | 39.0% | 0hPa | 2.7V | 00:00:00 | 00:00:00 | 00:00:00 | |
| OM5KV | 2026-09-05 23:43:46 | 49.16786 | 17.75075 | 131° | 197km/h | 10029m | 6.7m/s | -43.1°C | 38.9% | 0hPa | 2.7V | 00:00:00 | 00:00:00 | 00:00:00 | |
| OE5DRO-10 | 2026-09-05 23:43:44 | 49.16873 | 17.74907 | 128° | 186km/h | 10010m | 5.5m/s | -42.9°C | 43.5% | 0hPa | 2.7V | 00:00:00 | 00:00:00 | 00:00:00 | |
| OM5KV | 2026-09-05 23:43:42 | 49.16900 | 17.74854 | 128° | 172km/h | 10004m | 6.0m/s | -42.9°C | 37.7% | 0hPa | 2.7V | 00:00:00 | 00:00:00 | 00:00:00 | |
| OE3JTB-15 | 2026-09-05 23:43:40 | 49.16979 | 17.74693 | 128° | 192km/h | 9990m | 6.1m/s | -42.7°C | 43.8% | 0hPa | 2.7V | 00:00:00 | 00:00:00 | 00:00:00 | |
| PETON7-10 | 2026-09-05 23:43:36 | 49.17104 | 17.74469 | 132° | 193km/h | 9963m | 7.2m/s | -42.5°C | 43.0% | 0hPa | 2.9V | 00:00:00 | 00:00:00 | 08:30:00 | |
| OM5KV | 2026-09-05 23:43:35 | 49.17104 | 17.74469 | 133° | 199km/h | 9963m | 7.2m/s | -42.5°C | 37.4% | 0hPa | 2.7V | 00:00:00 | 00:00:00 | 00:00:00 | |
| PG1ADW-2 | 2026-09-05 23:43:33 | 49.17199 | 17.74298 | 129° | 192km/h | 9942m | 4.7m/s | -42.3°C | 42.8% | 0hPa | 2.7V | 00:00:00 | 00:00:00 | 00:00:00 | |
| OM5KV | 2026-09-05 23:43:29 | 49.17286 | 17.74128 | 130° | 184km/h | 9925m | 6.3m/s | -42.2°C | 37.4% | 0hPa | 2.7V | 00:00:00 | 00:00:00 | 00:00:00 | |
| POL2MAQ | 2026-09-05 23:43:28 | 49.17317 | 17.74074 | 133° | 184km/h | 9919m | 6.2m/s | -42.1°C | 37.5% | 0hPa | 2.7V | 00:00:00 | 00:00:00 | 00:00:00 | |
| OE5DRO-10 | 2026-09-05 23:43:25 | 49.17447 | 17.73859 | 132° | 203km/h | 9897m | 5.5m/s | -41.9°C | 42.0% | 0hPa | 2.7V | 00:00:00 | 00:00:00 | 08:30:00 | |
| OM5KV | 2026-09-05 23:43:23 | 49.17480 | 17.73801 | 131° | 204km/h | 9892m | 5.5m/s | -41.9°C | 36.1% | 0hPa | 2.9V | 00:00:00 | 00:00:00 | 00:00:00 | |
| PETON7-10 | 2026-09-05 23:43:21 | 49.17585 | 17.73612 | 131° | 188km/h | 9876m | 5.2m/s | -41.7°C | 40.8% | 0hPa | 2.9V | 00:00:00 | 00:00:00 | 00:00:00 | |
| OM5KV | 2026-09-05 23:43:19 | 49.17653 | 17.73489 | 130° | 203km/h | 9866m | 5.8m/s | -41.6°C | 35.3% | 0hPa | 2.9V | 00:00:00 | 00:00:00 | 00:00:00 | |
| OM5KV | 2026-09-05 23:43:17 | 49.17684 | 17.73430 | 130° | 192km/h | 9860m | 6.2m/s | -41.6°C | 34.8% | 0hPa | 2.9V | 00:00:00 | 00:00:00 | 00:00:00 | |
| PG1ADW-2 | 2026-09-05 23:43:13 | 49.17828 | 17.73169 | 132° | 188km/h | 9829m | 4.7m/s | 0°C | 0% | 0hPa | 2.9V | 00:00:00 | 00:00:00 | 00:00:00 | |
| OE3JTB-15 | 2026-09-05 23:43:11 | 49.17891 | 17.73064 | 133° | 192km/h | 9818m | 7.0m/s | -41.1°C | 39.5% | 0hPa | 2.9V | 00:00:00 | 00:00:00 | 00:00:00 | |
| POL2MAQ | 2026-09-05 23:43:08 | 49.17955 | 17.72952 | 131° | 193km/h | 9805m | 7.3m/s | -41.0°C | 33.8% | 0hPa | 2.9V | 00:00:00 | 00:00:00 | 00:00:00 | |
| PETON7-10 | 2026-09-05 23:43:06 | 49.18043 | 17.72780 | 128° | 188km/h | 9783m | 4.4m/s | -40.8°C | 38.3% | 0hPa | 2.9V | 00:00:00 | 01:08:39 | 00:00:00 | |
| OM5KV | 2026-09-05 23:43:05 | 49.18043 | 17.72780 | 128° | 181km/h | 9783m | 4.4m/s | -40.9°C | 33.4% | 0hPa | 2.9V | 00:00:00 | 00:00:00 | 00:00:00 | |
| OM5KV | 2026-09-05 23:43:01 | 49.18158 | 17.72574 | 133° | 175km/h | 9765m | 5.7m/s | -40.7°C | 32.8% | 0hPa | 2.9V | 00:00:00 | 00:00:00 | 00:00:00 | |
| OM5KV | 2026-09-05 23:43:00 | 49.18188 | 17.72523 | 133° | 179km/h | 9758m | 8.3m/s | -40.6°C | 32.6% | 0hPa | 2.9V | 00:00:00 | 00:00:00 | 00:00:00 | |
| HA6NAB-11 | 2026-09-05 23:42:56 | 49.18317 | 17.72297 | 133° | 208km/h | 9726m | 7.9m/s | -40.3°C | 0% | 0hPa | 2.9V | 00:00:00 | 00:00:00 | 00:00:00 | |
| OM5KV | 2026-09-05 23:42:54 | 49.18387 | 17.72179 | 133° | 201km/h | 9713m | 5.1m/s | -40.2°C | 32.4% | 0hPa | 2.9V | 00:00:00 | 00:00:00 | 00:00:00 | |
| PG1ADW-2 | 2026-09-05 23:42:53 | 49.18451 | 17.72064 | 129° | 195km/h | 9702m | 5.2m/s | 0°C | 0% | 0hPa | 2.9V | 00:00:00 | 00:00:00 | 00:00:00 | |
| PETON7-10 | 2026-09-05 23:42:51 | 49.18510 | 17.71948 | 127° | 197km/h | 9690m | 5.6m/s | -39.9°C | 35.7% | 0hPa | 2.9V | 00:00:00 | 00:00:00 | 00:00:00 | |
| HA6NAB-11 | 2026-09-05 23:42:50 | 49.18510 | 17.71948 | 128° | 192km/h | 9690m | 5.6m/s | -40.0°C | 0% | 0hPa | 2.9V | 00:00:00 | 00:00:00 | 00:00:00 | |
| POL2MAQ | 2026-09-05 23:42:48 | 49.18602 | 17.71770 | 133° | 203km/h | 9670m | 5.0m/s | -39.8°C | 30.8% | 0hPa | 2.9V | 00:00:00 | 00:00:00 | 00:00:00 | |
| HA6NAB-11 | 2026-09-05 23:42:44 | 49.18707 | 17.71597 | 133° | 204km/h | 9652m | 6.0m/s | -39.6°C | 0% | 0hPa | 2.9V | 00:00:00 | 00:00:00 | 00:00:00 | |
| OE3JTB-15 | 2026-09-05 23:42:42 | 49.18808 | 17.71421 | 132° | 192km/h | 9637m | 5.9m/s | -39.4°C | 34.5% | 0hPa | 2.9V | 00:00:00 | 01:08:15 | 00:00:00 | |
| OE5DRO-10 | 2026-09-05 23:42:39 | 49.18911 | 17.71253 | 134° | 190km/h | 9617m | 5.7m/s | -39.2°C | 35.2% | 0hPa | 2.9V | 00:00:00 | 00:00:00 | 00:00:00 | |
| OE3OSB-13 | 2026-09-05 23:42:38 | 49.18976 | 17.71145 | 131° | 183km/h | 9606m | 5.3m/s | -39.2°C | 30.3% | -1.0hPa | 2.9V | 00:00:00 | 00:00:00 | 00:00:00 | |
| OM5KV | 2026-09-05 23:42:36 | 49.18976 | 17.71145 | 132° | 183km/h | 9606m | 5.3m/s | -39.2°C | 30.5% | 0hPa | 2.9V | 00:00:00 | 00:00:00 | 00:00:00 | |
| PETON7-10 | 2026-09-05 23:42:35 | 49.19034 | 17.71038 | 129° | 188km/h | 9596m | 5.2m/s | -39.1°C | 34.5% | 0hPa | 2.9V | 00:00:00 | 00:00:00 | 00:00:00 | |
| PG1ADW-2 | 2026-09-05 23:42:33 | 49.19091 | 17.70927 | 129° | 192km/h | 9585m | 4.7m/s | 0°C | 0% | 0hPa | 2.9V | 00:00:00 | 01:08:06 | 00:00:00 | |
| OM5KV | 2026-09-05 23:42:32 | 49.19091 | 17.70927 | 129° | 190km/h | 9585m | 4.7m/s | -39.0°C | 30.0% | 0hPa | 2.9V | 00:00:00 | 00:00:00 | 00:00:00 | |
| POL2MAQ | 2026-09-05 23:42:27 | 49.19240 | 17.70631 | 131° | 190km/h | 9548m | 6.8m/s | -38.6°C | 29.4% | 0hPa | 2.9V | 00:00:00 | 00:00:00 | 00:00:00 | |
| OM5KV | 2026-09-05 23:42:26 | 49.19272 | 17.70576 | 133° | 186km/h | 9542m | 6.8m/s | -38.6°C | 29.0% | 0hPa | 2.9V | 00:00:00 | 00:00:00 | 00:00:00 | |
| OM5KV | 2026-09-05 23:42:24 | 49.19336 | 17.70473 | 136° | 184km/h | 9530m | 4.8m/s | -38.5°C | 28.7% | 0hPa | 2.9V | 00:00:00 | 00:00:00 | 00:00:00 | |
| PETON7-10 | 2026-09-05 23:42:20 | 49.19494 | 17.70197 | 129° | 192km/h | 9499m | 5.7m/s | -38.1°C | 31.6% | 0hPa | 2.9V | 00:00:00 | 01:07:53 | 00:00:00 | |
| OM5KV | 2026-09-05 23:42:19 | 49.19494 | 17.70197 | 129° | 204km/h | 9499m | 5.7m/s | -38.2°C | 27.6% | 0hPa | 2.9V | 00:00:00 | 00:00:00 | 00:00:00 | |
| OM5KV | 2026-09-05 23:42:18 | 49.19526 | 17.70135 | 129° | 204km/h | 9494m | 5.2m/s | -38.1°C | 27.9% | 0hPa | 2.9V | 00:00:00 | 00:00:00 | 00:00:00 | |
| OM5KV | 2026-09-05 23:42:14 | 49.19656 | 17.69902 | 133° | 190km/h | 9473m | 4.7m/s | -37.9°C | 27.8% | 0hPa | 2.9V | 00:00:00 | 00:00:00 | 00:00:00 | |
| OE3JTB-15 | 2026-09-05 23:42:13 | 49.19719 | 17.69794 | 132° | 190km/h | 9461m | 5.6m/s | -37.8°C | 32.4% | 0hPa | 2.9V | 00:00:00 | 00:00:00 | 08:30:00 | |
| PG1ADW-2 | 2026-09-05 23:42:12 | 49.19750 | 17.69740 | 131° | 195km/h | 9455m | 7.0m/s | 0°C | 0% | 0hPa | 2.9V | 00:00:00 | 00:00:00 | 00:00:00 | |
| OE3OSB-13 | 2026-09-05 23:42:07 | 49.19935 | 17.69410 | 133° | 181km/h | 9425m | 5.7m/s | -37.6°C | 30.9% | -1.0hPa | 2.9V | 00:00:00 | 00:00:00 | 00:00:00 | |
| PETON7-10 | 2026-09-05 23:42:05 | 49.19967 | 17.69359 | 134° | 192km/h | 9419m | 5.9m/s | -37.5°C | 36.3% | 0hPa | 2.9V | 00:00:00 | 00:00:00 | 00:00:00 | |
| OE5DRO-10 | 2026-09-05 23:42:00 | 49.20138 | 17.69101 | 134° | 195km/h | 9397m | 4.7m/s | -37.4°C | 37.3% | 0hPa | 2.9V | 00:00:00 | 00:00:00 | 00:00:00 | |
| OM5KV | 2026-09-05 23:41:57 | 49.20208 | 17.68979 | 130° | 214km/h | 9387m | 4.6m/s | -37.4°C | 33.0% | 0hPa | 2.9V | 00:00:00 | 00:00:00 | 00:00:00 | |
| OM5KV | 2026-09-05 23:41:56 | 49.20241 | 17.68915 | 128° | 210km/h | 9381m | 6.3m/s | -37.4°C | 33.0% | 0hPa | 2.9V | 00:00:00 | 00:00:00 | 00:00:00 | |
| PG1ADW-2 | 2026-09-05 23:41:52 | 49.20385 | 17.68622 | 131° | 179km/h | 9352m | 6.7m/s | 0°C | 0% | 0hPa | 2.9V | 00:00:00 | 00:00:00 | 00:00:00 | |
| OM5KV | 2026-09-05 23:41:51 | 49.20385 | 17.68622 | 132° | 173km/h | 9352m | 6.7m/s | -37.1°C | 33.6% | 0hPa | 2.9V | 00:00:00 | 00:00:00 | 00:00:00 | |
| PETON7-10 | 2026-09-05 23:41:50 | 49.20446 | 17.68521 | 134° | 186km/h | 9341m | 7.2m/s | -37.0°C | 37.7% | 0hPa | 2.9V | 00:00:00 | 00:00:00 | 00:00:00 | |
| S52SK | 2026-09-05 23:41:48 | 49.20477 | 17.68471 | 133° | 183km/h | 9333m | 8.7m/s | -37.0°C | 0% | 0hPa | 2.9V | 00:00:00 | 00:00:00 | 00:00:00 | |
| OM5KV | 2026-09-05 23:41:46 | 49.20541 | 17.68360 | 131° | 201km/h | 9318m | 6.4m/s | -36.9°C | 33.5% | 0hPa | 2.9V | 00:00:00 | 00:00:00 | 00:00:00 | |
| OE3JTB-15 | 2026-09-05 23:41:44 | 49.20642 | 17.68178 | 132° | 188km/h | 9304m | 4.0m/s | -36.7°C | 38.0% | 0hPa | 2.9V | 00:00:00 | 00:00:00 | 00:00:00 | |
| OM5KV | 2026-09-05 23:41:43 | 49.20642 | 17.68178 | 133° | 206km/h | 9304m | 4.0m/s | -36.7°C | 33.7% | 0hPa | 2.9V | 00:00:00 | 00:00:00 | 00:00:00 | |
| S52SK | 2026-09-05 23:41:42 | 49.20676 | 17.68120 | 134° | 197km/h | 9300m | 3.8m/s | -36.7°C | 0% | 0hPa | 2.9V | 00:00:00 | 00:00:00 | 00:00:00 | |
| OE5DRO-10 | 2026-09-05 23:41:41 | 49.20742 | 17.68015 | 135° | 183km/h | 9289m | 6.0m/s | -36.5°C | 36.6% | 0hPa | 2.9V | 00:00:00 | 00:00:00 | 00:00:00 | |
| OM5KV | 2026-09-05 23:41:37 | 49.20833 | 17.67875 | 137° | 173km/h | 9271m | 5.3m/s | -36.4°C | 32.3% | 0hPa | 2.9V | 00:00:00 | 00:00:00 | 00:00:00 | |
| OE3OSB-13 | 2026-09-05 23:41:36 | 49.20931 | 17.67728 | 134° | 188km/h | 9259m | 5.2m/s | -36.3°C | 32.1% | -1.0hPa | 2.9V | 00:00:00 | 00:00:00 | 00:00:00 | |
| PETON7-10 | 2026-09-05 23:41:35 | 49.20931 | 17.67728 | 135° | 188km/h | 9259m | 5.1m/s | -36.2°C | 36.4% | 0hPa | 2.9V | 00:00:00 | 01:07:08 | 00:00:00 | |
| OM5KV | 2026-09-05 23:41:32 | 49.20998 | 17.67615 | 132° | 204km/h | 9248m | 5.4m/s | -36.2°C | 31.8% | 0hPa | 2.9V | 00:00:00 | 00:00:00 | 00:00:00 | |
| OM5KV | 2026-09-05 23:41:31 | 49.21032 | 17.67554 | 131° | 206km/h | 9243m | 4.6m/s | -36.2°C | 31.9% | 0hPa | 2.9V | 00:00:00 | 00:00:00 | 00:00:00 | |
| OM5KV | 2026-09-05 23:41:28 | 49.21130 | 17.67377 | 133° | 190km/h | 9225m | 7.1m/s | -36.0°C | 32.2% | 0hPa | 2.9V | 00:00:00 | 00:00:00 | 00:00:00 | |
| POL2MAQ | 2026-09-05 23:41:25 | 49.21223 | 17.67227 | 135° | 168km/h | 9205m | 6.8m/s | -35.8°C | 32.1% | 0hPa | 2.9V | 00:00:00 | 00:00:00 | 00:00:00 | |
| OE5DXL-15 | 2026-09-05 23:41:24 | 49.21280 | 17.67130 | 130° | 186km/h | 9193m | 4.2m/s | -35.7°C | 37.2% | 0hPa | 2.9V | 00:00:00 | 00:00:00 | 00:00:00 | |
| OM5KV | 2026-09-05 23:41:22 | 49.21336 | 17.67021 | 127° | 184km/h | 9184m | 5.6m/s | -35.7°C | 32.5% | 0hPa | 2.9V | 00:00:00 | 00:00:00 | 00:00:00 | |
| PETON7-10 | 2026-09-05 23:41:20 | 49.21392 | 17.66901 | 128° | 190km/h | 9171m | 6.8m/s | -35.5°C | 36.5% | 0hPa | 2.9V | 00:00:00 | 00:00:00 | 08:30:00 | |
| OM5KV | 2026-09-05 23:41:18 | 49.21423 | 17.66842 | 131° | 197km/h | 9165m | 5.6m/s | -35.5°C | 32.5% | 0hPa | 2.9V | 00:00:00 | 00:00:00 | 00:00:00 | |
| OE3JTB-15 | 2026-09-05 23:41:15 | 49.21558 | 17.66628 | 135° | 184km/h | 9139m | 8.2m/s | -35.2°C | 35.3% | 0hPa | 2.9V | 00:00:00 | 01:06:48 | 00:00:00 | |
| OM5KV | 2026-09-05 23:41:14 | 49.21558 | 17.66628 | 136° | 184km/h | 9139m | 8.2m/s | -35.3°C | 31.4% | 0hPa | 2.9V | 00:00:00 | 00:00:00 | 00:00:00 | |
| OM5KV | 2026-09-05 23:41:13 | 49.21590 | 17.66577 | 133° | 183km/h | 9131m | 6.9m/s | -35.2°C | 31.2% | 0hPa | 2.9V | 00:00:00 | 00:00:00 | 00:00:00 | |
| HA6NAB-11 | 2026-09-05 23:41:09 | 49.21709 | 17.66349 | 128° | 193km/h | 9110m | 4.8m/s | 0°C | 0% | 0hPa | 2.9V | 00:00:00 | 00:00:00 | 00:00:00 | |
| OM5KV | 2026-09-05 23:41:08 | 49.21739 | 17.66290 | 130° | 192km/h | 9107m | 2.2m/s | -35.0°C | 31.5% | 0hPa | 2.9V | 00:00:00 | 00:00:00 | 00:00:00 | |
| OM5KV | 2026-09-05 23:41:07 | 49.21770 | 17.66234 | 132° | 190km/h | 9104m | 4.0m/s | -35.0°C | 31.5% | 0hPa | 2.9V | 00:00:00 | 00:00:00 | 00:00:00 | |
| PETON7-10 | 2026-09-05 23:41:05 | 49.21868 | 17.66079 | 135° | 181km/h | 9087m | 6.9m/s | -34.8°C | 34.5% | 0hPa | 2.9V | 00:00:00 | 00:00:00 | 00:00:00 | |
| HA6NAB-11 | 2026-09-05 23:41:04 | 49.21867 | 17.66079 | 136° | 179km/h | 9087m | 7.0m/s | 0°C | 0% | 0hPa | 2.9V | 00:00:00 | 00:00:00 | 00:00:00 | |
| OE5DRO-10 | 2026-09-05 23:41:03 | 49.21928 | 17.65981 | 132° | 183km/h | 9072m | 6.9m/s | -34.6°C | 34.6% | 0hPa | 2.9V | 00:00:00 | 00:00:00 | 00:00:00 | |
| OM5KV | 2026-09-05 23:41:00 | 49.21985 | 17.65879 | 131° | 175km/h | 9062m | 5.6m/s | -34.6°C | 30.9% | 0hPa | 2.7V | 00:00:00 | 00:00:00 | 00:00:00 | |
| HA6NAB-11 | 2026-09-05 23:40:58 | 49.22046 | 17.65775 | 134° | 186km/h | 9050m | 6.2m/s | 0°C | 0% | 0hPa | 2.7V | 00:00:00 | 00:00:00 | 00:00:00 | |
| OM5KV | 2026-09-05 23:40:56 | 49.22115 | 17.65671 | 138° | 195km/h | 9039m | 5.0m/s | -34.4°C | 29.6% | 0hPa | 2.7V | 00:00:00 | 00:00:00 | 00:00:00 | |
| OE5DXL-15 | 2026-09-05 23:40:54 | 49.22219 | 17.65520 | 136° | 188km/h | 9017m | 6.5m/s | 0°C | 0% | 0hPa | 2.7V | 00:00:00 | 01:06:27 | 00:00:00 | |
| PETON7-10 | 2026-09-05 23:40:50 | 49.22343 | 17.65325 | 133° | 188km/h | 8990m | 7.0m/s | -33.9°C | 29.6% | 0hPa | 2.7V | 00:00:00 | 01:06:23 | 00:00:00 | |
| OM5KV | 2026-09-05 23:40:49 | 49.22343 | 17.65325 | 134° | 177km/h | 8990m | 7.0m/s | -33.9°C | 26.2% | 0hPa | 2.7V | 00:00:00 | 00:00:00 | 00:00:00 | |
| OE3JTB-15 | 2026-09-05 23:40:46 | 49.22473 | 17.65114 | 133° | 188km/h | 8966m | 5.5m/s | -33.6°C | 28.4% | 0hPa | 2.7V | 00:00:00 | 00:00:00 | 00:00:00 | |
| POL2MAQ | 2026-09-05 23:40:44 | 49.22537 | 17.65007 | 134° | 184km/h | 8956m | 3.8m/s | -33.6°C | 25.1% | 0hPa | 2.9V | 00:00:00 | 00:00:00 | 00:00:00 | |
| OM5KV | 2026-09-05 23:40:43 | 49.22537 | 17.65007 | 134° | 184km/h | 8956m | 3.8m/s | -33.6°C | 25.1% | 0hPa | 2.9V | 00:00:00 | 00:00:00 | 00:00:00 | |
| OM5KV | 2026-09-05 23:40:42 | 49.22569 | 17.64956 | 135° | 184km/h | 8952m | 3.7m/s | -33.6°C | 24.8% | 0hPa | 2.9V | 00:00:00 | 00:00:00 | 00:00:00 | |
| OM5KV | 2026-09-05 23:40:39 | 49.22666 | 17.64797 | 134° | 190km/h | 8939m | 4.7m/s | -33.4°C | 24.2% | 0hPa | 2.9V | 00:00:00 | 00:00:00 | 00:00:00 | |
| OM5KV | 2026-09-05 23:40:36 | 49.22766 | 17.64638 | 135° | 190km/h | 8927m | 2.9m/s | -33.3°C | 24.0% | 0hPa | 2.9V | 00:00:00 | 00:00:00 | 00:00:00 | |
| PETON7-10 | 2026-09-05 23:40:34 | 49.22866 | 17.64476 | 134° | 188km/h | 8917m | 5.4m/s | -33.2°C | 26.3% | 0hPa | 2.9V | 00:00:00 | 00:00:00 | 00:00:00 | |
| OM5KV | 2026-09-05 23:40:30 | 49.22972 | 17.64307 | 136° | 203km/h | 8904m | 4.2m/s | -33.1°C | 23.9% | 0hPa | 2.9V | 00:00:00 | 00:00:00 | 00:00:00 | |
| OM5KV | 2026-09-05 23:40:27 | 49.23107 | 17.64100 | 135° | 179km/h | 8884m | 8.8m/s | -32.9°C | 23.0% | 0hPa | 2.9V | 00:00:00 | 00:00:00 | 00:00:00 | |
| OM5KV | 2026-09-05 23:40:26 | 49.23137 | 17.64049 | 133° | 179km/h | 8876m | 8.3m/s | -32.8°C | 23.0% | 0hPa | 2.9V | 00:00:00 | 00:00:00 | 00:00:00 | |
| OE5DRO-10 | 2026-09-05 23:40:25 | 49.23167 | 17.63997 | 130° | 188km/h | 8868m | 7.4m/s | -32.7°C | 26.1% | 0hPa | 2.9V | 00:00:00 | 00:00:00 | 00:00:00 | |
| POL2MAQ | 2026-09-05 23:40:24 | 49.23195 | 17.63944 | 130° | 181km/h | 8861m | 6.2m/s | -32.7°C | 23.4% | 0hPa | 2.9V | 00:00:00 | 00:00:00 | 00:00:00 | |
| OM5KV | 2026-09-05 23:40:21 | 49.23254 | 17.63837 | 131° | 181km/h | 8851m | 4.9m/s | -32.6°C | 23.7% | 0hPa | 2.9V | 00:00:00 | 00:00:00 | 00:00:00 | |
| PETON7-10 | 2026-09-05 23:40:19 | 49.23348 | 17.63681 | 135° | 192km/h | 8831m | 7.2m/s | -32.3°C | 25.3% | 0hPa | 2.9V | 00:00:00 | 00:00:00 | 00:00:00 | |
| OE3JTB-15 | 2026-09-05 23:40:17 | 49.23416 | 17.63576 | 134° | 190km/h | 8817m | 6.4m/s | -32.2°C | 24.6% | 0hPa | 2.9V | 00:00:00 | 00:00:00 | 00:00:00 | |
| OM5KV | 2026-09-05 23:40:16 | 49.23416 | 17.63576 | 135° | 193km/h | 8817m | 6.4m/s | -32.2°C | 21.8% | 0hPa | 2.9V | 00:00:00 | 00:00:00 | 00:00:00 | |
| OM5KV | 2026-09-05 23:40:15 | 49.23450 | 17.63522 | 135° | 197km/h | 8811m | 4.5m/s | -32.2°C | 21.9% | 0hPa | 2.9V | 00:00:00 | 00:00:00 | 00:00:00 | |
| OM5KV | 2026-09-05 23:40:10 | 49.23626 | 17.63260 | 138° | 188km/h | 8779m | 7.9m/s | -31.9°C | 23.5% | 0hPa | 2.9V | 00:00:00 | 00:00:00 | 00:00:00 | |
| OM5KV | 2026-09-05 23:40:09 | 49.23661 | 17.63212 | 139° | 184km/h | 8772m | 4.8m/s | -31.9°C | 23.7% | 0hPa | 2.9V | 00:00:00 | 00:00:00 | 00:00:00 | |
| OE5DRO-10 | 2026-09-05 23:40:06 | 49.23800 | 17.63018 | 136° | 190km/h | 8749m | 5.0m/s | -31.6°C | 27.4% | 0hPa | 2.9V | 00:00:00 | 00:00:00 | 08:30:00 | |
| OM5KV | 2026-09-05 23:40:05 | 49.23800 | 17.63018 | 137° | 193km/h | 8749m | 5.0m/s | -31.7°C | 24.5% | 0hPa | 2.9V | 00:00:00 | 00:00:00 | 00:00:00 | |
| PETON7-10 | 2026-09-05 23:40:04 | 49.23869 | 17.62908 | 133° | 190km/h | 8738m | 6.4m/s | -31.5°C | 27.5% | 0hPa | 2.9V | 00:00:00 | 01:05:37 | 00:00:00 | |
| POL2MAQ | 2026-09-05 23:40:02 | 49.23903 | 17.62850 | 132° | 201km/h | 8732m | 5.8m/s | -31.5°C | 25.1% | 0hPa | 2.9V | 00:00:00 | 00:00:00 | 00:00:00 | |
| S52SK | 2026-09-05 23:40:01 | 49.23935 | 17.62792 | 132° | 195km/h | 8727m | 3.8m/s | -31.5°C | 0% | 0hPa | 2.9V | 00:00:00 | 00:00:00 | 00:00:00 | |
| OM5KV | 2026-09-05 23:40:00 | 49.23968 | 17.62736 | 133° | 193km/h | 8722m | 4.9m/s | -31.4°C | 25.8% | 0hPa | 2.9V | 00:00:00 | 00:00:00 | 00:00:00 | |
| OE3MUC-15 | 2026-09-05 23:39:59 | 49.24033 | 17.62627 | 135° | 188km/h | 8711m | 5.3m/s | -31.3°C | 29.1% | 0hPa | 2.9V | 00:00:00 | 00:00:00 | 00:00:00 | |
| S52SK | 2026-09-05 23:39:56 | 49.24100 | 17.62525 | 137° | 186km/h | 8698m | 7.6m/s | 0°C | 0% | 0hPa | 2.9V | 00:00:00 | 00:00:00 | 00:00:00 | |
| OE3MUC-15 | 2026-09-05 23:39:55 | 49.24168 | 17.62422 | 135° | 190km/h | 8686m | 4.9m/s | -31.1°C | 29.9% | 0hPa | 2.9V | 00:00:00 | 00:00:00 | 00:00:00 | |
| OM5KV | 2026-09-05 23:39:54 | 49.24168 | 17.62422 | 135° | 190km/h | 8686m | 5.0m/s | -31.2°C | 26.8% | 0hPa | 2.7V | 00:00:00 | 00:00:00 | 00:00:00 | |
| OM5KV | 2026-09-05 23:39:51 | 49.24266 | 17.62259 | 133° | 188km/h | 8672m | 4.1m/s | -31.0°C | 26.6% | 0hPa | 2.7V | 00:00:00 | 00:00:00 | 00:00:00 | |
| S52SK | 2026-09-05 23:39:50 | 49.24297 | 17.62206 | 134° | 183km/h | 8667m | 4.9m/s | 0°C | 0% | 0hPa | 2.7V | 00:00:00 | 00:00:00 | 00:00:00 | |
| PETON7-10 | 2026-09-05 23:39:49 | 49.24362 | 17.62107 | 137° | 190km/h | 8658m | 3.6m/s | -30.8°C | 29.1% | 0hPa | 2.7V | 00:00:00 | 00:00:00 | 00:00:00 | |
| OE3JTB-15 | 2026-09-05 23:39:48 | 49.24395 | 17.62060 | 138° | 186km/h | 8654m | 4.1m/s | -30.8°C | 29.2% | 0hPa | 2.9V | 00:00:00 | 01:05:21 | 00:00:00 | |
| OE5DRO-10 | 2026-09-05 23:39:47 | 49.24429 | 17.62012 | 138° | 186km/h | 8648m | 5.4m/s | -30.8°C | 29.3% | 0hPa | 2.9V | 00:00:00 | 00:00:00 | 00:00:00 | |
| S52SK | 2026-09-05 23:39:45 | 49.24462 | 17.61963 | 136° | 188km/h | 8643m | 4.9m/s | 0°C | 0% | 0hPa | 2.9V | 00:00:00 | 00:00:00 | 00:00:00 | |
| OM5KV | 2026-09-05 23:39:42 | 49.24565 | 17.61800 | 135° | 206km/h | 8626m | 6.7m/s | -30.6°C | 25.7% | 0hPa | 2.9V | 00:00:00 | 00:00:00 | 00:00:00 | |
| POL2MAQ | 2026-09-05 23:39:41 | 49.24601 | 17.61742 | 134° | 204km/h | 8620m | 4.2m/s | -30.5°C | 25.8% | 0hPa | 2.9V | 00:00:00 | 00:00:00 | 00:00:00 | |
| OM5KV | 2026-09-05 23:39:40 | 49.24670 | 17.61625 | 131° | 204km/h | 8611m | 5.7m/s | -30.4°C | 25.7% | 0hPa | 2.9V | 00:00:00 | 00:00:00 | 00:00:00 | |
| OM5KV | 2026-09-05 23:39:37 | 49.24734 | 17.61507 | 130° | 190km/h | 8602m | 6.1m/s | -30.3°C | 25.7% | 0hPa | 2.9V | 00:00:00 | 00:00:00 | 00:00:00 | |
| OM5KV | 2026-09-05 23:39:36 | 49.24764 | 17.61451 | 131° | 183km/h | 8596m | 6.9m/s | -30.3°C | 25.6% | 0hPa | 2.9V | 00:00:00 | 00:00:00 | 00:00:00 | |
| PETON7-10 | 2026-09-05 23:39:34 | 49.24856 | 17.61302 | 137° | 183km/h | 8577m | 6.4m/s | -30.0°C | 28.1% | 0hPa | 2.9V | 00:00:00 | 00:00:00 | 00:00:00 | |
| OM5KV | 2026-09-05 23:39:30 | 49.24953 | 17.61158 | 135° | 177km/h | 8556m | 8.0m/s | -29.9°C | 25.3% | 0hPa | 2.9V | 00:00:00 | 00:00:00 | 00:00:00 | |
| OM5KV | 2026-09-05 23:39:29 | 49.24984 | 17.61109 | 134° | 179km/h | 8548m | 8.9m/s | -29.8°C | 25.5% | 0hPa | 2.9V | 00:00:00 | 00:00:00 | 00:00:00 | |
| OE5DRO-10 | 2026-09-05 23:39:28 | 49.25045 | 17.61005 | 131° | 186km/h | 8532m | 6.4m/s | -29.7°C | 29.0% | 0hPa | 2.9V | 00:00:00 | 00:00:00 | 00:00:00 | |
| POL2MAQ | 2026-09-05 23:39:23 | 49.25267 | 17.60641 | 134° | 192km/h | 8487m | 6.8m/s | -29.4°C | 27.1% | 0hPa | 2.9V | 00:00:00 | 00:00:00 | 00:00:00 | |
| OM5KV | 2026-09-05 23:39:22 | 49.25434 | 17.60374 | 135° | 190km/h | 8462m | 4.2m/s | -29.3°C | 27.3% | 0hPa | 2.9V | 00:00:00 | 00:00:00 | 00:00:00 | |
| OM5KV | 2026-09-05 23:39:21 | 49.25594 | 17.60110 | 135° | 184km/h | 8437m | 6.3m/s | -29.3°C | 29.3% | 0hPa | 2.9V | 00:00:00 | 00:00:00 | 00:00:00 | |
| OE5DRO-10 | 2026-09-05 23:39:10 | 49.25661 | 17.60007 | 136° | 195km/h | 8427m | 5.1m/s | -29.2°C | 32.9% | 0hPa | 2.9V | 00:00:00 | 00:00:00 | 00:00:00 | |
| PETON7-10 | 2026-09-05 23:39:04 | 49.25838 | 17.59730 | 135° | 193km/h | 8404m | 3.3m/s | -29.2°C | 35.7% | 0hPa | 2.7V | 00:00:00 | 00:00:00 | 08:30:00 | |
| OM5KV | 2026-09-05 23:39:03 | 49.25838 | 17.59730 | 135° | 208km/h | 8404m | 3.4m/s | -29.3°C | 32.5% | 0hPa | 2.9V | 00:00:00 | 00:00:00 | 00:00:00 | |
| OM5KV | 2026-09-05 23:39:02 | 49.25875 | 17.59673 | 137° | 206km/h | 8400m | 5.0m/s | -29.3°C | 33.7% | 0hPa | 2.9V | 00:00:00 | 00:00:00 | 00:00:00 | |
| OE3OSB-13 | 2026-09-05 23:39:00 | 49.25989 | 17.59521 | 141° | 188km/h | 8384m | 5.7m/s | -29.3°C | 36.1% | -1.0hPa | 2.9V | 00:00:00 | 00:00:00 | 00:00:00 | |
| OE3MUC-15 | 2026-09-05 23:38:53 | 49.26230 | 17.59171 | 133° | 188km/h | 8337m | 7.8m/s | -29.3°C | 48.2% | 0hPa | 2.9V | 00:00:00 | 00:00:00 | 00:00:00 | |
| OE5DRO-10 | 2026-09-05 23:38:50 | 49.26332 | 17.59008 | 135° | 181km/h | 8319m | 6.1m/s | -29.2°C | 48.4% | 0hPa | 2.9V | 00:00:00 | 00:00:00 | 00:00:00 | |
| PETON7-10 | 2026-09-05 23:38:49 | 49.26367 | 17.58954 | 135° | 181km/h | 8313m | 6.2m/s | -29.2°C | 48.4% | 0hPa | 2.9V | 00:00:00 | 00:00:00 | 00:00:00 | |
| OM5KV | 2026-09-05 23:38:47 | 49.26401 | 17.58900 | 135° | 195km/h | 8306m | 7.3m/s | -29.2°C | 44.4% | 0hPa | 2.9V | 00:00:00 | 00:00:00 | 00:00:00 | |
| OM5KV | 2026-09-05 23:38:46 | 49.26435 | 17.58847 | 135° | 190km/h | 8299m | 6.8m/s | -29.2°C | 44.7% | 0hPa | 2.9V | 00:00:00 | 00:00:00 | 00:00:00 | |
| OE3MUC-15 | 2026-09-05 23:38:44 | 49.26536 | 17.58698 | 138° | 183km/h | 8282m | 5.6m/s | -29.0°C | 48.4% | 0hPa | 2.9V | 00:00:00 | 00:00:00 | 00:00:00 | |
| OM5KV | 2026-09-05 23:38:41 | 49.26605 | 17.58605 | 140° | 184km/h | 8270m | 6.9m/s | -28.9°C | 43.8% | 0hPa | 2.9V | 00:00:00 | 00:00:00 | 00:00:00 | |
| OM5KV | 2026-09-05 23:38:40 | 49.26640 | 17.58558 | 139° | 186km/h | 8264m | 5.6m/s | -28.9°C | 44.0% | 0hPa | 2.9V | 00:00:00 | 00:00:00 | 00:00:00 | |
| POL2MAQ | 2026-09-05 23:38:39 | 49.26675 | 17.58509 | 139° | 186km/h | 8259m | 4.5m/s | -28.9°C | 44.0% | 0hPa | 2.9V | 00:00:00 | 00:00:00 | 00:00:00 | |
| OE3MUC-15 | 2026-09-05 23:38:38 | 49.26743 | 17.58416 | 139° | 168km/h | 8247m | 6.6m/s | -28.8°C | 48.2% | 0hPa | 2.9V | 00:00:00 | 00:00:00 | 00:00:00 | |
| OM5KV | 2026-09-05 23:38:36 | 49.26776 | 17.58372 | 139° | 168km/h | 8241m | 4.7m/s | -28.8°C | 44.8% | 0hPa | 2.9V | 00:00:00 | 00:00:00 | 00:00:00 | |
| OM5KV | 2026-09-05 23:38:35 | 49.26806 | 17.58329 | 137° | 164km/h | 8236m | 5.5m/s | -28.8°C | 45.3% | 0hPa | 2.9V | 00:00:00 | 00:00:00 | 00:00:00 | |
| PETON7-10 | 2026-09-05 23:38:34 | 49.26866 | 17.58236 | 133° | 168km/h | 8223m | 7.0m/s | -28.7°C | 49.3% | 0hPa | 2.9V | 00:00:00 | 01:04:07 | 00:00:00 | |
| OM5KV | 2026-09-05 23:38:33 | 49.26866 | 17.58236 | 133° | 172km/h | 8223m | 7.1m/s | -28.8°C | 45.3% | 0hPa | 2.9V | 00:00:00 | 00:00:00 | 00:00:00 | |
| OE5DRO-10 | 2026-09-05 23:38:31 | 49.26955 | 17.58082 | 132° | 170km/h | 8202m | 7.7m/s | -28.6°C | 48.6% | 0hPa | 2.9V | 00:00:00 | 00:00:00 | 00:00:00 | |
| OE3MUC-15 | 2026-09-05 23:38:30 | 49.26984 | 17.58030 | 133° | 173km/h | 8194m | 7.4m/s | -28.6°C | 48.8% | 0hPa | 2.9V | 00:00:00 | 00:00:00 | 00:00:00 | |
| OE3OSB-13 | 2026-09-05 23:38:29 | 49.27015 | 17.57981 | 133° | 175km/h | 8188m | 3.9m/s | -28.7°C | 44.9% | -1.0hPa | 2.9V | 00:00:00 | 00:00:00 | 00:00:00 | |
| OM5KV | 2026-09-05 23:38:25 | 49.27142 | 17.57796 | 140° | 170km/h | 8168m | 5.2m/s | -28.6°C | 44.7% | 0hPa | 2.9V | 00:00:00 | 00:00:00 | 00:00:00 | |
| OE3JTB-15 | 2026-09-05 23:38:21 | 49.27255 | 17.57625 | 131° | 168km/h | 8146m | 5.4m/s | -28.5°C | 48.7% | 0hPa | 2.9V | 00:00:00 | 01:03:54 | 00:00:00 | |
| OE3MUC-15 | 2026-09-05 23:38:19 | 49.27308 | 17.57527 | 130° | 175km/h | 8135m | 5.4m/s | -28.5°C | 48.4% | 0hPa | 2.9V | 00:00:00 | 00:00:00 | 00:00:00 | |
| OM5KV | 2026-09-05 23:38:18 | 49.27308 | 17.57527 | 130° | 172km/h | 8135m | 5.5m/s | -28.5°C | 44.5% | 0hPa | 2.9V | 00:00:00 | 00:00:00 | 00:00:00 | |
| OE3MUC-15 | 2026-09-05 23:38:15 | 49.27423 | 17.57318 | 130° | 170km/h | 8114m | 6.6m/s | -28.4°C | 47.9% | 0hPa | 2.9V | 00:00:00 | 01:03:48 | 00:00:00 | |
| OM5KV | 2026-09-05 23:38:13 | 49.27477 | 17.57215 | 129° | 166km/h | 8101m | 8.1m/s | -28.4°C | 43.3% | 0hPa | 2.9V | 00:00:00 | 00:00:00 | 00:00:00 | |
| OE5DRO-10 | 2026-09-05 23:38:12 | 49.27502 | 17.57165 | 129° | 170km/h | 8093m | 7.5m/s | -28.3°C | 47.4% | 0hPa | 2.9V | 00:00:00 | 00:00:00 | 00:00:00 | |
| OE3MUC-15 | 2026-09-05 23:38:11 | 49.27528 | 17.57115 | 129° | 172km/h | 8085m | 7.5m/s | -28.4°C | 47.8% | 0hPa | 2.9V | 00:00:00 | 00:00:00 | 00:00:00 | |
| OM5KV | 2026-09-05 23:38:10 | 49.27528 | 17.57114 | 130° | 164km/h | 8085m | 7.6m/s | -28.4°C | 43.9% | 0hPa | 2.9V | 00:00:00 | 00:00:00 | 00:00:00 | |
| PETON7-10 | 2026-09-05 23:38:04 | 49.27738 | 17.56770 | 130° | 162km/h | 8046m | 4.9m/s | -28.5°C | 50.5% | 0hPa | 2.9V | 00:00:00 | 00:00:00 | 00:00:00 | |
| OM5KV | 2026-09-05 23:38:03 | 49.27738 | 17.56770 | 131° | 175km/h | 8046m | 4.9m/s | -28.6°C | 46.4% | 0hPa | 2.9V | 00:00:00 | 00:00:00 | 00:00:00 | |
| OM5KV | 2026-09-05 23:38:02 | 49.27766 | 17.56717 | 130° | 173km/h | 8041m | 5.5m/s | -28.6°C | 46.9% | 0hPa | 2.9V | 00:00:00 | 00:00:00 | 00:00:00 | |
| OE3OSB-13 | 2026-09-05 23:37:58 | 49.27910 | 17.56465 | 133° | 172km/h | 8005m | 6.1m/s | -28.9°C | 51.5% | -1.0hPa | 2.9V | 00:00:00 | 00:00:00 | 00:00:00 | |
| POL2MAQ | 2026-09-05 23:37:57 | 49.27910 | 17.56465 | 135° | 173km/h | 8005m | 6.1m/s | -28.9°C | 51.6% | 0hPa | 2.9V | 00:00:00 | 00:00:00 | 00:00:00 | |
| OM5KV | 2026-09-05 23:37:56 | 49.27940 | 17.56417 | 133° | 170km/h | 7999m | 6.2m/s | -28.9°C | 53.2% | 0hPa | 2.9V | 00:00:00 | 00:00:00 | 00:00:00 | |
| OE5DRO-10 | 2026-09-05 23:37:53 | 49.28036 | 17.56227 | 126° | 151km/h | 7974m | 5.4m/s | 0°C | 0% | 0hPa | 2.9V | 00:00:00 | 00:00:00 | 00:00:00 | |
| OE3JTB-15 | 2026-09-05 23:37:52 | 49.28057 | 17.56183 | 126° | 151km/h | 7967m | 7.6m/s | -29.1°C | 62.0% | 0hPa | 2.9V | 00:00:00 | 00:00:00 | 08:30:00 | |
| OM5KV | 2026-09-05 23:37:51 | 49.28057 | 17.56183 | 127° | 141km/h | 7967m | 7.6m/s | -29.1°C | 57.2% | 0hPa | 2.9V | 00:00:00 | 00:00:00 | 00:00:00 | |
| PETON7-10 | 2026-09-05 23:37:49 | 49.28129 | 17.56051 | 134° | 153km/h | 7949m | 3.7m/s | -29.0°C | 61.7% | 0hPa | 2.9V | 00:00:00 | 01:03:22 | 00:00:00 | |
| OM5KV | 2026-09-05 23:37:46 | 49.28184 | 17.55964 | 136° | 159km/h | 7936m | 7.4m/s | -29.0°C | 55.4% | 0hPa | 2.9V | 00:00:00 | 00:00:00 | 00:00:00 | |
| OM5KV | 2026-09-05 23:37:45 | 49.28212 | 17.55921 | 136° | 153km/h | 7929m | 6.9m/s | -29.0°C | 55.4% | 0hPa | 2.9V | 00:00:00 | 00:00:00 | 00:00:00 | |
| OM5KV | 2026-09-05 23:37:40 | 49.28336 | 17.55719 | 132° | 144km/h | 7898m | 5.2m/s | -28.8°C | 57.0% | 0hPa | 2.9V | 00:00:00 | 00:00:00 | 00:00:00 | |
| POL2MAQ | 2026-09-05 23:37:37 | 49.28412 | 17.55583 | 130° | 164km/h | 7878m | 6.9m/s | -28.7°C | 56.3% | 0hPa | 2.9V | 00:00:00 | 00:00:00 | 00:00:00 | |
| PETON7-10 | 2026-09-05 23:37:34 | 49.28512 | 17.55393 | 130° | 150km/h | 7851m | 5.5m/s | -28.5°C | 63.4% | 0hPa | 2.9V | 00:00:00 | 00:00:00 | 00:00:00 | |
| OM5KV | 2026-09-05 23:37:33 | 49.28512 | 17.55393 | 131° | 151km/h | 7851m | 5.6m/s | -28.6°C | 58.6% | 0hPa | 2.9V | 00:00:00 | 00:00:00 | 00:00:00 | |
| OM5KV | 2026-09-05 23:37:28 | 49.28642 | 17.55158 | 132° | 164km/h | 7818m | 4.5m/s | -28.4°C | 56.0% | 0hPa | 2.9V | 00:00:00 | 00:00:00 | 00:00:00 | |
| OE3OSB-13 | 2026-09-05 23:37:27 | 49.28695 | 17.55066 | 130° | 150km/h | 7808m | 4.0m/s | -28.3°C | 54.9% | -1.0hPa | 2.9V | 00:00:00 | 00:00:00 | 00:00:00 | |
| OE3JTB-15 | 2026-09-05 23:37:23 | 49.28783 | 17.54898 | 128° | 150km/h | 7781m | 8.5m/s | -28.0°C | 54.0% | 0hPa | 2.9V | 00:00:00 | 00:00:00 | 00:00:00 | |
| OM5KV | 2026-09-05 23:37:22 | 49.28783 | 17.54898 | 128° | 131km/h | 7781m | 8.5m/s | -28.1°C | 49.8% | 0hPa | 2.9V | 00:00:00 | 00:00:00 | 00:00:00 | |
| OE3MUC-15 | 2026-09-05 23:37:20 | 49.28844 | 17.54766 | 124° | 153km/h | 7761m | 6.0m/s | -27.9°C | 54.6% | 0hPa | 2.9V | 00:00:00 | 00:00:00 | 00:00:00 | |
| PETON7-10 | 2026-09-05 23:37:19 | 49.28866 | 17.54717 | 124° | 151km/h | 7755m | 6.6m/s | -27.8°C | 54.3% | 0hPa | 2.9V | 00:00:00 | 00:00:00 | 00:00:00 | |
| OE3MUC-15 | 2026-09-05 23:37:16 | 49.28929 | 17.54567 | 123° | 142km/h | 7736m | 7.0m/s | -27.7°C | 54.7% | 0hPa | 2.9V | 00:00:00 | 00:00:00 | 00:00:00 | |
| OE5DRO-10 | 2026-09-05 23:37:15 | 49.28949 | 17.54519 | 124° | 142km/h | 7729m | 6.2m/s | 0°C | 0% | 0hPa | 2.9V | 00:00:00 | 00:00:00 | 00:00:00 | |
| OE3MUC-15 | 2026-09-05 23:37:12 | 49.29010 | 17.54384 | 127° | 153km/h | 7713m | 4.8m/s | -27.5°C | 56.3% | 0hPa | 2.9V | 00:00:00 | 00:00:00 | 08:30:00 | |
| OM5KV | 2026-09-05 23:37:10 | 49.29033 | 17.54338 | 127° | 153km/h | 7708m | 4.8m/s | -27.5°C | 52.0% | 0hPa | 2.9V | 00:00:00 | 00:00:00 | 00:00:00 | |
| OE3MUC-15 | 2026-09-05 23:37:08 | 49.29105 | 17.54189 | 126° | 157km/h | 7693m | 4.5m/s | -27.3°C | 56.7% | 0hPa | 2.9V | 00:00:00 | 00:00:00 | 00:00:00 | |
| OM5KV | 2026-09-05 23:37:07 | 49.29105 | 17.54189 | 127° | 162km/h | 7693m | 4.6m/s | -27.4°C | 52.5% | 0hPa | 2.9V | 00:00:00 | 00:00:00 | 00:00:00 | |
| OE3MUC-15 | 2026-09-05 23:37:04 | 49.29197 | 17.53996 | 128° | 144km/h | 7675m | 4.2m/s | -27.2°C | 55.3% | 0hPa | 2.9V | 00:00:00 | 00:00:00 | 00:00:00 | |
| PETON7-10 | 2026-09-05 23:37:03 | 49.29219 | 17.53953 | 128° | 150km/h | 7670m | 5.2m/s | -27.1°C | 53.9% | 0hPa | 2.9V | 00:00:00 | 01:02:36 | 00:00:00 | |
| OM5KV | 2026-09-05 23:37:02 | 49.29220 | 17.53953 | 129° | 141km/h | 7670m | 5.2m/s | -27.2°C | 49.8% | 0hPa | 2.9V | 00:00:00 | 00:00:00 | 00:00:00 | |
| OE3MUC-15 | 2026-09-05 23:37:00 | 49.29289 | 17.53817 | 127° | 162km/h | 7653m | 4.7m/s | -27.0°C | 51.7% | 0hPa | 2.9V | 00:00:00 | 00:00:00 | 00:00:00 | |
| OM5KV | 2026-09-05 23:36:59 | 49.29313 | 17.53767 | 127° | 164km/h | 7648m | 6.4m/s | -26.9°C | 46.8% | 0hPa | 2.9V | 00:00:00 | 00:00:00 | 00:00:00 | |
| OM5KV | 2026-09-05 23:36:57 | 49.29337 | 17.53714 | 125° | 166km/h | 7641m | 6.5m/s | -26.9°C | 46.1% | 0hPa | 2.9V | 00:00:00 | 00:00:00 | 00:00:00 | |
| OE3MUC-15 | 2026-09-05 23:36:56 | 49.29381 | 17.53608 | 122° | 151km/h | 7629m | 7.4m/s | -26.7°C | 47.9% | 0hPa | 2.9V | 00:00:00 | 00:00:00 | 00:00:00 | |
| POL2MAQ | 2026-09-05 23:36:55 | 49.29381 | 17.53608 | 123° | 157km/h | 7629m | 7.5m/s | -26.8°C | 44.3% | 0hPa | 2.9V | 00:00:00 | 00:00:00 | 00:00:00 | |
| OE3JTB-15 | 2026-09-05 23:36:54 | 49.29421 | 17.53506 | 122° | 148km/h | 7615m | 6.8m/s | -26.6°C | 46.7% | 0hPa | 2.9V | 00:00:00 | 01:02:27 | 00:00:00 | |
| OM5KV | 2026-09-05 23:36:53 | 49.29421 | 17.53506 | 122° | 150km/h | 7615m | 6.8m/s | -26.6°C | 43.1% | 0hPa | 2.9V | 00:00:00 | 00:00:00 | 00:00:00 | |
| OE3MUC-15 | 2026-09-05 23:36:52 | 49.29458 | 17.53408 | 118° | 142km/h | 7601m | 5.9m/s | -26.5°C | 46.7% | 0hPa | 2.9V | 00:00:00 | 00:00:00 | 00:00:00 | |
| OM5KV | 2026-09-05 23:36:51 | 49.29458 | 17.53408 | 119° | 142km/h | 7601m | 6.0m/s | -26.5°C | 43.2% | 0hPa | 2.9V | 00:00:00 | 00:00:00 | 00:00:00 | |
| PETON7-10 | 2026-09-05 23:36:48 | 49.29531 | 17.53220 | 125° | 146km/h | 7583m | 4.5m/s | -26.3°C | 46.4% | 0hPa | 2.9V | 00:00:00 | 00:00:00 | 08:30:00 | |
| OM5KV | 2026-09-05 23:36:46 | 49.29552 | 17.53176 | 127° | 141km/h | 7578m | 5.7m/s | -26.3°C | 42.3% | 0hPa | 2.7V | 00:00:00 | 00:00:00 | 00:00:00 | |
| OM5KV | 2026-09-05 23:36:45 | 49.29573 | 17.53132 | 127° | 141km/h | 7571m | 8.7m/s | -26.2°C | 41.7% | 0hPa | 2.7V | 00:00:00 | 00:00:00 | 00:00:00 | |
| OE3MUC-15 | 2026-09-05 23:36:44 | 49.29612 | 17.53043 | 123° | 142km/h | 7556m | 6.7m/s | -26.0°C | 45.4% | 0hPa | 2.7V | 00:00:00 | 00:00:00 | 00:00:00 | |
| OM5KV | 2026-09-05 23:36:41 | 49.29651 | 17.52950 | 124° | 144km/h | 7545m | 6.3m/s | -26.0°C | 41.6% | 0hPa | 2.7V | 00:00:00 | 00:00:00 | 00:00:00 | |
| OE3MUC-15 | 2026-09-05 23:36:40 | 49.29693 | 17.52858 | 128° | 155km/h | 7530m | 7.4m/s | -25.8°C | 44.4% | 0hPa | 2.7V | 00:00:00 | 00:00:00 | 00:00:00 | |
| OM5KV | 2026-09-05 23:36:35 | 49.29787 | 17.52678 | 128° | 153km/h | 7509m | 3.9m/s | -25.7°C | 42.7% | 0hPa | 2.7V | 00:00:00 | 00:00:00 | 00:00:00 | |
| OM5KV | 2026-09-05 23:36:34 | 49.29810 | 17.52629 | 126° | 157km/h | 7504m | 5.6m/s | -25.6°C | 42.5% | 0hPa | 2.7V | 00:00:00 | 00:00:00 | 00:00:00 | |
| PETON7-10 | 2026-09-05 23:36:33 | 49.29852 | 17.52524 | 119° | 151km/h | 7494m | 6.2m/s | -25.5°C | 45.2% | 0hPa | 2.7V | 00:00:00 | 00:00:00 | 00:00:00 | |
| OE3MUC-15 | 2026-09-05 23:36:31 | 49.29890 | 17.52414 | 118° | 148km/h | 7482m | 7.2m/s | -25.3°C | 44.8% | 0hPa | 2.7V | 00:00:00 | 00:00:00 | 08:30:00 | |
| OE3OSB-13 | 2026-09-05 23:36:25 | 49.30024 | 17.52127 | 128° | 144km/h | 7434m | 7.0m/s | -24.9°C | 39.9% | -1.0hPa | 2.9V | 00:00:00 | 00:00:00 | 00:00:00 | |
| OE3JTB-15 | 2026-09-05 23:36:23 | 49.30066 | 17.52037 | 125° | 141km/h | 7424m | 3.2m/s | -24.8°C | 43.2% | 0hPa | 2.9V | 00:00:00 | 00:00:00 | 00:00:00 | |
| OE3MUC-15 | 2026-09-05 23:36:22 | 49.30086 | 17.51992 | 124° | 150km/h | 7418m | 9.0m/s | -24.7°C | 42.4% | 0hPa | 2.9V | 00:00:00 | 00:00:00 | 00:00:00 | |
| OM5KV | 2026-09-05 23:36:21 | 49.30086 | 17.51992 | 124° | 141km/h | 7418m | 9.0m/s | -24.8°C | 39.3% | 0hPa | 2.9V | 00:00:00 | 00:00:00 | 00:00:00 | |
| OE3MUC-15 | 2026-09-05 23:36:18 | 49.30170 | 17.51791 | 123° | 164km/h | 7385m | 6.4m/s | -24.4°C | 41.5% | 0hPa | 2.9V | 00:00:00 | 00:00:00 | 00:00:00 | |
| OM5KV | 2026-09-05 23:36:15 | 49.30216 | 17.51683 | 125° | 166km/h | 7375m | 5.0m/s | -24.4°C | 38.6% | 0hPa | 2.9V | 00:00:00 | 00:00:00 | 00:00:00 | |
| OE3MUC-15 | 2026-09-05 23:36:14 | 49.30262 | 17.51582 | 126° | 161km/h | 7367m | 4.0m/s | -24.2°C | 41.5% | 0hPa | 2.9V | 00:00:00 | 00:00:00 | 00:00:00 | |
| OM5KV | 2026-09-05 23:36:10 | 49.30326 | 17.51447 | 127° | 137km/h | 7354m | 5.1m/s | -24.1°C | 36.6% | 0hPa | 2.9V | 00:00:00 | 00:00:00 | 00:00:00 | |
| PETON7-10 | 2026-09-05 23:36:03 | 49.30504 | 17.51045 | 120° | 153km/h | 7308m | 5.9m/s | -23.6°C | 33.4% | 0hPa | 2.9V | 00:00:00 | 00:00:00 | 00:00:00 | |
| OE3OSB-13 | 2026-09-05 23:35:54 | 49.30687 | 17.50569 | 118° | 159km/h | 7258m | 3.1m/s | -23.2°C | 27.8% | -1.0hPa | 2.9V | 00:00:00 | 00:00:00 | 00:00:00 | |
| OE3MUC-15 | 2026-09-05 23:35:53 | 49.30706 | 17.50515 | 118° | 146km/h | 7254m | 5.0m/s | -23.1°C | 29.8% | 0hPa | 2.9V | 00:00:00 | 00:00:00 | 00:00:00 | |
| OM5KV | 2026-09-05 23:35:52 | 49.30706 | 17.50515 | 118° | 155km/h | 7254m | 5.0m/s | -23.2°C | 27.5% | 0hPa | 2.9V | 00:00:00 | 00:00:00 | 00:00:00 | |
| PETON7-10 | 2026-09-05 23:35:48 | 49.30793 | 17.50277 | 124° | 148km/h | 7224m | 5.1m/s | -22.9°C | 27.2% | 0hPa | 2.9V | 00:00:00 | 00:00:00 | 00:00:00 | |
| OM5KV | 2026-09-05 23:35:47 | 49.30794 | 17.50277 | 125° | 137km/h | 7224m | 5.1m/s | -22.9°C | 25.1% | 0hPa | 2.9V | 00:00:00 | 00:00:00 | 00:00:00 | |
| OM5KV | 2026-09-05 23:35:46 | 49.30813 | 17.50234 | 127° | 137km/h | 7220m | 4.7m/s | -22.9°C | 23.8% | 0hPa | 2.9V | 00:00:00 | 00:00:00 | 00:00:00 | |
| OM5KV | 2026-09-05 23:35:41 | 49.30916 | 17.50010 | 123° | 151km/h | 7196m | 5.0m/s | -22.7°C | 21.1% | 0hPa | 2.9V | 00:00:00 | 00:00:00 | 00:00:00 | |
| OE3JTB-15 | 2026-09-05 23:35:38 | 49.30997 | 17.49807 | 123° | 153km/h | 7165m | 8.9m/s | -22.3°C | 19.9% | 0hPa | 2.9V | 00:00:00 | 00:00:00 | 00:00:00 | |
| POL2MAQ | 2026-09-05 23:35:34 | 49.31063 | 17.49659 | 126° | 155km/h | 7143m | 6.9m/s | -22.2°C | 17.0% | 0hPa | 2.9V | 00:00:00 | 00:00:00 | 00:00:00 | |
| PETON7-10 | 2026-09-05 23:35:33 | 49.31106 | 17.49561 | 125° | 148km/h | 7130m | 4.7m/s | -22.0°C | 17.9% | 0hPa | 2.9V | 00:00:00 | 01:01:06 | 00:00:00 | |
| OM5KV | 2026-09-05 23:35:29 | 49.31169 | 17.49426 | 126° | 135km/h | 7116m | 5.1m/s | -21.9°C | 15.9% | 0hPa | 2.9V | 00:00:00 | 00:00:00 | 00:00:00 | |
| OM5KV | 2026-09-05 23:35:24 | 49.31269 | 17.49213 | 129° | 142km/h | 7098m | 4.5m/s | -21.8°C | 15.7% | 0hPa | 2.9V | 00:00:00 | 00:00:00 | 00:00:00 | |
| OE3OSB-13 | 2026-09-05 23:35:23 | 49.31315 | 17.49120 | 126° | 157km/h | 7088m | 5.7m/s | -21.7°C | 15.2% | -1.0hPa | 2.9V | 00:00:00 | 00:00:00 | 00:00:00 | |
| OE3MUC-15 | 2026-09-05 23:35:19 | 49.31404 | 17.48913 | 122° | 155km/h | 7065m | 4.0m/s | -21.4°C | 15.5% | 0hPa | 2.9V | 00:00:00 | 00:00:00 | 00:00:00 | |
| PETON7-10 | 2026-09-05 23:35:18 | 49.31425 | 17.48862 | 123° | 157km/h | 7060m | 5.5m/s | -21.4°C | 15.1% | 0hPa | 2.9V | 00:00:00 | 00:00:00 | 00:00:00 | |
| OM5KV | 2026-09-05 23:35:17 | 49.31425 | 17.48862 | 123° | 153km/h | 7060m | 5.5m/s | -21.4°C | 13.8% | 0hPa | 2.9V | 00:00:00 | 00:00:00 | 00:00:00 | |
| POL2MAQ | 2026-09-05 23:35:13 | 49.31517 | 17.48666 | 130° | 162km/h | 7040m | 4.0m/s | -21.3°C | 11.8% | 0hPa | 2.9V | 00:00:00 | 00:00:00 | 00:00:00 | |
| OM5KV | 2026-09-05 23:35:12 | 49.31543 | 17.48617 | 130° | 161km/h | 7035m | 5.3m/s | -21.2°C | 11.7% | 0hPa | 2.9V | 00:00:00 | 00:00:00 | 00:00:00 | |
| OE3MUC-15 | 2026-09-05 23:35:11 | 49.31592 | 17.48523 | 128° | 146km/h | 7026m | 4.1m/s | -21.1°C | 12.9% | 0hPa | 2.9V | 00:00:00 | 00:00:00 | 00:00:00 | |
| OE3MUC-15 | 2026-09-05 23:35:07 | 49.31675 | 17.48334 | 124° | 164km/h | 7005m | 6.2m/s | -21.0°C | 12.4% | 0hPa | 2.9V | 00:00:00 | 00:00:00 | 00:00:00 | |
| OM5KV | 2026-09-05 23:35:06 | 49.31697 | 17.48282 | 124° | 164km/h | 7000m | 3.9m/s | -21.0°C | 11.2% | 0hPa | 2.7V | 00:00:00 | 00:00:00 | 00:00:00 | |
| OE3JTB-15 | 2026-09-05 23:35:04 | 49.31743 | 17.48173 | 123° | 148km/h | 6993m | 2.9m/s | -20.9°C | 12.4% | 0hPa | 2.7V | 00:00:00 | 01:00:37 | 00:00:00 | |
| PETON7-10 | 2026-09-05 23:35:03 | 49.31765 | 17.48117 | 123° | 146km/h | 6990m | 3.4m/s | -20.9°C | 12.5% | 0hPa | 2.7V | 00:00:00 | 00:00:00 | 00:00:00 | |
| OE3OSB-13 | 2026-09-05 23:34:52 | 49.31997 | 17.47622 | 123° | 146km/h | 6931m | 5.2m/s | -20.5°C | 11.4% | -1.0hPa | 2.7V | 00:00:00 | 00:00:00 | 00:00:00 | |
| OE3MUC-15 | 2026-09-05 23:34:51 | 49.32018 | 17.47574 | 124° | 150km/h | 6926m | 5.1m/s | -20.5°C | 12.6% | 0hPa | 2.7V | 00:00:00 | 00:00:00 | 00:00:00 | |
| PETON7-10 | 2026-09-05 23:34:48 | 49.32082 | 17.47427 | 124° | 150km/h | 6905m | 6.9m/s | -20.3°C | 12.7% | 0hPa | 2.7V | 00:00:00 | 01:00:21 | 00:00:00 | |
| OM5KV | 2026-09-05 23:34:47 | 49.32082 | 17.47427 | 125° | 150km/h | 6905m | 7.0m/s | -20.4°C | 11.5% | 0hPa | 2.7V | 00:00:00 | 00:00:00 | 00:00:00 | |
| OE3MUC-15 | 2026-09-05 23:34:46 | 49.32124 | 17.47334 | 127° | 155km/h | 6895m | 4.9m/s | -20.3°C | 12.6% | 0hPa | 2.7V | 00:00:00 | 00:00:00 | 00:00:00 | |
| OM5KV | 2026-09-05 23:34:42 | 49.32190 | 17.47205 | 130° | 141km/h | 6885m | 4.2m/s | -20.2°C | 11.4% | 0hPa | 2.7V | 00:00:00 | 00:00:00 | 00:00:00 | |
| OM5KV | 2026-09-05 23:34:41 | 49.32212 | 17.47163 | 129° | 139km/h | 6880m | 4.5m/s | -20.2°C | 11.4% | 0hPa | 2.7V | 00:00:00 | 00:00:00 | 00:00:00 | |
| OE3MUC-15 | 2026-09-05 23:34:36 | 49.32348 | 17.46875 | 126° | 155km/h | 6849m | 7.6m/s | -20.0°C | 12.8% | 0hPa | 2.7V | 00:00:00 | 00:00:00 | 08:30:00 | |
| OE3JTB-15 | 2026-09-05 23:34:35 | 49.32371 | 17.46825 | 124° | 155km/h | 6842m | 5.5m/s | -19.9°C | 12.9% | 0hPa | 2.9V | 00:00:00 | 00:00:00 | 00:00:00 | |
| OM5KV | 2026-09-05 23:34:34 | 49.32371 | 17.46825 | 125° | 153km/h | 6842m | 5.5m/s | -20.0°C | 11.8% | 0hPa | 2.9V | 00:00:00 | 00:00:00 | 00:00:00 | |
| PETON7-10 | 2026-09-05 23:34:33 | 49.32413 | 17.46725 | 122° | 155km/h | 6830m | 7.9m/s | -19.8°C | 12.6% | 0hPa | 2.9V | 00:00:00 | 00:00:00 | 08:30:00 | |
| POL2MAQ | 2026-09-05 23:34:32 | 49.32413 | 17.46725 | 123° | 155km/h | 6830m | 8.0m/s | -19.9°C | 11.5% | 0hPa | 2.7V | 00:00:00 | 00:00:00 | 00:00:00 | |
| OM5KV | 2026-09-05 23:34:30 | 49.32454 | 17.46619 | 120° | 159km/h | 6817m | 4.2m/s | -19.8°C | 11.5% | 0hPa | 2.7V | 00:00:00 | 00:00:00 | 00:00:00 | |
| OM5KV | 2026-09-05 23:34:29 | 49.32474 | 17.46566 | 120° | 159km/h | 6813m | 5.4m/s | -19.8°C | 11.6% | 0hPa | 2.7V | 00:00:00 | 00:00:00 | 00:00:00 | |
| OM5KV | 2026-09-05 23:34:23 | 49.32635 | 17.46211 | 126° | 162km/h | 6773m | 7.4m/s | -19.6°C | 12.0% | 0hPa | 2.7V | 00:00:00 | 00:00:00 | 00:00:00 | |
| OE3OSB-13 | 2026-09-05 23:34:21 | 49.32695 | 17.46063 | 119° | 139km/h | 6754m | 7.9m/s | -19.4°C | 11.9% | -1.0hPa | 2.7V | 00:00:00 | 00:00:00 | 00:00:00 | |
| OM5KV | 2026-09-05 23:34:19 | 49.32695 | 17.46063 | 120° | 139km/h | 6754m | 7.9m/s | -19.4°C | 11.9% | 0hPa | 2.7V | 00:00:00 | 00:00:00 | 00:00:00 | |
| OM5KV | 2026-09-05 23:34:16 | 49.32747 | 17.45926 | 123° | 139km/h | 6738m | 4.3m/s | -19.3°C | 12.2% | 0hPa | 2.7V | 00:00:00 | 00:00:00 | 00:00:00 | |
| OM5KV | 2026-09-05 23:34:12 | 49.32835 | 17.45730 | 128° | 166km/h | 6717m | 6.2m/s | -19.2°C | 11.3% | 0hPa | 2.7V | 00:00:00 | 00:00:00 | 00:00:00 | |
| OM5KV | 2026-09-05 23:34:11 | 49.32860 | 17.45679 | 129° | 166km/h | 6711m | 7.2m/s | -19.1°C | 10.9% | 0hPa | 2.7V | 00:00:00 | 00:00:00 | 00:00:00 | |
| OE3MUC-15 | 2026-09-05 23:34:09 | 49.32933 | 17.45535 | 127° | 142km/h | 6694m | 4.6m/s | -19.0°C | 11.5% | 0hPa | 2.7V | 00:00:00 | 00:00:00 | 00:00:00 | |
| OE3JTB-15 | 2026-09-05 23:34:06 | 49.32991 | 17.45399 | 121° | 150km/h | 6677m | 7.8m/s | -18.9°C | 10.8% | 0hPa | 2.7V | 00:00:00 | 00:00:00 | 00:00:00 | |
| OE3MUC-15 | 2026-09-05 23:34:05 | 49.33010 | 17.45349 | 121° | 157km/h | 6669m | 7.9m/s | -18.8°C | 10.1% | 0hPa | 2.7V | 00:00:00 | 00:00:00 | 00:00:00 | |
| PETON7-10 | 2026-09-05 23:34:03 | 49.33055 | 17.45247 | 127° | 150km/h | 6654m | 6.0m/s | -18.7°C | 8.0% | 0hPa | 2.7V | 00:00:00 | 00:59:36 | 00:00:00 | |
| OE3OSB-13 | 2026-09-05 23:33:50 | 49.33349 | 17.44586 | 125° | 159km/h | 6579m | 5.2m/s | -18.5°C | 6.1% | -1.0hPa | 2.7V | 00:00:00 | 00:00:00 | 00:00:00 | |
| OE3MUC-15 | 2026-09-05 23:33:49 | 49.33349 | 17.44586 | 126° | 153km/h | 6579m | 5.1m/s | -18.5°C | 6.8% | 0hPa | 2.7V | 00:00:00 | 00:00:00 | 00:00:00 | |
| PETON7-10 | 2026-09-05 23:33:48 | 49.33373 | 17.44536 | 128° | 150km/h | 6574m | 4.7m/s | -18.4°C | 6.3% | 0hPa | 2.9V | 00:00:00 | 00:00:00 | 00:00:00 | |
| OE3MUC-15 | 2026-09-05 23:33:45 | 49.33444 | 17.44401 | 128° | 148km/h | 6557m | 7.1m/s | -18.3°C | 4.9% | 0hPa | 2.9V | 00:00:00 | 00:00:00 | 00:00:00 | |
| OM5KV | 2026-09-05 23:33:39 | 49.33545 | 17.44155 | 119° | 155km/h | 6528m | 3.8m/s | -18.2°C | 4.1% | 0hPa | 2.9V | 00:00:00 | 00:00:00 | 00:00:00 | |
| OE3JTB-15 | 2026-09-05 23:33:37 | 49.33598 | 17.44003 | 120° | 144km/h | 6518m | 4.5m/s | -18.1°C | 4.6% | 0hPa | 2.9V | 00:00:00 | 00:59:10 | 00:00:00 | |
| OM5KV | 2026-09-05 23:33:34 | 49.33638 | 17.43909 | 127° | 146km/h | 6507m | 6.3m/s | -18.1°C | 4.0% | 0hPa | 2.9V | 00:00:00 | 00:00:00 | 00:00:00 | |
| PETON7-10 | 2026-09-05 23:33:33 | 49.33684 | 17.43817 | 129° | 151km/h | 6495m | 5.9m/s | -18.0°C | 4.3% | 0hPa | 2.9V | 00:00:00 | 00:00:00 | 00:00:00 | |
| OM5KV | 2026-09-05 23:33:31 | 49.33709 | 17.43769 | 130° | 159km/h | 6489m | 5.6m/s | -18.0°C | 3.8% | 0hPa | 2.9V | 00:00:00 | 00:00:00 | 00:00:00 | |
| POL2MAQ | 2026-09-05 23:33:30 | 49.33734 | 17.43721 | 128° | 161km/h | 6483m | 6.6m/s | -18.0°C | 3.8% | 0hPa | 2.9V | 00:00:00 | 00:00:00 | 00:00:00 | |
| OM5KV | 2026-09-05 23:33:27 | 49.33822 | 17.43519 | 121° | 150km/h | 6462m | 6.0m/s | -17.9°C | 4.1% | 0hPa | 2.9V | 00:00:00 | 00:00:00 | 00:00:00 | |
| OM5KV | 2026-09-05 23:33:24 | 49.33860 | 17.43417 | 120° | 153km/h | 6447m | 9.2m/s | -17.8°C | 4.0% | 0hPa | 2.9V | 00:00:00 | 00:00:00 | 00:00:00 | |
| OE3OSB-13 | 2026-09-05 23:33:19 | 49.33992 | 17.43084 | 128° | 135km/h | 6398m | 8.3m/s | -17.6°C | 6.8% | -1.0hPa | 2.9V | 00:00:00 | 00:00:00 | 00:00:00 | |
| PETON7-10 | 2026-09-05 23:33:18 | 49.33992 | 17.43084 | 129° | 133km/h | 6398m | 8.3m/s | -17.5°C | 7.5% | 0hPa | 2.9V | 00:00:00 | 00:58:51 | 00:00:00 | |
| OE3MUC-15 | 2026-09-05 23:33:15 | 49.34054 | 17.42961 | 127° | 130km/h | 6383m | 4.0m/s | -17.4°C | 7.3% | 0hPa | 2.9V | 00:00:00 | 00:00:00 | 00:00:00 | |
| OM5KV | 2026-09-05 23:33:13 | 49.34073 | 17.42920 | 126° | 128km/h | 6379m | 4.8m/s | -17.4°C | 6.5% | 0hPa | 2.9V | 00:00:00 | 00:00:00 | 00:00:00 | |
| OE3MUC-15 | 2026-09-05 23:33:10 | 49.34136 | 17.42744 | 114° | 141km/h | 6356m | 8.0m/s | -17.1°C | 5.4% | 0hPa | 2.9V | 00:00:00 | 00:00:00 | 00:00:00 | |
| POL2MAQ | 2026-09-05 23:33:09 | 49.34136 | 17.42744 | 115° | 137km/h | 6356m | 8.1m/s | -17.2°C | 4.8% | 0hPa | 2.9V | 00:00:00 | 00:00:00 | 00:00:00 | |
| OE3JTB-15 | 2026-09-05 23:33:08 | 49.34166 | 17.42645 | 115° | 139km/h | 6342m | 5.3m/s | -17.1°C | 4.5% | 0hPa | 2.9V | 00:00:00 | 00:00:00 | 08:30:00 | |
| OE3MUC-15 | 2026-09-05 23:33:06 | 49.34193 | 17.42545 | 113° | 128km/h | 6328m | 7.6m/s | -17.0°C | 4.5% | 0hPa | 2.9V | 00:00:00 | 00:00:00 | 00:00:00 | |
| PETON7-10 | 2026-09-05 23:33:03 | 49.34236 | 17.42413 | 122° | 142km/h | 6311m | 5.8m/s | -16.8°C | 4.5% | 0hPa | 2.9V | 00:00:00 | 00:00:00 | 00:00:00 | |
| OE3OSB-13 | 2026-09-05 23:32:48 | 49.34536 | 17.41674 | 121° | 119km/h | 6219m | 5.3m/s | -16.5°C | 15.4% | -1.0hPa | 2.9V | 00:00:00 | 00:00:00 | 00:00:00 | |
| OE3MUC-15 | 2026-09-05 23:32:46 | 49.34552 | 17.41634 | 121° | 139km/h | 6214m | 5.0m/s | -16.4°C | 16.2% | 0hPa | 2.9V | 00:00:00 | 00:00:00 | 00:00:00 | |
| OM5KV | 2026-09-05 23:32:45 | 49.34551 | 17.41634 | 122° | 122km/h | 6214m | 5.0m/s | -16.4°C | 15.1% | 0hPa | 2.7V | 00:00:00 | 00:00:00 | 00:00:00 | |
| OM5KV | 2026-09-05 23:32:41 | 49.34625 | 17.41453 | 124° | 150km/h | 6193m | 6.7m/s | -16.3°C | 17.3% | 0hPa | 2.7V | 00:00:00 | 00:00:00 | 00:00:00 | |
| OE3MUC-15 | 2026-09-05 23:32:37 | 49.34726 | 17.41212 | 123° | 133km/h | 6164m | 5.1m/s | -16.3°C | 26.1% | 0hPa | 2.7V | 00:00:00 | 00:00:00 | 00:00:00 | |
| OM5KV | 2026-09-05 23:32:34 | 49.34762 | 17.41129 | 127° | 128km/h | 6150m | 6.8m/s | -16.3°C | 24.6% | 0hPa | 2.7V | 00:00:00 | 00:00:00 | 00:00:00 | |
| PETON7-10 | 2026-09-05 23:32:33 | 49.34802 | 17.41047 | 126° | 146km/h | 6136m | 6.1m/s | -16.1°C | 23.5% | 0hPa | 2.7V | 00:00:00 | 00:58:06 | 00:00:00 | |
| OE3MUC-15 | 2026-09-05 23:32:32 | 49.34822 | 17.41002 | 124° | 148km/h | 6130m | 6.2m/s | -16.1°C | 18.3% | 0hPa | 2.7V | 00:00:00 | 00:00:00 | 00:00:00 | |
| POL2MAQ | 2026-09-05 23:32:28 | 49.34896 | 17.40802 | 118° | 151km/h | 6103m | 7.4m/s | -15.9°C | 15.0% | 0hPa | 2.7V | 00:00:00 | 00:00:00 | 00:00:00 | |
| OM5KV | 2026-09-05 23:32:27 | 49.34896 | 17.40802 | 118° | 151km/h | 6103m | 7.4m/s | -15.9°C | 15.0% | 0hPa | 2.7V | 00:00:00 | 00:00:00 | 00:00:00 | |
| OM5KV | 2026-09-05 23:32:23 | 49.34969 | 17.40599 | 123° | 148km/h | 6082m | 5.5m/s | -15.7°C | 14.4% | 0hPa | 2.7V | 00:00:00 | 00:00:00 | 00:00:00 | |
| PETON7-10 | 2026-09-05 23:32:18 | 49.35098 | 17.40330 | 128° | 139km/h | 6051m | 4.2m/s | -15.3°C | 11.0% | 0hPa | 2.7V | 00:00:00 | 00:00:00 | 08:30:00 | |
| OE3OSB-13 | 2026-09-05 23:32:17 | 49.35143 | 17.40239 | 124° | 150km/h | 6041m | 5.4m/s | -15.3°C | 9.4% | -1.0hPa | 2.9V | 00:00:00 | 00:00:00 | 00:00:00 | |
| OE3MUC-15 | 2026-09-05 23:32:14 | 49.35184 | 17.40140 | 121° | 148km/h | 6030m | 5.4m/s | -15.1°C | 10.0% | 0hPa | 2.9V | 00:00:00 | 00:00:00 | 00:00:00 | |
| OM5KV | 2026-09-05 23:32:12 | 49.35203 | 17.40088 | 120° | 153km/h | 6023m | 8.1m/s | -15.1°C | 10.3% | 0hPa | 2.9V | 00:00:00 | 00:00:00 | 00:00:00 | |
| OM5KV | 2026-09-05 23:32:11 | 49.35221 | 17.40036 | 119° | 150km/h | 6015m | 8.0m/s | -15.1°C | 11.8% | 0hPa | 2.9V | 00:00:00 | 00:00:00 | 00:00:00 | |
| OE3MUC-15 | 2026-09-05 23:32:10 | 49.35253 | 17.39939 | 117° | 130km/h | 6002m | 5.3m/s | -14.9°C | 14.9% | 0hPa | 2.9V | 00:00:00 | 00:00:00 | 00:00:00 | |
| POL2MAQ | 2026-09-05 23:32:06 | 49.35294 | 17.39808 | 116° | 120km/h | 5984m | 6.8m/s | -14.8°C | 12.3% | 0hPa | 2.9V | 00:00:00 | 00:00:00 | 00:00:00 | |
| OM5KV | 2026-09-05 23:32:04 | 49.35323 | 17.39721 | 120° | 135km/h | 5972m | 5.0m/s | -14.7°C | 10.9% | 0hPa | 2.9V | 00:00:00 | 00:00:00 | 00:00:00 | |
| PETON7-10 | 2026-09-05 23:32:03 | 49.35359 | 17.39628 | 122° | 137km/h | 5959m | 6.6m/s | -14.5°C | 9.3% | 0hPa | 2.9V | 00:00:00 | 00:00:00 | 00:00:00 | |
| OM5KV | 2026-09-05 23:32:00 | 49.35399 | 17.39532 | 124° | 151km/h | 5946m | 7.4m/s | -14.5°C | 6.3% | 0hPa | 2.9V | 00:00:00 | 00:00:00 | 00:00:00 | |
| OM5KV | 2026-09-05 23:31:59 | 49.35420 | 17.39482 | 123° | 150km/h | 5940m | 5.1m/s | -14.5°C | 6.6% | 0hPa | 2.9V | 00:00:00 | 00:00:00 | 00:00:00 | |
| OM5KV | 2026-09-05 23:31:54 | 49.35509 | 17.39256 | 123° | 122km/h | 5912m | 6.6m/s | -14.3°C | 10.0% | 0hPa | 2.9V | 00:00:00 | 00:00:00 | 00:00:00 | |
| OM5KV | 2026-09-05 23:31:53 | 49.35526 | 17.39215 | 125° | 124km/h | 5904m | 9.0m/s | -14.2°C | 13.2% | 0hPa | 2.9V | 00:00:00 | 00:00:00 | 00:00:00 | |
| PETON7-10 | 2026-09-05 23:31:48 | 49.35637 | 17.38955 | 117° | 131km/h | 5862m | 6.7m/s | -13.8°C | 18.1% | 0hPa | 2.9V | 00:00:00 | 00:57:21 | 00:00:00 | |
| OM5KV | 2026-09-05 23:31:47 | 49.35636 | 17.38955 | 118° | 135km/h | 5862m | 6.8m/s | -13.9°C | 17.1% | 0hPa | 2.9V | 00:00:00 | 00:00:00 | 00:00:00 | |
| POL2MAQ | 2026-09-05 23:31:46 | 49.35652 | 17.38908 | 117° | 137km/h | 5857m | 4.1m/s | -13.8°C | 17.2% | 0hPa | 2.9V | 00:00:00 | 00:00:00 | 00:00:00 | |
| OE3MUC-15 | 2026-09-05 23:31:45 | 49.35683 | 17.38810 | 117° | 146km/h | 5842m | 8.7m/s | -13.7°C | 17.1% | 0hPa | 2.9V | 00:00:00 | 00:00:00 | 08:30:00 | |
| OM5KV | 2026-09-05 23:31:41 | 49.35738 | 17.38663 | 122° | 137km/h | 5820m | 7.7m/s | -13.5°C | 15.8% | 0hPa | 2.9V | 00:00:00 | 00:00:00 | 00:00:00 | |
| OM5KV | 2026-09-05 23:31:36 | 49.35814 | 17.38459 | 123° | 115km/h | 5784m | 6.3m/s | -13.2°C | 8.9% | 0hPa | 2.9V | 00:00:00 | 00:00:00 | 00:00:00 | |
| OM5KV | 2026-09-05 23:31:35 | 49.35830 | 17.38421 | 123° | 120km/h | 5779m | 3.7m/s | -13.1°C | 9.8% | 0hPa | 2.9V | 00:00:00 | 00:00:00 | 00:00:00 | |
| PETON7-10 | 2026-09-05 23:31:33 | 49.35882 | 17.38294 | 122° | 137km/h | 5763m | 6.4m/s | -12.9°C | 9.4% | 0hPa | 2.9V | 00:00:00 | 00:00:00 | 00:00:00 | |
| OM5KV | 2026-09-05 23:31:29 | 49.35938 | 17.38151 | 122° | 142km/h | 5745m | 8.7m/s | -12.8°C | 7.1% | 0hPa | 2.9V | 00:00:00 | 00:00:00 | 00:00:00 | |
| POL2MAQ | 2026-09-05 23:31:25 | 49.36009 | 17.37982 | 125° | 120km/h | 5715m | 6.0m/s | -12.6°C | 6.2% | 0hPa | 2.9V | 00:00:00 | 00:00:00 | 00:00:00 | |
| OE3MUC-15 | 2026-09-05 23:31:20 | 49.36115 | 17.37711 | 114° | 135km/h | 5674m | 6.9m/s | -12.2°C | 6.8% | 0hPa | 2.9V | 00:00:00 | 00:00:00 | 00:00:00 | |
| OM5KV | 2026-09-05 23:31:19 | 49.36115 | 17.37711 | 115° | 142km/h | 5674m | 7.0m/s | -12.3°C | 6.4% | 0hPa | 2.9V | 00:00:00 | 00:00:00 | 00:00:00 | |
| PETON7-10 | 2026-09-05 23:31:18 | 49.36141 | 17.37612 | 111° | 126km/h | 5662m | 6.4m/s | -12.1°C | 7.3% | 0hPa | 2.9V | 00:00:00 | 00:00:00 | 00:00:00 | |
| OE3MUC-15 | 2026-09-05 23:31:16 | 49.36164 | 17.37521 | 112° | 117km/h | 5652m | 5.5m/s | -12.0°C | 8.0% | 0hPa | 2.9V | 00:00:00 | 00:00:00 | 00:00:00 | |
| OE3OSB-13 | 2026-09-05 23:31:14 | 49.36187 | 17.37439 | 114° | 111km/h | 5641m | 4.5m/s | -12.0°C | 8.6% | -1.0hPa | 2.9V | 00:00:00 | 00:00:00 | 00:00:00 | |
| OM5KV | 2026-09-05 23:31:13 | 49.36186 | 17.37439 | 116° | 113km/h | 5641m | 4.5m/s | -12.0°C | 8.6% | 0hPa | 2.9V | 00:00:00 | 00:00:00 | 00:00:00 | |
| OM5KV | 2026-09-05 23:31:12 | 49.36199 | 17.37399 | 118° | 115km/h | 5637m | 3.8m/s | -12.0°C | 8.8% | 0hPa | 2.9V | 00:00:00 | 00:00:00 | 00:00:00 | |
| OE3MUC-15 | 2026-09-05 23:31:11 | 49.36226 | 17.37319 | 116° | 131km/h | 5625m | 7.0m/s | -11.8°C | 9.5% | 0hPa | 2.9V | 00:00:00 | 00:00:00 | 00:00:00 | |
| OE3MUC-15 | 2026-09-05 23:31:07 | 49.36282 | 17.37128 | 115° | 130km/h | 5596m | 5.6m/s | -11.6°C | 9.9% | 0hPa | 2.9V | 00:00:00 | 00:00:00 | 08:30:00 | |
| OM5KV | 2026-09-05 23:31:06 | 49.36296 | 17.37078 | 115° | 139km/h | 5589m | 7.7m/s | -11.6°C | 9.4% | 0hPa | 2.9V | 00:00:00 | 00:00:00 | 00:00:00 | |
| POL2MAQ | 2026-09-05 23:31:04 | 49.36310 | 17.37031 | 115° | 130km/h | 5582m | 6.3m/s | -11.5°C | 10.0% | 0hPa | 2.9V | 00:00:00 | 00:00:00 | 00:00:00 | |
| PETON7-10 | 2026-09-05 23:31:03 | 49.36336 | 17.36945 | 114° | 128km/h | 5571m | 7.0m/s | -11.4°C | 11.4% | 0hPa | 2.9V | 00:00:00 | 00:56:36 | 00:00:00 | |
| OE3MUC-15 | 2026-09-05 23:31:02 | 49.36347 | 17.36904 | 113° | 126km/h | 5565m | 6.4m/s | -11.4°C | 12.3% | 0hPa | 2.9V | 00:00:00 | 00:00:00 | 00:00:00 | |
| OE3MUC-15 | 2026-09-05 23:30:58 | 49.36395 | 17.36719 | 112° | 141km/h | 5544m | 5.3m/s | -11.2°C | 13.6% | 0hPa | 2.9V | 00:00:00 | 00:00:00 | 00:00:00 | |
| OE3MUC-15 | 2026-09-05 23:30:54 | 49.36453 | 17.36520 | 118° | 122km/h | 5521m | 4.8m/s | -11.1°C | 19.0% | 0hPa | 2.9V | 00:00:00 | 00:00:00 | 00:00:00 | |
| OE3MUC-15 | 2026-09-05 23:30:50 | 49.36505 | 17.36350 | 113° | 128km/h | 5497m | 6.5m/s | -11.1°C | 25.8% | 0hPa | 2.9V | 00:00:00 | 00:00:00 | 00:00:00 | |
| OM5KV | 2026-09-05 23:30:49 | 49.36516 | 17.36306 | 111° | 124km/h | 5492m | 4.4m/s | -11.1°C | 25.3% | 0hPa | 2.9V | 00:00:00 | 00:00:00 | 00:00:00 | |
| PETON7-10 | 2026-09-05 23:30:48 | 49.36527 | 17.36260 | 110° | 131km/h | 5488m | 5.0m/s | -11.1°C | 27.2% | 0hPa | 2.9V | 00:00:00 | 00:00:00 | 00:00:00 | |
| OM5KV | 2026-09-05 23:30:45 | 49.36549 | 17.36160 | 109° | 141km/h | 5478m | 4.9m/s | -11.1°C | 25.8% | 0hPa | 2.9V | 00:00:00 | 00:00:00 | 00:00:00 | |
| OE3OSB-13 | 2026-09-05 23:30:44 | 49.36584 | 17.36014 | 113° | 126km/h | 5460m | 6.6m/s | -10.9°C | 19.9% | -1.0hPa | 2.9V | 00:00:00 | 00:00:00 | 00:00:00 | |
| OM5KV | 2026-09-05 23:30:41 | 49.36597 | 17.35970 | 118° | 122km/h | 5454m | 5.6m/s | -10.9°C | 21.1% | 0hPa | 2.9V | 00:00:00 | 00:00:00 | 00:00:00 | |
| OM5KV | 2026-09-05 23:30:35 | 49.36697 | 17.35715 | 119° | 141km/h | 5417m | 5.0m/s | -10.5°C | 10.1% | 0hPa | 2.9V | 00:00:00 | 00:00:00 | 00:00:00 | |
| OM5KV | 2026-09-05 23:30:34 | 49.36713 | 17.35666 | 117° | 141km/h | 5412m | 5.0m/s | -10.5°C | 9.0% | 0hPa | 2.9V | 00:00:00 | 00:00:00 | 00:00:00 | |
| PETON7-10 | 2026-09-05 23:30:33 | 49.36742 | 17.35565 | 113° | 137km/h | 5401m | 5.1m/s | -10.4°C | 9.8% | 0hPa | 2.9V | 00:00:00 | 00:00:00 | 00:00:00 | |
| OM5KV | 2026-09-05 23:30:30 | 49.36772 | 17.35463 | 116° | 142km/h | 5389m | 5.2m/s | -10.4°C | 10.6% | 0hPa | 2.9V | 00:00:00 | 00:00:00 | 00:00:00 | |
| OM5KV | 2026-09-05 23:30:28 | 49.36805 | 17.35366 | 121° | 141km/h | 5379m | 6.0m/s | -10.3°C | 12.1% | 0hPa | 2.9V | 00:00:00 | 00:00:00 | 00:00:00 | |
| POL2MAQ | 2026-09-05 23:30:24 | 49.36877 | 17.35188 | 122° | 133km/h | 5359m | 5.0m/s | -10.3°C | 14.7% | 0hPa | 2.9V | 00:00:00 | 00:00:00 | 00:00:00 | |
| OM5KV | 2026-09-05 23:30:18 | 49.36968 | 17.34858 | 111° | 111km/h | 5314m | 6.8m/s | -9.9°C | 15.4% | 0hPa | 2.9V | 00:00:00 | 00:00:00 | 00:00:00 | |
| OM5KV | 2026-09-05 23:30:17 | 49.36968 | 17.34858 | 111° | 111km/h | 5314m | 6.8m/s | -9.9°C | 15.4% | 0hPa | 2.9V | 00:00:00 | 00:00:00 | 00:00:00 | |
| OE3OSB-13 | 2026-09-05 23:30:12 | 49.37027 | 17.34623 | 110° | 108km/h | 5279m | 6.0m/s | -9.7°C | 11.0% | -1.0hPa | 2.9V | 00:00:00 | 00:00:00 | 00:00:00 | |
| OM5KV | 2026-09-05 23:30:11 | 49.37027 | 17.34623 | 111° | 110km/h | 5279m | 6.0m/s | -9.7°C | 11.0% | 0hPa | 2.9V | 00:00:00 | 00:00:00 | 00:00:00 | |
| OM5KV | 2026-09-05 23:30:06 | 49.37104 | 17.34350 | 117° | 141km/h | 5242m | 7.2m/s | -9.5°C | 7.8% | 0hPa | 2.9V | 00:00:00 | 00:00:00 | 00:00:00 | |
| POL2MAQ | 2026-09-05 23:30:03 | 49.37134 | 17.34252 | 116° | 139km/h | 5232m | 4.3m/s | -9.4°C | 7.2% | 0hPa | 2.9V | 00:00:00 | 00:00:00 | 00:00:00 | |
| OE3MUC-15 | 2026-09-05 23:30:00 | 49.37191 | 17.34050 | 113° | 142km/h | 5213m | 4.4m/s | -9.2°C | 6.1% | 0hPa | 2.9V | 00:00:00 | 00:00:00 | 00:00:00 | |
| POL1PZ | 2026-09-05 23:29:59 | 49.37191 | 17.34050 | 114° | 142km/h | 5213m | 4.4m/s | 0°C | 0% | 0hPa | 2.9V | 00:00:00 | 00:00:00 | 00:00:00 | |
| OM5KV | 2026-09-05 23:29:58 | 49.37206 | 17.34000 | 115° | 141km/h | 5208m | 4.6m/s | -9.2°C | 5.1% | 0hPa | 2.9V | 00:00:00 | 00:00:00 | 00:00:00 | |
| OE3MUC-15 | 2026-09-05 23:29:56 | 49.37249 | 17.33862 | 117° | 117km/h | 5193m | 5.3m/s | -9.2°C | 4.7% | 0hPa | 2.9V | 00:00:00 | 00:00:00 | 00:00:00 | |
| OE3MUC-15 | 2026-09-05 23:29:51 | 49.37307 | 17.33654 | 108° | 131km/h | 5167m | 5.3m/s | -9.3°C | 4.3% | 0hPa | 2.9V | 00:00:00 | 00:00:00 | 00:00:00 | |
| OM5KV | 2026-09-05 23:29:49 | 49.37317 | 17.33607 | 108° | 131km/h | 5161m | 5.6m/s | -9.3°C | 4.0% | 0hPa | 2.9V | 00:00:00 | 00:00:00 | 00:00:00 | |
| PETON7-10 | 2026-09-05 23:29:48 | 49.37339 | 17.33506 | 112° | 130km/h | 5151m | 5.7m/s | -9.3°C | 4.4% | 0hPa | 2.9V | 00:00:00 | 00:00:00 | 00:00:00 | |
| OE3MUC-15 | 2026-09-05 23:29:47 | 49.37353 | 17.33454 | 114° | 135km/h | 5144m | 6.8m/s | -9.3°C | 4.5% | 0hPa | 2.9V | 00:00:00 | 00:00:00 | 00:00:00 | |
| POL2MAQ | 2026-09-05 23:29:43 | 49.37403 | 17.33311 | 122° | 131km/h | 5128m | 6.3m/s | -9.4°C | 4.6% | 0hPa | 2.9V | 00:00:00 | 00:00:00 | 00:00:00 | |
| OM5KV | 2026-09-05 23:29:42 | 49.37419 | 17.33268 | 121° | 124km/h | 5122m | 5.5m/s | -9.5°C | 4.9% | 0hPa | 2.9V | 00:00:00 | 00:00:00 | 00:00:00 | |
| OM5KV | 2026-09-05 23:29:35 | 49.37499 | 17.32965 | 110° | 137km/h | 5081m | 4.9m/s | -9.4°C | 5.0% | 0hPa | 2.9V | 00:00:00 | 00:00:00 | 00:00:00 | |
| POL1PZ | 2026-09-05 23:29:34 | 49.37511 | 17.32915 | 112° | 139km/h | 5076m | 6.5m/s | 0°C | 0% | 0hPa | 2.9V | 00:00:00 | 00:00:00 | 00:00:00 | |
| PETON7-10 | 2026-09-05 23:29:33 | 49.37540 | 17.32819 | 119° | 124km/h | 5064m | 5.6m/s | -9.3°C | 5.3% | 0hPa | 2.9V | 00:00:00 | 00:55:06 | 00:00:00 | |
| OM5KV | 2026-09-05 23:29:32 | 49.37540 | 17.32819 | 119° | 133km/h | 5064m | 5.7m/s | -9.4°C | 5.0% | 0hPa | 2.9V | 00:00:00 | 00:00:00 | 00:00:00 | |
| OM5KV | 2026-09-05 23:29:30 | 49.37572 | 17.32734 | 123° | 120km/h | 5052m | 6.0m/s | -9.4°C | 5.1% | 0hPa | 2.9V | 00:00:00 | 00:00:00 | 00:00:00 | |
| OM5KV | 2026-09-05 23:29:27 | 49.37615 | 17.32618 | 117° | 110km/h | 5033m | 4.8m/s | -9.5°C | 5.5% | 0hPa | 2.9V | 00:00:00 | 00:00:00 | 00:00:00 | |
| OM5KV | 2026-09-05 23:29:23 | 49.37658 | 17.32453 | 110° | 124km/h | 5012m | 4.6m/s | -9.4°C | 6.2% | 0hPa | 2.9V | 00:00:00 | 00:00:00 | 00:00:00 | |
| POL2MAQ | 2026-09-05 23:29:22 | 49.37667 | 17.32407 | 109° | 128km/h | 5007m | 4.9m/s | -9.4°C | 6.3% | 0hPa | 2.9V | 00:00:00 | 00:00:00 | 00:00:00 | |
| OM5KV | 2026-09-05 23:29:21 | 49.37678 | 17.32359 | 110° | 131km/h | 5003m | 4.9m/s | -9.4°C | 6.4% | 0hPa | 2.9V | 00:00:00 | 00:00:00 | 00:00:00 | |
| OM5KV | 2026-09-05 23:29:20 | 49.37690 | 17.32310 | 112° | 135km/h | 4998m | 4.7m/s | -9.4°C | 6.4% | 0hPa | 2.9V | 00:00:00 | 00:00:00 | 00:00:00 | |
| OE3MUC-15 | 2026-09-05 23:29:18 | 49.37731 | 17.32167 | 118° | 126km/h | 4983m | 5.7m/s | -9.3°C | 6.9% | 0hPa | 2.9V | 00:00:00 | 00:00:00 | 00:00:00 | |
| OM5KV | 2026-09-05 23:29:17 | 49.37731 | 17.32167 | 118° | 133km/h | 4983m | 5.8m/s | -9.3°C | 6.5% | 0hPa | 2.9V | 00:00:00 | 00:00:00 | 00:00:00 | |
| OE3MUC-15 | 2026-09-05 23:29:14 | 49.37793 | 17.31999 | 119° | 119km/h | 4961m | 5.1m/s | -9.2°C | 7.7% | 0hPa | 2.9V | 00:00:00 | 00:00:00 | 00:00:00 | |
| OM5KV | 2026-09-05 23:29:11 | 49.37819 | 17.31917 | 115° | 120km/h | 4950m | 5.6m/s | -9.2°C | 8.4% | 0hPa | 2.9V | 00:00:00 | 00:00:00 | 00:00:00 | |
| OE3MUC-15 | 2026-09-05 23:29:10 | 49.37845 | 17.31830 | 116° | 122km/h | 4938m | 7.3m/s | -9.1°C | 9.0% | 0hPa | 2.9V | 00:00:00 | 00:00:00 | 00:00:00 | |
| OM5KV | 2026-09-05 23:29:08 | 49.37860 | 17.31787 | 119° | 124km/h | 4930m | 8.8m/s | -9.1°C | 8.8% | 0hPa | 2.9V | 00:00:00 | 00:00:00 | 00:00:00 | |
| OM5KV | 2026-09-05 23:29:06 | 49.37910 | 17.31666 | 126° | 124km/h | 4911m | 6.8m/s | -9.0°C | 9.2% | 0hPa | 2.9V | 00:00:00 | 00:00:00 | 00:00:00 | |
| PETON7-10 | 2026-09-05 23:29:03 | 49.37962 | 17.31545 | 121° | 115km/h | 4894m | 6.0m/s | -9.0°C | 12.0% | 0hPa | 2.9V | 00:00:00 | 00:00:00 | 00:00:00 | |
| POL2MAQ | 2026-09-05 23:29:01 | 49.37977 | 17.31502 | 119° | 126km/h | 4889m | 5.5m/s | -9.0°C | 0% | 0hPa | 2.9V | 00:00:00 | 00:00:00 | 00:00:00 | |
| OM5KV | 2026-09-05 23:29:00 | 49.37992 | 17.31459 | 118° | 124km/h | 4883m | 6.3m/s | -9.0°C | 11.0% | 0hPa | 2.9V | 00:00:00 | 00:00:00 | 00:00:00 | |
| OE3MUC-15 | 2026-09-05 23:28:59 | 49.38019 | 17.31378 | 118° | 102km/h | 4869m | 7.2m/s | -8.9°C | 10.7% | 0hPa | 2.9V | 00:00:00 | 00:54:32 | 08:30:00 | |
| OM5KV | 2026-09-05 23:28:58 | 49.38019 | 17.31378 | 118° | 108km/h | 4869m | 7.2m/s | -8.9°C | 10.1% | 0hPa | 2.9V | 00:00:00 | 00:00:00 | 00:00:00 | |
| OM5KV | 2026-09-05 23:28:54 | 49.38064 | 17.31237 | 117° | 102km/h | 4843m | 5.4m/s | -8.8°C | 8.8% | 0hPa | 2.9V | 00:00:00 | 00:00:00 | 00:00:00 | |
| OM5KV | 2026-09-05 23:28:53 | 49.38075 | 17.31201 | 118° | 106km/h | 4837m | 7.7m/s | -8.7°C | 9.1% | 0hPa | 2.9V | 00:00:00 | 00:00:00 | 00:00:00 | |
| PETON7-10 | 2026-09-05 23:28:48 | 49.38165 | 17.30952 | 122° | 128km/h | 4796m | 5.3m/s | -8.4°C | 8.4% | 0hPa | 2.9V | 00:00:00 | 00:54:21 | 00:00:00 | |
| OM5KV | 2026-09-05 23:28:46 | 49.38182 | 17.30912 | 124° | 120km/h | 4791m | 4.4m/s | -8.4°C | 7.9% | 0hPa | 2.9V | 00:00:00 | 00:00:00 | 00:00:00 | |
| OM5KV | 2026-09-05 23:28:41 | 49.38262 | 17.30697 | 117° | 135km/h | 4766m | 6.2m/s | -8.2°C | 6.0% | 0hPa | 2.9V | 00:00:00 | 00:00:00 | 00:00:00 | |
| OM5KV | 2026-09-05 23:28:40 | 49.38289 | 17.30604 | 114° | 128km/h | 4755m | 5.0m/s | -8.1°C | 5.7% | 0hPa | 2.9V | 00:00:00 | 00:00:00 | 00:00:00 | |
| OE3OSB-13 | 2026-09-05 23:28:39 | 49.38301 | 17.30558 | 110° | 128km/h | 4749m | 6.1m/s | -8.0°C | 5.5% | -1.0hPa | 2.9V | 00:00:00 | 00:00:00 | 00:00:00 | |
| OM5KV | 2026-09-05 23:28:35 | 49.38334 | 17.30420 | 112° | 126km/h | 4730m | 5.8m/s | -7.9°C | 4.6% | 0hPa | 2.9V | 00:00:00 | 00:00:00 | 00:00:00 | |
| OM5KV | 2026-09-05 23:28:34 | 49.38347 | 17.30374 | 114° | 128km/h | 4725m | 4.9m/s | -7.9°C | 4.4% | 0hPa | 2.9V | 00:00:00 | 00:00:00 | 00:00:00 | |
| PETON7-10 | 2026-09-05 23:28:33 | 49.38373 | 17.30282 | 116° | 119km/h | 4715m | 5.4m/s | -7.9°C | 4.4% | 0hPa | 2.9V | 00:00:00 | 00:00:00 | 00:00:00 | |
| OM5KV | 2026-09-05 23:28:28 | 49.38430 | 17.30110 | 120° | 111km/h | 4691m | 4.9m/s | -7.8°C | 4.1% | 0hPa | 2.9V | 00:00:00 | 00:00:00 | 00:00:00 | |
| OM5KV | 2026-09-05 23:28:23 | 49.38503 | 17.29936 | 124° | 117km/h | 4659m | 5.3m/s | -7.7°C | 3.9% | 0hPa | 2.9V | 00:00:00 | 00:00:00 | 00:00:00 | |
| OM5KV | 2026-09-05 23:28:22 | 49.38520 | 17.29897 | 124° | 119km/h | 4654m | 6.3m/s | -7.6°C | 3.9% | 0hPa | 2.9V | 00:00:00 | 00:00:00 | 00:00:00 | |
| POL2MAQ | 2026-09-05 23:28:19 | 49.38567 | 17.29774 | 119° | 126km/h | 4639m | 5.2m/s | 0°C | 0% | 0hPa | 2.9V | 00:00:00 | 00:00:00 | 00:00:00 | |
| PETON7-10 | 2026-09-05 23:28:18 | 49.38593 | 17.29687 | 112° | 100km/h | 4629m | 4.5m/s | -7.5°C | 3.7% | 0hPa | 2.9V | 00:00:00 | 00:00:00 | 00:00:00 | |
| OM5KV | 2026-09-05 23:28:17 | 49.38593 | 17.29687 | 113° | 120km/h | 4629m | 4.6m/s | -7.6°C | 3.5% | 0hPa | 2.9V | 00:00:00 | 00:00:00 | 00:00:00 | |
| OM5KV | 2026-09-05 23:28:16 | 49.38603 | 17.29644 | 110° | 115km/h | 4624m | 4.5m/s | -7.6°C | 3.5% | 0hPa | 2.9V | 00:00:00 | 00:00:00 | 00:00:00 | |
| OM5KV | 2026-09-05 23:28:10 | 49.38656 | 17.29422 | 115° | 91km/h | 4588m | 7.3m/s | -7.3°C | 3.3% | 0hPa | 2.9V | 00:00:00 | 00:00:00 | 00:00:00 | |
| OE3OSB-13 | 2026-09-05 23:28:08 | 49.38683 | 17.29321 | 108° | 95km/h | 4569m | 4.1m/s | -7.2°C | 3.2% | -1.0hPa | 2.9V | 00:00:00 | 00:00:00 | 00:00:00 | |
| OM5KV | 2026-09-05 23:28:05 | 49.38697 | 17.29248 | 107° | 100km/h | 4561m | 4.4m/s | -7.1°C | 3.1% | 0hPa | 2.9V | 00:00:00 | 00:00:00 | 00:00:00 | |
| OM5KV | 2026-09-05 23:28:04 | 49.38704 | 17.29210 | 108° | 100km/h | 4556m | 5.1m/s | -7.1°C | 3.1% | 0hPa | 2.9V | 00:00:00 | 00:00:00 | 00:00:00 | |
| PETON7-10 | 2026-09-05 23:28:03 | 49.38722 | 17.29138 | 115° | 113km/h | 4545m | 4.8m/s | -7.1°C | 3.7% | 0hPa | 2.9V | 00:00:00 | 00:53:36 | 00:00:00 | |
| OM5KV | 2026-09-05 23:28:00 | 49.38746 | 17.29064 | 120° | 111km/h | 4535m | 7.7m/s | -7.2°C | 3.8% | 0hPa | 2.9V | 00:00:00 | 00:00:00 | 00:00:00 | |
| OM5KV | 2026-09-05 23:27:59 | 49.38760 | 17.29025 | 120° | 115km/h | 4527m | 7.0m/s | -7.2°C | 3.9% | 0hPa | 2.9V | 00:00:00 | 00:00:00 | 00:00:00 | |
| OM5KV | 2026-09-05 23:27:52 | 49.38860 | 17.28743 | 121° | 113km/h | 4491m | 6.1m/s | -7.2°C | 3.8% | 0hPa | 2.9V | 00:00:00 | 00:00:00 | 00:00:00 | |
| OE3JTB-15 | 2026-09-05 23:27:49 | 49.38917 | 17.28600 | 122° | 104km/h | 4467m | 6.6m/s | -7.2°C | 4.4% | 0hPa | 2.9V | 00:00:00 | 00:53:22 | 00:00:00 | |
| PETON7-10 | 2026-09-05 23:27:48 | 49.38931 | 17.28562 | 118° | 104km/h | 4461m | 4.8m/s | -7.2°C | 4.3% | 0hPa | 2.9V | 00:00:00 | 00:00:00 | 08:30:00 | |
| OM5KV | 2026-09-05 23:27:42 | 49.38981 | 17.28366 | 112° | 97km/h | 4431m | 5.7m/s | -7.1°C | 3.9% | 0hPa | 2.9V | 00:00:00 | 00:00:00 | 00:00:00 | |
| OE3OSB-13 | 2026-09-05 23:27:37 | 49.39055 | 17.28177 | 122° | 106km/h | 4396m | 5.2m/s | -6.7°C | 3.9% | -1.0hPa | 2.9V | 00:00:00 | 00:00:00 | 00:00:00 | |
| PETON7-10 | 2026-09-05 23:27:33 | 49.39106 | 17.28020 | 113° | 104km/h | 4375m | 5.0m/s | -6.5°C | 4.1% | 0hPa | 2.9V | 00:00:00 | 00:00:00 | 00:00:00 | |
| OM5KV | 2026-09-05 23:27:32 | 49.39106 | 17.28020 | 113° | 119km/h | 4375m | 5.1m/s | -6.5°C | 3.9% | 0hPa | 2.9V | 00:00:00 | 00:00:00 | 00:00:00 | |
| OM5KV | 2026-09-05 23:27:31 | 49.39117 | 17.27978 | 114° | 117km/h | 4370m | 4.5m/s | -6.5°C | 3.9% | 0hPa | 2.9V | 00:00:00 | 00:00:00 | 00:00:00 | |
| OM5KV | 2026-09-05 23:27:30 | 49.39129 | 17.27937 | 116° | 115km/h | 4366m | 4.8m/s | -6.5°C | 3.9% | 0hPa | 2.9V | 00:00:00 | 00:00:00 | 00:00:00 | |
| OM5KV | 2026-09-05 23:27:24 | 49.39207 | 17.27733 | 121° | 89km/h | 4330m | 4.7m/s | -6.2°C | 4.0% | 0hPa | 2.9V | 00:00:00 | 00:00:00 | 00:00:00 | |
| OM5KV | 2026-09-05 23:27:21 | 49.39244 | 17.27639 | 122° | 102km/h | 4313m | 5.3m/s | -6.0°C | 3.9% | 0hPa | 2.9V | 00:00:00 | 00:00:00 | 00:00:00 | |
| OM5KV | 2026-09-05 23:27:20 | 49.39273 | 17.27566 | 121° | 115km/h | 4300m | 7.4m/s | -5.9°C | 3.9% | 0hPa | 2.9V | 00:00:00 | 00:00:00 | 00:00:00 | |
| PETON7-10 | 2026-09-05 23:27:18 | 49.39298 | 17.27487 | 112° | 104km/h | 4288m | 4.6m/s | -5.8°C | 4.1% | 0hPa | 2.9V | 00:00:00 | 00:52:51 | 00:00:00 | |
| OE3MUC-15 | 2026-09-05 23:27:16 | 49.39315 | 17.27407 | 106° | 99km/h | 4278m | 5.4m/s | -5.8°C | 4.1% | 0hPa | 2.9V | 00:00:00 | 00:00:00 | 00:00:00 | |
| OE3MUC-15 | 2026-09-05 23:27:12 | 49.39343 | 17.27262 | 113° | 106km/h | 4257m | 5.2m/s | -5.8°C | 4.1% | 0hPa | 2.9V | 00:00:00 | 00:00:00 | 00:00:00 | |
| OE3MUC-15 | 2026-09-05 23:27:08 | 49.39389 | 17.27110 | 115° | 104km/h | 4234m | 8.2m/s | -5.6°C | 4.2% | 0hPa | 2.9V | 00:00:00 | 00:00:00 | 00:00:00 | |
| OE3OSB-13 | 2026-09-05 23:27:06 | 49.39420 | 17.26998 | 114° | 95km/h | 4213m | 6.6m/s | -5.6°C | 4.7% | -1.0hPa | 2.9V | 00:00:00 | 00:00:00 | 00:00:00 | |
| OE3MUC-15 | 2026-09-05 23:27:04 | 49.39430 | 17.26965 | 117° | 93km/h | 4206m | 8.2m/s | -5.5°C | 5.1% | 0hPa | 2.9V | 00:00:00 | 00:00:00 | 00:00:00 | |
| PETON7-10 | 2026-09-05 23:27:03 | 49.39440 | 17.26934 | 120° | 100km/h | 4198m | 7.8m/s | -5.5°C | 5.0% | 0hPa | 2.9V | 00:00:00 | 00:00:00 | 00:00:00 | |
| OE3MUC-15 | 2026-09-05 23:27:00 | 49.39473 | 17.26839 | 115° | 88km/h | 4178m | 4.7m/s | -5.6°C | 5.3% | 0hPa | 2.9V | 00:00:00 | 00:00:00 | 00:00:00 | |
| OM5KV | 2026-09-05 23:26:59 | 49.39473 | 17.26839 | 115° | 89km/h | 4178m | 4.7m/s | -5.7°C | 5.0% | 0hPa | 2.9V | 00:00:00 | 00:00:00 | 00:00:00 | |
| OE3MUC-15 | 2026-09-05 23:26:56 | 49.39508 | 17.26715 | 117° | 91km/h | 4155m | 4.1m/s | -5.5°C | 5.3% | 0hPa | 2.9V | 00:00:00 | 00:00:00 | 00:00:00 | |
| OE3MUC-15 | 2026-09-05 23:26:52 | 49.39554 | 17.26577 | 115° | 99km/h | 4138m | 4.6m/s | -5.4°C | 6.2% | 0hPa | 2.9V | 00:00:00 | 00:00:00 | 08:30:00 | |
| OE3JTB-15 | 2026-09-05 23:26:49 | 49.39582 | 17.26455 | 105° | 102km/h | 4122m | 5.0m/s | -5.4°C | 7.5% | 0hPa | 2.9V | 00:00:00 | 00:00:00 | 00:00:00 | |
| PETON7-10 | 2026-09-05 23:26:48 | 49.39588 | 17.26416 | 104° | 106km/h | 4116m | 6.6m/s | -5.5°C | 8.1% | 0hPa | 2.9V | 00:00:00 | 00:00:00 | 00:00:00 | |
| OE3MUC-15 | 2026-09-05 23:26:45 | 49.39610 | 17.26314 | 114° | 100km/h | 4098m | 5.2m/s | -5.6°C | 10.5% | 0hPa | 2.9V | 00:00:00 | 00:00:00 | 00:00:00 | |
| OE3MUC-15 | 2026-09-05 23:26:41 | 49.39655 | 17.26171 | 115° | 115km/h | 4077m | 6.1m/s | -5.6°C | 12.9% | 0hPa | 2.9V | 00:00:00 | 00:00:00 | 00:00:00 | |
| OM5KV | 2026-09-05 23:26:39 | 49.39666 | 17.26130 | 113° | 115km/h | 4072m | 4.5m/s | -5.7°C | 0% | 0hPa | 2.9V | 00:00:00 | 00:00:00 | 00:00:00 | |
| OM5KV | 2026-09-05 23:26:38 | 49.39677 | 17.26089 | 112° | 115km/h | 4068m | 4.4m/s | -5.7°C | 15.3% | 0hPa | 2.9V | 00:00:00 | 00:00:00 | 00:00:00 | |
| OE3MUC-15 | 2026-09-05 23:26:37 | 49.39697 | 17.26004 | 110° | 113km/h | 4054m | 7.9m/s | -5.8°C | 20.9% | 0hPa | 2.9V | 00:00:00 | 00:00:00 | 00:00:00 | |
| OE3OSB-13 | 2026-09-05 23:26:35 | 49.39724 | 17.25878 | 104° | 102km/h | 4032m | 5.3m/s | -6.3°C | 28.6% | -1.0hPa | 2.9V | 00:00:00 | 00:00:00 | 00:00:00 | |
| PETON7-10 | 2026-09-05 23:26:33 | 49.39730 | 17.25840 | 104° | 95km/h | 4027m | 5.3m/s | -6.3°C | 30.6% | 0hPa | 2.9V | 00:00:00 | 00:52:06 | 00:00:00 | |
| OE3MUC-15 | 2026-09-05 23:26:29 | 49.39763 | 17.25712 | 121° | 99km/h | 4003m | 5.9m/s | -6.2°C | 30.6% | 0hPa | 2.9V | 00:00:00 | 00:00:00 | 00:00:00 | |
| OM5KV | 2026-09-05 23:26:28 | 49.39763 | 17.25712 | 122° | 89km/h | 4003m | 5.9m/s | -6.2°C | 0% | 0hPa | 2.9V | 00:00:00 | 00:00:00 | 00:00:00 | |
| OM5KV | 2026-09-05 23:26:27 | 49.39775 | 17.25682 | 124° | 97km/h | 3998m | 4.5m/s | -6.2°C | 29.7% | 0hPa | 2.9V | 00:00:00 | 00:00:00 | 00:00:00 | |
| OE3MUC-15 | 2026-09-05 23:26:25 | 49.39814 | 17.25578 | 116° | 102km/h | 3983m | 4.5m/s | -6.1°C | 30.8% | 0hPa | 2.9V | 00:00:00 | 00:00:00 | 00:00:00 | |
| OE3MUC-15 | 2026-09-05 23:26:21 | 49.39849 | 17.25434 | 107° | 89km/h | 3963m | 5.0m/s | -5.9°C | 29.8% | 0hPa | 2.9V | 00:00:00 | 00:00:00 | 00:00:00 | |
| OE3JTB-15 | 2026-09-05 23:26:20 | 49.39856 | 17.25401 | 109° | 93km/h | 3958m | 4.2m/s | -5.9°C | 29.8% | 0hPa | 2.9V | 00:00:00 | 00:51:53 | 00:00:00 | |
| PETON7-10 | 2026-09-05 23:26:18 | 49.39871 | 17.25335 | 112° | 97km/h | 3949m | 6.4m/s | -5.8°C | 29.7% | 0hPa | 2.9V | 00:00:00 | 00:00:00 | 00:00:00 | |
| OE3MUC-15 | 2026-09-05 23:26:17 | 49.39880 | 17.25300 | 113° | 106km/h | 3943m | 5.4m/s | -5.8°C | 29.8% | 0hPa | 2.9V | 00:00:00 | 00:00:00 | 00:00:00 | |
| OM5KV | 2026-09-05 23:26:15 | 49.39890 | 17.25263 | 114° | 106km/h | 3937m | 5.6m/s | -5.8°C | 28.4% | 0hPa | 2.9V | 00:00:00 | 00:00:00 | 00:00:00 | |
| OE3MUC-15 | 2026-09-05 23:26:13 | 49.39921 | 17.25148 | 112° | 95km/h | 3918m | 7.6m/s | -5.6°C | 29.1% | 0hPa | 2.9V | 00:00:00 | 00:00:00 | 08:30:00 | |
| OM5KV | 2026-09-05 23:26:10 | 49.39940 | 17.25083 | 118° | 84km/h | 3906m | 5.7m/s | -5.6°C | 29.3% | 0hPa | 2.9V | 00:00:00 | 00:00:00 | 00:00:00 | |
| OE3MUC-15 | 2026-09-05 23:26:09 | 49.39962 | 17.25027 | 124° | 84km/h | 3892m | 6.7m/s | -5.5°C | 30.8% | 0hPa | 2.9V | 00:00:00 | 00:00:00 | 00:00:00 | |
| OM5KV | 2026-09-05 23:26:07 | 49.39974 | 17.24999 | 125° | 89km/h | 3886m | 6.1m/s | -5.5°C | 0% | 0hPa | 2.9V | 00:00:00 | 00:00:00 | 00:00:00 | |
| OE3OSB-13 | 2026-09-05 23:26:04 | 49.40033 | 17.24831 | 113° | 104km/h | 3860m | 7.0m/s | -5.4°C | 31.6% | -1.0hPa | 2.9V | 00:00:00 | 00:00:00 | 00:00:00 | |
| PETON7-10 | 2026-09-05 23:26:03 | 49.40033 | 17.24831 | 114° | 91km/h | 3861m | 7.0m/s | -5.4°C | 32.7% | 0hPa | 2.9V | 00:00:00 | 00:00:00 | 00:00:00 | |
| OM5KV | 2026-09-05 23:26:00 | 49.40056 | 17.24755 | 118° | 108km/h | 3845m | 7.2m/s | -5.3°C | 0% | 0hPa | 2.9V | 00:00:00 | 00:00:00 | 00:00:00 | |
| OE3JTB-15 | 2026-09-05 23:25:51 | 49.40148 | 17.24449 | 108° | 86km/h | 3788m | 4.9m/s | -5.0°C | 38.2% | 0hPa | 2.9V | 00:00:00 | 00:00:00 | 00:00:00 | |
| OE3MUC-15 | 2026-09-05 23:25:49 | 49.40164 | 17.24378 | 113° | 84km/h | 3779m | 4.3m/s | -5.0°C | 38.2% | 0hPa | 2.9V | 00:00:00 | 00:00:00 | 00:00:00 | |
| PETON7-10 | 2026-09-05 23:25:48 | 49.40174 | 17.24344 | 116° | 84km/h | 3775m | 4.8m/s | -4.9°C | 38.5% | 0hPa | 2.9V | 00:00:00 | 00:51:21 | 00:00:00 | |
| OM5KV | 2026-09-05 23:25:46 | 49.40197 | 17.24280 | 123° | 89km/h | 3765m | 5.3m/s | -4.9°C | 37.2% | 0hPa | 2.9V | 00:00:00 | 00:00:00 | 00:00:00 | |
| OM5KV | 2026-09-05 23:25:44 | 49.40209 | 17.24251 | 125° | 86km/h | 3759m | 4.7m/s | -4.8°C | 37.2% | 0hPa | 2.9V | 00:00:00 | 00:00:00 | 00:00:00 | |
| OM5KV | 2026-09-05 23:25:38 | 49.40260 | 17.24100 | 107° | 77km/h | 3732m | 4.5m/s | -4.6°C | 36.6% | 0hPa | 2.9V | 00:00:00 | 00:00:00 | 00:00:00 | |
| OM5KV | 2026-09-05 23:25:37 | 49.40266 | 17.24071 | 105° | 84km/h | 3728m | 5.0m/s | -4.6°C | 0% | 0hPa | 2.9V | 00:00:00 | 00:00:00 | 00:00:00 | |
| PETON7-10 | 2026-09-05 23:25:33 | 49.40307 | 17.23905 | 120° | 82km/h | 3704m | 4.8m/s | -4.3°C | 37.7% | 0hPa | 2.9V | 00:00:00 | 00:00:00 | 08:30:00 | |
| POL2MAQ | 2026-09-05 23:25:32 | 49.40307 | 17.23905 | 120° | 89km/h | 3704m | 4.8m/s | 0°C | 0% | 0hPa | 2.9V | 00:00:00 | 00:00:00 | 00:00:00 | |
| OM5KV | 2026-09-05 23:25:26 | 49.40366 | 17.23756 | 121° | 68km/h | 3675m | 4.5m/s | -4.1°C | 36.6% | 0hPa | 2.9V | 00:00:00 | 00:00:00 | 00:00:00 | |
| OE3JTB-15 | 2026-09-05 23:25:22 | 49.40419 | 17.23630 | 121° | 80km/h | 3652m | 3.8m/s | -3.9°C | 38.0% | 0hPa | 2.9V | 00:00:00 | 00:00:00 | 00:00:00 | |
| OM5KV | 2026-09-05 23:25:21 | 49.40419 | 17.23630 | 121° | 91km/h | 3652m | 3.8m/s | -3.9°C | 0% | 0hPa | 2.9V | 00:00:00 | 00:00:00 | 00:00:00 | |
| OM5KV | 2026-09-05 23:25:20 | 49.40430 | 17.23598 | 118° | 99km/h | 3647m | 5.4m/s | -3.9°C | 0% | 0hPa | 2.9V | 00:00:00 | 00:00:00 | 00:00:00 | |
| OM5KV | 2026-09-05 23:25:15 | 49.40484 | 17.23392 | 107° | 84km/h | 3616m | 6.0m/s | -3.6°C | 0% | 0hPa | 2.9V | 00:00:00 | 00:00:00 | 00:00:00 | |
| OE3MUC-15 | 2026-09-05 23:25:14 | 49.40490 | 17.23362 | 107° | 71km/h | 3611m | 5.0m/s | -3.5°C | 37.4% | 0hPa | 2.9V | 00:00:00 | 00:00:00 | 00:00:00 | |
| OE3MUC-15 | 2026-09-05 23:25:10 | 49.40517 | 17.23261 | 121° | 69km/h | 3587m | 4.1m/s | -3.3°C | 37.1% | 0hPa | 2.9V | 00:00:00 | 00:00:00 | 00:00:00 | |
| OM5KV | 2026-09-05 23:25:09 | 49.40517 | 17.23261 | 121° | 69km/h | 3587m | 4.1m/s | -3.4°C | 0% | 0hPa | 2.9V | 00:00:00 | 00:00:00 | 00:00:00 | |
| OM5KV | 2026-09-05 23:25:08 | 49.40526 | 17.23238 | 121° | 68km/h | 3583m | 5.0m/s | -3.3°C | 0% | 0hPa | 2.9V | 00:00:00 | 00:00:00 | 00:00:00 | |
| OE3MUC-15 | 2026-09-05 23:25:06 | 49.40549 | 17.23166 | 111° | 78km/h | 3568m | 4.3m/s | 0°C | 0% | 0hPa | 2.9V | 00:00:00 | 00:00:00 | 00:00:00 | |
| OM5KV | 2026-09-05 23:25:04 | 49.40555 | 17.23139 | 107° | 77km/h | 3563m | 4.4m/s | -3.2°C | 0% | 0hPa | 2.9V | 00:00:00 | 00:00:00 | 00:00:00 | |
| PETON7-10 | 2026-09-05 23:25:03 | 49.40566 | 17.23077 | 106° | 84km/h | 3552m | 6.6m/s | -3.0°C | 37.0% | 0hPa | 2.9V | 00:00:00 | 00:50:36 | 00:00:00 | |
| OE3OSB-13 | 2026-09-05 23:25:02 | 49.40582 | 17.23010 | 114° | 93km/h | 3542m | 3.9m/s | -3.0°C | 36.1% | -1.0hPa | 2.9V | 00:00:00 | 00:00:00 | 00:00:00 | |
| OM5KV | 2026-09-05 23:25:01 | 49.40573 | 17.23044 | 111° | 93km/h | 3547m | 4.5m/s | -3.1°C | 0% | 0hPa | 2.9V | 00:00:00 | 00:00:00 | 00:00:00 | |
| OE3MUC-15 | 2026-09-05 23:24:58 | 49.40616 | 17.22920 | 124° | 77km/h | 3527m | 4.4m/s | 0°C | 0% | 0hPa | 2.9V | 00:00:00 | 00:00:00 | 00:00:00 | |
| OM5KV | 2026-09-05 23:24:56 | 49.40627 | 17.22894 | 125° | 77km/h | 3523m | 5.3m/s | -2.9°C | 0% | 0hPa | 2.9V | 00:00:00 | 00:00:00 | 00:00:00 | |
| OE3MUC-15 | 2026-09-05 23:24:54 | 49.40652 | 17.22818 | 110° | 80km/h | 3508m | 4.5m/s | 0°C | 0% | 0hPa | 2.9V | 00:00:00 | 00:00:00 | 00:00:00 | |
| OE3JTB-15 | 2026-09-05 23:24:53 | 49.40658 | 17.22790 | 108° | 89km/h | 3502m | 6.7m/s | -2.6°C | 36.7% | 0hPa | 2.9V | 00:00:00 | 00:50:26 | 00:00:00 | |
| OM5KV | 2026-09-05 23:24:52 | 49.40658 | 17.22790 | 108° | 78km/h | 3502m | 6.7m/s | -2.7°C | 0% | 0hPa | 2.9V | 00:00:00 | 00:00:00 | 00:00:00 | |
| OE3MUC-15 | 2026-09-05 23:24:50 | 49.40681 | 17.22698 | 115° | 89km/h | 3480m | 5.9m/s | 0°C | 0% | 0hPa | 2.9V | 00:00:00 | 00:00:00 | 00:00:00 | |
| PETON7-10 | 2026-09-05 23:24:48 | 49.40701 | 17.22634 | 116° | 91km/h | 3468m | 7.9m/s | -2.3°C | 36.6% | 0hPa | 2.9V | 00:00:00 | 00:00:00 | 00:00:00 | |
| OE3MUC-15 | 2026-09-05 23:24:46 | 49.40720 | 17.22576 | 118° | 80km/h | 3455m | 4.6m/s | 0°C | 0% | 0hPa | 2.9V | 00:00:00 | 00:00:00 | 08:30:00 | |
| OM5KV | 2026-09-05 23:24:45 | 49.40720 | 17.22576 | 119° | 78km/h | 3455m | 4.7m/s | -2.3°C | 0% | 0hPa | 2.9V | 00:00:00 | 00:00:00 | 00:00:00 | |
| POL2MAQ | 2026-09-05 23:24:44 | 49.40729 | 17.22550 | 121° | 78km/h | 3449m | 7.8m/s | 0°C | 0% | 0hPa | 2.9V | 00:00:00 | 00:00:00 | 00:00:00 | |
| OE3MUC-15 | 2026-09-05 23:24:42 | 49.40763 | 17.22465 | 120° | 99km/h | 3428m | 4.6m/s | 0°C | 0% | 0hPa | 2.9V | 00:00:00 | 00:00:00 | 00:00:00 | |
| OM5KV | 2026-09-05 23:24:41 | 49.40763 | 17.22466 | 121° | 93km/h | 3428m | 4.6m/s | 0°C | 0% | 0hPa | 2.9V | 00:00:00 | 00:00:00 | 00:00:00 | |
| OM5KV | 2026-09-05 23:24:39 | 49.40786 | 17.22398 | 117° | 100km/h | 3419m | 4.9m/s | 0°C | 0% | 0hPa | 2.9V | 00:00:00 | 00:00:00 | 00:00:00 | |
| OE3MUC-15 | 2026-09-05 23:24:38 | 49.40807 | 17.22328 | 115° | 97km/h | 3409m | 5.6m/s | 0°C | 0% | 0hPa | 2.9V | 00:00:00 | 00:00:00 | 00:00:00 | |
| OM5KV | 2026-09-05 23:24:35 | 49.40828 | 17.22259 | 116° | 95km/h | 3399m | 3.3m/s | 0°C | 0% | 0hPa | 2.9V | 00:00:00 | 00:00:00 | 00:00:00 | |
| OE3MUC-15 | 2026-09-05 23:24:34 | 49.40849 | 17.22192 | 114° | 95km/h | 3389m | 8.1m/s | 0°C | 0% | 0hPa | 2.9V | 00:00:00 | 00:00:00 | 00:00:00 | |
| PETON7-10 | 2026-09-05 23:24:33 | 49.40858 | 17.22157 | 112° | 78km/h | 3381m | 7.9m/s | -1.6°C | 36.3% | 0hPa | 2.9V | 00:00:00 | 00:00:00 | 00:00:00 | |
| OE3MUC-15 | 2026-09-05 23:24:30 | 49.40882 | 17.22056 | 112° | 78km/h | 3360m | 5.1m/s | 0°C | 0% | 0hPa | 2.9V | 00:00:00 | 00:00:00 | 00:00:00 | |
| OM5KV | 2026-09-05 23:24:29 | 49.40882 | 17.22056 | 112° | 82km/h | 3360m | 5.2m/s | 0°C | 0% | 0hPa | 2.9V | 00:00:00 | 00:00:00 | 00:00:00 | |
| OE3MUC-15 | 2026-09-05 23:24:26 | 49.40917 | 17.21948 | 122° | 80km/h | 3332m | 7.7m/s | 0°C | 0% | 0hPa | 2.9V | 00:00:00 | 00:00:00 | 00:00:00 | |
| OE3JTB-15 | 2026-09-05 23:24:24 | 49.40939 | 17.21895 | 123° | 80km/h | 3320m | 5.2m/s | -1.2°C | 36.4% | 0hPa | 2.9V | 00:00:00 | 00:00:00 | 08:30:00 | |
| OM5KV | 2026-09-05 23:24:23 | 49.40939 | 17.21895 | 123° | 80km/h | 3320m | 5.3m/s | 0°C | 0% | 0hPa | 3.0V | 00:00:00 | 00:00:00 | 00:00:00 | |
| OE3MUC-15 | 2026-09-05 23:24:22 | 49.40958 | 17.21843 | 118° | 68km/h | 3307m | 5.1m/s | 0°C | 0% | 0hPa | 3.0V | 00:00:00 | 00:00:00 | 00:00:00 | |
| OE3MUC-15 | 2026-09-05 23:24:18 | 49.40986 | 17.21746 | 112° | 84km/h | 3284m | 5.6m/s | 0°C | 0% | 0hPa | 3.0V | 00:00:00 | 00:00:00 | 00:00:00 | |
| OM5KV | 2026-09-05 23:24:17 | 49.40986 | 17.21746 | 112° | 75km/h | 3284m | 5.6m/s | 0°C | 0% | 0hPa | 3.0V | 00:00:00 | 00:00:00 | 00:00:00 | |
| OE3MUC-15 | 2026-09-05 23:24:14 | 49.41018 | 17.21620 | 115° | 89km/h | 3260m | 6.2m/s | 0°C | 0% | 0hPa | 3.0V | 00:00:00 | 00:49:47 | 00:00:00 | |
| OE3MUC-15 | 2026-09-05 23:24:10 | 49.41058 | 17.21501 | 116° | 77km/h | 3237m | 4.8m/s | 0°C | 0% | 0hPa | 3.0V | 00:00:00 | 00:00:00 | 00:00:00 | |
| PETON7-10 | 2026-09-05 23:24:03 | 49.41109 | 17.21285 | 114° | 84km/h | 3201m | 5.3m/s | -1.1°C | 35.4% | 0hPa | 3.0V | 00:00:00 | 00:00:00 | 00:00:00 | |
| OE3JTB-15 | 2026-09-05 23:23:55 | 49.41193 | 17.21051 | 109° | 71km/h | 3151m | 5.2m/s | -3.4°C | 73.8% | 0hPa | 2.9V | 00:00:00 | 00:00:00 | 00:00:00 | |
| PETON7-10 | 2026-09-05 23:23:48 | 49.41242 | 17.20857 | 122° | 66km/h | 3117m | 5.0m/s | -4.1°C | 85.5% | 0hPa | 2.9V | 00:00:00 | 00:00:00 | 00:00:00 | |
| PETON7-10 | 2026-09-05 23:23:33 | 49.41338 | 17.20510 | 127° | 66km/h | 3031m | 5.0m/s | -3.7°C | 91.5% | 0hPa | 2.9V | 00:00:00 | 00:49:06 | 00:00:00 | |
| OE3JTB-15 | 2026-09-05 23:23:26 | 49.41405 | 17.20380 | 125° | 60km/h | 2994m | 6.0m/s | -3.5°C | 92.8% | 0hPa | 2.9V | 00:00:00 | 00:48:59 | 00:00:00 | |
| PETON7-10 | 2026-09-05 23:23:18 | 49.41484 | 17.20194 | 118° | 60km/h | 2947m | 7.4m/s | -3.1°C | 92.0% | 0hPa | 2.9V | 00:00:00 | 00:00:00 | 08:30:00 | |
| OM5KV | 2026-09-05 23:23:15 | 49.41497 | 17.20145 | 110° | 62km/h | 2932m | 7.2m/s | 0°C | 0% | 0hPa | 2.9V | 00:00:00 | 00:00:00 | 00:00:00 | |
| OM5KV | 2026-09-05 23:23:07 | 49.41535 | 17.19980 | 121° | 68km/h | 2886m | 6.1m/s | 0°C | 0% | 0hPa | 2.9V | 00:00:00 | 00:00:00 | 00:00:00 | |
| PETON7-10 | 2026-09-05 23:23:03 | 49.41576 | 17.19878 | 113° | 62km/h | 2855m | 4.6m/s | -2.3°C | 90.3% | 0hPa | 2.9V | 00:00:00 | 00:00:00 | 00:00:00 | |
| OE3JTB-15 | 2026-09-05 23:22:51 | 49.41678 | 17.19629 | 136° | 49km/h | 2788m | 4.5m/s | -1.7°C | 89.0% | 0hPa | 2.9V | 00:00:00 | 00:00:00 | 00:00:00 | |
| PETON7-10 | 2026-09-05 23:22:48 | 49.41702 | 17.19586 | 124° | 49km/h | 2775m | 4.5m/s | -1.6°C | 88.7% | 0hPa | 2.9V | 00:00:00 | 00:48:21 | 00:00:00 | |
| PETON7-10 | 2026-09-05 23:22:33 | 49.41777 | 17.19326 | 117° | 58km/h | 2692m | 7.3m/s | -0.9°C | 86.3% | 0hPa | 2.9V | 00:00:00 | 00:00:00 | 00:00:00 | |
| PETON7-10 | 2026-09-05 23:22:18 | 49.41897 | 17.19041 | 119° | 51km/h | 2610m | 7.0m/s | -0.2°C | 80.9% | 0hPa | 3.0V | 00:00:00 | 00:00:00 | 00:00:00 | |
| PETON7-10 | 2026-09-05 23:21:48 | 49.42051 | 17.18503 | 111° | 47km/h | 2440m | 5.7m/s | 0°C | 0% | 0hPa | 3.0V | 00:00:00 | 00:00:00 | 00:00:00 | |
| PETON7-10 | 2026-09-05 23:21:33 | 49.42119 | 17.18248 | 118° | 47km/h | 2349m | 5.2m/s | 0°C | 0% | 0hPa | 3.0V | 00:00:00 | 00:00:00 | 00:00:00 | |
| OE3JTB-15 | 2026-09-05 23:21:24 | 49.42149 | 17.18097 | 109° | 51km/h | 2299m | 4.9m/s | 2.5°C | 73.0% | 0hPa | 3.0V | 00:00:00 | 00:00:00 | 00:00:00 | |
| PETON7-10 | 2026-09-05 23:21:18 | 49.42180 | 17.17990 | 129° | 58km/h | 2268m | 5.0m/s | 0°C | 0% | 0hPa | 3.0V | 00:00:00 | 00:46:51 | 00:00:00 | |
| PETON7-10 | 2026-09-05 23:21:00 | 49.42304 | 17.17693 | 129° | 57km/h | 2171m | 4.4m/s | 0°C | 0% | 0hPa | 3.0V | 00:00:00 | 00:00:00 | 00:00:00 | |
| OE3JTB-15 | 2026-09-05 23:20:47 | 49.42399 | 17.17461 | 126° | 53km/h | 2098m | 4.7m/s | 4.2°C | 63.8% | 0hPa | 3.0V | 00:00:00 | 00:46:20 | 00:00:00 | |
| OE3JTB-15 | 2026-09-05 23:20:18 | 49.42659 | 17.17018 | 126° | 55km/h | 1949m | 7.1m/s | 5.1°C | 75.4% | 0hPa | 3.0V | 00:00:00 | 00:00:00 | 00:00:00 | |
| OE3JTB-15 | 2026-09-05 23:19:49 | 49.42912 | 17.16549 | 131° | 60km/h | 1795m | 3.9m/s | 5.8°C | 82.8% | 0hPa | 0V | 00:00:00 | 00:00:00 | 00:00:00 |